<?xml version="1.0" encoding="UTF-8"?>
<gpx version="1.1" creator="Runtastic: Life is short - live long, http://www.runtastic.com" xsi:schemaLocation="http://www.topografix.com/GPX/1/1
                                http://www.topografix.com/GPX/1/1/gpx.xsd
                                http://www.garmin.com/xmlschemas/GpxExtensions/v3
                                http://www.garmin.com/xmlschemas/GpxExtensionsv3.xsd
                                http://www.garmin.com/xmlschemas/TrackPointExtension/v1
                                http://www.garmin.com/xmlschemas/TrackPointExtensionv1.xsd" xmlns="http://www.topografix.com/GPX/1/1" xmlns:gpxtpx="http://www.garmin.com/xmlschemas/TrackPointExtension/v1" xmlns:gpxx="http://www.garmin.com/xmlschemas/GpxExtensions/v3" xmlns:xsi="http://www.w3.org/2001/XMLSchema-instance">
  <metadata>
    <copyright author="www.runtastic.com">
      <year>2016</year>
      <license>http://www.runtastic.com</license>
    </copyright>
    <link href="http://www.runtastic.com">
      <text>runtastic</text>
    </link>
    <time>2016-05-08T07:20:06.000Z</time>
  </metadata>
  <trk>
    <link href="http://www.runtastic.com/sport-sessions/1234565680">
      <text>Cliquez sur ce lien pour voir cette activité sur Runtastic.com</text>
    </link>
    <trkseg>
      <trkpt lon="2.5049517154693604" lat="49.0875358581542969">
        <ele>157.0</ele>
        <time>2016-05-08T07:20:07.000Z</time>
      </trkpt>
      <trkpt lon="2.5051636695861816" lat="49.0875167846679688">
        <ele>167.0</ele>
        <time>2016-05-08T07:23:12.000Z</time>
      </trkpt>
      <trkpt lon="2.5053215026855469" lat="49.0874099731445312">
        <ele>163.0</ele>
        <time>2016-05-08T07:23:16.000Z</time>
      </trkpt>
      <trkpt lon="2.5053215026855469" lat="49.0874099731445312">
        <ele>163.0</ele>
        <time>2016-05-08T07:23:18.000Z</time>
      </trkpt>
      <trkpt lon="2.5055153369903564" lat="49.0873031616210938">
        <ele>160.0</ele>
        <time>2016-05-08T07:23:20.000Z</time>
      </trkpt>
      <trkpt lon="2.5055153369903564" lat="49.0873031616210938">
        <ele>160.0</ele>
        <time>2016-05-08T07:23:22.000Z</time>
      </trkpt>
      <trkpt lon="2.5055153369903564" lat="49.0873031616210938">
        <ele>160.0</ele>
        <time>2016-05-08T07:23:24.000Z</time>
      </trkpt>
      <trkpt lon="2.5055153369903564" lat="49.0873031616210938">
        <ele>160.0</ele>
        <time>2016-05-08T07:23:26.000Z</time>
      </trkpt>
      <trkpt lon="2.5055153369903564" lat="49.0873031616210938">
        <ele>160.0</ele>
        <time>2016-05-08T07:23:28.000Z</time>
      </trkpt>
      <trkpt lon="2.5055153369903564" lat="49.0873031616210938">
        <ele>160.0</ele>
        <time>2016-05-08T07:23:30.000Z</time>
      </trkpt>
      <trkpt lon="2.5056390762329102" lat="49.0872764587402344">
        <ele>158.0</ele>
        <time>2016-05-08T07:24:17.000Z</time>
      </trkpt>
      <trkpt lon="2.5056390762329102" lat="49.0872764587402344">
        <ele>158.0</ele>
        <time>2016-05-08T07:24:19.000Z</time>
      </trkpt>
      <trkpt lon="2.5056390762329102" lat="49.0872764587402344">
        <ele>158.0</ele>
        <time>2016-05-08T07:24:21.000Z</time>
      </trkpt>
      <trkpt lon="2.5055141448974609" lat="49.0873222351074219">
        <ele>164.0</ele>
        <time>2016-05-08T07:24:29.000Z</time>
      </trkpt>
      <trkpt lon="2.5055141448974609" lat="49.0873222351074219">
        <ele>164.0</ele>
        <time>2016-05-08T07:24:31.000Z</time>
      </trkpt>
      <trkpt lon="2.5053732395172119" lat="49.0873870849609375">
        <ele>167.0</ele>
        <time>2016-05-08T07:24:33.000Z</time>
      </trkpt>
      <trkpt lon="2.5052762031555176" lat="49.0874519348144531">
        <ele>162.0</ele>
        <time>2016-05-08T07:24:35.000Z</time>
      </trkpt>
      <trkpt lon="2.5052289962768555" lat="49.0875701904296875">
        <ele>164.0</ele>
        <time>2016-05-08T07:24:39.000Z</time>
      </trkpt>
      <trkpt lon="2.5051653385162354" lat="49.0876655578613281">
        <ele>162.0</ele>
        <time>2016-05-08T07:24:43.000Z</time>
      </trkpt>
      <trkpt lon="2.5051653385162354" lat="49.0876655578613281">
        <ele>162.0</ele>
        <time>2016-05-08T07:24:45.000Z</time>
      </trkpt>
      <trkpt lon="2.5051653385162354" lat="49.0876655578613281">
        <ele>162.0</ele>
        <time>2016-05-08T07:24:47.000Z</time>
      </trkpt>
      <trkpt lon="2.5051653385162354" lat="49.0876655578613281">
        <ele>162.0</ele>
        <time>2016-05-08T07:24:49.000Z</time>
      </trkpt>
      <trkpt lon="2.5050113201141357" lat="49.0878295898437500">
        <ele>158.0</ele>
        <time>2016-05-08T07:24:53.000Z</time>
      </trkpt>
      <trkpt lon="2.5050113201141357" lat="49.0878295898437500">
        <ele>158.0</ele>
        <time>2016-05-08T07:24:57.000Z</time>
      </trkpt>
      <trkpt lon="2.5048172473907471" lat="49.0877952575683594">
        <ele>157.0</ele>
        <time>2016-05-08T07:24:59.000Z</time>
      </trkpt>
      <trkpt lon="2.5048172473907471" lat="49.0877952575683594">
        <ele>157.0</ele>
        <time>2016-05-08T07:25:01.000Z</time>
      </trkpt>
      <trkpt lon="2.5048172473907471" lat="49.0877952575683594">
        <ele>157.0</ele>
        <time>2016-05-08T07:25:03.000Z</time>
      </trkpt>
      <trkpt lon="2.5048172473907471" lat="49.0877952575683594">
        <ele>157.0</ele>
        <time>2016-05-08T07:25:05.000Z</time>
      </trkpt>
      <trkpt lon="2.5048172473907471" lat="49.0877952575683594">
        <ele>157.0</ele>
        <time>2016-05-08T07:25:07.000Z</time>
      </trkpt>
      <trkpt lon="2.5046982765197754" lat="49.0877113342285156">
        <ele>158.0</ele>
        <time>2016-05-08T07:25:11.000Z</time>
      </trkpt>
      <trkpt lon="2.5045270919799805" lat="49.0876502990722656">
        <ele>160.0</ele>
        <time>2016-05-08T07:25:19.000Z</time>
      </trkpt>
      <trkpt lon="2.5045270919799805" lat="49.0876502990722656">
        <ele>160.0</ele>
        <time>2016-05-08T07:25:25.000Z</time>
      </trkpt>
      <trkpt lon="2.5045270919799805" lat="49.0876502990722656">
        <ele>160.0</ele>
        <time>2016-05-08T07:25:27.000Z</time>
      </trkpt>
      <trkpt lon="2.5042674541473389" lat="49.0875778198242188">
        <ele>157.0</ele>
        <time>2016-05-08T07:25:31.000Z</time>
      </trkpt>
      <trkpt lon="2.5040550231933594" lat="49.0875396728515625">
        <ele>164.0</ele>
        <time>2016-05-08T07:25:37.000Z</time>
      </trkpt>
      <trkpt lon="2.5039653778076172" lat="49.0875167846679688">
        <ele>157.0</ele>
        <time>2016-05-08T07:25:41.000Z</time>
      </trkpt>
      <trkpt lon="2.5038928985595703" lat="49.0875015258789062">
        <ele>157.0</ele>
        <time>2016-05-08T07:25:43.000Z</time>
      </trkpt>
      <trkpt lon="2.5038185119628906" lat="49.0874862670898438">
        <ele>158.0</ele>
        <time>2016-05-08T07:25:45.000Z</time>
      </trkpt>
      <trkpt lon="2.5038185119628906" lat="49.0874862670898438">
        <ele>158.0</ele>
        <time>2016-05-08T07:25:47.000Z</time>
      </trkpt>
      <trkpt lon="2.5038185119628906" lat="49.0874862670898438">
        <ele>158.0</ele>
        <time>2016-05-08T07:25:49.000Z</time>
      </trkpt>
      <trkpt lon="2.5038185119628906" lat="49.0874862670898438">
        <ele>158.0</ele>
        <time>2016-05-08T07:25:51.000Z</time>
      </trkpt>
      <trkpt lon="2.5038185119628906" lat="49.0874862670898438">
        <ele>158.0</ele>
        <time>2016-05-08T07:25:53.000Z</time>
      </trkpt>
      <trkpt lon="2.5038185119628906" lat="49.0874862670898438">
        <ele>158.0</ele>
        <time>2016-05-08T07:25:55.000Z</time>
      </trkpt>
      <trkpt lon="2.5035488605499268" lat="49.0874366760253906">
        <ele>164.0</ele>
        <time>2016-05-08T07:25:59.000Z</time>
      </trkpt>
      <trkpt lon="2.5033874511718750" lat="49.0874061584472656">
        <ele>165.0</ele>
        <time>2016-05-08T07:26:01.000Z</time>
      </trkpt>
      <trkpt lon="2.5032837390899658" lat="49.0873870849609375">
        <ele>165.0</ele>
        <time>2016-05-08T07:26:03.000Z</time>
      </trkpt>
      <trkpt lon="2.5032041072845459" lat="49.0873603820800781">
        <ele>170.0</ele>
        <time>2016-05-08T07:26:05.000Z</time>
      </trkpt>
      <trkpt lon="2.5031323432922363" lat="49.0873222351074219">
        <ele>176.0</ele>
        <time>2016-05-08T07:26:07.000Z</time>
      </trkpt>
      <trkpt lon="2.5029857158660889" lat="49.0872535705566406">
        <ele>174.0</ele>
        <time>2016-05-08T07:26:09.000Z</time>
      </trkpt>
      <trkpt lon="2.5029857158660889" lat="49.0872535705566406">
        <ele>174.0</ele>
        <time>2016-05-08T07:26:11.000Z</time>
      </trkpt>
      <trkpt lon="2.5029857158660889" lat="49.0872535705566406">
        <ele>174.0</ele>
        <time>2016-05-08T07:26:13.000Z</time>
      </trkpt>
      <trkpt lon="2.5029857158660889" lat="49.0872535705566406">
        <ele>174.0</ele>
        <time>2016-05-08T07:26:15.000Z</time>
      </trkpt>
      <trkpt lon="2.5029857158660889" lat="49.0872535705566406">
        <ele>174.0</ele>
        <time>2016-05-08T07:26:17.000Z</time>
      </trkpt>
      <trkpt lon="2.5025427341461182" lat="49.0870399475097656">
        <ele>169.0</ele>
        <time>2016-05-08T07:26:23.000Z</time>
      </trkpt>
      <trkpt lon="2.5024065971374512" lat="49.0869865417480469">
        <ele>173.0</ele>
        <time>2016-05-08T07:26:27.000Z</time>
      </trkpt>
      <trkpt lon="2.5022635459899902" lat="49.0869522094726562">
        <ele>171.0</ele>
        <time>2016-05-08T07:26:31.000Z</time>
      </trkpt>
      <trkpt lon="2.5022635459899902" lat="49.0869522094726562">
        <ele>171.0</ele>
        <time>2016-05-08T07:26:33.000Z</time>
      </trkpt>
      <trkpt lon="2.5020217895507812" lat="49.0869026184082031">
        <ele>170.0</ele>
        <time>2016-05-08T07:26:37.000Z</time>
      </trkpt>
      <trkpt lon="2.5020217895507812" lat="49.0869026184082031">
        <ele>170.0</ele>
        <time>2016-05-08T07:26:39.000Z</time>
      </trkpt>
      <trkpt lon="2.5020217895507812" lat="49.0869026184082031">
        <ele>170.0</ele>
        <time>2016-05-08T07:26:41.000Z</time>
      </trkpt>
      <trkpt lon="2.5018053054809570" lat="49.0868682861328125">
        <ele>167.0</ele>
        <time>2016-05-08T07:26:43.000Z</time>
      </trkpt>
      <trkpt lon="2.5018053054809570" lat="49.0868682861328125">
        <ele>167.0</ele>
        <time>2016-05-08T07:26:47.000Z</time>
      </trkpt>
      <trkpt lon="2.5018053054809570" lat="49.0868682861328125">
        <ele>167.0</ele>
        <time>2016-05-08T07:26:49.000Z</time>
      </trkpt>
      <trkpt lon="2.5018053054809570" lat="49.0868682861328125">
        <ele>167.0</ele>
        <time>2016-05-08T07:26:51.000Z</time>
      </trkpt>
      <trkpt lon="2.5014555454254150" lat="49.0868759155273438">
        <ele>168.0</ele>
        <time>2016-05-08T07:26:53.000Z</time>
      </trkpt>
      <trkpt lon="2.5012805461883545" lat="49.0868568420410156">
        <ele>171.0</ele>
        <time>2016-05-08T07:26:57.000Z</time>
      </trkpt>
      <trkpt lon="2.5012805461883545" lat="49.0868568420410156">
        <ele>171.0</ele>
        <time>2016-05-08T07:26:59.000Z</time>
      </trkpt>
      <trkpt lon="2.5011374950408936" lat="49.0868225097656250">
        <ele>175.0</ele>
        <time>2016-05-08T07:27:01.000Z</time>
      </trkpt>
      <trkpt lon="2.5011374950408936" lat="49.0868225097656250">
        <ele>175.0</ele>
        <time>2016-05-08T07:27:03.000Z</time>
      </trkpt>
      <trkpt lon="2.5011374950408936" lat="49.0868225097656250">
        <ele>175.0</ele>
        <time>2016-05-08T07:27:05.000Z</time>
      </trkpt>
      <trkpt lon="2.5011374950408936" lat="49.0868225097656250">
        <ele>175.0</ele>
        <time>2016-05-08T07:27:07.000Z</time>
      </trkpt>
      <trkpt lon="2.5011374950408936" lat="49.0868225097656250">
        <ele>175.0</ele>
        <time>2016-05-08T07:27:09.000Z</time>
      </trkpt>
      <trkpt lon="2.5011374950408936" lat="49.0868225097656250">
        <ele>175.0</ele>
        <time>2016-05-08T07:27:11.000Z</time>
      </trkpt>
      <trkpt lon="2.5008947849273682" lat="49.0869483947753906">
        <ele>179.0</ele>
        <time>2016-05-08T07:27:14.000Z</time>
      </trkpt>
      <trkpt lon="2.5009188652038574" lat="49.0870666503906250">
        <ele>182.0</ele>
        <time>2016-05-08T07:27:16.000Z</time>
      </trkpt>
      <trkpt lon="2.5009021759033203" lat="49.0871658325195312">
        <ele>183.0</ele>
        <time>2016-05-08T07:27:18.000Z</time>
      </trkpt>
      <trkpt lon="2.5009467601776123" lat="49.0873832702636719">
        <ele>178.0</ele>
        <time>2016-05-08T07:27:22.000Z</time>
      </trkpt>
      <trkpt lon="2.5009548664093018" lat="49.0875473022460938">
        <ele>176.0</ele>
        <time>2016-05-08T07:27:24.000Z</time>
      </trkpt>
      <trkpt lon="2.5009379386901855" lat="49.0876770019531250">
        <ele>170.0</ele>
        <time>2016-05-08T07:27:26.000Z</time>
      </trkpt>
      <trkpt lon="2.5009627342224121" lat="49.0878105163574219">
        <ele>171.0</ele>
        <time>2016-05-08T07:27:28.000Z</time>
      </trkpt>
      <trkpt lon="2.5009784698486328" lat="49.0879020690917969">
        <ele>168.0</ele>
        <time>2016-05-08T07:27:30.000Z</time>
      </trkpt>
      <trkpt lon="2.5009784698486328" lat="49.0879020690917969">
        <ele>168.0</ele>
        <time>2016-05-08T07:27:32.000Z</time>
      </trkpt>
      <trkpt lon="2.5009784698486328" lat="49.0879020690917969">
        <ele>168.0</ele>
        <time>2016-05-08T07:27:34.000Z</time>
      </trkpt>
      <trkpt lon="2.5009784698486328" lat="49.0879020690917969">
        <ele>168.0</ele>
        <time>2016-05-08T07:27:36.000Z</time>
      </trkpt>
      <trkpt lon="2.5009784698486328" lat="49.0879020690917969">
        <ele>168.0</ele>
        <time>2016-05-08T07:27:38.000Z</time>
      </trkpt>
      <trkpt lon="2.5009822845458984" lat="49.0883026123046875">
        <ele>163.0</ele>
        <time>2016-05-08T07:27:42.000Z</time>
      </trkpt>
      <trkpt lon="2.5010366439819336" lat="49.0884208679199219">
        <ele>165.0</ele>
        <time>2016-05-08T07:27:44.000Z</time>
      </trkpt>
      <trkpt lon="2.5010468959808350" lat="49.0885353088378906">
        <ele>165.0</ele>
        <time>2016-05-08T07:27:46.000Z</time>
      </trkpt>
      <trkpt lon="2.5009431838989258" lat="49.0885925292968750">
        <ele>165.0</ele>
        <time>2016-05-08T07:27:48.000Z</time>
      </trkpt>
      <trkpt lon="2.5008132457733154" lat="49.0886268615722656">
        <ele>167.0</ele>
        <time>2016-05-08T07:27:50.000Z</time>
      </trkpt>
      <trkpt lon="2.5008132457733154" lat="49.0886268615722656">
        <ele>167.0</ele>
        <time>2016-05-08T07:27:52.000Z</time>
      </trkpt>
      <trkpt lon="2.5008132457733154" lat="49.0886268615722656">
        <ele>167.0</ele>
        <time>2016-05-08T07:27:54.000Z</time>
      </trkpt>
      <trkpt lon="2.5005595684051514" lat="49.0886726379394531">
        <ele>166.0</ele>
        <time>2016-05-08T07:27:58.000Z</time>
      </trkpt>
      <trkpt lon="2.5003564357757568" lat="49.0887069702148438">
        <ele>167.0</ele>
        <time>2016-05-08T07:28:00.000Z</time>
      </trkpt>
      <trkpt lon="2.5001654624938965" lat="49.0887451171875000">
        <ele>167.0</ele>
        <time>2016-05-08T07:28:02.000Z</time>
      </trkpt>
      <trkpt lon="2.4999778270721436" lat="49.0887794494628906">
        <ele>168.0</ele>
        <time>2016-05-08T07:28:04.000Z</time>
      </trkpt>
      <trkpt lon="2.4997940063476562" lat="49.0888137817382812">
        <ele>167.0</ele>
        <time>2016-05-08T07:28:06.000Z</time>
      </trkpt>
      <trkpt lon="2.4994504451751709" lat="49.0888748168945312">
        <ele>165.0</ele>
        <time>2016-05-08T07:28:08.000Z</time>
      </trkpt>
      <trkpt lon="2.4992814064025879" lat="49.0888977050781250">
        <ele>165.0</ele>
        <time>2016-05-08T07:28:10.000Z</time>
      </trkpt>
      <trkpt lon="2.4991137981414795" lat="49.0889244079589844">
        <ele>165.0</ele>
        <time>2016-05-08T07:28:12.000Z</time>
      </trkpt>
      <trkpt lon="2.4991137981414795" lat="49.0889244079589844">
        <ele>165.0</ele>
        <time>2016-05-08T07:28:14.000Z</time>
      </trkpt>
      <trkpt lon="2.4991137981414795" lat="49.0889244079589844">
        <ele>165.0</ele>
        <time>2016-05-08T07:28:16.000Z</time>
      </trkpt>
      <trkpt lon="2.4991137981414795" lat="49.0889244079589844">
        <ele>165.0</ele>
        <time>2016-05-08T07:28:18.000Z</time>
      </trkpt>
      <trkpt lon="2.4991137981414795" lat="49.0889244079589844">
        <ele>165.0</ele>
        <time>2016-05-08T07:28:20.000Z</time>
      </trkpt>
      <trkpt lon="2.4991137981414795" lat="49.0889244079589844">
        <ele>165.0</ele>
        <time>2016-05-08T07:28:22.000Z</time>
      </trkpt>
      <trkpt lon="2.4991137981414795" lat="49.0889244079589844">
        <ele>165.0</ele>
        <time>2016-05-08T07:28:24.000Z</time>
      </trkpt>
      <trkpt lon="2.4991137981414795" lat="49.0889244079589844">
        <ele>165.0</ele>
        <time>2016-05-08T07:28:30.000Z</time>
      </trkpt>
      <trkpt lon="2.4991137981414795" lat="49.0889244079589844">
        <ele>165.0</ele>
        <time>2016-05-08T07:28:32.000Z</time>
      </trkpt>
      <trkpt lon="2.4991137981414795" lat="49.0889244079589844">
        <ele>165.0</ele>
        <time>2016-05-08T07:28:34.000Z</time>
      </trkpt>
      <trkpt lon="2.4974923133850098" lat="49.0890846252441406">
        <ele>161.0</ele>
        <time>2016-05-08T07:28:38.000Z</time>
      </trkpt>
      <trkpt lon="2.4972393512725830" lat="49.0890731811523438">
        <ele>161.0</ele>
        <time>2016-05-08T07:28:42.000Z</time>
      </trkpt>
      <trkpt lon="2.4972393512725830" lat="49.0890731811523438">
        <ele>161.0</ele>
        <time>2016-05-08T07:28:44.000Z</time>
      </trkpt>
      <trkpt lon="2.4972393512725830" lat="49.0890731811523438">
        <ele>161.0</ele>
        <time>2016-05-08T07:28:46.000Z</time>
      </trkpt>
      <trkpt lon="2.4972393512725830" lat="49.0890731811523438">
        <ele>161.0</ele>
        <time>2016-05-08T07:28:48.000Z</time>
      </trkpt>
      <trkpt lon="2.4967722892761230" lat="49.0892143249511719">
        <ele>164.0</ele>
        <time>2016-05-08T07:28:53.000Z</time>
      </trkpt>
      <trkpt lon="2.4966959953308105" lat="49.0892906188964844">
        <ele>163.0</ele>
        <time>2016-05-08T07:28:54.000Z</time>
      </trkpt>
      <trkpt lon="2.4965941905975342" lat="49.0893898010253906">
        <ele>161.0</ele>
        <time>2016-05-08T07:28:56.000Z</time>
      </trkpt>
      <trkpt lon="2.4965941905975342" lat="49.0893898010253906">
        <ele>161.0</ele>
        <time>2016-05-08T07:29:00.000Z</time>
      </trkpt>
      <trkpt lon="2.4961152076721191" lat="49.0897064208984375">
        <ele>162.0</ele>
        <time>2016-05-08T07:29:04.000Z</time>
      </trkpt>
      <trkpt lon="2.4959583282470703" lat="49.0898094177246094">
        <ele>161.0</ele>
        <time>2016-05-08T07:29:06.000Z</time>
      </trkpt>
      <trkpt lon="2.4958009719848633" lat="49.0899047851562500">
        <ele>158.0</ele>
        <time>2016-05-08T07:29:08.000Z</time>
      </trkpt>
      <trkpt lon="2.4955134391784668" lat="49.0901184082031250">
        <ele>158.0</ele>
        <time>2016-05-08T07:29:11.000Z</time>
      </trkpt>
      <trkpt lon="2.4954004287719727" lat="49.0902519226074219">
        <ele>159.0</ele>
        <time>2016-05-08T07:29:13.000Z</time>
      </trkpt>
      <trkpt lon="2.4952099323272705" lat="49.0903358459472656">
        <ele>156.0</ele>
        <time>2016-05-08T07:29:15.000Z</time>
      </trkpt>
      <trkpt lon="2.4950344562530518" lat="49.0904350280761719">
        <ele>157.0</ele>
        <time>2016-05-08T07:29:17.000Z</time>
      </trkpt>
      <trkpt lon="2.4948983192443848" lat="49.0905227661132812">
        <ele>157.0</ele>
        <time>2016-05-08T07:29:19.000Z</time>
      </trkpt>
      <trkpt lon="2.4947023391723633" lat="49.0906143188476562">
        <ele>155.0</ele>
        <time>2016-05-08T07:29:21.000Z</time>
      </trkpt>
      <trkpt lon="2.4945340156555176" lat="49.0907020568847656">
        <ele>156.0</ele>
        <time>2016-05-08T07:29:23.000Z</time>
      </trkpt>
      <trkpt lon="2.4944238662719727" lat="49.0907630920410156">
        <ele>156.0</ele>
        <time>2016-05-08T07:29:25.000Z</time>
      </trkpt>
      <trkpt lon="2.4943196773529053" lat="49.0908546447753906">
        <ele>156.0</ele>
        <time>2016-05-08T07:29:27.000Z</time>
      </trkpt>
      <trkpt lon="2.4939696788787842" lat="49.0911254882812500">
        <ele>155.0</ele>
        <time>2016-05-08T07:29:31.000Z</time>
      </trkpt>
      <trkpt lon="2.4937984943389893" lat="49.0912513732910156">
        <ele>153.0</ele>
        <time>2016-05-08T07:29:33.000Z</time>
      </trkpt>
      <trkpt lon="2.4936058521270752" lat="49.0913619995117188">
        <ele>152.0</ele>
        <time>2016-05-08T07:29:35.000Z</time>
      </trkpt>
      <trkpt lon="2.4934070110321045" lat="49.0914688110351562">
        <ele>153.0</ele>
        <time>2016-05-08T07:29:37.000Z</time>
      </trkpt>
      <trkpt lon="2.4932017326354980" lat="49.0916099548339844">
        <ele>149.0</ele>
        <time>2016-05-08T07:29:39.000Z</time>
      </trkpt>
      <trkpt lon="2.4930317401885986" lat="49.0917434692382812">
        <ele>150.0</ele>
        <time>2016-05-08T07:29:41.000Z</time>
      </trkpt>
      <trkpt lon="2.4928340911865234" lat="49.0918693542480469">
        <ele>151.0</ele>
        <time>2016-05-08T07:29:43.000Z</time>
      </trkpt>
      <trkpt lon="2.4926691055297852" lat="49.0919914245605469">
        <ele>150.0</ele>
        <time>2016-05-08T07:29:45.000Z</time>
      </trkpt>
      <trkpt lon="2.4925580024719238" lat="49.0920906066894531">
        <ele>151.0</ele>
        <time>2016-05-08T07:29:47.000Z</time>
      </trkpt>
      <trkpt lon="2.4924588203430176" lat="49.0922317504882812">
        <ele>147.0</ele>
        <time>2016-05-08T07:29:49.000Z</time>
      </trkpt>
      <trkpt lon="2.4923937320709229" lat="49.0923385620117188">
        <ele>145.0</ele>
        <time>2016-05-08T07:29:51.000Z</time>
      </trkpt>
      <trkpt lon="2.4922554492950439" lat="49.0924606323242188">
        <ele>141.0</ele>
        <time>2016-05-08T07:29:53.000Z</time>
      </trkpt>
      <trkpt lon="2.4920988082885742" lat="49.0925674438476562">
        <ele>140.0</ele>
        <time>2016-05-08T07:29:55.000Z</time>
      </trkpt>
      <trkpt lon="2.4918889999389648" lat="49.0926589965820312">
        <ele>137.0</ele>
        <time>2016-05-08T07:29:57.000Z</time>
      </trkpt>
      <trkpt lon="2.4916293621063232" lat="49.0927238464355469">
        <ele>136.0</ele>
        <time>2016-05-08T07:29:59.000Z</time>
      </trkpt>
      <trkpt lon="2.4914305210113525" lat="49.0928077697753906">
        <ele>134.0</ele>
        <time>2016-05-08T07:30:01.000Z</time>
      </trkpt>
      <trkpt lon="2.4912519454956055" lat="49.0928726196289062">
        <ele>135.0</ele>
        <time>2016-05-08T07:30:03.000Z</time>
      </trkpt>
      <trkpt lon="2.4910962581634521" lat="49.0929565429687500">
        <ele>133.0</ele>
        <time>2016-05-08T07:30:05.000Z</time>
      </trkpt>
      <trkpt lon="2.4908874034881592" lat="49.0930595397949219">
        <ele>132.0</ele>
        <time>2016-05-08T07:30:07.000Z</time>
      </trkpt>
      <trkpt lon="2.4907126426696777" lat="49.0931282043457031">
        <ele>133.0</ele>
        <time>2016-05-08T07:30:09.000Z</time>
      </trkpt>
      <trkpt lon="2.4905307292938232" lat="49.0931777954101562">
        <ele>129.0</ele>
        <time>2016-05-08T07:30:11.000Z</time>
      </trkpt>
      <trkpt lon="2.4903626441955566" lat="49.0932388305664062">
        <ele>124.0</ele>
        <time>2016-05-08T07:30:13.000Z</time>
      </trkpt>
      <trkpt lon="2.4902565479278564" lat="49.0933113098144531">
        <ele>126.0</ele>
        <time>2016-05-08T07:30:15.000Z</time>
      </trkpt>
      <trkpt lon="2.4902565479278564" lat="49.0933113098144531">
        <ele>126.0</ele>
        <time>2016-05-08T07:30:17.000Z</time>
      </trkpt>
      <trkpt lon="2.4902565479278564" lat="49.0933113098144531">
        <ele>126.0</ele>
        <time>2016-05-08T07:30:19.000Z</time>
      </trkpt>
      <trkpt lon="2.4896631240844727" lat="49.0934906005859375">
        <ele>127.0</ele>
        <time>2016-05-08T07:30:23.000Z</time>
      </trkpt>
      <trkpt lon="2.4894785881042480" lat="49.0935134887695312">
        <ele>126.0</ele>
        <time>2016-05-08T07:30:25.000Z</time>
      </trkpt>
      <trkpt lon="2.4892885684967041" lat="49.0935287475585938">
        <ele>125.0</ele>
        <time>2016-05-08T07:30:27.000Z</time>
      </trkpt>
      <trkpt lon="2.4891040325164795" lat="49.0935401916503906">
        <ele>124.0</ele>
        <time>2016-05-08T07:30:29.000Z</time>
      </trkpt>
      <trkpt lon="2.4889171123504639" lat="49.0935478210449219">
        <ele>122.0</ele>
        <time>2016-05-08T07:30:31.000Z</time>
      </trkpt>
      <trkpt lon="2.4887325763702393" lat="49.0935592651367188">
        <ele>122.0</ele>
        <time>2016-05-08T07:30:33.000Z</time>
      </trkpt>
      <trkpt lon="2.4885346889495850" lat="49.0935935974121094">
        <ele>121.0</ele>
        <time>2016-05-08T07:30:35.000Z</time>
      </trkpt>
      <trkpt lon="2.4883322715759277" lat="49.0936012268066406">
        <ele>115.0</ele>
        <time>2016-05-08T07:30:37.000Z</time>
      </trkpt>
      <trkpt lon="2.4881412982940674" lat="49.0936813354492188">
        <ele>117.0</ele>
        <time>2016-05-08T07:30:39.000Z</time>
      </trkpt>
      <trkpt lon="2.4879901409149170" lat="49.0937843322753906">
        <ele>115.0</ele>
        <time>2016-05-08T07:30:41.000Z</time>
      </trkpt>
      <trkpt lon="2.4878396987915039" lat="49.0938415527343750">
        <ele>115.0</ele>
        <time>2016-05-08T07:30:43.000Z</time>
      </trkpt>
      <trkpt lon="2.4877111911773682" lat="49.0939598083496094">
        <ele>116.0</ele>
        <time>2016-05-08T07:30:45.000Z</time>
      </trkpt>
      <trkpt lon="2.4876747131347656" lat="49.0941238403320312">
        <ele>117.0</ele>
        <time>2016-05-08T07:30:47.000Z</time>
      </trkpt>
      <trkpt lon="2.4876229763031006" lat="49.0942611694335938">
        <ele>119.0</ele>
        <time>2016-05-08T07:30:49.000Z</time>
      </trkpt>
      <trkpt lon="2.4875659942626953" lat="49.0943908691406250">
        <ele>119.0</ele>
        <time>2016-05-08T07:30:51.000Z</time>
      </trkpt>
      <trkpt lon="2.4875707626342773" lat="49.0945243835449219">
        <ele>120.0</ele>
        <time>2016-05-08T07:30:53.000Z</time>
      </trkpt>
      <trkpt lon="2.4875998497009277" lat="49.0946426391601562">
        <ele>119.0</ele>
        <time>2016-05-08T07:30:55.000Z</time>
      </trkpt>
      <trkpt lon="2.4876294136047363" lat="49.0947532653808594">
        <ele>119.0</ele>
        <time>2016-05-08T07:30:57.000Z</time>
      </trkpt>
      <trkpt lon="2.4876351356506348" lat="49.0948753356933594">
        <ele>118.0</ele>
        <time>2016-05-08T07:30:59.000Z</time>
      </trkpt>
      <trkpt lon="2.4876542091369629" lat="49.0949745178222656">
        <ele>120.0</ele>
        <time>2016-05-08T07:31:01.000Z</time>
      </trkpt>
      <trkpt lon="2.4876542091369629" lat="49.0949745178222656">
        <ele>120.0</ele>
        <time>2016-05-08T07:31:03.000Z</time>
      </trkpt>
      <trkpt lon="2.4876542091369629" lat="49.0949745178222656">
        <ele>120.0</ele>
        <time>2016-05-08T07:31:05.000Z</time>
      </trkpt>
      <trkpt lon="2.4876542091369629" lat="49.0949745178222656">
        <ele>120.0</ele>
        <time>2016-05-08T07:31:07.000Z</time>
      </trkpt>
      <trkpt lon="2.4876542091369629" lat="49.0949745178222656">
        <ele>120.0</ele>
        <time>2016-05-08T07:31:09.000Z</time>
      </trkpt>
      <trkpt lon="2.4876542091369629" lat="49.0949745178222656">
        <ele>120.0</ele>
        <time>2016-05-08T07:31:11.000Z</time>
      </trkpt>
      <trkpt lon="2.4876713752746582" lat="49.0951995849609375">
        <ele>117.0</ele>
        <time>2016-05-08T07:31:20.000Z</time>
      </trkpt>
      <trkpt lon="2.4875478744506836" lat="49.0953025817871094">
        <ele>122.0</ele>
        <time>2016-05-08T07:31:24.000Z</time>
      </trkpt>
      <trkpt lon="2.4874372482299805" lat="49.0953598022460938">
        <ele>122.0</ele>
        <time>2016-05-08T07:31:26.000Z</time>
      </trkpt>
      <trkpt lon="2.4873251914978027" lat="49.0954589843750000">
        <ele>124.0</ele>
        <time>2016-05-08T07:31:30.000Z</time>
      </trkpt>
      <trkpt lon="2.4873251914978027" lat="49.0954589843750000">
        <ele>124.0</ele>
        <time>2016-05-08T07:31:32.000Z</time>
      </trkpt>
      <trkpt lon="2.4873259067535400" lat="49.0956344604492188">
        <ele>121.0</ele>
        <time>2016-05-08T07:31:34.000Z</time>
      </trkpt>
      <trkpt lon="2.4873874187469482" lat="49.0957412719726562">
        <ele>120.0</ele>
        <time>2016-05-08T07:31:36.000Z</time>
      </trkpt>
      <trkpt lon="2.4873874187469482" lat="49.0957412719726562">
        <ele>120.0</ele>
        <time>2016-05-08T07:31:38.000Z</time>
      </trkpt>
      <trkpt lon="2.4873874187469482" lat="49.0957412719726562">
        <ele>120.0</ele>
        <time>2016-05-08T07:31:40.000Z</time>
      </trkpt>
      <trkpt lon="2.4873874187469482" lat="49.0957412719726562">
        <ele>120.0</ele>
        <time>2016-05-08T07:31:42.000Z</time>
      </trkpt>
      <trkpt lon="2.4873874187469482" lat="49.0957412719726562">
        <ele>120.0</ele>
        <time>2016-05-08T07:31:44.000Z</time>
      </trkpt>
      <trkpt lon="2.4876363277435303" lat="49.0962104797363281">
        <ele>134.0</ele>
        <time>2016-05-08T07:31:50.000Z</time>
      </trkpt>
      <trkpt lon="2.4876825809478760" lat="49.0963630676269531">
        <ele>135.0</ele>
        <time>2016-05-08T07:31:54.000Z</time>
      </trkpt>
      <trkpt lon="2.4877760410308838" lat="49.0965080261230469">
        <ele>135.0</ele>
        <time>2016-05-08T07:31:58.000Z</time>
      </trkpt>
      <trkpt lon="2.4877760410308838" lat="49.0965080261230469">
        <ele>135.0</ele>
        <time>2016-05-08T07:32:00.000Z</time>
      </trkpt>
      <trkpt lon="2.4877760410308838" lat="49.0965080261230469">
        <ele>135.0</ele>
        <time>2016-05-08T07:32:02.000Z</time>
      </trkpt>
      <trkpt lon="2.4877760410308838" lat="49.0965080261230469">
        <ele>135.0</ele>
        <time>2016-05-08T07:32:04.000Z</time>
      </trkpt>
      <trkpt lon="2.4879748821258545" lat="49.0968589782714844">
        <ele>136.0</ele>
        <time>2016-05-08T07:32:08.000Z</time>
      </trkpt>
      <trkpt lon="2.4881210327148438" lat="49.0969696044921875">
        <ele>134.0</ele>
        <time>2016-05-08T07:32:12.000Z</time>
      </trkpt>
      <trkpt lon="2.4881210327148438" lat="49.0969696044921875">
        <ele>134.0</ele>
        <time>2016-05-08T07:32:16.000Z</time>
      </trkpt>
      <trkpt lon="2.4881210327148438" lat="49.0969696044921875">
        <ele>134.0</ele>
        <time>2016-05-08T07:32:18.000Z</time>
      </trkpt>
      <trkpt lon="2.4881210327148438" lat="49.0969696044921875">
        <ele>134.0</ele>
        <time>2016-05-08T07:32:20.000Z</time>
      </trkpt>
      <trkpt lon="2.4881210327148438" lat="49.0969696044921875">
        <ele>134.0</ele>
        <time>2016-05-08T07:32:22.000Z</time>
      </trkpt>
      <trkpt lon="2.4881210327148438" lat="49.0969696044921875">
        <ele>134.0</ele>
        <time>2016-05-08T07:32:24.000Z</time>
      </trkpt>
      <trkpt lon="2.4881210327148438" lat="49.0969696044921875">
        <ele>134.0</ele>
        <time>2016-05-08T07:32:26.000Z</time>
      </trkpt>
      <trkpt lon="2.4887635707855225" lat="49.0973815917968750">
        <ele>131.0</ele>
        <time>2016-05-08T07:32:30.000Z</time>
      </trkpt>
      <trkpt lon="2.4888846874237061" lat="49.0975036621093750">
        <ele>132.0</ele>
        <time>2016-05-08T07:32:34.000Z</time>
      </trkpt>
      <trkpt lon="2.4888846874237061" lat="49.0975036621093750">
        <ele>132.0</ele>
        <time>2016-05-08T07:32:36.000Z</time>
      </trkpt>
      <trkpt lon="2.4888846874237061" lat="49.0975036621093750">
        <ele>132.0</ele>
        <time>2016-05-08T07:32:38.000Z</time>
      </trkpt>
      <trkpt lon="2.4890873432159424" lat="49.0977401733398438">
        <ele>126.0</ele>
        <time>2016-05-08T07:32:42.000Z</time>
      </trkpt>
      <trkpt lon="2.4891953468322754" lat="49.0978469848632812">
        <ele>125.0</ele>
        <time>2016-05-08T07:32:46.000Z</time>
      </trkpt>
      <trkpt lon="2.4891953468322754" lat="49.0978469848632812">
        <ele>125.0</ele>
        <time>2016-05-08T07:32:48.000Z</time>
      </trkpt>
      <trkpt lon="2.4892425537109375" lat="49.0979042053222656">
        <ele>128.0</ele>
        <time>2016-05-08T07:32:50.000Z</time>
      </trkpt>
      <trkpt lon="2.4892425537109375" lat="49.0979042053222656">
        <ele>128.0</ele>
        <time>2016-05-08T07:32:52.000Z</time>
      </trkpt>
      <trkpt lon="2.4893457889556885" lat="49.0980300903320312">
        <ele>127.0</ele>
        <time>2016-05-08T07:32:56.000Z</time>
      </trkpt>
      <trkpt lon="2.4894306659698486" lat="49.0981216430664062">
        <ele>128.0</ele>
        <time>2016-05-08T07:32:58.000Z</time>
      </trkpt>
      <trkpt lon="2.4894306659698486" lat="49.0981216430664062">
        <ele>128.0</ele>
        <time>2016-05-08T07:33:00.000Z</time>
      </trkpt>
      <trkpt lon="2.4895138740539551" lat="49.0982475280761719">
        <ele>129.0</ele>
        <time>2016-05-08T07:33:02.000Z</time>
      </trkpt>
      <trkpt lon="2.4895830154418945" lat="49.0983352661132812">
        <ele>127.0</ele>
        <time>2016-05-08T07:33:04.000Z</time>
      </trkpt>
      <trkpt lon="2.4895830154418945" lat="49.0983352661132812">
        <ele>127.0</ele>
        <time>2016-05-08T07:33:06.000Z</time>
      </trkpt>
      <trkpt lon="2.4895830154418945" lat="49.0983352661132812">
        <ele>127.0</ele>
        <time>2016-05-08T07:33:08.000Z</time>
      </trkpt>
      <trkpt lon="2.4895830154418945" lat="49.0983352661132812">
        <ele>127.0</ele>
        <time>2016-05-08T07:33:10.000Z</time>
      </trkpt>
      <trkpt lon="2.4895830154418945" lat="49.0983352661132812">
        <ele>127.0</ele>
        <time>2016-05-08T07:33:12.000Z</time>
      </trkpt>
      <trkpt lon="2.4895830154418945" lat="49.0983352661132812">
        <ele>127.0</ele>
        <time>2016-05-08T07:33:22.000Z</time>
      </trkpt>
      <trkpt lon="2.4895830154418945" lat="49.0983352661132812">
        <ele>127.0</ele>
        <time>2016-05-08T07:33:24.000Z</time>
      </trkpt>
      <trkpt lon="2.4895830154418945" lat="49.0983352661132812">
        <ele>127.0</ele>
        <time>2016-05-08T07:33:26.000Z</time>
      </trkpt>
      <trkpt lon="2.4899318218231201" lat="49.0986709594726562">
        <ele>129.0</ele>
        <time>2016-05-08T07:33:30.000Z</time>
      </trkpt>
      <trkpt lon="2.4901285171508789" lat="49.0988616943359375">
        <ele>130.0</ele>
        <time>2016-05-08T07:33:32.000Z</time>
      </trkpt>
      <trkpt lon="2.4902520179748535" lat="49.0989761352539062">
        <ele>134.0</ele>
        <time>2016-05-08T07:33:34.000Z</time>
      </trkpt>
      <trkpt lon="2.4903380870819092" lat="49.0990600585937500">
        <ele>135.0</ele>
        <time>2016-05-08T07:33:36.000Z</time>
      </trkpt>
      <trkpt lon="2.4904158115386963" lat="49.0991172790527344">
        <ele>137.0</ele>
        <time>2016-05-08T07:33:38.000Z</time>
      </trkpt>
      <trkpt lon="2.4905641078948975" lat="49.0992279052734375">
        <ele>135.0</ele>
        <time>2016-05-08T07:33:40.000Z</time>
      </trkpt>
      <trkpt lon="2.4906611442565918" lat="49.0993270874023438">
        <ele>135.0</ele>
        <time>2016-05-08T07:33:44.000Z</time>
      </trkpt>
      <trkpt lon="2.4907915592193604" lat="49.0994224548339844">
        <ele>134.0</ele>
        <time>2016-05-08T07:33:48.000Z</time>
      </trkpt>
      <trkpt lon="2.4909458160400391" lat="49.0995101928710938">
        <ele>135.0</ele>
        <time>2016-05-08T07:33:52.000Z</time>
      </trkpt>
      <trkpt lon="2.4911055564880371" lat="49.0995674133300781">
        <ele>129.0</ele>
        <time>2016-05-08T07:33:56.000Z</time>
      </trkpt>
      <trkpt lon="2.4911055564880371" lat="49.0995674133300781">
        <ele>129.0</ele>
        <time>2016-05-08T07:33:58.000Z</time>
      </trkpt>
      <trkpt lon="2.4911055564880371" lat="49.0995674133300781">
        <ele>129.0</ele>
        <time>2016-05-08T07:34:00.000Z</time>
      </trkpt>
      <trkpt lon="2.4911055564880371" lat="49.0995674133300781">
        <ele>129.0</ele>
        <time>2016-05-08T07:34:02.000Z</time>
      </trkpt>
      <trkpt lon="2.4916083812713623" lat="49.0996513366699219">
        <ele>130.0</ele>
        <time>2016-05-08T07:34:08.000Z</time>
      </trkpt>
      <trkpt lon="2.4916083812713623" lat="49.0996513366699219">
        <ele>130.0</ele>
        <time>2016-05-08T07:34:10.000Z</time>
      </trkpt>
      <trkpt lon="2.4917697906494141" lat="49.0996589660644531">
        <ele>135.0</ele>
        <time>2016-05-08T07:34:12.000Z</time>
      </trkpt>
      <trkpt lon="2.4917697906494141" lat="49.0996589660644531">
        <ele>135.0</ele>
        <time>2016-05-08T07:34:14.000Z</time>
      </trkpt>
      <trkpt lon="2.4917697906494141" lat="49.0996589660644531">
        <ele>135.0</ele>
        <time>2016-05-08T07:34:16.000Z</time>
      </trkpt>
      <trkpt lon="2.4917697906494141" lat="49.0996589660644531">
        <ele>135.0</ele>
        <time>2016-05-08T07:34:18.000Z</time>
      </trkpt>
      <trkpt lon="2.4917697906494141" lat="49.0996589660644531">
        <ele>135.0</ele>
        <time>2016-05-08T07:34:20.000Z</time>
      </trkpt>
      <trkpt lon="2.4922380447387695" lat="49.0995979309082031">
        <ele>138.0</ele>
        <time>2016-05-08T07:34:24.000Z</time>
      </trkpt>
      <trkpt lon="2.4922380447387695" lat="49.0995979309082031">
        <ele>138.0</ele>
        <time>2016-05-08T07:34:28.000Z</time>
      </trkpt>
      <trkpt lon="2.4922380447387695" lat="49.0995979309082031">
        <ele>138.0</ele>
        <time>2016-05-08T07:34:30.000Z</time>
      </trkpt>
      <trkpt lon="2.4922380447387695" lat="49.0995979309082031">
        <ele>138.0</ele>
        <time>2016-05-08T07:34:32.000Z</time>
      </trkpt>
      <trkpt lon="2.4922380447387695" lat="49.0995979309082031">
        <ele>138.0</ele>
        <time>2016-05-08T07:34:34.000Z</time>
      </trkpt>
      <trkpt lon="2.4927194118499756" lat="49.0995903015136719">
        <ele>144.0</ele>
        <time>2016-05-08T07:34:38.000Z</time>
      </trkpt>
      <trkpt lon="2.4928519725799561" lat="49.0995483398437500">
        <ele>142.0</ele>
        <time>2016-05-08T07:34:42.000Z</time>
      </trkpt>
      <trkpt lon="2.4930164813995361" lat="49.0995826721191406">
        <ele>140.0</ele>
        <time>2016-05-08T07:34:46.000Z</time>
      </trkpt>
      <trkpt lon="2.4930164813995361" lat="49.0995826721191406">
        <ele>140.0</ele>
        <time>2016-05-08T07:34:48.000Z</time>
      </trkpt>
      <trkpt lon="2.4930164813995361" lat="49.0995826721191406">
        <ele>140.0</ele>
        <time>2016-05-08T07:34:50.000Z</time>
      </trkpt>
      <trkpt lon="2.4932384490966797" lat="49.0996856689453125">
        <ele>138.0</ele>
        <time>2016-05-08T07:34:52.000Z</time>
      </trkpt>
      <trkpt lon="2.4934020042419434" lat="49.0997505187988281">
        <ele>140.0</ele>
        <time>2016-05-08T07:34:58.000Z</time>
      </trkpt>
      <trkpt lon="2.4934020042419434" lat="49.0997505187988281">
        <ele>140.0</ele>
        <time>2016-05-08T07:35:00.000Z</time>
      </trkpt>
      <trkpt lon="2.4934020042419434" lat="49.0997505187988281">
        <ele>140.0</ele>
        <time>2016-05-08T07:35:02.000Z</time>
      </trkpt>
      <trkpt lon="2.4934995174407959" lat="49.0998229980468750">
        <ele>141.0</ele>
        <time>2016-05-08T07:35:06.000Z</time>
      </trkpt>
      <trkpt lon="2.4935622215270996" lat="49.0998878479003906">
        <ele>141.0</ele>
        <time>2016-05-08T07:35:08.000Z</time>
      </trkpt>
      <trkpt lon="2.4936053752899170" lat="49.0999412536621094">
        <ele>143.0</ele>
        <time>2016-05-08T07:35:10.000Z</time>
      </trkpt>
      <trkpt lon="2.4936523437500000" lat="49.0999832153320312">
        <ele>142.0</ele>
        <time>2016-05-08T07:35:12.000Z</time>
      </trkpt>
      <trkpt lon="2.4936523437500000" lat="49.0999832153320312">
        <ele>142.0</ele>
        <time>2016-05-08T07:35:14.000Z</time>
      </trkpt>
      <trkpt lon="2.4937767982482910" lat="49.1000900268554688">
        <ele>146.0</ele>
        <time>2016-05-08T07:35:20.000Z</time>
      </trkpt>
      <trkpt lon="2.4937767982482910" lat="49.1000900268554688">
        <ele>146.0</ele>
        <time>2016-05-08T07:35:22.000Z</time>
      </trkpt>
      <trkpt lon="2.4937767982482910" lat="49.1000900268554688">
        <ele>146.0</ele>
        <time>2016-05-08T07:35:24.000Z</time>
      </trkpt>
      <trkpt lon="2.4937767982482910" lat="49.1000900268554688">
        <ele>146.0</ele>
        <time>2016-05-08T07:35:26.000Z</time>
      </trkpt>
      <trkpt lon="2.4937767982482910" lat="49.1000900268554688">
        <ele>146.0</ele>
        <time>2016-05-08T07:35:28.000Z</time>
      </trkpt>
      <trkpt lon="2.4939105510711670" lat="49.1002616882324219">
        <ele>151.0</ele>
        <time>2016-05-08T07:35:30.000Z</time>
      </trkpt>
      <trkpt lon="2.4940006732940674" lat="49.1003684997558594">
        <ele>152.0</ele>
        <time>2016-05-08T07:35:32.000Z</time>
      </trkpt>
      <trkpt lon="2.4940514564514160" lat="49.1004524230957031">
        <ele>153.0</ele>
        <time>2016-05-08T07:35:34.000Z</time>
      </trkpt>
      <trkpt lon="2.4940514564514160" lat="49.1004524230957031">
        <ele>153.0</ele>
        <time>2016-05-08T07:35:36.000Z</time>
      </trkpt>
      <trkpt lon="2.4940514564514160" lat="49.1004524230957031">
        <ele>153.0</ele>
        <time>2016-05-08T07:35:38.000Z</time>
      </trkpt>
      <trkpt lon="2.4940514564514160" lat="49.1004524230957031">
        <ele>153.0</ele>
        <time>2016-05-08T07:35:44.000Z</time>
      </trkpt>
      <trkpt lon="2.4941358566284180" lat="49.1006813049316406">
        <ele>145.0</ele>
        <time>2016-05-08T07:35:48.000Z</time>
      </trkpt>
      <trkpt lon="2.4941964149475098" lat="49.1008186340332031">
        <ele>147.0</ele>
        <time>2016-05-08T07:35:50.000Z</time>
      </trkpt>
      <trkpt lon="2.4942417144775391" lat="49.1009063720703125">
        <ele>147.0</ele>
        <time>2016-05-08T07:35:52.000Z</time>
      </trkpt>
      <trkpt lon="2.4942860603332520" lat="49.1009750366210938">
        <ele>148.0</ele>
        <time>2016-05-08T07:35:54.000Z</time>
      </trkpt>
      <trkpt lon="2.4942860603332520" lat="49.1009750366210938">
        <ele>148.0</ele>
        <time>2016-05-08T07:35:56.000Z</time>
      </trkpt>
      <trkpt lon="2.4943339824676514" lat="49.1010704040527344">
        <ele>153.0</ele>
        <time>2016-05-08T07:35:58.000Z</time>
      </trkpt>
      <trkpt lon="2.4943687915802002" lat="49.1011390686035156">
        <ele>153.0</ele>
        <time>2016-05-08T07:36:00.000Z</time>
      </trkpt>
      <trkpt lon="2.4944140911102295" lat="49.1011924743652344">
        <ele>152.0</ele>
        <time>2016-05-08T07:36:02.000Z</time>
      </trkpt>
      <trkpt lon="2.4944140911102295" lat="49.1011924743652344">
        <ele>152.0</ele>
        <time>2016-05-08T07:36:04.000Z</time>
      </trkpt>
      <trkpt lon="2.4944140911102295" lat="49.1011924743652344">
        <ele>152.0</ele>
        <time>2016-05-08T07:36:06.000Z</time>
      </trkpt>
      <trkpt lon="2.4944140911102295" lat="49.1011924743652344">
        <ele>152.0</ele>
        <time>2016-05-08T07:36:08.000Z</time>
      </trkpt>
      <trkpt lon="2.4944140911102295" lat="49.1011924743652344">
        <ele>152.0</ele>
        <time>2016-05-08T07:36:10.000Z</time>
      </trkpt>
      <trkpt lon="2.4945762157440186" lat="49.1013603210449219">
        <ele>156.0</ele>
        <time>2016-05-08T07:36:14.000Z</time>
      </trkpt>
      <trkpt lon="2.4946818351745605" lat="49.1014671325683594">
        <ele>158.0</ele>
        <time>2016-05-08T07:36:16.000Z</time>
      </trkpt>
      <trkpt lon="2.4947588443756104" lat="49.1015472412109375">
        <ele>159.0</ele>
        <time>2016-05-08T07:36:18.000Z</time>
      </trkpt>
      <trkpt lon="2.4948222637176514" lat="49.1016082763671875">
        <ele>161.0</ele>
        <time>2016-05-08T07:36:20.000Z</time>
      </trkpt>
      <trkpt lon="2.4948766231536865" lat="49.1016578674316406">
        <ele>160.0</ele>
        <time>2016-05-08T07:36:22.000Z</time>
      </trkpt>
      <trkpt lon="2.4949879646301270" lat="49.1017646789550781">
        <ele>161.0</ele>
        <time>2016-05-08T07:36:24.000Z</time>
      </trkpt>
      <trkpt lon="2.4951310157775879" lat="49.1018409729003906">
        <ele>157.0</ele>
        <time>2016-05-08T07:36:28.000Z</time>
      </trkpt>
      <trkpt lon="2.4952607154846191" lat="49.1019783020019531">
        <ele>155.0</ele>
        <time>2016-05-08T07:36:32.000Z</time>
      </trkpt>
      <trkpt lon="2.4954152107238770" lat="49.1020889282226562">
        <ele>153.0</ele>
        <time>2016-05-08T07:36:36.000Z</time>
      </trkpt>
      <trkpt lon="2.4954152107238770" lat="49.1020889282226562">
        <ele>153.0</ele>
        <time>2016-05-08T07:36:38.000Z</time>
      </trkpt>
      <trkpt lon="2.4955477714538574" lat="49.1022071838378906">
        <ele>153.0</ele>
        <time>2016-05-08T07:36:40.000Z</time>
      </trkpt>
      <trkpt lon="2.4955477714538574" lat="49.1022071838378906">
        <ele>153.0</ele>
        <time>2016-05-08T07:36:42.000Z</time>
      </trkpt>
      <trkpt lon="2.4959485530853271" lat="49.1024093627929688">
        <ele>152.0</ele>
        <time>2016-05-08T07:36:50.000Z</time>
      </trkpt>
      <trkpt lon="2.4960901737213135" lat="49.1025581359863281">
        <ele>152.0</ele>
        <time>2016-05-08T07:36:54.000Z</time>
      </trkpt>
      <trkpt lon="2.4960901737213135" lat="49.1025581359863281">
        <ele>152.0</ele>
        <time>2016-05-08T07:36:56.000Z</time>
      </trkpt>
      <trkpt lon="2.4960901737213135" lat="49.1025581359863281">
        <ele>152.0</ele>
        <time>2016-05-08T07:36:58.000Z</time>
      </trkpt>
      <trkpt lon="2.4960901737213135" lat="49.1025581359863281">
        <ele>152.0</ele>
        <time>2016-05-08T07:37:00.000Z</time>
      </trkpt>
      <trkpt lon="2.4964029788970947" lat="49.1027717590332031">
        <ele>152.0</ele>
        <time>2016-05-08T07:37:02.000Z</time>
      </trkpt>
      <trkpt lon="2.4965801239013672" lat="49.1028976440429688">
        <ele>154.0</ele>
        <time>2016-05-08T07:37:06.000Z</time>
      </trkpt>
      <trkpt lon="2.4965801239013672" lat="49.1028976440429688">
        <ele>154.0</ele>
        <time>2016-05-08T07:37:08.000Z</time>
      </trkpt>
      <trkpt lon="2.4965801239013672" lat="49.1028976440429688">
        <ele>154.0</ele>
        <time>2016-05-08T07:37:10.000Z</time>
      </trkpt>
      <trkpt lon="2.4968285560607910" lat="49.1030883789062500">
        <ele>153.0</ele>
        <time>2016-05-08T07:37:12.000Z</time>
      </trkpt>
      <trkpt lon="2.4970006942749023" lat="49.1032104492187500">
        <ele>148.0</ele>
        <time>2016-05-08T07:37:16.000Z</time>
      </trkpt>
      <trkpt lon="2.4970006942749023" lat="49.1032104492187500">
        <ele>148.0</ele>
        <time>2016-05-08T07:37:18.000Z</time>
      </trkpt>
      <trkpt lon="2.4971311092376709" lat="49.1033554077148438">
        <ele>150.0</ele>
        <time>2016-05-08T07:37:20.000Z</time>
      </trkpt>
      <trkpt lon="2.4971311092376709" lat="49.1033554077148438">
        <ele>150.0</ele>
        <time>2016-05-08T07:37:22.000Z</time>
      </trkpt>
      <trkpt lon="2.4971311092376709" lat="49.1033554077148438">
        <ele>150.0</ele>
        <time>2016-05-08T07:37:24.000Z</time>
      </trkpt>
      <trkpt lon="2.4971311092376709" lat="49.1033554077148438">
        <ele>150.0</ele>
        <time>2016-05-08T07:37:26.000Z</time>
      </trkpt>
      <trkpt lon="2.4975759983062744" lat="49.1036682128906250">
        <ele>142.0</ele>
        <time>2016-05-08T07:37:30.000Z</time>
      </trkpt>
      <trkpt lon="2.4975759983062744" lat="49.1036682128906250">
        <ele>142.0</ele>
        <time>2016-05-08T07:37:32.000Z</time>
      </trkpt>
      <trkpt lon="2.4977345466613770" lat="49.1038093566894531">
        <ele>146.0</ele>
        <time>2016-05-08T07:37:34.000Z</time>
      </trkpt>
      <trkpt lon="2.4978051185607910" lat="49.1038894653320312">
        <ele>144.0</ele>
        <time>2016-05-08T07:37:36.000Z</time>
      </trkpt>
      <trkpt lon="2.4978692531585693" lat="49.1040000915527344">
        <ele>142.0</ele>
        <time>2016-05-08T07:37:38.000Z</time>
      </trkpt>
      <trkpt lon="2.4980354309082031" lat="49.1041374206542969">
        <ele>145.0</ele>
        <time>2016-05-08T07:37:42.000Z</time>
      </trkpt>
      <trkpt lon="2.4981460571289062" lat="49.1042175292968750">
        <ele>142.0</ele>
        <time>2016-05-08T07:37:44.000Z</time>
      </trkpt>
      <trkpt lon="2.4983267784118652" lat="49.1043319702148438">
        <ele>142.0</ele>
        <time>2016-05-08T07:37:48.000Z</time>
      </trkpt>
      <trkpt lon="2.4984385967254639" lat="49.1044082641601562">
        <ele>144.0</ele>
        <time>2016-05-08T07:37:50.000Z</time>
      </trkpt>
      <trkpt lon="2.4984385967254639" lat="49.1044082641601562">
        <ele>144.0</ele>
        <time>2016-05-08T07:37:52.000Z</time>
      </trkpt>
      <trkpt lon="2.4984385967254639" lat="49.1044082641601562">
        <ele>144.0</ele>
        <time>2016-05-08T07:37:54.000Z</time>
      </trkpt>
      <trkpt lon="2.4984385967254639" lat="49.1044082641601562">
        <ele>144.0</ele>
        <time>2016-05-08T07:37:56.000Z</time>
      </trkpt>
      <trkpt lon="2.4984385967254639" lat="49.1044082641601562">
        <ele>144.0</ele>
        <time>2016-05-08T07:37:58.000Z</time>
      </trkpt>
      <trkpt lon="2.4984385967254639" lat="49.1044082641601562">
        <ele>144.0</ele>
        <time>2016-05-08T07:38:00.000Z</time>
      </trkpt>
      <trkpt lon="2.4984385967254639" lat="49.1044082641601562">
        <ele>144.0</ele>
        <time>2016-05-08T07:38:02.000Z</time>
      </trkpt>
      <trkpt lon="2.4984385967254639" lat="49.1044082641601562">
        <ele>144.0</ele>
        <time>2016-05-08T07:38:04.000Z</time>
      </trkpt>
      <trkpt lon="2.4988694190979004" lat="49.1045494079589844">
        <ele>152.0</ele>
        <time>2016-05-08T07:38:10.000Z</time>
      </trkpt>
      <trkpt lon="2.4991464614868164" lat="49.1045989990234375">
        <ele>154.0</ele>
        <time>2016-05-08T07:38:12.000Z</time>
      </trkpt>
      <trkpt lon="2.4993560314178467" lat="49.1046180725097656">
        <ele>155.0</ele>
        <time>2016-05-08T07:38:14.000Z</time>
      </trkpt>
      <trkpt lon="2.4995341300964355" lat="49.1046028137207031">
        <ele>154.0</ele>
        <time>2016-05-08T07:38:16.000Z</time>
      </trkpt>
      <trkpt lon="2.4996960163116455" lat="49.1045875549316406">
        <ele>154.0</ele>
        <time>2016-05-08T07:38:18.000Z</time>
      </trkpt>
      <trkpt lon="2.5000000000000000" lat="49.1045494079589844">
        <ele>155.0</ele>
        <time>2016-05-08T07:38:20.000Z</time>
      </trkpt>
      <trkpt lon="2.5001564025878906" lat="49.1045455932617188">
        <ele>153.0</ele>
        <time>2016-05-08T07:38:22.000Z</time>
      </trkpt>
      <trkpt lon="2.5002968311309814" lat="49.1045227050781250">
        <ele>153.0</ele>
        <time>2016-05-08T07:38:24.000Z</time>
      </trkpt>
      <trkpt lon="2.5004520416259766" lat="49.1045265197753906">
        <ele>151.0</ele>
        <time>2016-05-08T07:38:26.000Z</time>
      </trkpt>
      <trkpt lon="2.5004520416259766" lat="49.1045265197753906">
        <ele>151.0</ele>
        <time>2016-05-08T07:38:28.000Z</time>
      </trkpt>
      <trkpt lon="2.5004520416259766" lat="49.1045265197753906">
        <ele>151.0</ele>
        <time>2016-05-08T07:38:30.000Z</time>
      </trkpt>
      <trkpt lon="2.5013401508331299" lat="49.1044235229492188">
        <ele>153.0</ele>
        <time>2016-05-08T07:38:38.000Z</time>
      </trkpt>
      <trkpt lon="2.5014955997467041" lat="49.1043395996093750">
        <ele>152.0</ele>
        <time>2016-05-08T07:38:40.000Z</time>
      </trkpt>
      <trkpt lon="2.5016434192657471" lat="49.1043167114257812">
        <ele>153.0</ele>
        <time>2016-05-08T07:38:42.000Z</time>
      </trkpt>
      <trkpt lon="2.5017998218536377" lat="49.1042938232421875">
        <ele>153.0</ele>
        <time>2016-05-08T07:38:44.000Z</time>
      </trkpt>
      <trkpt lon="2.5019619464874268" lat="49.1042556762695312">
        <ele>151.0</ele>
        <time>2016-05-08T07:38:46.000Z</time>
      </trkpt>
      <trkpt lon="2.5021290779113770" lat="49.1042022705078125">
        <ele>151.0</ele>
        <time>2016-05-08T07:38:48.000Z</time>
      </trkpt>
      <trkpt lon="2.5022916793823242" lat="49.1041641235351562">
        <ele>151.0</ele>
        <time>2016-05-08T07:38:50.000Z</time>
      </trkpt>
      <trkpt lon="2.5024483203887939" lat="49.1041297912597656">
        <ele>153.0</ele>
        <time>2016-05-08T07:38:52.000Z</time>
      </trkpt>
      <trkpt lon="2.5026242733001709" lat="49.1041030883789062">
        <ele>152.0</ele>
        <time>2016-05-08T07:38:54.000Z</time>
      </trkpt>
      <trkpt lon="2.5027782917022705" lat="49.1040725708007812">
        <ele>150.0</ele>
        <time>2016-05-08T07:38:56.000Z</time>
      </trkpt>
      <trkpt lon="2.5029549598693848" lat="49.1040382385253906">
        <ele>150.0</ele>
        <time>2016-05-08T07:38:58.000Z</time>
      </trkpt>
      <trkpt lon="2.5030970573425293" lat="49.1040382385253906">
        <ele>148.0</ele>
        <time>2016-05-08T07:39:00.000Z</time>
      </trkpt>
      <trkpt lon="2.5032892227172852" lat="49.1040153503417969">
        <ele>147.0</ele>
        <time>2016-05-08T07:39:02.000Z</time>
      </trkpt>
      <trkpt lon="2.5034556388854980" lat="49.1039924621582031">
        <ele>150.0</ele>
        <time>2016-05-08T07:39:04.000Z</time>
      </trkpt>
      <trkpt lon="2.5036358833312988" lat="49.1039543151855469">
        <ele>149.0</ele>
        <time>2016-05-08T07:39:06.000Z</time>
      </trkpt>
      <trkpt lon="2.5037879943847656" lat="49.1039505004882812">
        <ele>147.0</ele>
        <time>2016-05-08T07:39:08.000Z</time>
      </trkpt>
      <trkpt lon="2.5037879943847656" lat="49.1039505004882812">
        <ele>147.0</ele>
        <time>2016-05-08T07:39:10.000Z</time>
      </trkpt>
      <trkpt lon="2.5037879943847656" lat="49.1039505004882812">
        <ele>147.0</ele>
        <time>2016-05-08T07:39:12.000Z</time>
      </trkpt>
      <trkpt lon="2.5037879943847656" lat="49.1039505004882812">
        <ele>147.0</ele>
        <time>2016-05-08T07:39:14.000Z</time>
      </trkpt>
      <trkpt lon="2.5037879943847656" lat="49.1039505004882812">
        <ele>147.0</ele>
        <time>2016-05-08T07:39:16.000Z</time>
      </trkpt>
      <trkpt lon="2.5037879943847656" lat="49.1039505004882812">
        <ele>147.0</ele>
        <time>2016-05-08T07:39:18.000Z</time>
      </trkpt>
      <trkpt lon="2.5037879943847656" lat="49.1039505004882812">
        <ele>147.0</ele>
        <time>2016-05-08T07:39:20.000Z</time>
      </trkpt>
      <trkpt lon="2.5037879943847656" lat="49.1039505004882812">
        <ele>147.0</ele>
        <time>2016-05-08T07:39:22.000Z</time>
      </trkpt>
      <trkpt lon="2.5037879943847656" lat="49.1039505004882812">
        <ele>147.0</ele>
        <time>2016-05-08T07:39:24.000Z</time>
      </trkpt>
      <trkpt lon="2.5037879943847656" lat="49.1039505004882812">
        <ele>147.0</ele>
        <time>2016-05-08T07:39:26.000Z</time>
      </trkpt>
      <trkpt lon="2.5037879943847656" lat="49.1039505004882812">
        <ele>147.0</ele>
        <time>2016-05-08T07:39:28.000Z</time>
      </trkpt>
      <trkpt lon="2.5037879943847656" lat="49.1039505004882812">
        <ele>147.0</ele>
        <time>2016-05-08T07:39:30.000Z</time>
      </trkpt>
      <trkpt lon="2.5037879943847656" lat="49.1039505004882812">
        <ele>147.0</ele>
        <time>2016-05-08T07:39:32.000Z</time>
      </trkpt>
      <trkpt lon="2.5037879943847656" lat="49.1039505004882812">
        <ele>147.0</ele>
        <time>2016-05-08T07:39:34.000Z</time>
      </trkpt>
      <trkpt lon="2.5037879943847656" lat="49.1039505004882812">
        <ele>147.0</ele>
        <time>2016-05-08T07:39:36.000Z</time>
      </trkpt>
      <trkpt lon="2.5060048103332520" lat="49.1036567687988281">
        <ele>156.0</ele>
        <time>2016-05-08T07:39:40.000Z</time>
      </trkpt>
      <trkpt lon="2.5060048103332520" lat="49.1036567687988281">
        <ele>156.0</ele>
        <time>2016-05-08T07:39:42.000Z</time>
      </trkpt>
      <trkpt lon="2.5060048103332520" lat="49.1036567687988281">
        <ele>156.0</ele>
        <time>2016-05-08T07:39:44.000Z</time>
      </trkpt>
      <trkpt lon="2.5060048103332520" lat="49.1036567687988281">
        <ele>156.0</ele>
        <time>2016-05-08T07:39:46.000Z</time>
      </trkpt>
      <trkpt lon="2.5060048103332520" lat="49.1036567687988281">
        <ele>156.0</ele>
        <time>2016-05-08T07:39:48.000Z</time>
      </trkpt>
      <trkpt lon="2.5060048103332520" lat="49.1036567687988281">
        <ele>156.0</ele>
        <time>2016-05-08T07:39:50.000Z</time>
      </trkpt>
      <trkpt lon="2.5060048103332520" lat="49.1036567687988281">
        <ele>156.0</ele>
        <time>2016-05-08T07:39:52.000Z</time>
      </trkpt>
      <trkpt lon="2.5065119266510010" lat="49.1041641235351562">
        <ele>163.0</ele>
        <time>2016-05-08T07:39:57.000Z</time>
      </trkpt>
      <trkpt lon="2.5067055225372314" lat="49.1044120788574219">
        <ele>160.0</ele>
        <time>2016-05-08T07:40:02.000Z</time>
      </trkpt>
      <trkpt lon="2.5067074298858643" lat="49.1045150756835938">
        <ele>159.0</ele>
        <time>2016-05-08T07:40:04.000Z</time>
      </trkpt>
      <trkpt lon="2.5067541599273682" lat="49.1046409606933594">
        <ele>159.0</ele>
        <time>2016-05-08T07:40:06.000Z</time>
      </trkpt>
      <trkpt lon="2.5068154335021973" lat="49.1047477722167969">
        <ele>157.0</ele>
        <time>2016-05-08T07:40:08.000Z</time>
      </trkpt>
      <trkpt lon="2.5068500041961670" lat="49.1048469543457031">
        <ele>154.0</ele>
        <time>2016-05-08T07:40:10.000Z</time>
      </trkpt>
      <trkpt lon="2.5068566799163818" lat="49.1049575805664062">
        <ele>151.0</ele>
        <time>2016-05-08T07:40:12.000Z</time>
      </trkpt>
      <trkpt lon="2.5068566799163818" lat="49.1049575805664062">
        <ele>151.0</ele>
        <time>2016-05-08T07:40:14.000Z</time>
      </trkpt>
      <trkpt lon="2.5068566799163818" lat="49.1049575805664062">
        <ele>151.0</ele>
        <time>2016-05-08T07:40:16.000Z</time>
      </trkpt>
      <trkpt lon="2.5068566799163818" lat="49.1049575805664062">
        <ele>151.0</ele>
        <time>2016-05-08T07:40:18.000Z</time>
      </trkpt>
      <trkpt lon="2.5069699287414551" lat="49.1051559448242188">
        <ele>152.0</ele>
        <time>2016-05-08T07:40:20.000Z</time>
      </trkpt>
      <trkpt lon="2.5070466995239258" lat="49.1053085327148438">
        <ele>152.0</ele>
        <time>2016-05-08T07:40:22.000Z</time>
      </trkpt>
      <trkpt lon="2.5071246623992920" lat="49.1054382324218750">
        <ele>153.0</ele>
        <time>2016-05-08T07:40:24.000Z</time>
      </trkpt>
      <trkpt lon="2.5071246623992920" lat="49.1054382324218750">
        <ele>153.0</ele>
        <time>2016-05-08T07:40:27.000Z</time>
      </trkpt>
      <trkpt lon="2.5072252750396729" lat="49.1056137084960938">
        <ele>155.0</ele>
        <time>2016-05-08T07:40:29.000Z</time>
      </trkpt>
      <trkpt lon="2.5072891712188721" lat="49.1057548522949219">
        <ele>155.0</ele>
        <time>2016-05-08T07:40:31.000Z</time>
      </trkpt>
      <trkpt lon="2.5073347091674805" lat="49.1058921813964844">
        <ele>159.0</ele>
        <time>2016-05-08T07:40:33.000Z</time>
      </trkpt>
      <trkpt lon="2.5073974132537842" lat="49.1060066223144531">
        <ele>160.0</ele>
        <time>2016-05-08T07:40:35.000Z</time>
      </trkpt>
      <trkpt lon="2.5074307918548584" lat="49.1061363220214844">
        <ele>158.0</ele>
        <time>2016-05-08T07:40:37.000Z</time>
      </trkpt>
      <trkpt lon="2.5074841976165771" lat="49.1063995361328125">
        <ele>153.0</ele>
        <time>2016-05-08T07:40:39.000Z</time>
      </trkpt>
      <trkpt lon="2.5074841976165771" lat="49.1063995361328125">
        <ele>153.0</ele>
        <time>2016-05-08T07:40:41.000Z</time>
      </trkpt>
      <trkpt lon="2.5075304508209229" lat="49.1066055297851562">
        <ele>158.0</ele>
        <time>2016-05-08T07:40:43.000Z</time>
      </trkpt>
      <trkpt lon="2.5075995922088623" lat="49.1067047119140625">
        <ele>158.0</ele>
        <time>2016-05-08T07:40:45.000Z</time>
      </trkpt>
      <trkpt lon="2.5076801776885986" lat="49.1068344116210938">
        <ele>153.0</ele>
        <time>2016-05-08T07:40:47.000Z</time>
      </trkpt>
      <trkpt lon="2.5077464580535889" lat="49.1069297790527344">
        <ele>154.0</ele>
        <time>2016-05-08T07:40:49.000Z</time>
      </trkpt>
      <trkpt lon="2.5077862739562988" lat="49.1070442199707031">
        <ele>156.0</ele>
        <time>2016-05-08T07:40:51.000Z</time>
      </trkpt>
      <trkpt lon="2.5078542232513428" lat="49.1071434020996094">
        <ele>155.0</ele>
        <time>2016-05-08T07:40:53.000Z</time>
      </trkpt>
      <trkpt lon="2.5078501701354980" lat="49.1072998046875000">
        <ele>151.0</ele>
        <time>2016-05-08T07:40:55.000Z</time>
      </trkpt>
      <trkpt lon="2.5079045295715332" lat="49.1074028015136719">
        <ele>153.0</ele>
        <time>2016-05-08T07:40:57.000Z</time>
      </trkpt>
      <trkpt lon="2.5079839229583740" lat="49.1075248718261719">
        <ele>155.0</ele>
        <time>2016-05-08T07:40:59.000Z</time>
      </trkpt>
      <trkpt lon="2.5080454349517822" lat="49.1076393127441406">
        <ele>152.0</ele>
        <time>2016-05-08T07:41:01.000Z</time>
      </trkpt>
      <trkpt lon="2.5080850124359131" lat="49.1077613830566406">
        <ele>149.0</ele>
        <time>2016-05-08T07:41:03.000Z</time>
      </trkpt>
      <trkpt lon="2.5081665515899658" lat="49.1078529357910156">
        <ele>149.0</ele>
        <time>2016-05-08T07:41:05.000Z</time>
      </trkpt>
      <trkpt lon="2.5081665515899658" lat="49.1078529357910156">
        <ele>149.0</ele>
        <time>2016-05-08T07:41:07.000Z</time>
      </trkpt>
      <trkpt lon="2.5082752704620361" lat="49.1080513000488281">
        <ele>149.0</ele>
        <time>2016-05-08T07:41:09.000Z</time>
      </trkpt>
      <trkpt lon="2.5083115100860596" lat="49.1081581115722656">
        <ele>148.0</ele>
        <time>2016-05-08T07:41:11.000Z</time>
      </trkpt>
      <trkpt lon="2.5083475112915039" lat="49.1082687377929688">
        <ele>149.0</ele>
        <time>2016-05-08T07:41:13.000Z</time>
      </trkpt>
      <trkpt lon="2.5083920955657959" lat="49.1083717346191406">
        <ele>151.0</ele>
        <time>2016-05-08T07:41:15.000Z</time>
      </trkpt>
      <trkpt lon="2.5084447860717773" lat="49.1084556579589844">
        <ele>152.0</ele>
        <time>2016-05-08T07:41:17.000Z</time>
      </trkpt>
      <trkpt lon="2.5084447860717773" lat="49.1084556579589844">
        <ele>152.0</ele>
        <time>2016-05-08T07:41:19.000Z</time>
      </trkpt>
      <trkpt lon="2.5086081027984619" lat="49.1087074279785156">
        <ele>155.0</ele>
        <time>2016-05-08T07:41:22.000Z</time>
      </trkpt>
      <trkpt lon="2.5086290836334229" lat="49.1088294982910156">
        <ele>151.0</ele>
        <time>2016-05-08T07:41:24.000Z</time>
      </trkpt>
      <trkpt lon="2.5086810588836670" lat="49.1089401245117188">
        <ele>152.0</ele>
        <time>2016-05-08T07:41:26.000Z</time>
      </trkpt>
      <trkpt lon="2.5087161064147949" lat="49.1090621948242188">
        <ele>151.0</ele>
        <time>2016-05-08T07:41:28.000Z</time>
      </trkpt>
      <trkpt lon="2.5087161064147949" lat="49.1090621948242188">
        <ele>151.0</ele>
        <time>2016-05-08T07:41:30.000Z</time>
      </trkpt>
      <trkpt lon="2.5087161064147949" lat="49.1090621948242188">
        <ele>151.0</ele>
        <time>2016-05-08T07:41:32.000Z</time>
      </trkpt>
      <trkpt lon="2.5089337825775146" lat="49.1093788146972656">
        <ele>155.0</ele>
        <time>2016-05-08T07:41:34.000Z</time>
      </trkpt>
      <trkpt lon="2.5089733600616455" lat="49.1095008850097656">
        <ele>156.0</ele>
        <time>2016-05-08T07:41:36.000Z</time>
      </trkpt>
      <trkpt lon="2.5090210437774658" lat="49.1096038818359375">
        <ele>156.0</ele>
        <time>2016-05-08T07:41:38.000Z</time>
      </trkpt>
      <trkpt lon="2.5090210437774658" lat="49.1096038818359375">
        <ele>156.0</ele>
        <time>2016-05-08T07:41:40.000Z</time>
      </trkpt>
      <trkpt lon="2.5090210437774658" lat="49.1096038818359375">
        <ele>156.0</ele>
        <time>2016-05-08T07:41:43.000Z</time>
      </trkpt>
      <trkpt lon="2.5090210437774658" lat="49.1096038818359375">
        <ele>156.0</ele>
        <time>2016-05-08T07:41:45.000Z</time>
      </trkpt>
      <trkpt lon="2.5090210437774658" lat="49.1096038818359375">
        <ele>156.0</ele>
        <time>2016-05-08T07:41:47.000Z</time>
      </trkpt>
      <trkpt lon="2.5095417499542236" lat="49.1098823547363281">
        <ele>161.0</ele>
        <time>2016-05-08T07:41:51.000Z</time>
      </trkpt>
      <trkpt lon="2.5096814632415771" lat="49.1098480224609375">
        <ele>163.0</ele>
        <time>2016-05-08T07:41:53.000Z</time>
      </trkpt>
      <trkpt lon="2.5098292827606201" lat="49.1098060607910156">
        <ele>162.0</ele>
        <time>2016-05-08T07:41:55.000Z</time>
      </trkpt>
      <trkpt lon="2.5099754333496094" lat="49.1097755432128906">
        <ele>162.0</ele>
        <time>2016-05-08T07:41:57.000Z</time>
      </trkpt>
      <trkpt lon="2.5101187229156494" lat="49.1097412109375000">
        <ele>163.0</ele>
        <time>2016-05-08T07:41:59.000Z</time>
      </trkpt>
      <trkpt lon="2.5102705955505371" lat="49.1097183227539062">
        <ele>163.0</ele>
        <time>2016-05-08T07:42:01.000Z</time>
      </trkpt>
      <trkpt lon="2.5102705955505371" lat="49.1097183227539062">
        <ele>163.0</ele>
        <time>2016-05-08T07:42:03.000Z</time>
      </trkpt>
      <trkpt lon="2.5102705955505371" lat="49.1097183227539062">
        <ele>163.0</ele>
        <time>2016-05-08T07:42:05.000Z</time>
      </trkpt>
      <trkpt lon="2.5110127925872803" lat="49.1096076965332031">
        <ele>166.0</ele>
        <time>2016-05-08T07:42:11.000Z</time>
      </trkpt>
      <trkpt lon="2.5111672878265381" lat="49.1095809936523438">
        <ele>165.0</ele>
        <time>2016-05-08T07:42:13.000Z</time>
      </trkpt>
      <trkpt lon="2.5113124847412109" lat="49.1095466613769531">
        <ele>167.0</ele>
        <time>2016-05-08T07:42:15.000Z</time>
      </trkpt>
      <trkpt lon="2.5114614963531494" lat="49.1095314025878906">
        <ele>167.0</ele>
        <time>2016-05-08T07:42:17.000Z</time>
      </trkpt>
      <trkpt lon="2.5114614963531494" lat="49.1095314025878906">
        <ele>167.0</ele>
        <time>2016-05-08T07:42:19.000Z</time>
      </trkpt>
      <trkpt lon="2.5117776393890381" lat="49.1095390319824219">
        <ele>169.0</ele>
        <time>2016-05-08T07:42:21.000Z</time>
      </trkpt>
      <trkpt lon="2.5119304656982422" lat="49.1095542907714844">
        <ele>167.0</ele>
        <time>2016-05-08T07:42:23.000Z</time>
      </trkpt>
      <trkpt lon="2.5121088027954102" lat="49.1095695495605469">
        <ele>169.0</ele>
        <time>2016-05-08T07:42:25.000Z</time>
      </trkpt>
      <trkpt lon="2.5122487545013428" lat="49.1095771789550781">
        <ele>171.0</ele>
        <time>2016-05-08T07:42:27.000Z</time>
      </trkpt>
      <trkpt lon="2.5122487545013428" lat="49.1095771789550781">
        <ele>171.0</ele>
        <time>2016-05-08T07:42:29.000Z</time>
      </trkpt>
      <trkpt lon="2.5122487545013428" lat="49.1095771789550781">
        <ele>171.0</ele>
        <time>2016-05-08T07:42:31.000Z</time>
      </trkpt>
      <trkpt lon="2.5129833221435547" lat="49.1097297668457031">
        <ele>165.0</ele>
        <time>2016-05-08T07:42:36.000Z</time>
      </trkpt>
      <trkpt lon="2.5131239891052246" lat="49.1097793579101562">
        <ele>164.0</ele>
        <time>2016-05-08T07:42:38.000Z</time>
      </trkpt>
      <trkpt lon="2.5131239891052246" lat="49.1097793579101562">
        <ele>164.0</ele>
        <time>2016-05-08T07:42:40.000Z</time>
      </trkpt>
      <trkpt lon="2.5132353305816650" lat="49.1102371215820312">
        <ele>161.0</ele>
        <time>2016-05-08T07:42:46.000Z</time>
      </trkpt>
      <trkpt lon="2.5132462978363037" lat="49.1103630065917969">
        <ele>161.0</ele>
        <time>2016-05-08T07:42:49.000Z</time>
      </trkpt>
      <trkpt lon="2.5131821632385254" lat="49.1104812622070312">
        <ele>159.0</ele>
        <time>2016-05-08T07:42:51.000Z</time>
      </trkpt>
      <trkpt lon="2.5131716728210449" lat="49.1105995178222656">
        <ele>161.0</ele>
        <time>2016-05-08T07:42:53.000Z</time>
      </trkpt>
      <trkpt lon="2.5131492614746094" lat="49.1107177734375000">
        <ele>162.0</ele>
        <time>2016-05-08T07:42:55.000Z</time>
      </trkpt>
      <trkpt lon="2.5131134986877441" lat="49.1108665466308594">
        <ele>159.0</ele>
        <time>2016-05-08T07:42:57.000Z</time>
      </trkpt>
      <trkpt lon="2.5131297111511230" lat="49.1110153198242188">
        <ele>159.0</ele>
        <time>2016-05-08T07:42:59.000Z</time>
      </trkpt>
      <trkpt lon="2.5131368637084961" lat="49.1111526489257812">
        <ele>160.0</ele>
        <time>2016-05-08T07:43:01.000Z</time>
      </trkpt>
      <trkpt lon="2.5131061077117920" lat="49.1112747192382812">
        <ele>160.0</ele>
        <time>2016-05-08T07:43:03.000Z</time>
      </trkpt>
      <trkpt lon="2.5131034851074219" lat="49.1113700866699219">
        <ele>162.0</ele>
        <time>2016-05-08T07:43:05.000Z</time>
      </trkpt>
      <trkpt lon="2.5130841732025146" lat="49.1114883422851562">
        <ele>160.0</ele>
        <time>2016-05-08T07:43:07.000Z</time>
      </trkpt>
      <trkpt lon="2.5130841732025146" lat="49.1114883422851562">
        <ele>160.0</ele>
        <time>2016-05-08T07:43:09.000Z</time>
      </trkpt>
      <trkpt lon="2.5130841732025146" lat="49.1114883422851562">
        <ele>160.0</ele>
        <time>2016-05-08T07:43:11.000Z</time>
      </trkpt>
      <trkpt lon="2.5130841732025146" lat="49.1114883422851562">
        <ele>160.0</ele>
        <time>2016-05-08T07:43:13.000Z</time>
      </trkpt>
      <trkpt lon="2.5138273239135742" lat="49.1114959716796875">
        <ele>157.0</ele>
        <time>2016-05-08T07:43:17.000Z</time>
      </trkpt>
      <trkpt lon="2.5139770507812500" lat="49.1114616394042969">
        <ele>161.0</ele>
        <time>2016-05-08T07:43:19.000Z</time>
      </trkpt>
      <trkpt lon="2.5141615867614746" lat="49.1114082336425781">
        <ele>161.0</ele>
        <time>2016-05-08T07:43:21.000Z</time>
      </trkpt>
      <trkpt lon="2.5143153667449951" lat="49.1113662719726562">
        <ele>162.0</ele>
        <time>2016-05-08T07:43:23.000Z</time>
      </trkpt>
      <trkpt lon="2.5144767761230469" lat="49.1113395690917969">
        <ele>160.0</ele>
        <time>2016-05-08T07:43:25.000Z</time>
      </trkpt>
      <trkpt lon="2.5144767761230469" lat="49.1113395690917969">
        <ele>160.0</ele>
        <time>2016-05-08T07:43:27.000Z</time>
      </trkpt>
      <trkpt lon="2.5144767761230469" lat="49.1113395690917969">
        <ele>160.0</ele>
        <time>2016-05-08T07:43:29.000Z</time>
      </trkpt>
      <trkpt lon="2.5144767761230469" lat="49.1113395690917969">
        <ele>160.0</ele>
        <time>2016-05-08T07:43:31.000Z</time>
      </trkpt>
      <trkpt lon="2.5144767761230469" lat="49.1113395690917969">
        <ele>160.0</ele>
        <time>2016-05-08T07:43:33.000Z</time>
      </trkpt>
      <trkpt lon="2.5149679183959961" lat="49.1112403869628906">
        <ele>162.0</ele>
        <time>2016-05-08T07:43:39.000Z</time>
      </trkpt>
      <trkpt lon="2.5152890682220459" lat="49.1111793518066406">
        <ele>162.0</ele>
        <time>2016-05-08T07:43:41.000Z</time>
      </trkpt>
      <trkpt lon="2.5155169963836670" lat="49.1111373901367188">
        <ele>160.0</ele>
        <time>2016-05-08T07:43:43.000Z</time>
      </trkpt>
      <trkpt lon="2.5157005786895752" lat="49.1110954284667969">
        <ele>161.0</ele>
        <time>2016-05-08T07:43:45.000Z</time>
      </trkpt>
      <trkpt lon="2.5157005786895752" lat="49.1110954284667969">
        <ele>161.0</ele>
        <time>2016-05-08T07:43:47.000Z</time>
      </trkpt>
      <trkpt lon="2.5157005786895752" lat="49.1110954284667969">
        <ele>161.0</ele>
        <time>2016-05-08T07:43:49.000Z</time>
      </trkpt>
      <trkpt lon="2.5157005786895752" lat="49.1110954284667969">
        <ele>161.0</ele>
        <time>2016-05-08T07:43:51.000Z</time>
      </trkpt>
      <trkpt lon="2.5157005786895752" lat="49.1110954284667969">
        <ele>161.0</ele>
        <time>2016-05-08T07:43:53.000Z</time>
      </trkpt>
      <trkpt lon="2.5157005786895752" lat="49.1110954284667969">
        <ele>161.0</ele>
        <time>2016-05-08T07:43:55.000Z</time>
      </trkpt>
      <trkpt lon="2.5157005786895752" lat="49.1110954284667969">
        <ele>161.0</ele>
        <time>2016-05-08T07:43:57.000Z</time>
      </trkpt>
      <trkpt lon="2.5157005786895752" lat="49.1110954284667969">
        <ele>161.0</ele>
        <time>2016-05-08T07:44:05.000Z</time>
      </trkpt>
      <trkpt lon="2.5165174007415771" lat="49.1109046936035156">
        <ele>158.0</ele>
        <time>2016-05-08T07:44:07.000Z</time>
      </trkpt>
      <trkpt lon="2.5170013904571533" lat="49.1107902526855469">
        <ele>158.0</ele>
        <time>2016-05-08T07:44:09.000Z</time>
      </trkpt>
      <trkpt lon="2.5173106193542480" lat="49.1107139587402344">
        <ele>157.0</ele>
        <time>2016-05-08T07:44:11.000Z</time>
      </trkpt>
      <trkpt lon="2.5175223350524902" lat="49.1106605529785156">
        <ele>156.0</ele>
        <time>2016-05-08T07:44:13.000Z</time>
      </trkpt>
      <trkpt lon="2.5176768302917480" lat="49.1106147766113281">
        <ele>159.0</ele>
        <time>2016-05-08T07:44:15.000Z</time>
      </trkpt>
      <trkpt lon="2.5176768302917480" lat="49.1106147766113281">
        <ele>159.0</ele>
        <time>2016-05-08T07:44:17.000Z</time>
      </trkpt>
      <trkpt lon="2.5184924602508545" lat="49.1104927062988281">
        <ele>163.0</ele>
        <time>2016-05-08T07:44:25.000Z</time>
      </trkpt>
      <trkpt lon="2.5186450481414795" lat="49.1104621887207031">
        <ele>162.0</ele>
        <time>2016-05-08T07:44:27.000Z</time>
      </trkpt>
      <trkpt lon="2.5188033580780029" lat="49.1104278564453125">
        <ele>162.0</ele>
        <time>2016-05-08T07:44:29.000Z</time>
      </trkpt>
      <trkpt lon="2.5189607143402100" lat="49.1104164123535156">
        <ele>158.0</ele>
        <time>2016-05-08T07:44:31.000Z</time>
      </trkpt>
      <trkpt lon="2.5191295146942139" lat="49.1103553771972656">
        <ele>157.0</ele>
        <time>2016-05-08T07:44:33.000Z</time>
      </trkpt>
      <trkpt lon="2.5192775726318359" lat="49.1103057861328125">
        <ele>155.0</ele>
        <time>2016-05-08T07:44:35.000Z</time>
      </trkpt>
      <trkpt lon="2.5194416046142578" lat="49.1103134155273438">
        <ele>155.0</ele>
        <time>2016-05-08T07:44:37.000Z</time>
      </trkpt>
      <trkpt lon="2.5194416046142578" lat="49.1103134155273438">
        <ele>155.0</ele>
        <time>2016-05-08T07:44:39.000Z</time>
      </trkpt>
      <trkpt lon="2.5194416046142578" lat="49.1103134155273438">
        <ele>155.0</ele>
        <time>2016-05-08T07:44:41.000Z</time>
      </trkpt>
      <trkpt lon="2.5194416046142578" lat="49.1103134155273438">
        <ele>155.0</ele>
        <time>2016-05-08T07:44:43.000Z</time>
      </trkpt>
      <trkpt lon="2.5194416046142578" lat="49.1103134155273438">
        <ele>155.0</ele>
        <time>2016-05-08T07:44:45.000Z</time>
      </trkpt>
      <trkpt lon="2.5194416046142578" lat="49.1103134155273438">
        <ele>155.0</ele>
        <time>2016-05-08T07:44:47.000Z</time>
      </trkpt>
      <trkpt lon="2.5205621719360352" lat="49.1101837158203125">
        <ele>152.0</ele>
        <time>2016-05-08T07:44:54.000Z</time>
      </trkpt>
      <trkpt lon="2.5207028388977051" lat="49.1101570129394531">
        <ele>153.0</ele>
        <time>2016-05-08T07:44:56.000Z</time>
      </trkpt>
      <trkpt lon="2.5208692550659180" lat="49.1101188659667969">
        <ele>151.0</ele>
        <time>2016-05-08T07:44:58.000Z</time>
      </trkpt>
      <trkpt lon="2.5210394859313965" lat="49.1101150512695312">
        <ele>149.0</ele>
        <time>2016-05-08T07:45:00.000Z</time>
      </trkpt>
      <trkpt lon="2.5212163925170898" lat="49.1100997924804688">
        <ele>151.0</ele>
        <time>2016-05-08T07:45:02.000Z</time>
      </trkpt>
      <trkpt lon="2.5213973522186279" lat="49.1100845336914062">
        <ele>150.0</ele>
        <time>2016-05-08T07:45:04.000Z</time>
      </trkpt>
      <trkpt lon="2.5215618610382080" lat="49.1100692749023438">
        <ele>151.0</ele>
        <time>2016-05-08T07:45:06.000Z</time>
      </trkpt>
      <trkpt lon="2.5217201709747314" lat="49.1100311279296875">
        <ele>153.0</ele>
        <time>2016-05-08T07:45:08.000Z</time>
      </trkpt>
      <trkpt lon="2.5218784809112549" lat="49.1099891662597656">
        <ele>153.0</ele>
        <time>2016-05-08T07:45:10.000Z</time>
      </trkpt>
      <trkpt lon="2.5218784809112549" lat="49.1099891662597656">
        <ele>153.0</ele>
        <time>2016-05-08T07:45:12.000Z</time>
      </trkpt>
      <trkpt lon="2.5218784809112549" lat="49.1099891662597656">
        <ele>153.0</ele>
        <time>2016-05-08T07:45:14.000Z</time>
      </trkpt>
      <trkpt lon="2.5218784809112549" lat="49.1099891662597656">
        <ele>153.0</ele>
        <time>2016-05-08T07:45:16.000Z</time>
      </trkpt>
      <trkpt lon="2.5226635932922363" lat="49.1101112365722656">
        <ele>145.0</ele>
        <time>2016-05-08T07:45:20.000Z</time>
      </trkpt>
      <trkpt lon="2.5228197574615479" lat="49.1101837158203125">
        <ele>141.0</ele>
        <time>2016-05-08T07:45:22.000Z</time>
      </trkpt>
      <trkpt lon="2.5229289531707764" lat="49.1102638244628906">
        <ele>141.0</ele>
        <time>2016-05-08T07:45:24.000Z</time>
      </trkpt>
      <trkpt lon="2.5230460166931152" lat="49.1103363037109375">
        <ele>139.0</ele>
        <time>2016-05-08T07:45:26.000Z</time>
      </trkpt>
      <trkpt lon="2.5231668949127197" lat="49.1104125976562500">
        <ele>135.0</ele>
        <time>2016-05-08T07:45:28.000Z</time>
      </trkpt>
      <trkpt lon="2.5232863426208496" lat="49.1104698181152344">
        <ele>134.0</ele>
        <time>2016-05-08T07:45:30.000Z</time>
      </trkpt>
      <trkpt lon="2.5233972072601318" lat="49.1105804443359375">
        <ele>134.0</ele>
        <time>2016-05-08T07:45:32.000Z</time>
      </trkpt>
      <trkpt lon="2.5235216617584229" lat="49.1106910705566406">
        <ele>134.0</ele>
        <time>2016-05-08T07:45:34.000Z</time>
      </trkpt>
      <trkpt lon="2.5236189365386963" lat="49.1108131408691406">
        <ele>138.0</ele>
        <time>2016-05-08T07:45:36.000Z</time>
      </trkpt>
      <trkpt lon="2.5237309932708740" lat="49.1109123229980469">
        <ele>138.0</ele>
        <time>2016-05-08T07:45:38.000Z</time>
      </trkpt>
      <trkpt lon="2.5238115787506104" lat="49.1109886169433594">
        <ele>138.0</ele>
        <time>2016-05-08T07:45:40.000Z</time>
      </trkpt>
      <trkpt lon="2.5238115787506104" lat="49.1109886169433594">
        <ele>138.0</ele>
        <time>2016-05-08T07:45:42.000Z</time>
      </trkpt>
      <trkpt lon="2.5238115787506104" lat="49.1109886169433594">
        <ele>138.0</ele>
        <time>2016-05-08T07:45:44.000Z</time>
      </trkpt>
      <trkpt lon="2.5238115787506104" lat="49.1109886169433594">
        <ele>138.0</ele>
        <time>2016-05-08T07:45:46.000Z</time>
      </trkpt>
      <trkpt lon="2.5238115787506104" lat="49.1109886169433594">
        <ele>138.0</ele>
        <time>2016-05-08T07:45:48.000Z</time>
      </trkpt>
      <trkpt lon="2.5238115787506104" lat="49.1109886169433594">
        <ele>138.0</ele>
        <time>2016-05-08T07:45:50.000Z</time>
      </trkpt>
      <trkpt lon="2.5237867832183838" lat="49.1117095947265625">
        <ele>149.0</ele>
        <time>2016-05-08T07:45:56.000Z</time>
      </trkpt>
      <trkpt lon="2.5237634181976318" lat="49.1118202209472656">
        <ele>150.0</ele>
        <time>2016-05-08T07:45:58.000Z</time>
      </trkpt>
      <trkpt lon="2.5237512588500977" lat="49.1119422912597656">
        <ele>149.0</ele>
        <time>2016-05-08T07:46:00.000Z</time>
      </trkpt>
      <trkpt lon="2.5236847400665283" lat="49.1120491027832031">
        <ele>150.0</ele>
        <time>2016-05-08T07:46:02.000Z</time>
      </trkpt>
      <trkpt lon="2.5236227512359619" lat="49.1121597290039062">
        <ele>152.0</ele>
        <time>2016-05-08T07:46:04.000Z</time>
      </trkpt>
      <trkpt lon="2.5235576629638672" lat="49.1122474670410156">
        <ele>152.0</ele>
        <time>2016-05-08T07:46:06.000Z</time>
      </trkpt>
      <trkpt lon="2.5235702991485596" lat="49.1123733520507812">
        <ele>152.0</ele>
        <time>2016-05-08T07:46:08.000Z</time>
      </trkpt>
      <trkpt lon="2.5235183238983154" lat="49.1124610900878906">
        <ele>152.0</ele>
        <time>2016-05-08T07:46:10.000Z</time>
      </trkpt>
      <trkpt lon="2.5235183238983154" lat="49.1124610900878906">
        <ele>152.0</ele>
        <time>2016-05-08T07:46:12.000Z</time>
      </trkpt>
      <trkpt lon="2.5235183238983154" lat="49.1124610900878906">
        <ele>152.0</ele>
        <time>2016-05-08T07:46:14.000Z</time>
      </trkpt>
      <trkpt lon="2.5234615802764893" lat="49.1129226684570312">
        <ele>146.0</ele>
        <time>2016-05-08T07:46:18.000Z</time>
      </trkpt>
      <trkpt lon="2.5234453678131104" lat="49.1130409240722656">
        <ele>145.0</ele>
        <time>2016-05-08T07:46:20.000Z</time>
      </trkpt>
      <trkpt lon="2.5234453678131104" lat="49.1130409240722656">
        <ele>145.0</ele>
        <time>2016-05-08T07:46:22.000Z</time>
      </trkpt>
      <trkpt lon="2.5234453678131104" lat="49.1130409240722656">
        <ele>145.0</ele>
        <time>2016-05-08T07:46:24.000Z</time>
      </trkpt>
      <trkpt lon="2.5232751369476318" lat="49.1134490966796875">
        <ele>143.0</ele>
        <time>2016-05-08T07:46:28.000Z</time>
      </trkpt>
      <trkpt lon="2.5232036113739014" lat="49.1135482788085938">
        <ele>143.0</ele>
        <time>2016-05-08T07:46:30.000Z</time>
      </trkpt>
      <trkpt lon="2.5231566429138184" lat="49.1136589050292969">
        <ele>144.0</ele>
        <time>2016-05-08T07:46:32.000Z</time>
      </trkpt>
      <trkpt lon="2.5230329036712646" lat="49.1137619018554688">
        <ele>140.0</ele>
        <time>2016-05-08T07:46:34.000Z</time>
      </trkpt>
      <trkpt lon="2.5229642391204834" lat="49.1138839721679688">
        <ele>142.0</ele>
        <time>2016-05-08T07:46:36.000Z</time>
      </trkpt>
      <trkpt lon="2.5229136943817139" lat="49.1139869689941406">
        <ele>141.0</ele>
        <time>2016-05-08T07:46:38.000Z</time>
      </trkpt>
      <trkpt lon="2.5228347778320312" lat="49.1140632629394531">
        <ele>141.0</ele>
        <time>2016-05-08T07:46:40.000Z</time>
      </trkpt>
      <trkpt lon="2.5228347778320312" lat="49.1140632629394531">
        <ele>141.0</ele>
        <time>2016-05-08T07:46:43.000Z</time>
      </trkpt>
      <trkpt lon="2.5227863788604736" lat="49.1144027709960938">
        <ele>147.0</ele>
        <time>2016-05-08T07:46:45.000Z</time>
      </trkpt>
      <trkpt lon="2.5227215290069580" lat="49.1145019531250000">
        <ele>146.0</ele>
        <time>2016-05-08T07:46:47.000Z</time>
      </trkpt>
      <trkpt lon="2.5226783752441406" lat="49.1145935058593750">
        <ele>144.0</ele>
        <time>2016-05-08T07:46:49.000Z</time>
      </trkpt>
      <trkpt lon="2.5226783752441406" lat="49.1145935058593750">
        <ele>144.0</ele>
        <time>2016-05-08T07:46:51.000Z</time>
      </trkpt>
      <trkpt lon="2.5226783752441406" lat="49.1145935058593750">
        <ele>144.0</ele>
        <time>2016-05-08T07:46:53.000Z</time>
      </trkpt>
      <trkpt lon="2.5226783752441406" lat="49.1145935058593750">
        <ele>144.0</ele>
        <time>2016-05-08T07:46:55.000Z</time>
      </trkpt>
      <trkpt lon="2.5226783752441406" lat="49.1145935058593750">
        <ele>144.0</ele>
        <time>2016-05-08T07:46:57.000Z</time>
      </trkpt>
      <trkpt lon="2.5225307941436768" lat="49.1148262023925781">
        <ele>139.0</ele>
        <time>2016-05-08T07:47:00.000Z</time>
      </trkpt>
      <trkpt lon="2.5224096775054932" lat="49.1149787902832031">
        <ele>141.0</ele>
        <time>2016-05-08T07:47:02.000Z</time>
      </trkpt>
      <trkpt lon="2.5224096775054932" lat="49.1149787902832031">
        <ele>141.0</ele>
        <time>2016-05-08T07:47:04.000Z</time>
      </trkpt>
      <trkpt lon="2.5224096775054932" lat="49.1149787902832031">
        <ele>141.0</ele>
        <time>2016-05-08T07:47:10.000Z</time>
      </trkpt>
      <trkpt lon="2.5224096775054932" lat="49.1149787902832031">
        <ele>141.0</ele>
        <time>2016-05-08T07:47:12.000Z</time>
      </trkpt>
      <trkpt lon="2.5221228599548340" lat="49.1153335571289062">
        <ele>142.0</ele>
        <time>2016-05-08T07:47:14.000Z</time>
      </trkpt>
      <trkpt lon="2.5219292640686035" lat="49.1155548095703125">
        <ele>140.0</ele>
        <time>2016-05-08T07:47:16.000Z</time>
      </trkpt>
      <trkpt lon="2.5219292640686035" lat="49.1155548095703125">
        <ele>140.0</ele>
        <time>2016-05-08T07:47:18.000Z</time>
      </trkpt>
      <trkpt lon="2.5219292640686035" lat="49.1155548095703125">
        <ele>140.0</ele>
        <time>2016-05-08T07:47:20.000Z</time>
      </trkpt>
      <trkpt lon="2.5216803550720215" lat="49.1157913208007812">
        <ele>139.0</ele>
        <time>2016-05-08T07:47:22.000Z</time>
      </trkpt>
      <trkpt lon="2.5215108394622803" lat="49.1159553527832031">
        <ele>137.0</ele>
        <time>2016-05-08T07:47:24.000Z</time>
      </trkpt>
      <trkpt lon="2.5213255882263184" lat="49.1161346435546875">
        <ele>136.0</ele>
        <time>2016-05-08T07:47:27.000Z</time>
      </trkpt>
      <trkpt lon="2.5211744308471680" lat="49.1162757873535156">
        <ele>136.0</ele>
        <time>2016-05-08T07:47:29.000Z</time>
      </trkpt>
      <trkpt lon="2.5210301876068115" lat="49.1163902282714844">
        <ele>135.0</ele>
        <time>2016-05-08T07:47:31.000Z</time>
      </trkpt>
      <trkpt lon="2.5207681655883789" lat="49.1165924072265625">
        <ele>136.0</ele>
        <time>2016-05-08T07:47:33.000Z</time>
      </trkpt>
      <trkpt lon="2.5206589698791504" lat="49.1166763305664062">
        <ele>140.0</ele>
        <time>2016-05-08T07:47:35.000Z</time>
      </trkpt>
      <trkpt lon="2.5205502510070801" lat="49.1167678833007812">
        <ele>140.0</ele>
        <time>2016-05-08T07:47:37.000Z</time>
      </trkpt>
      <trkpt lon="2.5204410552978516" lat="49.1168670654296875">
        <ele>141.0</ele>
        <time>2016-05-08T07:47:39.000Z</time>
      </trkpt>
      <trkpt lon="2.5203251838684082" lat="49.1169357299804688">
        <ele>141.0</ele>
        <time>2016-05-08T07:47:41.000Z</time>
      </trkpt>
      <trkpt lon="2.5202195644378662" lat="49.1170082092285156">
        <ele>139.0</ele>
        <time>2016-05-08T07:47:43.000Z</time>
      </trkpt>
      <trkpt lon="2.5201194286346436" lat="49.1170883178710938">
        <ele>140.0</ele>
        <time>2016-05-08T07:47:45.000Z</time>
      </trkpt>
      <trkpt lon="2.5199999809265137" lat="49.1171684265136719">
        <ele>142.0</ele>
        <time>2016-05-08T07:47:47.000Z</time>
      </trkpt>
      <trkpt lon="2.5198671817779541" lat="49.1172676086425781">
        <ele>143.0</ele>
        <time>2016-05-08T07:47:49.000Z</time>
      </trkpt>
      <trkpt lon="2.5197391510009766" lat="49.1173439025878906">
        <ele>141.0</ele>
        <time>2016-05-08T07:47:51.000Z</time>
      </trkpt>
      <trkpt lon="2.5197391510009766" lat="49.1173439025878906">
        <ele>141.0</ele>
        <time>2016-05-08T07:47:53.000Z</time>
      </trkpt>
      <trkpt lon="2.5197391510009766" lat="49.1173439025878906">
        <ele>141.0</ele>
        <time>2016-05-08T07:47:55.000Z</time>
      </trkpt>
      <trkpt lon="2.5197391510009766" lat="49.1173439025878906">
        <ele>141.0</ele>
        <time>2016-05-08T07:47:57.000Z</time>
      </trkpt>
      <trkpt lon="2.5197391510009766" lat="49.1173439025878906">
        <ele>141.0</ele>
        <time>2016-05-08T07:47:59.000Z</time>
      </trkpt>
      <trkpt lon="2.5197391510009766" lat="49.1173439025878906">
        <ele>141.0</ele>
        <time>2016-05-08T07:48:03.000Z</time>
      </trkpt>
      <trkpt lon="2.5197391510009766" lat="49.1173439025878906">
        <ele>141.0</ele>
        <time>2016-05-08T07:48:05.000Z</time>
      </trkpt>
      <trkpt lon="2.5197391510009766" lat="49.1173439025878906">
        <ele>141.0</ele>
        <time>2016-05-08T07:48:07.000Z</time>
      </trkpt>
      <trkpt lon="2.5197391510009766" lat="49.1173439025878906">
        <ele>141.0</ele>
        <time>2016-05-08T07:48:09.000Z</time>
      </trkpt>
      <trkpt lon="2.5185441970825195" lat="49.1181488037109375">
        <ele>156.0</ele>
        <time>2016-05-08T07:48:13.000Z</time>
      </trkpt>
      <trkpt lon="2.5184249877929688" lat="49.1181945800781250">
        <ele>153.0</ele>
        <time>2016-05-08T07:48:15.000Z</time>
      </trkpt>
      <trkpt lon="2.5184249877929688" lat="49.1181945800781250">
        <ele>153.0</ele>
        <time>2016-05-08T07:48:18.000Z</time>
      </trkpt>
      <trkpt lon="2.5184249877929688" lat="49.1181945800781250">
        <ele>153.0</ele>
        <time>2016-05-08T07:48:20.000Z</time>
      </trkpt>
      <trkpt lon="2.5184249877929688" lat="49.1181945800781250">
        <ele>153.0</ele>
        <time>2016-05-08T07:48:24.000Z</time>
      </trkpt>
      <trkpt lon="2.5184249877929688" lat="49.1181945800781250">
        <ele>153.0</ele>
        <time>2016-05-08T07:48:26.000Z</time>
      </trkpt>
      <trkpt lon="2.5180752277374268" lat="49.1178779602050781">
        <ele>148.0</ele>
        <time>2016-05-08T07:48:30.000Z</time>
      </trkpt>
      <trkpt lon="2.5179967880249023" lat="49.1177597045898438">
        <ele>148.0</ele>
        <time>2016-05-08T07:48:34.000Z</time>
      </trkpt>
      <trkpt lon="2.5179140567779541" lat="49.1176681518554688">
        <ele>151.0</ele>
        <time>2016-05-08T07:48:38.000Z</time>
      </trkpt>
      <trkpt lon="2.5179140567779541" lat="49.1176681518554688">
        <ele>151.0</ele>
        <time>2016-05-08T07:48:40.000Z</time>
      </trkpt>
      <trkpt lon="2.5178158283233643" lat="49.1175651550292969">
        <ele>148.0</ele>
        <time>2016-05-08T07:48:42.000Z</time>
      </trkpt>
      <trkpt lon="2.5177056789398193" lat="49.1174621582031250">
        <ele>147.0</ele>
        <time>2016-05-08T07:48:46.000Z</time>
      </trkpt>
      <trkpt lon="2.5177056789398193" lat="49.1174621582031250">
        <ele>147.0</ele>
        <time>2016-05-08T07:48:50.000Z</time>
      </trkpt>
      <trkpt lon="2.5177056789398193" lat="49.1174621582031250">
        <ele>147.0</ele>
        <time>2016-05-08T07:48:52.000Z</time>
      </trkpt>
      <trkpt lon="2.5177056789398193" lat="49.1174621582031250">
        <ele>147.0</ele>
        <time>2016-05-08T07:48:54.000Z</time>
      </trkpt>
      <trkpt lon="2.5171256065368652" lat="49.1170539855957031">
        <ele>145.0</ele>
        <time>2016-05-08T07:49:04.000Z</time>
      </trkpt>
      <trkpt lon="2.5170359611511230" lat="49.1169357299804688">
        <ele>146.0</ele>
        <time>2016-05-08T07:49:08.000Z</time>
      </trkpt>
      <trkpt lon="2.5170359611511230" lat="49.1169357299804688">
        <ele>146.0</ele>
        <time>2016-05-08T07:49:10.000Z</time>
      </trkpt>
      <trkpt lon="2.5170359611511230" lat="49.1169357299804688">
        <ele>146.0</ele>
        <time>2016-05-08T07:49:12.000Z</time>
      </trkpt>
      <trkpt lon="2.5170359611511230" lat="49.1169357299804688">
        <ele>146.0</ele>
        <time>2016-05-08T07:49:14.000Z</time>
      </trkpt>
      <trkpt lon="2.5170359611511230" lat="49.1169357299804688">
        <ele>146.0</ele>
        <time>2016-05-08T07:49:20.000Z</time>
      </trkpt>
      <trkpt lon="2.5170359611511230" lat="49.1169357299804688">
        <ele>146.0</ele>
        <time>2016-05-08T07:49:22.000Z</time>
      </trkpt>
      <trkpt lon="2.5170359611511230" lat="49.1169357299804688">
        <ele>146.0</ele>
        <time>2016-05-08T07:49:24.000Z</time>
      </trkpt>
      <trkpt lon="2.5170359611511230" lat="49.1169357299804688">
        <ele>146.0</ele>
        <time>2016-05-08T07:49:28.000Z</time>
      </trkpt>
      <trkpt lon="2.5170359611511230" lat="49.1169357299804688">
        <ele>146.0</ele>
        <time>2016-05-08T07:49:30.000Z</time>
      </trkpt>
      <trkpt lon="2.5167460441589355" lat="49.1166954040527344">
        <ele>152.0</ele>
        <time>2016-05-08T07:49:34.000Z</time>
      </trkpt>
      <trkpt lon="2.5165803432464600" lat="49.1165580749511719">
        <ele>153.0</ele>
        <time>2016-05-08T07:49:36.000Z</time>
      </trkpt>
      <trkpt lon="2.5164666175842285" lat="49.1164665222167969">
        <ele>154.0</ele>
        <time>2016-05-08T07:49:38.000Z</time>
      </trkpt>
      <trkpt lon="2.5163934230804443" lat="49.1164169311523438">
        <ele>154.0</ele>
        <time>2016-05-08T07:49:40.000Z</time>
      </trkpt>
      <trkpt lon="2.5163934230804443" lat="49.1164169311523438">
        <ele>154.0</ele>
        <time>2016-05-08T07:49:42.000Z</time>
      </trkpt>
      <trkpt lon="2.5163934230804443" lat="49.1164169311523438">
        <ele>154.0</ele>
        <time>2016-05-08T07:49:44.000Z</time>
      </trkpt>
      <trkpt lon="2.5162491798400879" lat="49.1163063049316406">
        <ele>153.0</ele>
        <time>2016-05-08T07:49:48.000Z</time>
      </trkpt>
      <trkpt lon="2.5161612033843994" lat="49.1162261962890625">
        <ele>155.0</ele>
        <time>2016-05-08T07:49:50.000Z</time>
      </trkpt>
      <trkpt lon="2.5160868167877197" lat="49.1161651611328125">
        <ele>156.0</ele>
        <time>2016-05-08T07:49:52.000Z</time>
      </trkpt>
      <trkpt lon="2.5160183906555176" lat="49.1161155700683594">
        <ele>156.0</ele>
        <time>2016-05-08T07:49:54.000Z</time>
      </trkpt>
      <trkpt lon="2.5159692764282227" lat="49.1160659790039062">
        <ele>157.0</ele>
        <time>2016-05-08T07:49:56.000Z</time>
      </trkpt>
      <trkpt lon="2.5159692764282227" lat="49.1160659790039062">
        <ele>157.0</ele>
        <time>2016-05-08T07:49:58.000Z</time>
      </trkpt>
      <trkpt lon="2.5157911777496338" lat="49.1159210205078125">
        <ele>159.0</ele>
        <time>2016-05-08T07:50:00.000Z</time>
      </trkpt>
      <trkpt lon="2.5156207084655762" lat="49.1158599853515625">
        <ele>159.0</ele>
        <time>2016-05-08T07:50:04.000Z</time>
      </trkpt>
      <trkpt lon="2.5154731273651123" lat="49.1157722473144531">
        <ele>161.0</ele>
        <time>2016-05-08T07:50:08.000Z</time>
      </trkpt>
      <trkpt lon="2.5153393745422363" lat="49.1156959533691406">
        <ele>162.0</ele>
        <time>2016-05-08T07:50:12.000Z</time>
      </trkpt>
      <trkpt lon="2.5153393745422363" lat="49.1156959533691406">
        <ele>162.0</ele>
        <time>2016-05-08T07:50:14.000Z</time>
      </trkpt>
      <trkpt lon="2.5153393745422363" lat="49.1156959533691406">
        <ele>162.0</ele>
        <time>2016-05-08T07:50:16.000Z</time>
      </trkpt>
      <trkpt lon="2.5153393745422363" lat="49.1156959533691406">
        <ele>162.0</ele>
        <time>2016-05-08T07:50:18.000Z</time>
      </trkpt>
      <trkpt lon="2.5153393745422363" lat="49.1156959533691406">
        <ele>162.0</ele>
        <time>2016-05-08T07:50:20.000Z</time>
      </trkpt>
      <trkpt lon="2.5153393745422363" lat="49.1156959533691406">
        <ele>162.0</ele>
        <time>2016-05-08T07:50:22.000Z</time>
      </trkpt>
      <trkpt lon="2.5148458480834961" lat="49.1154327392578125">
        <ele>166.0</ele>
        <time>2016-05-08T07:50:26.000Z</time>
      </trkpt>
      <trkpt lon="2.5147087574005127" lat="49.1153526306152344">
        <ele>167.0</ele>
        <time>2016-05-08T07:50:30.000Z</time>
      </trkpt>
      <trkpt lon="2.5145056247711182" lat="49.1153221130371094">
        <ele>163.0</ele>
        <time>2016-05-08T07:50:34.000Z</time>
      </trkpt>
      <trkpt lon="2.5145056247711182" lat="49.1153221130371094">
        <ele>163.0</ele>
        <time>2016-05-08T07:50:36.000Z</time>
      </trkpt>
      <trkpt lon="2.5143008232116699" lat="49.1151847839355469">
        <ele>166.0</ele>
        <time>2016-05-08T07:50:40.000Z</time>
      </trkpt>
      <trkpt lon="2.5141925811767578" lat="49.1151008605957031">
        <ele>166.0</ele>
        <time>2016-05-08T07:50:44.000Z</time>
      </trkpt>
      <trkpt lon="2.5141925811767578" lat="49.1151008605957031">
        <ele>166.0</ele>
        <time>2016-05-08T07:50:46.000Z</time>
      </trkpt>
      <trkpt lon="2.5141925811767578" lat="49.1151008605957031">
        <ele>166.0</ele>
        <time>2016-05-08T07:50:48.000Z</time>
      </trkpt>
      <trkpt lon="2.5141925811767578" lat="49.1151008605957031">
        <ele>166.0</ele>
        <time>2016-05-08T07:50:50.000Z</time>
      </trkpt>
      <trkpt lon="2.5141925811767578" lat="49.1151008605957031">
        <ele>166.0</ele>
        <time>2016-05-08T07:50:52.000Z</time>
      </trkpt>
      <trkpt lon="2.5139155387878418" lat="49.1152534484863281">
        <ele>169.0</ele>
        <time>2016-05-08T07:50:56.000Z</time>
      </trkpt>
      <trkpt lon="2.5139155387878418" lat="49.1152534484863281">
        <ele>169.0</ele>
        <time>2016-05-08T07:50:58.000Z</time>
      </trkpt>
      <trkpt lon="2.5139155387878418" lat="49.1152534484863281">
        <ele>169.0</ele>
        <time>2016-05-08T07:51:00.000Z</time>
      </trkpt>
      <trkpt lon="2.5139155387878418" lat="49.1152534484863281">
        <ele>169.0</ele>
        <time>2016-05-08T07:51:02.000Z</time>
      </trkpt>
      <trkpt lon="2.5139155387878418" lat="49.1152534484863281">
        <ele>169.0</ele>
        <time>2016-05-08T07:51:04.000Z</time>
      </trkpt>
      <trkpt lon="2.5139155387878418" lat="49.1152534484863281">
        <ele>169.0</ele>
        <time>2016-05-08T07:51:06.000Z</time>
      </trkpt>
      <trkpt lon="2.5137221813201904" lat="49.1155242919921875">
        <ele>167.0</ele>
        <time>2016-05-08T07:51:10.000Z</time>
      </trkpt>
      <trkpt lon="2.5137221813201904" lat="49.1155242919921875">
        <ele>167.0</ele>
        <time>2016-05-08T07:51:12.000Z</time>
      </trkpt>
      <trkpt lon="2.5137221813201904" lat="49.1155242919921875">
        <ele>167.0</ele>
        <time>2016-05-08T07:51:14.000Z</time>
      </trkpt>
      <trkpt lon="2.5137221813201904" lat="49.1155242919921875">
        <ele>167.0</ele>
        <time>2016-05-08T07:51:16.000Z</time>
      </trkpt>
      <trkpt lon="2.5136084556579590" lat="49.1156311035156250">
        <ele>175.0</ele>
        <time>2016-05-08T07:51:20.000Z</time>
      </trkpt>
      <trkpt lon="2.5135009288787842" lat="49.1157188415527344">
        <ele>177.0</ele>
        <time>2016-05-08T07:51:22.000Z</time>
      </trkpt>
      <trkpt lon="2.5133781433105469" lat="49.1157913208007812">
        <ele>178.0</ele>
        <time>2016-05-08T07:51:24.000Z</time>
      </trkpt>
      <trkpt lon="2.5132648944854736" lat="49.1158638000488281">
        <ele>177.0</ele>
        <time>2016-05-08T07:51:26.000Z</time>
      </trkpt>
      <trkpt lon="2.5131859779357910" lat="49.1159515380859375">
        <ele>180.0</ele>
        <time>2016-05-08T07:51:28.000Z</time>
      </trkpt>
      <trkpt lon="2.5129554271697998" lat="49.1161041259765625">
        <ele>181.0</ele>
        <time>2016-05-08T07:51:31.000Z</time>
      </trkpt>
      <trkpt lon="2.5128781795501709" lat="49.1161994934082031">
        <ele>179.0</ele>
        <time>2016-05-08T07:51:33.000Z</time>
      </trkpt>
      <trkpt lon="2.5128781795501709" lat="49.1161994934082031">
        <ele>179.0</ele>
        <time>2016-05-08T07:51:37.000Z</time>
      </trkpt>
      <trkpt lon="2.5128781795501709" lat="49.1161994934082031">
        <ele>179.0</ele>
        <time>2016-05-08T07:51:39.000Z</time>
      </trkpt>
      <trkpt lon="2.5125274658203125" lat="49.1165199279785156">
        <ele>171.0</ele>
        <time>2016-05-08T07:51:41.000Z</time>
      </trkpt>
      <trkpt lon="2.5123474597930908" lat="49.1166763305664062">
        <ele>173.0</ele>
        <time>2016-05-08T07:51:45.000Z</time>
      </trkpt>
      <trkpt lon="2.5123474597930908" lat="49.1166763305664062">
        <ele>173.0</ele>
        <time>2016-05-08T07:51:47.000Z</time>
      </trkpt>
      <trkpt lon="2.5121693611145020" lat="49.1168518066406250">
        <ele>166.0</ele>
        <time>2016-05-08T07:51:49.000Z</time>
      </trkpt>
      <trkpt lon="2.5120549201965332" lat="49.1169357299804688">
        <ele>167.0</ele>
        <time>2016-05-08T07:51:51.000Z</time>
      </trkpt>
      <trkpt lon="2.5119628906250000" lat="49.1170234680175781">
        <ele>168.0</ele>
        <time>2016-05-08T07:51:53.000Z</time>
      </trkpt>
      <trkpt lon="2.5118649005889893" lat="49.1171264648437500">
        <ele>171.0</ele>
        <time>2016-05-08T07:51:55.000Z</time>
      </trkpt>
      <trkpt lon="2.5117702484130859" lat="49.1172180175781250">
        <ele>172.0</ele>
        <time>2016-05-08T07:51:57.000Z</time>
      </trkpt>
      <trkpt lon="2.5116963386535645" lat="49.1173095703125000">
        <ele>175.0</ele>
        <time>2016-05-08T07:51:59.000Z</time>
      </trkpt>
      <trkpt lon="2.5116009712219238" lat="49.1174087524414062">
        <ele>176.0</ele>
        <time>2016-05-08T07:52:01.000Z</time>
      </trkpt>
      <trkpt lon="2.5115120410919189" lat="49.1175041198730469">
        <ele>179.0</ele>
        <time>2016-05-08T07:52:03.000Z</time>
      </trkpt>
      <trkpt lon="2.5115120410919189" lat="49.1175041198730469">
        <ele>179.0</ele>
        <time>2016-05-08T07:52:05.000Z</time>
      </trkpt>
      <trkpt lon="2.5115120410919189" lat="49.1175041198730469">
        <ele>179.0</ele>
        <time>2016-05-08T07:52:07.000Z</time>
      </trkpt>
      <trkpt lon="2.5115120410919189" lat="49.1175041198730469">
        <ele>179.0</ele>
        <time>2016-05-08T07:52:09.000Z</time>
      </trkpt>
      <trkpt lon="2.5115120410919189" lat="49.1175041198730469">
        <ele>179.0</ele>
        <time>2016-05-08T07:52:12.000Z</time>
      </trkpt>
      <trkpt lon="2.5110435485839844" lat="49.1179351806640625">
        <ele>184.0</ele>
        <time>2016-05-08T07:52:14.000Z</time>
      </trkpt>
      <trkpt lon="2.5109641551971436" lat="49.1180229187011719">
        <ele>185.0</ele>
        <time>2016-05-08T07:52:16.000Z</time>
      </trkpt>
      <trkpt lon="2.5108714103698730" lat="49.1181297302246094">
        <ele>185.0</ele>
        <time>2016-05-08T07:52:18.000Z</time>
      </trkpt>
      <trkpt lon="2.5106780529022217" lat="49.1182174682617188">
        <ele>181.0</ele>
        <time>2016-05-08T07:52:20.000Z</time>
      </trkpt>
      <trkpt lon="2.5105662345886230" lat="49.1183013916015625">
        <ele>180.0</ele>
        <time>2016-05-08T07:52:22.000Z</time>
      </trkpt>
      <trkpt lon="2.5104441642761230" lat="49.1184310913085938">
        <ele>177.0</ele>
        <time>2016-05-08T07:52:24.000Z</time>
      </trkpt>
      <trkpt lon="2.5103352069854736" lat="49.1185455322265625">
        <ele>177.0</ele>
        <time>2016-05-08T07:52:26.000Z</time>
      </trkpt>
      <trkpt lon="2.5102190971374512" lat="49.1186714172363281">
        <ele>175.0</ele>
        <time>2016-05-08T07:52:28.000Z</time>
      </trkpt>
      <trkpt lon="2.5100948810577393" lat="49.1187782287597656">
        <ele>172.0</ele>
        <time>2016-05-08T07:52:30.000Z</time>
      </trkpt>
      <trkpt lon="2.5099740028381348" lat="49.1188697814941406">
        <ele>172.0</ele>
        <time>2016-05-08T07:52:32.000Z</time>
      </trkpt>
      <trkpt lon="2.5099291801452637" lat="49.1190299987792969">
        <ele>173.0</ele>
        <time>2016-05-08T07:52:34.000Z</time>
      </trkpt>
      <trkpt lon="2.5097422599792480" lat="49.1191902160644531">
        <ele>172.0</ele>
        <time>2016-05-08T07:52:38.000Z</time>
      </trkpt>
      <trkpt lon="2.5096087455749512" lat="49.1192893981933594">
        <ele>170.0</ele>
        <time>2016-05-08T07:52:40.000Z</time>
      </trkpt>
      <trkpt lon="2.5095107555389404" lat="49.1194114685058594">
        <ele>168.0</ele>
        <time>2016-05-08T07:52:42.000Z</time>
      </trkpt>
      <trkpt lon="2.5093379020690918" lat="49.1195144653320312">
        <ele>168.0</ele>
        <time>2016-05-08T07:52:44.000Z</time>
      </trkpt>
      <trkpt lon="2.5092461109161377" lat="49.1196250915527344">
        <ele>166.0</ele>
        <time>2016-05-08T07:52:46.000Z</time>
      </trkpt>
      <trkpt lon="2.5091528892517090" lat="49.1196975708007812">
        <ele>167.0</ele>
        <time>2016-05-08T07:52:48.000Z</time>
      </trkpt>
      <trkpt lon="2.5090739727020264" lat="49.1197853088378906">
        <ele>168.0</ele>
        <time>2016-05-08T07:52:50.000Z</time>
      </trkpt>
      <trkpt lon="2.5090739727020264" lat="49.1197853088378906">
        <ele>168.0</ele>
        <time>2016-05-08T07:52:52.000Z</time>
      </trkpt>
      <trkpt lon="2.5090739727020264" lat="49.1197853088378906">
        <ele>168.0</ele>
        <time>2016-05-08T07:52:54.000Z</time>
      </trkpt>
      <trkpt lon="2.5090739727020264" lat="49.1197853088378906">
        <ele>168.0</ele>
        <time>2016-05-08T07:52:56.000Z</time>
      </trkpt>
      <trkpt lon="2.5084974765777588" lat="49.1203880310058594">
        <ele>159.0</ele>
        <time>2016-05-08T07:53:04.000Z</time>
      </trkpt>
      <trkpt lon="2.5084974765777588" lat="49.1203880310058594">
        <ele>159.0</ele>
        <time>2016-05-08T07:53:07.000Z</time>
      </trkpt>
      <trkpt lon="2.5084974765777588" lat="49.1203880310058594">
        <ele>159.0</ele>
        <time>2016-05-08T07:53:09.000Z</time>
      </trkpt>
      <trkpt lon="2.5084974765777588" lat="49.1203880310058594">
        <ele>159.0</ele>
        <time>2016-05-08T07:53:11.000Z</time>
      </trkpt>
      <trkpt lon="2.5084974765777588" lat="49.1203880310058594">
        <ele>159.0</ele>
        <time>2016-05-08T07:53:13.000Z</time>
      </trkpt>
      <trkpt lon="2.5084974765777588" lat="49.1203880310058594">
        <ele>159.0</ele>
        <time>2016-05-08T07:53:15.000Z</time>
      </trkpt>
      <trkpt lon="2.5079686641693115" lat="49.1208572387695312">
        <ele>156.0</ele>
        <time>2016-05-08T07:53:17.000Z</time>
      </trkpt>
      <trkpt lon="2.5078501701354980" lat="49.1209144592285156">
        <ele>155.0</ele>
        <time>2016-05-08T07:53:19.000Z</time>
      </trkpt>
      <trkpt lon="2.5077328681945801" lat="49.1209793090820312">
        <ele>151.0</ele>
        <time>2016-05-08T07:53:21.000Z</time>
      </trkpt>
      <trkpt lon="2.5076351165771484" lat="49.1210708618164062">
        <ele>153.0</ele>
        <time>2016-05-08T07:53:23.000Z</time>
      </trkpt>
      <trkpt lon="2.5075652599334717" lat="49.1211662292480469">
        <ele>155.0</ele>
        <time>2016-05-08T07:53:25.000Z</time>
      </trkpt>
      <trkpt lon="2.5074727535247803" lat="49.1212539672851562">
        <ele>152.0</ele>
        <time>2016-05-08T07:53:27.000Z</time>
      </trkpt>
      <trkpt lon="2.5074727535247803" lat="49.1212539672851562">
        <ele>152.0</ele>
        <time>2016-05-08T07:53:29.000Z</time>
      </trkpt>
      <trkpt lon="2.5074727535247803" lat="49.1212539672851562">
        <ele>152.0</ele>
        <time>2016-05-08T07:53:31.000Z</time>
      </trkpt>
      <trkpt lon="2.5071029663085938" lat="49.1215667724609375">
        <ele>146.0</ele>
        <time>2016-05-08T07:53:35.000Z</time>
      </trkpt>
      <trkpt lon="2.5069403648376465" lat="49.1217193603515625">
        <ele>145.0</ele>
        <time>2016-05-08T07:53:39.000Z</time>
      </trkpt>
      <trkpt lon="2.5069403648376465" lat="49.1217193603515625">
        <ele>145.0</ele>
        <time>2016-05-08T07:53:41.000Z</time>
      </trkpt>
      <trkpt lon="2.5069403648376465" lat="49.1217193603515625">
        <ele>145.0</ele>
        <time>2016-05-08T07:53:49.000Z</time>
      </trkpt>
      <trkpt lon="2.5067725181579590" lat="49.1220512390136719">
        <ele>157.0</ele>
        <time>2016-05-08T07:53:53.000Z</time>
      </trkpt>
      <trkpt lon="2.5067262649536133" lat="49.1223068237304688">
        <ele>162.0</ele>
        <time>2016-05-08T07:53:56.000Z</time>
      </trkpt>
      <trkpt lon="2.5067255496978760" lat="49.1224861145019531">
        <ele>162.0</ele>
        <time>2016-05-08T07:53:58.000Z</time>
      </trkpt>
      <trkpt lon="2.5067255496978760" lat="49.1224861145019531">
        <ele>162.0</ele>
        <time>2016-05-08T07:54:00.000Z</time>
      </trkpt>
      <trkpt lon="2.5067255496978760" lat="49.1224861145019531">
        <ele>162.0</ele>
        <time>2016-05-08T07:54:02.000Z</time>
      </trkpt>
      <trkpt lon="2.5067255496978760" lat="49.1224861145019531">
        <ele>162.0</ele>
        <time>2016-05-08T07:54:04.000Z</time>
      </trkpt>
      <trkpt lon="2.5067062377929688" lat="49.1228141784667969">
        <ele>169.0</ele>
        <time>2016-05-08T07:54:06.000Z</time>
      </trkpt>
      <trkpt lon="2.5066754817962646" lat="49.1230545043945312">
        <ele>171.0</ele>
        <time>2016-05-08T07:54:08.000Z</time>
      </trkpt>
      <trkpt lon="2.5066537857055664" lat="49.1232261657714844">
        <ele>171.0</ele>
        <time>2016-05-08T07:54:10.000Z</time>
      </trkpt>
      <trkpt lon="2.5066051483154297" lat="49.1233825683593750">
        <ele>174.0</ele>
        <time>2016-05-08T07:54:12.000Z</time>
      </trkpt>
      <trkpt lon="2.5065443515777588" lat="49.1235313415527344">
        <ele>172.0</ele>
        <time>2016-05-08T07:54:14.000Z</time>
      </trkpt>
      <trkpt lon="2.5063962936401367" lat="49.1238212585449219">
        <ele>170.0</ele>
        <time>2016-05-08T07:54:17.000Z</time>
      </trkpt>
      <trkpt lon="2.5063564777374268" lat="49.1239242553710938">
        <ele>169.0</ele>
        <time>2016-05-08T07:54:19.000Z</time>
      </trkpt>
      <trkpt lon="2.5063564777374268" lat="49.1239242553710938">
        <ele>169.0</ele>
        <time>2016-05-08T07:54:21.000Z</time>
      </trkpt>
      <trkpt lon="2.5063564777374268" lat="49.1239242553710938">
        <ele>169.0</ele>
        <time>2016-05-08T07:54:23.000Z</time>
      </trkpt>
      <trkpt lon="2.5063564777374268" lat="49.1239242553710938">
        <ele>169.0</ele>
        <time>2016-05-08T07:54:25.000Z</time>
      </trkpt>
      <trkpt lon="2.5063564777374268" lat="49.1239242553710938">
        <ele>169.0</ele>
        <time>2016-05-08T07:54:27.000Z</time>
      </trkpt>
      <trkpt lon="2.5063564777374268" lat="49.1239242553710938">
        <ele>169.0</ele>
        <time>2016-05-08T07:54:29.000Z</time>
      </trkpt>
      <trkpt lon="2.5059852600097656" lat="49.1246223449707031">
        <ele>168.0</ele>
        <time>2016-05-08T07:54:33.000Z</time>
      </trkpt>
      <trkpt lon="2.5059800148010254" lat="49.1247367858886719">
        <ele>169.0</ele>
        <time>2016-05-08T07:54:35.000Z</time>
      </trkpt>
      <trkpt lon="2.5058858394622803" lat="49.1248321533203125">
        <ele>168.0</ele>
        <time>2016-05-08T07:54:37.000Z</time>
      </trkpt>
      <trkpt lon="2.5058674812316895" lat="49.1250305175781250">
        <ele>168.0</ele>
        <time>2016-05-08T07:54:40.000Z</time>
      </trkpt>
      <trkpt lon="2.5057983398437500" lat="49.1251602172851562">
        <ele>164.0</ele>
        <time>2016-05-08T07:54:42.000Z</time>
      </trkpt>
      <trkpt lon="2.5056781768798828" lat="49.1252441406250000">
        <ele>163.0</ele>
        <time>2016-05-08T07:54:44.000Z</time>
      </trkpt>
      <trkpt lon="2.5055987834930420" lat="49.1253509521484375">
        <ele>166.0</ele>
        <time>2016-05-08T07:54:46.000Z</time>
      </trkpt>
      <trkpt lon="2.5055856704711914" lat="49.1254997253417969">
        <ele>165.0</ele>
        <time>2016-05-08T07:54:48.000Z</time>
      </trkpt>
      <trkpt lon="2.5055413246154785" lat="49.1256408691406250">
        <ele>164.0</ele>
        <time>2016-05-08T07:54:50.000Z</time>
      </trkpt>
      <trkpt lon="2.5054659843444824" lat="49.1257362365722656">
        <ele>163.0</ele>
        <time>2016-05-08T07:54:52.000Z</time>
      </trkpt>
      <trkpt lon="2.5054337978363037" lat="49.1258659362792969">
        <ele>165.0</ele>
        <time>2016-05-08T07:54:54.000Z</time>
      </trkpt>
      <trkpt lon="2.5054337978363037" lat="49.1258659362792969">
        <ele>165.0</ele>
        <time>2016-05-08T07:54:56.000Z</time>
      </trkpt>
      <trkpt lon="2.5054337978363037" lat="49.1258659362792969">
        <ele>165.0</ele>
        <time>2016-05-08T07:54:58.000Z</time>
      </trkpt>
      <trkpt lon="2.5054337978363037" lat="49.1258659362792969">
        <ele>165.0</ele>
        <time>2016-05-08T07:55:00.000Z</time>
      </trkpt>
      <trkpt lon="2.5054337978363037" lat="49.1258659362792969">
        <ele>165.0</ele>
        <time>2016-05-08T07:55:02.000Z</time>
      </trkpt>
      <trkpt lon="2.5054337978363037" lat="49.1258659362792969">
        <ele>165.0</ele>
        <time>2016-05-08T07:55:04.000Z</time>
      </trkpt>
      <trkpt lon="2.5054337978363037" lat="49.1258659362792969">
        <ele>165.0</ele>
        <time>2016-05-08T07:55:06.000Z</time>
      </trkpt>
      <trkpt lon="2.5054337978363037" lat="49.1258659362792969">
        <ele>165.0</ele>
        <time>2016-05-08T07:55:08.000Z</time>
      </trkpt>
      <trkpt lon="2.5054337978363037" lat="49.1258659362792969">
        <ele>165.0</ele>
        <time>2016-05-08T07:55:10.000Z</time>
      </trkpt>
      <trkpt lon="2.5054337978363037" lat="49.1258659362792969">
        <ele>165.0</ele>
        <time>2016-05-08T07:55:16.000Z</time>
      </trkpt>
      <trkpt lon="2.5054337978363037" lat="49.1258659362792969">
        <ele>165.0</ele>
        <time>2016-05-08T07:55:18.000Z</time>
      </trkpt>
      <trkpt lon="2.5054337978363037" lat="49.1258659362792969">
        <ele>165.0</ele>
        <time>2016-05-08T07:55:20.000Z</time>
      </trkpt>
      <trkpt lon="2.5054337978363037" lat="49.1258659362792969">
        <ele>165.0</ele>
        <time>2016-05-08T07:55:22.000Z</time>
      </trkpt>
      <trkpt lon="2.5054337978363037" lat="49.1258659362792969">
        <ele>165.0</ele>
        <time>2016-05-08T07:55:24.000Z</time>
      </trkpt>
      <trkpt lon="2.5048911571502686" lat="49.1266784667968750">
        <ele>158.0</ele>
        <time>2016-05-08T07:55:28.000Z</time>
      </trkpt>
      <trkpt lon="2.5047738552093506" lat="49.1265602111816406">
        <ele>157.0</ele>
        <time>2016-05-08T07:55:32.000Z</time>
      </trkpt>
      <trkpt lon="2.5047738552093506" lat="49.1265602111816406">
        <ele>157.0</ele>
        <time>2016-05-08T07:55:34.000Z</time>
      </trkpt>
      <trkpt lon="2.5046834945678711" lat="49.1264228820800781">
        <ele>155.0</ele>
        <time>2016-05-08T07:55:36.000Z</time>
      </trkpt>
      <trkpt lon="2.5046834945678711" lat="49.1264228820800781">
        <ele>155.0</ele>
        <time>2016-05-08T07:55:38.000Z</time>
      </trkpt>
      <trkpt lon="2.5045216083526611" lat="49.1262130737304688">
        <ele>156.0</ele>
        <time>2016-05-08T07:55:42.000Z</time>
      </trkpt>
      <trkpt lon="2.5045216083526611" lat="49.1262130737304688">
        <ele>156.0</ele>
        <time>2016-05-08T07:55:44.000Z</time>
      </trkpt>
      <trkpt lon="2.5045216083526611" lat="49.1262130737304688">
        <ele>156.0</ele>
        <time>2016-05-08T07:55:46.000Z</time>
      </trkpt>
      <trkpt lon="2.5045216083526611" lat="49.1262130737304688">
        <ele>156.0</ele>
        <time>2016-05-08T07:55:48.000Z</time>
      </trkpt>
      <trkpt lon="2.5045216083526611" lat="49.1262130737304688">
        <ele>156.0</ele>
        <time>2016-05-08T07:55:50.000Z</time>
      </trkpt>
      <trkpt lon="2.5045216083526611" lat="49.1262130737304688">
        <ele>156.0</ele>
        <time>2016-05-08T07:55:52.000Z</time>
      </trkpt>
      <trkpt lon="2.5045216083526611" lat="49.1262130737304688">
        <ele>156.0</ele>
        <time>2016-05-08T07:55:54.000Z</time>
      </trkpt>
      <trkpt lon="2.5045216083526611" lat="49.1262130737304688">
        <ele>156.0</ele>
        <time>2016-05-08T07:55:56.000Z</time>
      </trkpt>
      <trkpt lon="2.5045216083526611" lat="49.1262130737304688">
        <ele>156.0</ele>
        <time>2016-05-08T07:55:58.000Z</time>
      </trkpt>
      <trkpt lon="2.5045216083526611" lat="49.1262130737304688">
        <ele>156.0</ele>
        <time>2016-05-08T07:56:00.000Z</time>
      </trkpt>
      <trkpt lon="2.5045216083526611" lat="49.1262130737304688">
        <ele>156.0</ele>
        <time>2016-05-08T07:56:02.000Z</time>
      </trkpt>
      <trkpt lon="2.5043327808380127" lat="49.1259231567382812">
        <ele>160.0</ele>
        <time>2016-05-08T07:56:06.000Z</time>
      </trkpt>
      <trkpt lon="2.5043327808380127" lat="49.1259231567382812">
        <ele>160.0</ele>
        <time>2016-05-08T07:56:08.000Z</time>
      </trkpt>
      <trkpt lon="2.5043327808380127" lat="49.1259231567382812">
        <ele>160.0</ele>
        <time>2016-05-08T07:56:10.000Z</time>
      </trkpt>
      <trkpt lon="2.5043327808380127" lat="49.1259231567382812">
        <ele>160.0</ele>
        <time>2016-05-08T07:56:12.000Z</time>
      </trkpt>
      <trkpt lon="2.5043327808380127" lat="49.1259231567382812">
        <ele>160.0</ele>
        <time>2016-05-08T07:56:14.000Z</time>
      </trkpt>
      <trkpt lon="2.5041742324829102" lat="49.1256675720214844">
        <ele>163.0</ele>
        <time>2016-05-08T07:56:18.000Z</time>
      </trkpt>
      <trkpt lon="2.5040800571441650" lat="49.1255187988281250">
        <ele>162.0</ele>
        <time>2016-05-08T07:56:20.000Z</time>
      </trkpt>
      <trkpt lon="2.5040233135223389" lat="49.1254234313964844">
        <ele>162.0</ele>
        <time>2016-05-08T07:56:22.000Z</time>
      </trkpt>
      <trkpt lon="2.5039741992950439" lat="49.1253700256347656">
        <ele>162.0</ele>
        <time>2016-05-08T07:56:24.000Z</time>
      </trkpt>
      <trkpt lon="2.5039741992950439" lat="49.1253700256347656">
        <ele>162.0</ele>
        <time>2016-05-08T07:56:26.000Z</time>
      </trkpt>
      <trkpt lon="2.5039741992950439" lat="49.1253700256347656">
        <ele>162.0</ele>
        <time>2016-05-08T07:56:28.000Z</time>
      </trkpt>
      <trkpt lon="2.5038735866546631" lat="49.1252861022949219">
        <ele>166.0</ele>
        <time>2016-05-08T07:56:32.000Z</time>
      </trkpt>
      <trkpt lon="2.5038034915924072" lat="49.1252288818359375">
        <ele>167.0</ele>
        <time>2016-05-08T07:56:34.000Z</time>
      </trkpt>
      <trkpt lon="2.5037541389465332" lat="49.1251831054687500">
        <ele>169.0</ele>
        <time>2016-05-08T07:56:36.000Z</time>
      </trkpt>
      <trkpt lon="2.5036845207214355" lat="49.1251411437988281">
        <ele>167.0</ele>
        <time>2016-05-08T07:56:40.000Z</time>
      </trkpt>
      <trkpt lon="2.5036170482635498" lat="49.1251068115234375">
        <ele>166.0</ele>
        <time>2016-05-08T07:56:42.000Z</time>
      </trkpt>
      <trkpt lon="2.5035545825958252" lat="49.1250762939453125">
        <ele>167.0</ele>
        <time>2016-05-08T07:56:44.000Z</time>
      </trkpt>
      <trkpt lon="2.5035545825958252" lat="49.1250762939453125">
        <ele>167.0</ele>
        <time>2016-05-08T07:56:48.000Z</time>
      </trkpt>
      <trkpt lon="2.5035545825958252" lat="49.1250762939453125">
        <ele>167.0</ele>
        <time>2016-05-08T07:56:50.000Z</time>
      </trkpt>
      <trkpt lon="2.5035545825958252" lat="49.1250762939453125">
        <ele>167.0</ele>
        <time>2016-05-08T07:56:52.000Z</time>
      </trkpt>
      <trkpt lon="2.5035545825958252" lat="49.1250762939453125">
        <ele>167.0</ele>
        <time>2016-05-08T07:57:00.000Z</time>
      </trkpt>
      <trkpt lon="2.5035545825958252" lat="49.1250762939453125">
        <ele>167.0</ele>
        <time>2016-05-08T07:57:02.000Z</time>
      </trkpt>
      <trkpt lon="2.5035545825958252" lat="49.1250762939453125">
        <ele>167.0</ele>
        <time>2016-05-08T07:57:04.000Z</time>
      </trkpt>
      <trkpt lon="2.5032942295074463" lat="49.1249771118164062">
        <ele>176.0</ele>
        <time>2016-05-08T07:57:08.000Z</time>
      </trkpt>
      <trkpt lon="2.5031449794769287" lat="49.1249122619628906">
        <ele>174.0</ele>
        <time>2016-05-08T07:57:10.000Z</time>
      </trkpt>
      <trkpt lon="2.5030586719512939" lat="49.1248664855957031">
        <ele>173.0</ele>
        <time>2016-05-08T07:57:12.000Z</time>
      </trkpt>
      <trkpt lon="2.5029933452606201" lat="49.1248283386230469">
        <ele>172.0</ele>
        <time>2016-05-08T07:57:14.000Z</time>
      </trkpt>
      <trkpt lon="2.5029282569885254" lat="49.1248054504394531">
        <ele>171.0</ele>
        <time>2016-05-08T07:57:16.000Z</time>
      </trkpt>
      <trkpt lon="2.5027613639831543" lat="49.1247558593750000">
        <ele>173.0</ele>
        <time>2016-05-08T07:57:20.000Z</time>
      </trkpt>
      <trkpt lon="2.5027613639831543" lat="49.1247558593750000">
        <ele>173.0</ele>
        <time>2016-05-08T07:57:22.000Z</time>
      </trkpt>
      <trkpt lon="2.5026514530181885" lat="49.1246833801269531">
        <ele>173.0</ele>
        <time>2016-05-08T07:57:24.000Z</time>
      </trkpt>
      <trkpt lon="2.5026514530181885" lat="49.1246833801269531">
        <ele>173.0</ele>
        <time>2016-05-08T07:57:28.000Z</time>
      </trkpt>
      <trkpt lon="2.5026514530181885" lat="49.1246833801269531">
        <ele>173.0</ele>
        <time>2016-05-08T07:57:30.000Z</time>
      </trkpt>
      <trkpt lon="2.5026514530181885" lat="49.1246833801269531">
        <ele>173.0</ele>
        <time>2016-05-08T07:57:32.000Z</time>
      </trkpt>
      <trkpt lon="2.5026514530181885" lat="49.1246833801269531">
        <ele>173.0</ele>
        <time>2016-05-08T07:57:34.000Z</time>
      </trkpt>
      <trkpt lon="2.5023462772369385" lat="49.1244850158691406">
        <ele>169.0</ele>
        <time>2016-05-08T07:57:38.000Z</time>
      </trkpt>
      <trkpt lon="2.5022552013397217" lat="49.1243782043457031">
        <ele>169.0</ele>
        <time>2016-05-08T07:57:44.000Z</time>
      </trkpt>
      <trkpt lon="2.5021910667419434" lat="49.1242904663085938">
        <ele>170.0</ele>
        <time>2016-05-08T07:57:48.000Z</time>
      </trkpt>
      <trkpt lon="2.5020444393157959" lat="49.1241836547851562">
        <ele>167.0</ele>
        <time>2016-05-08T07:57:54.000Z</time>
      </trkpt>
      <trkpt lon="2.5019621849060059" lat="49.1241073608398438">
        <ele>170.0</ele>
        <time>2016-05-08T07:57:58.000Z</time>
      </trkpt>
      <trkpt lon="2.5019621849060059" lat="49.1241073608398438">
        <ele>170.0</ele>
        <time>2016-05-08T07:58:00.000Z</time>
      </trkpt>
      <trkpt lon="2.5019621849060059" lat="49.1241073608398438">
        <ele>170.0</ele>
        <time>2016-05-08T07:58:02.000Z</time>
      </trkpt>
      <trkpt lon="2.5019621849060059" lat="49.1241073608398438">
        <ele>170.0</ele>
        <time>2016-05-08T07:58:04.000Z</time>
      </trkpt>
      <trkpt lon="2.5019621849060059" lat="49.1241073608398438">
        <ele>170.0</ele>
        <time>2016-05-08T07:58:10.000Z</time>
      </trkpt>
      <trkpt lon="2.5019621849060059" lat="49.1241073608398438">
        <ele>170.0</ele>
        <time>2016-05-08T07:58:12.000Z</time>
      </trkpt>
      <trkpt lon="2.5015990734100342" lat="49.1238708496093750">
        <ele>172.0</ele>
        <time>2016-05-08T07:58:14.000Z</time>
      </trkpt>
      <trkpt lon="2.5014188289642334" lat="49.1238059997558594">
        <ele>174.0</ele>
        <time>2016-05-08T07:58:20.000Z</time>
      </trkpt>
      <trkpt lon="2.5012886524200439" lat="49.1237411499023438">
        <ele>177.0</ele>
        <time>2016-05-08T07:58:24.000Z</time>
      </trkpt>
      <trkpt lon="2.5011281967163086" lat="49.1236991882324219">
        <ele>177.0</ele>
        <time>2016-05-08T07:58:28.000Z</time>
      </trkpt>
      <trkpt lon="2.5010414123535156" lat="49.1236000061035156">
        <ele>176.0</ele>
        <time>2016-05-08T07:58:32.000Z</time>
      </trkpt>
      <trkpt lon="2.5010414123535156" lat="49.1236000061035156">
        <ele>176.0</ele>
        <time>2016-05-08T07:58:34.000Z</time>
      </trkpt>
      <trkpt lon="2.5010414123535156" lat="49.1236000061035156">
        <ele>176.0</ele>
        <time>2016-05-08T07:58:36.000Z</time>
      </trkpt>
      <trkpt lon="2.5010414123535156" lat="49.1236000061035156">
        <ele>176.0</ele>
        <time>2016-05-08T07:58:38.000Z</time>
      </trkpt>
      <trkpt lon="2.5010414123535156" lat="49.1236000061035156">
        <ele>176.0</ele>
        <time>2016-05-08T07:58:40.000Z</time>
      </trkpt>
      <trkpt lon="2.5010414123535156" lat="49.1236000061035156">
        <ele>176.0</ele>
        <time>2016-05-08T07:58:42.000Z</time>
      </trkpt>
      <trkpt lon="2.5010414123535156" lat="49.1236000061035156">
        <ele>176.0</ele>
        <time>2016-05-08T07:58:44.000Z</time>
      </trkpt>
      <trkpt lon="2.5007755756378174" lat="49.1234550476074219">
        <ele>169.0</ele>
        <time>2016-05-08T07:58:48.000Z</time>
      </trkpt>
      <trkpt lon="2.5006179809570312" lat="49.1233596801757812">
        <ele>170.0</ele>
        <time>2016-05-08T07:58:50.000Z</time>
      </trkpt>
      <trkpt lon="2.5005178451538086" lat="49.1232872009277344">
        <ele>172.0</ele>
        <time>2016-05-08T07:58:52.000Z</time>
      </trkpt>
      <trkpt lon="2.5004386901855469" lat="49.1232299804687500">
        <ele>173.0</ele>
        <time>2016-05-08T07:58:54.000Z</time>
      </trkpt>
      <trkpt lon="2.5003695487976074" lat="49.1231765747070312">
        <ele>171.0</ele>
        <time>2016-05-08T07:58:56.000Z</time>
      </trkpt>
      <trkpt lon="2.5002367496490479" lat="49.1230621337890625">
        <ele>172.0</ele>
        <time>2016-05-08T07:58:58.000Z</time>
      </trkpt>
      <trkpt lon="2.5000712871551514" lat="49.1230125427246094">
        <ele>171.0</ele>
        <time>2016-05-08T07:59:02.000Z</time>
      </trkpt>
      <trkpt lon="2.4999361038208008" lat="49.1229057312011719">
        <ele>170.0</ele>
        <time>2016-05-08T07:59:06.000Z</time>
      </trkpt>
      <trkpt lon="2.4997673034667969" lat="49.1228065490722656">
        <ele>169.0</ele>
        <time>2016-05-08T07:59:10.000Z</time>
      </trkpt>
      <trkpt lon="2.4997673034667969" lat="49.1228065490722656">
        <ele>169.0</ele>
        <time>2016-05-08T07:59:12.000Z</time>
      </trkpt>
      <trkpt lon="2.4996564388275146" lat="49.1226615905761719">
        <ele>171.0</ele>
        <time>2016-05-08T07:59:14.000Z</time>
      </trkpt>
      <trkpt lon="2.4995372295379639" lat="49.1225318908691406">
        <ele>171.0</ele>
        <time>2016-05-08T07:59:18.000Z</time>
      </trkpt>
      <trkpt lon="2.4994130134582520" lat="49.1224174499511719">
        <ele>171.0</ele>
        <time>2016-05-08T07:59:22.000Z</time>
      </trkpt>
      <trkpt lon="2.4992542266845703" lat="49.1222991943359375">
        <ele>170.0</ele>
        <time>2016-05-08T07:59:26.000Z</time>
      </trkpt>
      <trkpt lon="2.4992542266845703" lat="49.1222991943359375">
        <ele>170.0</ele>
        <time>2016-05-08T07:59:28.000Z</time>
      </trkpt>
      <trkpt lon="2.4990408420562744" lat="49.1221084594726562">
        <ele>170.0</ele>
        <time>2016-05-08T07:59:32.000Z</time>
      </trkpt>
      <trkpt lon="2.4988706111907959" lat="49.1219978332519531">
        <ele>171.0</ele>
        <time>2016-05-08T07:59:36.000Z</time>
      </trkpt>
      <trkpt lon="2.4986684322357178" lat="49.1218872070312500">
        <ele>170.0</ele>
        <time>2016-05-08T07:59:40.000Z</time>
      </trkpt>
      <trkpt lon="2.4984562397003174" lat="49.1217918395996094">
        <ele>168.0</ele>
        <time>2016-05-08T07:59:44.000Z</time>
      </trkpt>
      <trkpt lon="2.4982786178588867" lat="49.1216583251953125">
        <ele>168.0</ele>
        <time>2016-05-08T07:59:48.000Z</time>
      </trkpt>
      <trkpt lon="2.4980874061584473" lat="49.1215591430664062">
        <ele>167.0</ele>
        <time>2016-05-08T07:59:52.000Z</time>
      </trkpt>
      <trkpt lon="2.4980874061584473" lat="49.1215591430664062">
        <ele>167.0</ele>
        <time>2016-05-08T07:59:54.000Z</time>
      </trkpt>
      <trkpt lon="2.4980874061584473" lat="49.1215591430664062">
        <ele>167.0</ele>
        <time>2016-05-08T07:59:56.000Z</time>
      </trkpt>
      <trkpt lon="2.4980874061584473" lat="49.1215591430664062">
        <ele>167.0</ele>
        <time>2016-05-08T08:00:02.000Z</time>
      </trkpt>
      <trkpt lon="2.4980874061584473" lat="49.1215591430664062">
        <ele>167.0</ele>
        <time>2016-05-08T08:00:04.000Z</time>
      </trkpt>
      <trkpt lon="2.4980874061584473" lat="49.1215591430664062">
        <ele>167.0</ele>
        <time>2016-05-08T08:00:06.000Z</time>
      </trkpt>
      <trkpt lon="2.4980874061584473" lat="49.1215591430664062">
        <ele>167.0</ele>
        <time>2016-05-08T08:00:08.000Z</time>
      </trkpt>
      <trkpt lon="2.4980874061584473" lat="49.1215591430664062">
        <ele>167.0</ele>
        <time>2016-05-08T08:00:10.000Z</time>
      </trkpt>
      <trkpt lon="2.4980874061584473" lat="49.1215591430664062">
        <ele>167.0</ele>
        <time>2016-05-08T08:00:12.000Z</time>
      </trkpt>
      <trkpt lon="2.4971261024475098" lat="49.1209297180175781">
        <ele>173.0</ele>
        <time>2016-05-08T08:00:16.000Z</time>
      </trkpt>
      <trkpt lon="2.4969472885131836" lat="49.1208267211914062">
        <ele>170.0</ele>
        <time>2016-05-08T08:00:20.000Z</time>
      </trkpt>
      <trkpt lon="2.4969472885131836" lat="49.1208267211914062">
        <ele>170.0</ele>
        <time>2016-05-08T08:00:22.000Z</time>
      </trkpt>
      <trkpt lon="2.4969472885131836" lat="49.1208267211914062">
        <ele>170.0</ele>
        <time>2016-05-08T08:00:24.000Z</time>
      </trkpt>
      <trkpt lon="2.4966731071472168" lat="49.1206016540527344">
        <ele>171.0</ele>
        <time>2016-05-08T08:00:28.000Z</time>
      </trkpt>
      <trkpt lon="2.4965922832489014" lat="49.1205368041992188">
        <ele>169.0</ele>
        <time>2016-05-08T08:00:32.000Z</time>
      </trkpt>
      <trkpt lon="2.4965062141418457" lat="49.1204757690429688">
        <ele>168.0</ele>
        <time>2016-05-08T08:00:34.000Z</time>
      </trkpt>
      <trkpt lon="2.4964172840118408" lat="49.1204223632812500">
        <ele>170.0</ele>
        <time>2016-05-08T08:00:36.000Z</time>
      </trkpt>
      <trkpt lon="2.4964172840118408" lat="49.1204223632812500">
        <ele>170.0</ele>
        <time>2016-05-08T08:00:38.000Z</time>
      </trkpt>
      <trkpt lon="2.4964172840118408" lat="49.1204223632812500">
        <ele>170.0</ele>
        <time>2016-05-08T08:00:40.000Z</time>
      </trkpt>
      <trkpt lon="2.4964172840118408" lat="49.1204223632812500">
        <ele>170.0</ele>
        <time>2016-05-08T08:00:42.000Z</time>
      </trkpt>
      <trkpt lon="2.4961292743682861" lat="49.1202507019042969">
        <ele>174.0</ele>
        <time>2016-05-08T08:00:48.000Z</time>
      </trkpt>
      <trkpt lon="2.4959311485290527" lat="49.1201324462890625">
        <ele>173.0</ele>
        <time>2016-05-08T08:00:50.000Z</time>
      </trkpt>
      <trkpt lon="2.4957773685455322" lat="49.1200485229492188">
        <ele>172.0</ele>
        <time>2016-05-08T08:00:52.000Z</time>
      </trkpt>
      <trkpt lon="2.4956598281860352" lat="49.1199760437011719">
        <ele>173.0</ele>
        <time>2016-05-08T08:00:54.000Z</time>
      </trkpt>
      <trkpt lon="2.4955554008483887" lat="49.1199150085449219">
        <ele>173.0</ele>
        <time>2016-05-08T08:00:56.000Z</time>
      </trkpt>
      <trkpt lon="2.4953699111938477" lat="49.1197853088378906">
        <ele>173.0</ele>
        <time>2016-05-08T08:00:58.000Z</time>
      </trkpt>
      <trkpt lon="2.4951941967010498" lat="49.1196556091308594">
        <ele>173.0</ele>
        <time>2016-05-08T08:01:02.000Z</time>
      </trkpt>
      <trkpt lon="2.4950251579284668" lat="49.1195259094238281">
        <ele>174.0</ele>
        <time>2016-05-08T08:01:06.000Z</time>
      </trkpt>
      <trkpt lon="2.4950251579284668" lat="49.1195259094238281">
        <ele>174.0</ele>
        <time>2016-05-08T08:01:08.000Z</time>
      </trkpt>
      <trkpt lon="2.4950251579284668" lat="49.1195259094238281">
        <ele>174.0</ele>
        <time>2016-05-08T08:01:10.000Z</time>
      </trkpt>
      <trkpt lon="2.4950251579284668" lat="49.1195259094238281">
        <ele>174.0</ele>
        <time>2016-05-08T08:01:12.000Z</time>
      </trkpt>
      <trkpt lon="2.4950251579284668" lat="49.1195259094238281">
        <ele>174.0</ele>
        <time>2016-05-08T08:01:14.000Z</time>
      </trkpt>
      <trkpt lon="2.4950251579284668" lat="49.1195259094238281">
        <ele>174.0</ele>
        <time>2016-05-08T08:01:16.000Z</time>
      </trkpt>
      <trkpt lon="2.4950251579284668" lat="49.1195259094238281">
        <ele>174.0</ele>
        <time>2016-05-08T08:01:18.000Z</time>
      </trkpt>
      <trkpt lon="2.4950251579284668" lat="49.1195259094238281">
        <ele>174.0</ele>
        <time>2016-05-08T08:01:20.000Z</time>
      </trkpt>
      <trkpt lon="2.4941937923431396" lat="49.1189498901367188">
        <ele>172.0</ele>
        <time>2016-05-08T08:01:26.000Z</time>
      </trkpt>
      <trkpt lon="2.4940648078918457" lat="49.1188850402832031">
        <ele>170.0</ele>
        <time>2016-05-08T08:01:28.000Z</time>
      </trkpt>
      <trkpt lon="2.4938950538635254" lat="49.1187477111816406">
        <ele>173.0</ele>
        <time>2016-05-08T08:01:32.000Z</time>
      </trkpt>
      <trkpt lon="2.4937832355499268" lat="49.1186714172363281">
        <ele>173.0</ele>
        <time>2016-05-08T08:01:34.000Z</time>
      </trkpt>
      <trkpt lon="2.4936704635620117" lat="49.1186103820800781">
        <ele>175.0</ele>
        <time>2016-05-08T08:01:36.000Z</time>
      </trkpt>
      <trkpt lon="2.4936704635620117" lat="49.1186103820800781">
        <ele>175.0</ele>
        <time>2016-05-08T08:01:38.000Z</time>
      </trkpt>
      <trkpt lon="2.4936704635620117" lat="49.1186103820800781">
        <ele>175.0</ele>
        <time>2016-05-08T08:01:40.000Z</time>
      </trkpt>
      <trkpt lon="2.4936704635620117" lat="49.1186103820800781">
        <ele>175.0</ele>
        <time>2016-05-08T08:01:42.000Z</time>
      </trkpt>
      <trkpt lon="2.4931027889251709" lat="49.1182441711425781">
        <ele>178.0</ele>
        <time>2016-05-08T08:01:48.000Z</time>
      </trkpt>
      <trkpt lon="2.4931027889251709" lat="49.1182441711425781">
        <ele>178.0</ele>
        <time>2016-05-08T08:01:50.000Z</time>
      </trkpt>
      <trkpt lon="2.4931027889251709" lat="49.1182441711425781">
        <ele>178.0</ele>
        <time>2016-05-08T08:01:52.000Z</time>
      </trkpt>
      <trkpt lon="2.4931027889251709" lat="49.1182441711425781">
        <ele>178.0</ele>
        <time>2016-05-08T08:01:54.000Z</time>
      </trkpt>
      <trkpt lon="2.4931027889251709" lat="49.1182441711425781">
        <ele>178.0</ele>
        <time>2016-05-08T08:01:56.000Z</time>
      </trkpt>
      <trkpt lon="2.4925191402435303" lat="49.1178741455078125">
        <ele>181.0</ele>
        <time>2016-05-08T08:02:02.000Z</time>
      </trkpt>
      <trkpt lon="2.4923484325408936" lat="49.1177635192871094">
        <ele>181.0</ele>
        <time>2016-05-08T08:02:06.000Z</time>
      </trkpt>
      <trkpt lon="2.4923484325408936" lat="49.1177635192871094">
        <ele>181.0</ele>
        <time>2016-05-08T08:02:08.000Z</time>
      </trkpt>
      <trkpt lon="2.4923484325408936" lat="49.1177635192871094">
        <ele>181.0</ele>
        <time>2016-05-08T08:02:10.000Z</time>
      </trkpt>
      <trkpt lon="2.4923484325408936" lat="49.1177635192871094">
        <ele>181.0</ele>
        <time>2016-05-08T08:02:12.000Z</time>
      </trkpt>
      <trkpt lon="2.4923484325408936" lat="49.1177635192871094">
        <ele>181.0</ele>
        <time>2016-05-08T08:02:14.000Z</time>
      </trkpt>
      <trkpt lon="2.4917593002319336" lat="49.1175880432128906">
        <ele>181.0</ele>
        <time>2016-05-08T08:02:18.000Z</time>
      </trkpt>
      <trkpt lon="2.4916093349456787" lat="49.1175498962402344">
        <ele>181.0</ele>
        <time>2016-05-08T08:02:20.000Z</time>
      </trkpt>
      <trkpt lon="2.4915251731872559" lat="49.1175117492675781">
        <ele>183.0</ele>
        <time>2016-05-08T08:02:24.000Z</time>
      </trkpt>
      <trkpt lon="2.4914245605468750" lat="49.1174659729003906">
        <ele>181.0</ele>
        <time>2016-05-08T08:02:26.000Z</time>
      </trkpt>
      <trkpt lon="2.4913198947906494" lat="49.1174163818359375">
        <ele>182.0</ele>
        <time>2016-05-08T08:02:28.000Z</time>
      </trkpt>
      <trkpt lon="2.4912304878234863" lat="49.1173591613769531">
        <ele>183.0</ele>
        <time>2016-05-08T08:02:30.000Z</time>
      </trkpt>
      <trkpt lon="2.4912304878234863" lat="49.1173591613769531">
        <ele>183.0</ele>
        <time>2016-05-08T08:02:32.000Z</time>
      </trkpt>
      <trkpt lon="2.4912304878234863" lat="49.1173591613769531">
        <ele>183.0</ele>
        <time>2016-05-08T08:02:34.000Z</time>
      </trkpt>
      <trkpt lon="2.4912304878234863" lat="49.1173591613769531">
        <ele>183.0</ele>
        <time>2016-05-08T08:02:36.000Z</time>
      </trkpt>
      <trkpt lon="2.4908902645111084" lat="49.1171989440917969">
        <ele>183.0</ele>
        <time>2016-05-08T08:02:41.000Z</time>
      </trkpt>
      <trkpt lon="2.4906539916992188" lat="49.1171035766601562">
        <ele>186.0</ele>
        <time>2016-05-08T08:02:43.000Z</time>
      </trkpt>
      <trkpt lon="2.4904797077178955" lat="49.1170501708984375">
        <ele>190.0</ele>
        <time>2016-05-08T08:02:45.000Z</time>
      </trkpt>
      <trkpt lon="2.4904797077178955" lat="49.1170501708984375">
        <ele>190.0</ele>
        <time>2016-05-08T08:02:47.000Z</time>
      </trkpt>
      <trkpt lon="2.4901804924011230" lat="49.1170616149902344">
        <ele>187.0</ele>
        <time>2016-05-08T08:02:51.000Z</time>
      </trkpt>
      <trkpt lon="2.4899597167968750" lat="49.1170806884765625">
        <ele>188.0</ele>
        <time>2016-05-08T08:02:53.000Z</time>
      </trkpt>
      <trkpt lon="2.4897754192352295" lat="49.1170959472656250">
        <ele>188.0</ele>
        <time>2016-05-08T08:02:55.000Z</time>
      </trkpt>
      <trkpt lon="2.4896068572998047" lat="49.1170959472656250">
        <ele>184.0</ele>
        <time>2016-05-08T08:02:57.000Z</time>
      </trkpt>
      <trkpt lon="2.4894428253173828" lat="49.1171073913574219">
        <ele>180.0</ele>
        <time>2016-05-08T08:02:59.000Z</time>
      </trkpt>
      <trkpt lon="2.4891376495361328" lat="49.1171150207519531">
        <ele>184.0</ele>
        <time>2016-05-08T08:03:02.000Z</time>
      </trkpt>
      <trkpt lon="2.4891376495361328" lat="49.1171150207519531">
        <ele>184.0</ele>
        <time>2016-05-08T08:03:04.000Z</time>
      </trkpt>
      <trkpt lon="2.4888401031494141" lat="49.1171684265136719">
        <ele>185.0</ele>
        <time>2016-05-08T08:03:06.000Z</time>
      </trkpt>
      <trkpt lon="2.4886782169342041" lat="49.1171684265136719">
        <ele>183.0</ele>
        <time>2016-05-08T08:03:08.000Z</time>
      </trkpt>
      <trkpt lon="2.4884989261627197" lat="49.1172027587890625">
        <ele>182.0</ele>
        <time>2016-05-08T08:03:10.000Z</time>
      </trkpt>
      <trkpt lon="2.4883189201354980" lat="49.1172103881835938">
        <ele>184.0</ele>
        <time>2016-05-08T08:03:12.000Z</time>
      </trkpt>
      <trkpt lon="2.4881665706634521" lat="49.1172218322753906">
        <ele>183.0</ele>
        <time>2016-05-08T08:03:15.000Z</time>
      </trkpt>
      <trkpt lon="2.4881665706634521" lat="49.1172218322753906">
        <ele>183.0</ele>
        <time>2016-05-08T08:03:17.000Z</time>
      </trkpt>
      <trkpt lon="2.4881665706634521" lat="49.1172218322753906">
        <ele>183.0</ele>
        <time>2016-05-08T08:03:19.000Z</time>
      </trkpt>
      <trkpt lon="2.4877457618713379" lat="49.1172904968261719">
        <ele>189.0</ele>
        <time>2016-05-08T08:03:23.000Z</time>
      </trkpt>
      <trkpt lon="2.4875779151916504" lat="49.1172943115234375">
        <ele>190.0</ele>
        <time>2016-05-08T08:03:25.000Z</time>
      </trkpt>
      <trkpt lon="2.4874234199523926" lat="49.1172981262207031">
        <ele>190.0</ele>
        <time>2016-05-08T08:03:27.000Z</time>
      </trkpt>
      <trkpt lon="2.4872641563415527" lat="49.1173210144042969">
        <ele>190.0</ele>
        <time>2016-05-08T08:03:29.000Z</time>
      </trkpt>
      <trkpt lon="2.4870905876159668" lat="49.1173629760742188">
        <ele>188.0</ele>
        <time>2016-05-08T08:03:31.000Z</time>
      </trkpt>
      <trkpt lon="2.4869024753570557" lat="49.1173744201660156">
        <ele>187.0</ele>
        <time>2016-05-08T08:03:33.000Z</time>
      </trkpt>
      <trkpt lon="2.4867084026336670" lat="49.1173591613769531">
        <ele>186.0</ele>
        <time>2016-05-08T08:03:35.000Z</time>
      </trkpt>
      <trkpt lon="2.4864976406097412" lat="49.1173820495605469">
        <ele>184.0</ele>
        <time>2016-05-08T08:03:37.000Z</time>
      </trkpt>
      <trkpt lon="2.4863543510437012" lat="49.1174049377441406">
        <ele>183.0</ele>
        <time>2016-05-08T08:03:39.000Z</time>
      </trkpt>
      <trkpt lon="2.4861953258514404" lat="49.1174278259277344">
        <ele>183.0</ele>
        <time>2016-05-08T08:03:41.000Z</time>
      </trkpt>
      <trkpt lon="2.4859895706176758" lat="49.1174316406250000">
        <ele>183.0</ele>
        <time>2016-05-08T08:03:43.000Z</time>
      </trkpt>
      <trkpt lon="2.4857769012451172" lat="49.1174468994140625">
        <ele>178.0</ele>
        <time>2016-05-08T08:03:45.000Z</time>
      </trkpt>
      <trkpt lon="2.4855890274047852" lat="49.1174850463867188">
        <ele>179.0</ele>
        <time>2016-05-08T08:03:47.000Z</time>
      </trkpt>
      <trkpt lon="2.4853630065917969" lat="49.1175346374511719">
        <ele>180.0</ele>
        <time>2016-05-08T08:03:49.000Z</time>
      </trkpt>
      <trkpt lon="2.4851937294006348" lat="49.1175308227539062">
        <ele>178.0</ele>
        <time>2016-05-08T08:03:51.000Z</time>
      </trkpt>
      <trkpt lon="2.4848120212554932" lat="49.1176033020019531">
        <ele>177.0</ele>
        <time>2016-05-08T08:03:54.000Z</time>
      </trkpt>
      <trkpt lon="2.4846150875091553" lat="49.1176147460937500">
        <ele>178.0</ele>
        <time>2016-05-08T08:03:56.000Z</time>
      </trkpt>
      <trkpt lon="2.4844677448272705" lat="49.1175765991210938">
        <ele>175.0</ele>
        <time>2016-05-08T08:03:58.000Z</time>
      </trkpt>
      <trkpt lon="2.4844677448272705" lat="49.1175765991210938">
        <ele>175.0</ele>
        <time>2016-05-08T08:04:00.000Z</time>
      </trkpt>
      <trkpt lon="2.4844677448272705" lat="49.1175765991210938">
        <ele>175.0</ele>
        <time>2016-05-08T08:04:02.000Z</time>
      </trkpt>
      <trkpt lon="2.4841098785400391" lat="49.1171264648437500">
        <ele>171.0</ele>
        <time>2016-05-08T08:04:08.000Z</time>
      </trkpt>
      <trkpt lon="2.4840123653411865" lat="49.1170272827148438">
        <ele>168.0</ele>
        <time>2016-05-08T08:04:10.000Z</time>
      </trkpt>
      <trkpt lon="2.4839317798614502" lat="49.1169242858886719">
        <ele>168.0</ele>
        <time>2016-05-08T08:04:12.000Z</time>
      </trkpt>
      <trkpt lon="2.4838526248931885" lat="49.1168136596679688">
        <ele>167.0</ele>
        <time>2016-05-08T08:04:14.000Z</time>
      </trkpt>
      <trkpt lon="2.4837841987609863" lat="49.1167068481445312">
        <ele>167.0</ele>
        <time>2016-05-08T08:04:16.000Z</time>
      </trkpt>
      <trkpt lon="2.4836995601654053" lat="49.1166114807128906">
        <ele>168.0</ele>
        <time>2016-05-08T08:04:18.000Z</time>
      </trkpt>
      <trkpt lon="2.4836463928222656" lat="49.1165122985839844">
        <ele>166.0</ele>
        <time>2016-05-08T08:04:20.000Z</time>
      </trkpt>
      <trkpt lon="2.4835844039916992" lat="49.1164054870605469">
        <ele>167.0</ele>
        <time>2016-05-08T08:04:22.000Z</time>
      </trkpt>
      <trkpt lon="2.4835488796234131" lat="49.1163063049316406">
        <ele>168.0</ele>
        <time>2016-05-08T08:04:24.000Z</time>
      </trkpt>
      <trkpt lon="2.4835102558135986" lat="49.1162109375000000">
        <ele>166.0</ele>
        <time>2016-05-08T08:04:26.000Z</time>
      </trkpt>
      <trkpt lon="2.4835102558135986" lat="49.1162109375000000">
        <ele>166.0</ele>
        <time>2016-05-08T08:04:28.000Z</time>
      </trkpt>
      <trkpt lon="2.4835102558135986" lat="49.1162109375000000">
        <ele>166.0</ele>
        <time>2016-05-08T08:04:30.000Z</time>
      </trkpt>
      <trkpt lon="2.4835102558135986" lat="49.1162109375000000">
        <ele>166.0</ele>
        <time>2016-05-08T08:04:32.000Z</time>
      </trkpt>
      <trkpt lon="2.4835102558135986" lat="49.1162109375000000">
        <ele>166.0</ele>
        <time>2016-05-08T08:04:35.000Z</time>
      </trkpt>
      <trkpt lon="2.4835102558135986" lat="49.1162109375000000">
        <ele>166.0</ele>
        <time>2016-05-08T08:04:37.000Z</time>
      </trkpt>
      <trkpt lon="2.4832656383514404" lat="49.1154975891113281">
        <ele>165.0</ele>
        <time>2016-05-08T08:04:39.000Z</time>
      </trkpt>
      <trkpt lon="2.4830672740936279" lat="49.1154747009277344">
        <ele>170.0</ele>
        <time>2016-05-08T08:04:41.000Z</time>
      </trkpt>
      <trkpt lon="2.4830458164215088" lat="49.1153488159179688">
        <ele>169.0</ele>
        <time>2016-05-08T08:04:43.000Z</time>
      </trkpt>
      <trkpt lon="2.4830458164215088" lat="49.1153488159179688">
        <ele>169.0</ele>
        <time>2016-05-08T08:04:45.000Z</time>
      </trkpt>
      <trkpt lon="2.4830458164215088" lat="49.1153488159179688">
        <ele>169.0</ele>
        <time>2016-05-08T08:04:47.000Z</time>
      </trkpt>
      <trkpt lon="2.4830458164215088" lat="49.1153488159179688">
        <ele>169.0</ele>
        <time>2016-05-08T08:04:49.000Z</time>
      </trkpt>
      <trkpt lon="2.4830458164215088" lat="49.1153488159179688">
        <ele>169.0</ele>
        <time>2016-05-08T08:04:51.000Z</time>
      </trkpt>
      <trkpt lon="2.4830458164215088" lat="49.1153488159179688">
        <ele>169.0</ele>
        <time>2016-05-08T08:04:53.000Z</time>
      </trkpt>
      <trkpt lon="2.4830458164215088" lat="49.1153488159179688">
        <ele>169.0</ele>
        <time>2016-05-08T08:04:55.000Z</time>
      </trkpt>
      <trkpt lon="2.4830458164215088" lat="49.1153488159179688">
        <ele>169.0</ele>
        <time>2016-05-08T08:04:57.000Z</time>
      </trkpt>
      <trkpt lon="2.4830458164215088" lat="49.1153488159179688">
        <ele>169.0</ele>
        <time>2016-05-08T08:04:59.000Z</time>
      </trkpt>
      <trkpt lon="2.4830458164215088" lat="49.1153488159179688">
        <ele>169.0</ele>
        <time>2016-05-08T08:05:01.000Z</time>
      </trkpt>
      <trkpt lon="2.4830458164215088" lat="49.1153488159179688">
        <ele>169.0</ele>
        <time>2016-05-08T08:05:03.000Z</time>
      </trkpt>
      <trkpt lon="2.4830458164215088" lat="49.1153488159179688">
        <ele>169.0</ele>
        <time>2016-05-08T08:05:05.000Z</time>
      </trkpt>
      <trkpt lon="2.4830458164215088" lat="49.1153488159179688">
        <ele>169.0</ele>
        <time>2016-05-08T08:05:07.000Z</time>
      </trkpt>
      <trkpt lon="2.4830458164215088" lat="49.1153488159179688">
        <ele>169.0</ele>
        <time>2016-05-08T08:05:09.000Z</time>
      </trkpt>
      <trkpt lon="2.4830458164215088" lat="49.1153488159179688">
        <ele>169.0</ele>
        <time>2016-05-08T08:05:11.000Z</time>
      </trkpt>
      <trkpt lon="2.4830458164215088" lat="49.1153488159179688">
        <ele>169.0</ele>
        <time>2016-05-08T08:05:13.000Z</time>
      </trkpt>
      <trkpt lon="2.4830458164215088" lat="49.1153488159179688">
        <ele>169.0</ele>
        <time>2016-05-08T08:05:15.000Z</time>
      </trkpt>
      <trkpt lon="2.4826917648315430" lat="49.1145439147949219">
        <ele>157.0</ele>
        <time>2016-05-08T08:08:27.000Z</time>
      </trkpt>
      <trkpt lon="2.4825131893157959" lat="49.1144523620605469">
        <ele>157.0</ele>
        <time>2016-05-08T08:08:32.000Z</time>
      </trkpt>
      <trkpt lon="2.4823193550109863" lat="49.1143760681152344">
        <ele>157.0</ele>
        <time>2016-05-08T08:08:36.000Z</time>
      </trkpt>
      <trkpt lon="2.4822044372558594" lat="49.1143226623535156">
        <ele>157.0</ele>
        <time>2016-05-08T08:08:38.000Z</time>
      </trkpt>
      <trkpt lon="2.4820241928100586" lat="49.1142807006835938">
        <ele>157.0</ele>
        <time>2016-05-08T08:08:40.000Z</time>
      </trkpt>
      <trkpt lon="2.4818167686462402" lat="49.1142578125000000">
        <ele>157.0</ele>
        <time>2016-05-08T08:08:42.000Z</time>
      </trkpt>
      <trkpt lon="2.4815981388092041" lat="49.1142501831054688">
        <ele>155.0</ele>
        <time>2016-05-08T08:08:44.000Z</time>
      </trkpt>
      <trkpt lon="2.4813797473907471" lat="49.1142578125000000">
        <ele>154.0</ele>
        <time>2016-05-08T08:08:46.000Z</time>
      </trkpt>
      <trkpt lon="2.4811682701110840" lat="49.1142616271972656">
        <ele>154.0</ele>
        <time>2016-05-08T08:08:48.000Z</time>
      </trkpt>
      <trkpt lon="2.4809420108795166" lat="49.1142768859863281">
        <ele>151.0</ele>
        <time>2016-05-08T08:08:50.000Z</time>
      </trkpt>
      <trkpt lon="2.4807169437408447" lat="49.1142387390136719">
        <ele>150.0</ele>
        <time>2016-05-08T08:08:52.000Z</time>
      </trkpt>
      <trkpt lon="2.4805285930633545" lat="49.1142082214355469">
        <ele>149.0</ele>
        <time>2016-05-08T08:08:54.000Z</time>
      </trkpt>
      <trkpt lon="2.4803209304809570" lat="49.1141929626464844">
        <ele>149.0</ele>
        <time>2016-05-08T08:08:56.000Z</time>
      </trkpt>
      <trkpt lon="2.4801175594329834" lat="49.1141395568847656">
        <ele>150.0</ele>
        <time>2016-05-08T08:08:58.000Z</time>
      </trkpt>
      <trkpt lon="2.4799358844757080" lat="49.1140213012695312">
        <ele>150.0</ele>
        <time>2016-05-08T08:09:00.000Z</time>
      </trkpt>
      <trkpt lon="2.4797060489654541" lat="49.1139183044433594">
        <ele>153.0</ele>
        <time>2016-05-08T08:09:02.000Z</time>
      </trkpt>
      <trkpt lon="2.4795048236846924" lat="49.1138229370117188">
        <ele>153.0</ele>
        <time>2016-05-08T08:09:04.000Z</time>
      </trkpt>
      <trkpt lon="2.4795048236846924" lat="49.1138229370117188">
        <ele>153.0</ele>
        <time>2016-05-08T08:09:10.000Z</time>
      </trkpt>
      <trkpt lon="2.4789657592773438" lat="49.1139373779296875">
        <ele>162.0</ele>
        <time>2016-05-08T08:09:16.000Z</time>
      </trkpt>
      <trkpt lon="2.4788095951080322" lat="49.1140022277832031">
        <ele>162.0</ele>
        <time>2016-05-08T08:09:18.000Z</time>
      </trkpt>
      <trkpt lon="2.4786899089813232" lat="49.1140518188476562">
        <ele>161.0</ele>
        <time>2016-05-08T08:09:20.000Z</time>
      </trkpt>
      <trkpt lon="2.4785435199737549" lat="49.1141090393066406">
        <ele>158.0</ele>
        <time>2016-05-08T08:09:22.000Z</time>
      </trkpt>
      <trkpt lon="2.4784033298492432" lat="49.1141662597656250">
        <ele>155.0</ele>
        <time>2016-05-08T08:09:24.000Z</time>
      </trkpt>
      <trkpt lon="2.4782190322875977" lat="49.1142539978027344">
        <ele>152.0</ele>
        <time>2016-05-08T08:09:26.000Z</time>
      </trkpt>
      <trkpt lon="2.4780232906341553" lat="49.1143150329589844">
        <ele>150.0</ele>
        <time>2016-05-08T08:09:28.000Z</time>
      </trkpt>
      <trkpt lon="2.4778118133544922" lat="49.1144371032714844">
        <ele>152.0</ele>
        <time>2016-05-08T08:09:30.000Z</time>
      </trkpt>
      <trkpt lon="2.4776046276092529" lat="49.1145362854003906">
        <ele>153.0</ele>
        <time>2016-05-08T08:09:32.000Z</time>
      </trkpt>
      <trkpt lon="2.4774115085601807" lat="49.1146125793457031">
        <ele>147.0</ele>
        <time>2016-05-08T08:09:34.000Z</time>
      </trkpt>
      <trkpt lon="2.4772014617919922" lat="49.1146965026855469">
        <ele>146.0</ele>
        <time>2016-05-08T08:09:36.000Z</time>
      </trkpt>
      <trkpt lon="2.4769551753997803" lat="49.1148033142089844">
        <ele>144.0</ele>
        <time>2016-05-08T08:09:38.000Z</time>
      </trkpt>
      <trkpt lon="2.4766743183135986" lat="49.1149253845214844">
        <ele>141.0</ele>
        <time>2016-05-08T08:09:40.000Z</time>
      </trkpt>
      <trkpt lon="2.4764432907104492" lat="49.1150131225585938">
        <ele>142.0</ele>
        <time>2016-05-08T08:09:42.000Z</time>
      </trkpt>
      <trkpt lon="2.4762957096099854" lat="49.1151199340820312">
        <ele>139.0</ele>
        <time>2016-05-08T08:09:44.000Z</time>
      </trkpt>
      <trkpt lon="2.4761507511138916" lat="49.1151771545410156">
        <ele>140.0</ele>
        <time>2016-05-08T08:09:46.000Z</time>
      </trkpt>
      <trkpt lon="2.4761507511138916" lat="49.1151771545410156">
        <ele>140.0</ele>
        <time>2016-05-08T08:09:48.000Z</time>
      </trkpt>
      <trkpt lon="2.4761507511138916" lat="49.1151771545410156">
        <ele>140.0</ele>
        <time>2016-05-08T08:09:50.000Z</time>
      </trkpt>
      <trkpt lon="2.4761507511138916" lat="49.1151771545410156">
        <ele>140.0</ele>
        <time>2016-05-08T08:09:52.000Z</time>
      </trkpt>
      <trkpt lon="2.4761507511138916" lat="49.1151771545410156">
        <ele>140.0</ele>
        <time>2016-05-08T08:09:54.000Z</time>
      </trkpt>
      <trkpt lon="2.4761507511138916" lat="49.1151771545410156">
        <ele>140.0</ele>
        <time>2016-05-08T08:09:56.000Z</time>
      </trkpt>
      <trkpt lon="2.4761507511138916" lat="49.1151771545410156">
        <ele>140.0</ele>
        <time>2016-05-08T08:09:58.000Z</time>
      </trkpt>
      <trkpt lon="2.4761507511138916" lat="49.1151771545410156">
        <ele>140.0</ele>
        <time>2016-05-08T08:10:00.000Z</time>
      </trkpt>
      <trkpt lon="2.4761507511138916" lat="49.1151771545410156">
        <ele>140.0</ele>
        <time>2016-05-08T08:10:02.000Z</time>
      </trkpt>
      <trkpt lon="2.4761507511138916" lat="49.1151771545410156">
        <ele>140.0</ele>
        <time>2016-05-08T08:10:04.000Z</time>
      </trkpt>
      <trkpt lon="2.4761507511138916" lat="49.1151771545410156">
        <ele>140.0</ele>
        <time>2016-05-08T08:10:06.000Z</time>
      </trkpt>
      <trkpt lon="2.4761507511138916" lat="49.1151771545410156">
        <ele>140.0</ele>
        <time>2016-05-08T08:10:08.000Z</time>
      </trkpt>
      <trkpt lon="2.4761507511138916" lat="49.1151771545410156">
        <ele>140.0</ele>
        <time>2016-05-08T08:10:10.000Z</time>
      </trkpt>
      <trkpt lon="2.4753684997558594" lat="49.1148986816406250">
        <ele>135.0</ele>
        <time>2016-05-08T08:10:16.000Z</time>
      </trkpt>
      <trkpt lon="2.4751627445220947" lat="49.1148529052734375">
        <ele>140.0</ele>
        <time>2016-05-08T08:10:22.000Z</time>
      </trkpt>
      <trkpt lon="2.4750208854675293" lat="49.1148147583007812">
        <ele>140.0</ele>
        <time>2016-05-08T08:10:26.000Z</time>
      </trkpt>
      <trkpt lon="2.4748919010162354" lat="49.1147499084472656">
        <ele>139.0</ele>
        <time>2016-05-08T08:10:30.000Z</time>
      </trkpt>
      <trkpt lon="2.4748919010162354" lat="49.1147499084472656">
        <ele>139.0</ele>
        <time>2016-05-08T08:10:32.000Z</time>
      </trkpt>
      <trkpt lon="2.4748919010162354" lat="49.1147499084472656">
        <ele>139.0</ele>
        <time>2016-05-08T08:10:34.000Z</time>
      </trkpt>
      <trkpt lon="2.4748919010162354" lat="49.1147499084472656">
        <ele>139.0</ele>
        <time>2016-05-08T08:10:36.000Z</time>
      </trkpt>
      <trkpt lon="2.4748919010162354" lat="49.1147499084472656">
        <ele>139.0</ele>
        <time>2016-05-08T08:10:40.000Z</time>
      </trkpt>
      <trkpt lon="2.4748919010162354" lat="49.1147499084472656">
        <ele>139.0</ele>
        <time>2016-05-08T08:10:42.000Z</time>
      </trkpt>
      <trkpt lon="2.4748919010162354" lat="49.1147499084472656">
        <ele>139.0</ele>
        <time>2016-05-08T08:10:44.000Z</time>
      </trkpt>
      <trkpt lon="2.4748919010162354" lat="49.1147499084472656">
        <ele>139.0</ele>
        <time>2016-05-08T08:10:46.000Z</time>
      </trkpt>
      <trkpt lon="2.4748919010162354" lat="49.1147499084472656">
        <ele>139.0</ele>
        <time>2016-05-08T08:10:48.000Z</time>
      </trkpt>
      <trkpt lon="2.4746007919311523" lat="49.1146087646484375">
        <ele>148.0</ele>
        <time>2016-05-08T08:10:52.000Z</time>
      </trkpt>
      <trkpt lon="2.4744114875793457" lat="49.1145248413085938">
        <ele>146.0</ele>
        <time>2016-05-08T08:10:54.000Z</time>
      </trkpt>
      <trkpt lon="2.4742863178253174" lat="49.1144866943359375">
        <ele>144.0</ele>
        <time>2016-05-08T08:10:56.000Z</time>
      </trkpt>
      <trkpt lon="2.4742069244384766" lat="49.1144485473632812">
        <ele>146.0</ele>
        <time>2016-05-08T08:10:58.000Z</time>
      </trkpt>
      <trkpt lon="2.4742069244384766" lat="49.1144485473632812">
        <ele>146.0</ele>
        <time>2016-05-08T08:11:00.000Z</time>
      </trkpt>
      <trkpt lon="2.4742069244384766" lat="49.1144485473632812">
        <ele>146.0</ele>
        <time>2016-05-08T08:11:02.000Z</time>
      </trkpt>
      <trkpt lon="2.4742069244384766" lat="49.1144485473632812">
        <ele>146.0</ele>
        <time>2016-05-08T08:11:04.000Z</time>
      </trkpt>
      <trkpt lon="2.4742069244384766" lat="49.1144485473632812">
        <ele>146.0</ele>
        <time>2016-05-08T08:11:06.000Z</time>
      </trkpt>
      <trkpt lon="2.4742069244384766" lat="49.1144485473632812">
        <ele>146.0</ele>
        <time>2016-05-08T08:11:08.000Z</time>
      </trkpt>
      <trkpt lon="2.4742069244384766" lat="49.1144485473632812">
        <ele>146.0</ele>
        <time>2016-05-08T08:11:10.000Z</time>
      </trkpt>
      <trkpt lon="2.4738588333129883" lat="49.1144104003906250">
        <ele>150.0</ele>
        <time>2016-05-08T08:11:16.000Z</time>
      </trkpt>
      <trkpt lon="2.4736595153808594" lat="49.1143760681152344">
        <ele>152.0</ele>
        <time>2016-05-08T08:11:18.000Z</time>
      </trkpt>
      <trkpt lon="2.4735386371612549" lat="49.1143531799316406">
        <ele>154.0</ele>
        <time>2016-05-08T08:11:20.000Z</time>
      </trkpt>
      <trkpt lon="2.4734425544738770" lat="49.1143302917480469">
        <ele>156.0</ele>
        <time>2016-05-08T08:11:22.000Z</time>
      </trkpt>
      <trkpt lon="2.4733762741088867" lat="49.1143112182617188">
        <ele>154.0</ele>
        <time>2016-05-08T08:11:24.000Z</time>
      </trkpt>
      <trkpt lon="2.4733762741088867" lat="49.1143112182617188">
        <ele>154.0</ele>
        <time>2016-05-08T08:11:26.000Z</time>
      </trkpt>
      <trkpt lon="2.4731926918029785" lat="49.1142616271972656">
        <ele>155.0</ele>
        <time>2016-05-08T08:11:28.000Z</time>
      </trkpt>
      <trkpt lon="2.4730589389801025" lat="49.1142272949218750">
        <ele>157.0</ele>
        <time>2016-05-08T08:11:32.000Z</time>
      </trkpt>
      <trkpt lon="2.4730589389801025" lat="49.1142272949218750">
        <ele>157.0</ele>
        <time>2016-05-08T08:11:34.000Z</time>
      </trkpt>
      <trkpt lon="2.4730589389801025" lat="49.1142272949218750">
        <ele>157.0</ele>
        <time>2016-05-08T08:11:36.000Z</time>
      </trkpt>
      <trkpt lon="2.4727652072906494" lat="49.1140747070312500">
        <ele>161.0</ele>
        <time>2016-05-08T08:11:44.000Z</time>
      </trkpt>
      <trkpt lon="2.4727652072906494" lat="49.1140747070312500">
        <ele>161.0</ele>
        <time>2016-05-08T08:11:46.000Z</time>
      </trkpt>
      <trkpt lon="2.4726414680480957" lat="49.1140174865722656">
        <ele>160.0</ele>
        <time>2016-05-08T08:11:48.000Z</time>
      </trkpt>
      <trkpt lon="2.4726414680480957" lat="49.1140174865722656">
        <ele>160.0</ele>
        <time>2016-05-08T08:11:54.000Z</time>
      </trkpt>
      <trkpt lon="2.4726414680480957" lat="49.1140174865722656">
        <ele>160.0</ele>
        <time>2016-05-08T08:11:56.000Z</time>
      </trkpt>
      <trkpt lon="2.4723987579345703" lat="49.1139869689941406">
        <ele>161.0</ele>
        <time>2016-05-08T08:11:58.000Z</time>
      </trkpt>
      <trkpt lon="2.4722056388854980" lat="49.1140136718750000">
        <ele>163.0</ele>
        <time>2016-05-08T08:12:02.000Z</time>
      </trkpt>
      <trkpt lon="2.4720406532287598" lat="49.1140213012695312">
        <ele>161.0</ele>
        <time>2016-05-08T08:12:04.000Z</time>
      </trkpt>
      <trkpt lon="2.4718072414398193" lat="49.1140098571777344">
        <ele>158.0</ele>
        <time>2016-05-08T08:12:06.000Z</time>
      </trkpt>
      <trkpt lon="2.4715974330902100" lat="49.1140060424804688">
        <ele>156.0</ele>
        <time>2016-05-08T08:12:08.000Z</time>
      </trkpt>
      <trkpt lon="2.4713630676269531" lat="49.1139869689941406">
        <ele>155.0</ele>
        <time>2016-05-08T08:12:10.000Z</time>
      </trkpt>
      <trkpt lon="2.4711453914642334" lat="49.1139602661132812">
        <ele>155.0</ele>
        <time>2016-05-08T08:12:12.000Z</time>
      </trkpt>
      <trkpt lon="2.4708871841430664" lat="49.1139755249023438">
        <ele>154.0</ele>
        <time>2016-05-08T08:12:14.000Z</time>
      </trkpt>
      <trkpt lon="2.4706311225891113" lat="49.1140060424804688">
        <ele>156.0</ele>
        <time>2016-05-08T08:12:16.000Z</time>
      </trkpt>
      <trkpt lon="2.4703817367553711" lat="49.1140365600585938">
        <ele>154.0</ele>
        <time>2016-05-08T08:12:18.000Z</time>
      </trkpt>
      <trkpt lon="2.4701635837554932" lat="49.1140480041503906">
        <ele>155.0</ele>
        <time>2016-05-08T08:12:20.000Z</time>
      </trkpt>
      <trkpt lon="2.4699029922485352" lat="49.1140365600585938">
        <ele>151.0</ele>
        <time>2016-05-08T08:12:22.000Z</time>
      </trkpt>
      <trkpt lon="2.4696791172027588" lat="49.1140327453613281">
        <ele>149.0</ele>
        <time>2016-05-08T08:12:24.000Z</time>
      </trkpt>
      <trkpt lon="2.4694514274597168" lat="49.1140518188476562">
        <ele>149.0</ele>
        <time>2016-05-08T08:12:26.000Z</time>
      </trkpt>
      <trkpt lon="2.4692130088806152" lat="49.1140861511230469">
        <ele>148.0</ele>
        <time>2016-05-08T08:12:28.000Z</time>
      </trkpt>
      <trkpt lon="2.4689850807189941" lat="49.1140518188476562">
        <ele>148.0</ele>
        <time>2016-05-08T08:12:30.000Z</time>
      </trkpt>
      <trkpt lon="2.4687933921813965" lat="49.1139945983886719">
        <ele>149.0</ele>
        <time>2016-05-08T08:12:32.000Z</time>
      </trkpt>
      <trkpt lon="2.4685759544372559" lat="49.1139984130859375">
        <ele>149.0</ele>
        <time>2016-05-08T08:12:34.000Z</time>
      </trkpt>
      <trkpt lon="2.4683825969696045" lat="49.1140289306640625">
        <ele>148.0</ele>
        <time>2016-05-08T08:12:36.000Z</time>
      </trkpt>
      <trkpt lon="2.4682261943817139" lat="49.1141242980957031">
        <ele>148.0</ele>
        <time>2016-05-08T08:12:38.000Z</time>
      </trkpt>
      <trkpt lon="2.4681203365325928" lat="49.1142082214355469">
        <ele>148.0</ele>
        <time>2016-05-08T08:12:40.000Z</time>
      </trkpt>
      <trkpt lon="2.4681203365325928" lat="49.1142082214355469">
        <ele>148.0</ele>
        <time>2016-05-08T08:12:44.000Z</time>
      </trkpt>
      <trkpt lon="2.4679553508758545" lat="49.1144142150878906">
        <ele>148.0</ele>
        <time>2016-05-08T08:12:50.000Z</time>
      </trkpt>
      <trkpt lon="2.4677760601043701" lat="49.1144523620605469">
        <ele>150.0</ele>
        <time>2016-05-08T08:12:54.000Z</time>
      </trkpt>
      <trkpt lon="2.4676482677459717" lat="49.1146507263183594">
        <ele>147.0</ele>
        <time>2016-05-08T08:12:57.000Z</time>
      </trkpt>
      <trkpt lon="2.4675583839416504" lat="49.1148109436035156">
        <ele>145.0</ele>
        <time>2016-05-08T08:12:59.000Z</time>
      </trkpt>
      <trkpt lon="2.4675514698028564" lat="49.1150169372558594">
        <ele>142.0</ele>
        <time>2016-05-08T08:13:01.000Z</time>
      </trkpt>
      <trkpt lon="2.4674406051635742" lat="49.1152114868164062">
        <ele>140.0</ele>
        <time>2016-05-08T08:13:03.000Z</time>
      </trkpt>
      <trkpt lon="2.4672343730926514" lat="49.1153831481933594">
        <ele>139.0</ele>
        <time>2016-05-08T08:13:05.000Z</time>
      </trkpt>
      <trkpt lon="2.4670581817626953" lat="49.1155128479003906">
        <ele>135.0</ele>
        <time>2016-05-08T08:13:07.000Z</time>
      </trkpt>
      <trkpt lon="2.4670460224151611" lat="49.1156883239746094">
        <ele>135.0</ele>
        <time>2016-05-08T08:13:10.000Z</time>
      </trkpt>
      <trkpt lon="2.4671247005462646" lat="49.1159439086914062">
        <ele>134.0</ele>
        <time>2016-05-08T08:13:13.000Z</time>
      </trkpt>
      <trkpt lon="2.4671247005462646" lat="49.1159439086914062">
        <ele>134.0</ele>
        <time>2016-05-08T08:13:17.000Z</time>
      </trkpt>
      <trkpt lon="2.4671247005462646" lat="49.1159439086914062">
        <ele>134.0</ele>
        <time>2016-05-08T08:13:21.000Z</time>
      </trkpt>
      <trkpt lon="2.4671247005462646" lat="49.1159439086914062">
        <ele>134.0</ele>
        <time>2016-05-08T08:13:23.000Z</time>
      </trkpt>
      <trkpt lon="2.4671247005462646" lat="49.1159439086914062">
        <ele>134.0</ele>
        <time>2016-05-08T08:13:25.000Z</time>
      </trkpt>
      <trkpt lon="2.4672825336456299" lat="49.1166038513183594">
        <ele>123.0</ele>
        <time>2016-05-08T08:13:29.000Z</time>
      </trkpt>
      <trkpt lon="2.4672682285308838" lat="49.1166954040527344">
        <ele>120.0</ele>
        <time>2016-05-08T08:13:31.000Z</time>
      </trkpt>
      <trkpt lon="2.4672586917877197" lat="49.1167869567871094">
        <ele>118.0</ele>
        <time>2016-05-08T08:13:33.000Z</time>
      </trkpt>
      <trkpt lon="2.4672961235046387" lat="49.1169700622558594">
        <ele>117.0</ele>
        <time>2016-05-08T08:13:37.000Z</time>
      </trkpt>
      <trkpt lon="2.4673087596893311" lat="49.1170578002929688">
        <ele>116.0</ele>
        <time>2016-05-08T08:13:39.000Z</time>
      </trkpt>
      <trkpt lon="2.4673223495483398" lat="49.1171569824218750">
        <ele>116.0</ele>
        <time>2016-05-08T08:13:41.000Z</time>
      </trkpt>
      <trkpt lon="2.4673783779144287" lat="49.1172485351562500">
        <ele>118.0</ele>
        <time>2016-05-08T08:13:43.000Z</time>
      </trkpt>
      <trkpt lon="2.4673783779144287" lat="49.1172485351562500">
        <ele>118.0</ele>
        <time>2016-05-08T08:13:45.000Z</time>
      </trkpt>
      <trkpt lon="2.4673783779144287" lat="49.1172485351562500">
        <ele>118.0</ele>
        <time>2016-05-08T08:13:47.000Z</time>
      </trkpt>
      <trkpt lon="2.4673783779144287" lat="49.1172485351562500">
        <ele>118.0</ele>
        <time>2016-05-08T08:13:49.000Z</time>
      </trkpt>
      <trkpt lon="2.4673783779144287" lat="49.1172485351562500">
        <ele>118.0</ele>
        <time>2016-05-08T08:13:51.000Z</time>
      </trkpt>
      <trkpt lon="2.4673783779144287" lat="49.1172485351562500">
        <ele>118.0</ele>
        <time>2016-05-08T08:14:01.000Z</time>
      </trkpt>
      <trkpt lon="2.4673783779144287" lat="49.1172485351562500">
        <ele>118.0</ele>
        <time>2016-05-08T08:14:03.000Z</time>
      </trkpt>
      <trkpt lon="2.4673783779144287" lat="49.1172485351562500">
        <ele>118.0</ele>
        <time>2016-05-08T08:14:05.000Z</time>
      </trkpt>
      <trkpt lon="2.4673259258270264" lat="49.1176643371582031">
        <ele>127.0</ele>
        <time>2016-05-08T08:14:09.000Z</time>
      </trkpt>
      <trkpt lon="2.4672825336456299" lat="49.1178894042968750">
        <ele>129.0</ele>
        <time>2016-05-08T08:14:11.000Z</time>
      </trkpt>
      <trkpt lon="2.4672176837921143" lat="49.1180267333984375">
        <ele>129.0</ele>
        <time>2016-05-08T08:14:13.000Z</time>
      </trkpt>
      <trkpt lon="2.4672176837921143" lat="49.1180267333984375">
        <ele>129.0</ele>
        <time>2016-05-08T08:14:15.000Z</time>
      </trkpt>
      <trkpt lon="2.4672176837921143" lat="49.1180267333984375">
        <ele>129.0</ele>
        <time>2016-05-08T08:14:17.000Z</time>
      </trkpt>
      <trkpt lon="2.4672176837921143" lat="49.1180267333984375">
        <ele>129.0</ele>
        <time>2016-05-08T08:14:19.000Z</time>
      </trkpt>
      <trkpt lon="2.4673078060150146" lat="49.1181411743164062">
        <ele>120.0</ele>
        <time>2016-05-08T08:14:25.000Z</time>
      </trkpt>
      <trkpt lon="2.4674048423767090" lat="49.1182060241699219">
        <ele>119.0</ele>
        <time>2016-05-08T08:14:27.000Z</time>
      </trkpt>
      <trkpt lon="2.4675130844116211" lat="49.1182250976562500">
        <ele>118.0</ele>
        <time>2016-05-08T08:14:29.000Z</time>
      </trkpt>
      <trkpt lon="2.4676301479339600" lat="49.1182289123535156">
        <ele>118.0</ele>
        <time>2016-05-08T08:14:31.000Z</time>
      </trkpt>
      <trkpt lon="2.4677138328552246" lat="49.1182365417480469">
        <ele>114.0</ele>
        <time>2016-05-08T08:14:34.000Z</time>
      </trkpt>
      <trkpt lon="2.4677138328552246" lat="49.1182365417480469">
        <ele>114.0</ele>
        <time>2016-05-08T08:14:36.000Z</time>
      </trkpt>
      <trkpt lon="2.4677138328552246" lat="49.1182365417480469">
        <ele>114.0</ele>
        <time>2016-05-08T08:14:38.000Z</time>
      </trkpt>
      <trkpt lon="2.4682111740112305" lat="49.1181983947753906">
        <ele>114.0</ele>
        <time>2016-05-08T08:14:44.000Z</time>
      </trkpt>
      <trkpt lon="2.4684150218963623" lat="49.1182098388671875">
        <ele>114.0</ele>
        <time>2016-05-08T08:14:48.000Z</time>
      </trkpt>
      <trkpt lon="2.4686141014099121" lat="49.1182136535644531">
        <ele>115.0</ele>
        <time>2016-05-08T08:14:52.000Z</time>
      </trkpt>
      <trkpt lon="2.4688265323638916" lat="49.1182250976562500">
        <ele>111.0</ele>
        <time>2016-05-08T08:14:56.000Z</time>
      </trkpt>
      <trkpt lon="2.4689984321594238" lat="49.1181716918945312">
        <ele>110.0</ele>
        <time>2016-05-08T08:15:00.000Z</time>
      </trkpt>
      <trkpt lon="2.4689984321594238" lat="49.1181716918945312">
        <ele>110.0</ele>
        <time>2016-05-08T08:15:02.000Z</time>
      </trkpt>
      <trkpt lon="2.4689984321594238" lat="49.1181716918945312">
        <ele>110.0</ele>
        <time>2016-05-08T08:15:04.000Z</time>
      </trkpt>
      <trkpt lon="2.4689984321594238" lat="49.1181716918945312">
        <ele>110.0</ele>
        <time>2016-05-08T08:15:06.000Z</time>
      </trkpt>
      <trkpt lon="2.4689984321594238" lat="49.1181716918945312">
        <ele>110.0</ele>
        <time>2016-05-08T08:15:08.000Z</time>
      </trkpt>
      <trkpt lon="2.4695701599121094" lat="49.1180763244628906">
        <ele>112.0</ele>
        <time>2016-05-08T08:15:12.000Z</time>
      </trkpt>
      <trkpt lon="2.4696791172027588" lat="49.1180000305175781">
        <ele>110.0</ele>
        <time>2016-05-08T08:15:14.000Z</time>
      </trkpt>
      <trkpt lon="2.4698748588562012" lat="49.1179847717285156">
        <ele>109.0</ele>
        <time>2016-05-08T08:15:18.000Z</time>
      </trkpt>
      <trkpt lon="2.4698748588562012" lat="49.1179847717285156">
        <ele>109.0</ele>
        <time>2016-05-08T08:15:20.000Z</time>
      </trkpt>
      <trkpt lon="2.4698748588562012" lat="49.1179847717285156">
        <ele>109.0</ele>
        <time>2016-05-08T08:15:22.000Z</time>
      </trkpt>
      <trkpt lon="2.4698748588562012" lat="49.1179847717285156">
        <ele>109.0</ele>
        <time>2016-05-08T08:15:30.000Z</time>
      </trkpt>
      <trkpt lon="2.4698748588562012" lat="49.1179847717285156">
        <ele>109.0</ele>
        <time>2016-05-08T08:15:32.000Z</time>
      </trkpt>
      <trkpt lon="2.4698748588562012" lat="49.1179847717285156">
        <ele>109.0</ele>
        <time>2016-05-08T08:15:34.000Z</time>
      </trkpt>
      <trkpt lon="2.4698748588562012" lat="49.1179847717285156">
        <ele>109.0</ele>
        <time>2016-05-08T08:15:36.000Z</time>
      </trkpt>
      <trkpt lon="2.4698748588562012" lat="49.1179847717285156">
        <ele>109.0</ele>
        <time>2016-05-08T08:15:38.000Z</time>
      </trkpt>
      <trkpt lon="2.4698748588562012" lat="49.1179847717285156">
        <ele>109.0</ele>
        <time>2016-05-08T08:15:40.000Z</time>
      </trkpt>
      <trkpt lon="2.4698748588562012" lat="49.1179847717285156">
        <ele>109.0</ele>
        <time>2016-05-08T08:15:42.000Z</time>
      </trkpt>
      <trkpt lon="2.4698748588562012" lat="49.1179847717285156">
        <ele>109.0</ele>
        <time>2016-05-08T08:15:44.000Z</time>
      </trkpt>
      <trkpt lon="2.4698748588562012" lat="49.1179847717285156">
        <ele>109.0</ele>
        <time>2016-05-08T08:15:46.000Z</time>
      </trkpt>
      <trkpt lon="2.4698748588562012" lat="49.1179847717285156">
        <ele>109.0</ele>
        <time>2016-05-08T08:15:48.000Z</time>
      </trkpt>
      <trkpt lon="2.4698748588562012" lat="49.1179847717285156">
        <ele>109.0</ele>
        <time>2016-05-08T08:15:50.000Z</time>
      </trkpt>
      <trkpt lon="2.4698748588562012" lat="49.1179847717285156">
        <ele>109.0</ele>
        <time>2016-05-08T08:15:52.000Z</time>
      </trkpt>
      <trkpt lon="2.4698748588562012" lat="49.1179847717285156">
        <ele>109.0</ele>
        <time>2016-05-08T08:15:54.000Z</time>
      </trkpt>
      <trkpt lon="2.4698748588562012" lat="49.1179847717285156">
        <ele>109.0</ele>
        <time>2016-05-08T08:15:56.000Z</time>
      </trkpt>
      <trkpt lon="2.4704608917236328" lat="49.1178359985351562">
        <ele>115.0</ele>
        <time>2016-05-08T08:16:00.000Z</time>
      </trkpt>
      <trkpt lon="2.4707593917846680" lat="49.1177864074707031">
        <ele>113.0</ele>
        <time>2016-05-08T08:16:02.000Z</time>
      </trkpt>
      <trkpt lon="2.4709053039550781" lat="49.1177711486816406">
        <ele>119.0</ele>
        <time>2016-05-08T08:16:04.000Z</time>
      </trkpt>
      <trkpt lon="2.4709053039550781" lat="49.1177711486816406">
        <ele>119.0</ele>
        <time>2016-05-08T08:16:06.000Z</time>
      </trkpt>
      <trkpt lon="2.4709053039550781" lat="49.1177711486816406">
        <ele>119.0</ele>
        <time>2016-05-08T08:16:08.000Z</time>
      </trkpt>
      <trkpt lon="2.4709308147430420" lat="49.1178359985351562">
        <ele>119.0</ele>
        <time>2016-05-08T08:16:12.000Z</time>
      </trkpt>
      <trkpt lon="2.4709444046020508" lat="49.1178817749023438">
        <ele>120.0</ele>
        <time>2016-05-08T08:16:14.000Z</time>
      </trkpt>
      <trkpt lon="2.4709444046020508" lat="49.1178817749023438">
        <ele>120.0</ele>
        <time>2016-05-08T08:16:16.000Z</time>
      </trkpt>
      <trkpt lon="2.4709444046020508" lat="49.1178817749023438">
        <ele>120.0</ele>
        <time>2016-05-08T08:16:18.000Z</time>
      </trkpt>
      <trkpt lon="2.4709444046020508" lat="49.1178817749023438">
        <ele>120.0</ele>
        <time>2016-05-08T08:16:20.000Z</time>
      </trkpt>
      <trkpt lon="2.4709444046020508" lat="49.1178817749023438">
        <ele>120.0</ele>
        <time>2016-05-08T08:16:22.000Z</time>
      </trkpt>
      <trkpt lon="2.4709444046020508" lat="49.1178817749023438">
        <ele>120.0</ele>
        <time>2016-05-08T08:16:24.000Z</time>
      </trkpt>
      <trkpt lon="2.4709229469299316" lat="49.1180267333984375">
        <ele>121.0</ele>
        <time>2016-05-08T08:16:28.000Z</time>
      </trkpt>
      <trkpt lon="2.4708926677703857" lat="49.1181030273437500">
        <ele>127.0</ele>
        <time>2016-05-08T08:16:30.000Z</time>
      </trkpt>
      <trkpt lon="2.4708852767944336" lat="49.1181602478027344">
        <ele>127.0</ele>
        <time>2016-05-08T08:16:32.000Z</time>
      </trkpt>
      <trkpt lon="2.4708852767944336" lat="49.1181602478027344">
        <ele>127.0</ele>
        <time>2016-05-08T08:16:34.000Z</time>
      </trkpt>
      <trkpt lon="2.4708454608917236" lat="49.1182785034179688">
        <ele>136.0</ele>
        <time>2016-05-08T08:16:40.000Z</time>
      </trkpt>
      <trkpt lon="2.4708218574523926" lat="49.1183547973632812">
        <ele>136.0</ele>
        <time>2016-05-08T08:16:42.000Z</time>
      </trkpt>
      <trkpt lon="2.4708018302917480" lat="49.1184158325195312">
        <ele>138.0</ele>
        <time>2016-05-08T08:16:44.000Z</time>
      </trkpt>
      <trkpt lon="2.4707756042480469" lat="49.1184616088867188">
        <ele>140.0</ele>
        <time>2016-05-08T08:16:46.000Z</time>
      </trkpt>
      <trkpt lon="2.4707503318786621" lat="49.1185073852539062">
        <ele>141.0</ele>
        <time>2016-05-08T08:16:48.000Z</time>
      </trkpt>
      <trkpt lon="2.4706962108612061" lat="49.1185951232910156">
        <ele>141.0</ele>
        <time>2016-05-08T08:16:50.000Z</time>
      </trkpt>
      <trkpt lon="2.4706494808197021" lat="49.1186866760253906">
        <ele>144.0</ele>
        <time>2016-05-08T08:16:56.000Z</time>
      </trkpt>
      <trkpt lon="2.4706494808197021" lat="49.1186866760253906">
        <ele>144.0</ele>
        <time>2016-05-08T08:16:58.000Z</time>
      </trkpt>
      <trkpt lon="2.4706494808197021" lat="49.1186866760253906">
        <ele>144.0</ele>
        <time>2016-05-08T08:17:00.000Z</time>
      </trkpt>
      <trkpt lon="2.4705567359924316" lat="49.1187744140625000">
        <ele>151.0</ele>
        <time>2016-05-08T08:17:06.000Z</time>
      </trkpt>
      <trkpt lon="2.4705567359924316" lat="49.1187744140625000">
        <ele>151.0</ele>
        <time>2016-05-08T08:17:12.000Z</time>
      </trkpt>
      <trkpt lon="2.4705567359924316" lat="49.1187744140625000">
        <ele>151.0</ele>
        <time>2016-05-08T08:17:14.000Z</time>
      </trkpt>
      <trkpt lon="2.4703679084777832" lat="49.1189537048339844">
        <ele>152.0</ele>
        <time>2016-05-08T08:17:18.000Z</time>
      </trkpt>
      <trkpt lon="2.4702563285827637" lat="49.1190185546875000">
        <ele>156.0</ele>
        <time>2016-05-08T08:17:22.000Z</time>
      </trkpt>
      <trkpt lon="2.4701092243194580" lat="49.1190795898437500">
        <ele>156.0</ele>
        <time>2016-05-08T08:17:28.000Z</time>
      </trkpt>
      <trkpt lon="2.4701092243194580" lat="49.1190795898437500">
        <ele>156.0</ele>
        <time>2016-05-08T08:17:34.000Z</time>
      </trkpt>
      <trkpt lon="2.4701092243194580" lat="49.1190795898437500">
        <ele>156.0</ele>
        <time>2016-05-08T08:17:36.000Z</time>
      </trkpt>
      <trkpt lon="2.4701092243194580" lat="49.1190795898437500">
        <ele>156.0</ele>
        <time>2016-05-08T08:17:38.000Z</time>
      </trkpt>
      <trkpt lon="2.4699537754058838" lat="49.1192855834960938">
        <ele>165.0</ele>
        <time>2016-05-08T08:17:42.000Z</time>
      </trkpt>
      <trkpt lon="2.4699537754058838" lat="49.1192855834960938">
        <ele>165.0</ele>
        <time>2016-05-08T08:17:44.000Z</time>
      </trkpt>
      <trkpt lon="2.4699537754058838" lat="49.1192855834960938">
        <ele>165.0</ele>
        <time>2016-05-08T08:17:46.000Z</time>
      </trkpt>
      <trkpt lon="2.4699537754058838" lat="49.1192855834960938">
        <ele>165.0</ele>
        <time>2016-05-08T08:17:48.000Z</time>
      </trkpt>
      <trkpt lon="2.4699537754058838" lat="49.1192855834960938">
        <ele>165.0</ele>
        <time>2016-05-08T08:17:50.000Z</time>
      </trkpt>
      <trkpt lon="2.4699537754058838" lat="49.1192855834960938">
        <ele>165.0</ele>
        <time>2016-05-08T08:17:56.000Z</time>
      </trkpt>
      <trkpt lon="2.4699537754058838" lat="49.1192855834960938">
        <ele>165.0</ele>
        <time>2016-05-08T08:17:58.000Z</time>
      </trkpt>
      <trkpt lon="2.4699537754058838" lat="49.1192855834960938">
        <ele>165.0</ele>
        <time>2016-05-08T08:18:06.000Z</time>
      </trkpt>
      <trkpt lon="2.4699537754058838" lat="49.1192855834960938">
        <ele>165.0</ele>
        <time>2016-05-08T08:18:08.000Z</time>
      </trkpt>
      <trkpt lon="2.4699537754058838" lat="49.1192855834960938">
        <ele>165.0</ele>
        <time>2016-05-08T08:18:14.000Z</time>
      </trkpt>
      <trkpt lon="2.4697256088256836" lat="49.1194915771484375">
        <ele>165.0</ele>
        <time>2016-05-08T08:18:16.000Z</time>
      </trkpt>
      <trkpt lon="2.4695937633514404" lat="49.1196174621582031">
        <ele>164.0</ele>
        <time>2016-05-08T08:18:18.000Z</time>
      </trkpt>
      <trkpt lon="2.4695174694061279" lat="49.1196937561035156">
        <ele>164.0</ele>
        <time>2016-05-08T08:18:20.000Z</time>
      </trkpt>
      <trkpt lon="2.4694650173187256" lat="49.1197357177734375">
        <ele>163.0</ele>
        <time>2016-05-08T08:18:22.000Z</time>
      </trkpt>
      <trkpt lon="2.4694650173187256" lat="49.1197357177734375">
        <ele>163.0</ele>
        <time>2016-05-08T08:18:24.000Z</time>
      </trkpt>
      <trkpt lon="2.4694650173187256" lat="49.1197357177734375">
        <ele>163.0</ele>
        <time>2016-05-08T08:18:26.000Z</time>
      </trkpt>
      <trkpt lon="2.4694650173187256" lat="49.1197357177734375">
        <ele>163.0</ele>
        <time>2016-05-08T08:18:34.000Z</time>
      </trkpt>
      <trkpt lon="2.4694650173187256" lat="49.1197357177734375">
        <ele>163.0</ele>
        <time>2016-05-08T08:18:36.000Z</time>
      </trkpt>
      <trkpt lon="2.4693646430969238" lat="49.1198806762695312">
        <ele>169.0</ele>
        <time>2016-05-08T08:18:40.000Z</time>
      </trkpt>
      <trkpt lon="2.4693646430969238" lat="49.1198806762695312">
        <ele>169.0</ele>
        <time>2016-05-08T08:18:42.000Z</time>
      </trkpt>
      <trkpt lon="2.4693646430969238" lat="49.1198806762695312">
        <ele>169.0</ele>
        <time>2016-05-08T08:18:44.000Z</time>
      </trkpt>
      <trkpt lon="2.4693646430969238" lat="49.1198806762695312">
        <ele>169.0</ele>
        <time>2016-05-08T08:18:46.000Z</time>
      </trkpt>
      <trkpt lon="2.4693646430969238" lat="49.1198806762695312">
        <ele>169.0</ele>
        <time>2016-05-08T08:18:52.000Z</time>
      </trkpt>
      <trkpt lon="2.4693646430969238" lat="49.1198806762695312">
        <ele>169.0</ele>
        <time>2016-05-08T08:18:54.000Z</time>
      </trkpt>
      <trkpt lon="2.4692661762237549" lat="49.1201400756835938">
        <ele>168.0</ele>
        <time>2016-05-08T08:19:06.000Z</time>
      </trkpt>
      <trkpt lon="2.4692115783691406" lat="49.1202774047851562">
        <ele>170.0</ele>
        <time>2016-05-08T08:19:08.000Z</time>
      </trkpt>
      <trkpt lon="2.4691853523254395" lat="49.1203575134277344">
        <ele>170.0</ele>
        <time>2016-05-08T08:19:10.000Z</time>
      </trkpt>
      <trkpt lon="2.4691705703735352" lat="49.1204261779785156">
        <ele>169.0</ele>
        <time>2016-05-08T08:19:12.000Z</time>
      </trkpt>
      <trkpt lon="2.4691541194915771" lat="49.1204872131347656">
        <ele>171.0</ele>
        <time>2016-05-08T08:19:14.000Z</time>
      </trkpt>
      <trkpt lon="2.4691152572631836" lat="49.1205940246582031">
        <ele>171.0</ele>
        <time>2016-05-08T08:19:16.000Z</time>
      </trkpt>
      <trkpt lon="2.4691076278686523" lat="49.1207313537597656">
        <ele>171.0</ele>
        <time>2016-05-08T08:19:22.000Z</time>
      </trkpt>
      <trkpt lon="2.4691076278686523" lat="49.1207313537597656">
        <ele>171.0</ele>
        <time>2016-05-08T08:19:26.000Z</time>
      </trkpt>
      <trkpt lon="2.4691076278686523" lat="49.1207313537597656">
        <ele>171.0</ele>
        <time>2016-05-08T08:19:28.000Z</time>
      </trkpt>
      <trkpt lon="2.4690861701965332" lat="49.1210136413574219">
        <ele>170.0</ele>
        <time>2016-05-08T08:19:32.000Z</time>
      </trkpt>
      <trkpt lon="2.4690818786621094" lat="49.1211357116699219">
        <ele>174.0</ele>
        <time>2016-05-08T08:19:36.000Z</time>
      </trkpt>
      <trkpt lon="2.4690818786621094" lat="49.1211357116699219">
        <ele>174.0</ele>
        <time>2016-05-08T08:19:38.000Z</time>
      </trkpt>
      <trkpt lon="2.4690818786621094" lat="49.1211357116699219">
        <ele>174.0</ele>
        <time>2016-05-08T08:19:40.000Z</time>
      </trkpt>
      <trkpt lon="2.4690818786621094" lat="49.1211357116699219">
        <ele>174.0</ele>
        <time>2016-05-08T08:19:42.000Z</time>
      </trkpt>
      <trkpt lon="2.4690818786621094" lat="49.1211357116699219">
        <ele>174.0</ele>
        <time>2016-05-08T08:19:44.000Z</time>
      </trkpt>
      <trkpt lon="2.4690818786621094" lat="49.1211357116699219">
        <ele>174.0</ele>
        <time>2016-05-08T08:19:46.000Z</time>
      </trkpt>
      <trkpt lon="2.4691810607910156" lat="49.1214714050292969">
        <ele>174.0</ele>
        <time>2016-05-08T08:19:50.000Z</time>
      </trkpt>
      <trkpt lon="2.4692785739898682" lat="49.1215820312500000">
        <ele>173.0</ele>
        <time>2016-05-08T08:19:53.000Z</time>
      </trkpt>
      <trkpt lon="2.4693739414215088" lat="49.1217041015625000">
        <ele>168.0</ele>
        <time>2016-05-08T08:19:57.000Z</time>
      </trkpt>
      <trkpt lon="2.4693739414215088" lat="49.1217041015625000">
        <ele>168.0</ele>
        <time>2016-05-08T08:19:59.000Z</time>
      </trkpt>
      <trkpt lon="2.4694864749908447" lat="49.1218986511230469">
        <ele>169.0</ele>
        <time>2016-05-08T08:20:02.000Z</time>
      </trkpt>
      <trkpt lon="2.4695720672607422" lat="49.1220054626464844">
        <ele>168.0</ele>
        <time>2016-05-08T08:20:06.000Z</time>
      </trkpt>
      <trkpt lon="2.4695720672607422" lat="49.1220054626464844">
        <ele>168.0</ele>
        <time>2016-05-08T08:20:08.000Z</time>
      </trkpt>
      <trkpt lon="2.4695720672607422" lat="49.1220054626464844">
        <ele>168.0</ele>
        <time>2016-05-08T08:20:10.000Z</time>
      </trkpt>
      <trkpt lon="2.4697141647338867" lat="49.1221923828125000">
        <ele>167.0</ele>
        <time>2016-05-08T08:20:12.000Z</time>
      </trkpt>
      <trkpt lon="2.4698519706726074" lat="49.1223411560058594">
        <ele>164.0</ele>
        <time>2016-05-08T08:20:16.000Z</time>
      </trkpt>
      <trkpt lon="2.4699809551239014" lat="49.1224975585937500">
        <ele>162.0</ele>
        <time>2016-05-08T08:20:20.000Z</time>
      </trkpt>
      <trkpt lon="2.4701571464538574" lat="49.1226196289062500">
        <ele>164.0</ele>
        <time>2016-05-08T08:20:24.000Z</time>
      </trkpt>
      <trkpt lon="2.4701571464538574" lat="49.1226196289062500">
        <ele>164.0</ele>
        <time>2016-05-08T08:20:26.000Z</time>
      </trkpt>
      <trkpt lon="2.4701571464538574" lat="49.1226196289062500">
        <ele>164.0</ele>
        <time>2016-05-08T08:20:28.000Z</time>
      </trkpt>
      <trkpt lon="2.4701571464538574" lat="49.1226196289062500">
        <ele>164.0</ele>
        <time>2016-05-08T08:20:30.000Z</time>
      </trkpt>
      <trkpt lon="2.4705214500427246" lat="49.1230049133300781">
        <ele>168.0</ele>
        <time>2016-05-08T08:20:36.000Z</time>
      </trkpt>
      <trkpt lon="2.4705214500427246" lat="49.1230049133300781">
        <ele>168.0</ele>
        <time>2016-05-08T08:20:38.000Z</time>
      </trkpt>
      <trkpt lon="2.4705214500427246" lat="49.1230049133300781">
        <ele>168.0</ele>
        <time>2016-05-08T08:20:40.000Z</time>
      </trkpt>
      <trkpt lon="2.4705214500427246" lat="49.1230049133300781">
        <ele>168.0</ele>
        <time>2016-05-08T08:20:42.000Z</time>
      </trkpt>
      <trkpt lon="2.4706730842590332" lat="49.1232147216796875">
        <ele>170.0</ele>
        <time>2016-05-08T08:20:48.000Z</time>
      </trkpt>
      <trkpt lon="2.4707834720611572" lat="49.1233482360839844">
        <ele>171.0</ele>
        <time>2016-05-08T08:20:50.000Z</time>
      </trkpt>
      <trkpt lon="2.4707834720611572" lat="49.1233482360839844">
        <ele>171.0</ele>
        <time>2016-05-08T08:20:52.000Z</time>
      </trkpt>
      <trkpt lon="2.4707834720611572" lat="49.1233482360839844">
        <ele>171.0</ele>
        <time>2016-05-08T08:20:54.000Z</time>
      </trkpt>
      <trkpt lon="2.4707834720611572" lat="49.1233482360839844">
        <ele>171.0</ele>
        <time>2016-05-08T08:20:56.000Z</time>
      </trkpt>
      <trkpt lon="2.4707834720611572" lat="49.1233482360839844">
        <ele>171.0</ele>
        <time>2016-05-08T08:20:58.000Z</time>
      </trkpt>
      <trkpt lon="2.4710268974304199" lat="49.1236228942871094">
        <ele>166.0</ele>
        <time>2016-05-08T08:21:02.000Z</time>
      </trkpt>
      <trkpt lon="2.4711790084838867" lat="49.1237869262695312">
        <ele>166.0</ele>
        <time>2016-05-08T08:21:04.000Z</time>
      </trkpt>
      <trkpt lon="2.4712800979614258" lat="49.1238975524902344">
        <ele>166.0</ele>
        <time>2016-05-08T08:21:06.000Z</time>
      </trkpt>
      <trkpt lon="2.4712800979614258" lat="49.1238975524902344">
        <ele>166.0</ele>
        <time>2016-05-08T08:21:08.000Z</time>
      </trkpt>
      <trkpt lon="2.4714305400848389" lat="49.1240997314453125">
        <ele>171.0</ele>
        <time>2016-05-08T08:21:13.000Z</time>
      </trkpt>
      <trkpt lon="2.4715328216552734" lat="49.1242370605468750">
        <ele>173.0</ele>
        <time>2016-05-08T08:21:15.000Z</time>
      </trkpt>
      <trkpt lon="2.4716413021087646" lat="49.1243476867675781">
        <ele>173.0</ele>
        <time>2016-05-08T08:21:17.000Z</time>
      </trkpt>
      <trkpt lon="2.4717333316802979" lat="49.1244468688964844">
        <ele>173.0</ele>
        <time>2016-05-08T08:21:19.000Z</time>
      </trkpt>
      <trkpt lon="2.4718086719512939" lat="49.1245307922363281">
        <ele>172.0</ele>
        <time>2016-05-08T08:21:21.000Z</time>
      </trkpt>
      <trkpt lon="2.4719045162200928" lat="49.1246643066406250">
        <ele>174.0</ele>
        <time>2016-05-08T08:21:23.000Z</time>
      </trkpt>
      <trkpt lon="2.4719045162200928" lat="49.1246643066406250">
        <ele>174.0</ele>
        <time>2016-05-08T08:21:25.000Z</time>
      </trkpt>
      <trkpt lon="2.4719045162200928" lat="49.1246643066406250">
        <ele>174.0</ele>
        <time>2016-05-08T08:21:27.000Z</time>
      </trkpt>
      <trkpt lon="2.4719045162200928" lat="49.1246643066406250">
        <ele>174.0</ele>
        <time>2016-05-08T08:21:29.000Z</time>
      </trkpt>
      <trkpt lon="2.4722502231597900" lat="49.1250114440917969">
        <ele>173.0</ele>
        <time>2016-05-08T08:21:33.000Z</time>
      </trkpt>
      <trkpt lon="2.4723718166351318" lat="49.1251564025878906">
        <ele>172.0</ele>
        <time>2016-05-08T08:21:37.000Z</time>
      </trkpt>
      <trkpt lon="2.4724249839782715" lat="49.1252441406250000">
        <ele>169.0</ele>
        <time>2016-05-08T08:21:39.000Z</time>
      </trkpt>
      <trkpt lon="2.4725189208984375" lat="49.1254005432128906">
        <ele>170.0</ele>
        <time>2016-05-08T08:21:43.000Z</time>
      </trkpt>
      <trkpt lon="2.4726281166076660" lat="49.1254692077636719">
        <ele>168.0</ele>
        <time>2016-05-08T08:21:45.000Z</time>
      </trkpt>
      <trkpt lon="2.4727058410644531" lat="49.1255760192871094">
        <ele>166.0</ele>
        <time>2016-05-08T08:21:47.000Z</time>
      </trkpt>
      <trkpt lon="2.4728014469146729" lat="49.1256675720214844">
        <ele>164.0</ele>
        <time>2016-05-08T08:21:49.000Z</time>
      </trkpt>
      <trkpt lon="2.4728014469146729" lat="49.1256675720214844">
        <ele>164.0</ele>
        <time>2016-05-08T08:21:52.000Z</time>
      </trkpt>
      <trkpt lon="2.4728014469146729" lat="49.1256675720214844">
        <ele>164.0</ele>
        <time>2016-05-08T08:21:54.000Z</time>
      </trkpt>
      <trkpt lon="2.4728014469146729" lat="49.1256675720214844">
        <ele>164.0</ele>
        <time>2016-05-08T08:21:56.000Z</time>
      </trkpt>
      <trkpt lon="2.4731435775756836" lat="49.1260185241699219">
        <ele>170.0</ele>
        <time>2016-05-08T08:22:04.000Z</time>
      </trkpt>
      <trkpt lon="2.4731435775756836" lat="49.1260185241699219">
        <ele>170.0</ele>
        <time>2016-05-08T08:22:06.000Z</time>
      </trkpt>
      <trkpt lon="2.4731953144073486" lat="49.1261329650878906">
        <ele>173.0</ele>
        <time>2016-05-08T08:22:08.000Z</time>
      </trkpt>
      <trkpt lon="2.4733316898345947" lat="49.1262435913085938">
        <ele>173.0</ele>
        <time>2016-05-08T08:22:12.000Z</time>
      </trkpt>
      <trkpt lon="2.4734461307525635" lat="49.1263504028320312">
        <ele>172.0</ele>
        <time>2016-05-08T08:22:16.000Z</time>
      </trkpt>
      <trkpt lon="2.4735333919525146" lat="49.1264762878417969">
        <ele>170.0</ele>
        <time>2016-05-08T08:22:20.000Z</time>
      </trkpt>
      <trkpt lon="2.4736411571502686" lat="49.1266136169433594">
        <ele>167.0</ele>
        <time>2016-05-08T08:22:24.000Z</time>
      </trkpt>
      <trkpt lon="2.4737572669982910" lat="49.1267242431640625">
        <ele>167.0</ele>
        <time>2016-05-08T08:22:28.000Z</time>
      </trkpt>
      <trkpt lon="2.4737572669982910" lat="49.1267242431640625">
        <ele>167.0</ele>
        <time>2016-05-08T08:22:30.000Z</time>
      </trkpt>
      <trkpt lon="2.4738829135894775" lat="49.1268463134765625">
        <ele>167.0</ele>
        <time>2016-05-08T08:22:32.000Z</time>
      </trkpt>
      <trkpt lon="2.4740028381347656" lat="49.1269836425781250">
        <ele>168.0</ele>
        <time>2016-05-08T08:22:36.000Z</time>
      </trkpt>
      <trkpt lon="2.4740715026855469" lat="49.1270675659179688">
        <ele>168.0</ele>
        <time>2016-05-08T08:22:38.000Z</time>
      </trkpt>
      <trkpt lon="2.4741706848144531" lat="49.1271934509277344">
        <ele>168.0</ele>
        <time>2016-05-08T08:22:42.000Z</time>
      </trkpt>
      <trkpt lon="2.4741706848144531" lat="49.1271934509277344">
        <ele>168.0</ele>
        <time>2016-05-08T08:22:44.000Z</time>
      </trkpt>
      <trkpt lon="2.4741706848144531" lat="49.1271934509277344">
        <ele>168.0</ele>
        <time>2016-05-08T08:22:46.000Z</time>
      </trkpt>
      <trkpt lon="2.4741706848144531" lat="49.1271934509277344">
        <ele>168.0</ele>
        <time>2016-05-08T08:22:48.000Z</time>
      </trkpt>
      <trkpt lon="2.4743974208831787" lat="49.1274909973144531">
        <ele>169.0</ele>
        <time>2016-05-08T08:22:50.000Z</time>
      </trkpt>
      <trkpt lon="2.4745256900787354" lat="49.1276206970214844">
        <ele>174.0</ele>
        <time>2016-05-08T08:22:54.000Z</time>
      </trkpt>
      <trkpt lon="2.4745256900787354" lat="49.1276206970214844">
        <ele>174.0</ele>
        <time>2016-05-08T08:22:56.000Z</time>
      </trkpt>
      <trkpt lon="2.4745256900787354" lat="49.1276206970214844">
        <ele>174.0</ele>
        <time>2016-05-08T08:22:58.000Z</time>
      </trkpt>
      <trkpt lon="2.4748337268829346" lat="49.1279563903808594">
        <ele>173.0</ele>
        <time>2016-05-08T08:23:04.000Z</time>
      </trkpt>
      <trkpt lon="2.4748988151550293" lat="49.1280136108398438">
        <ele>174.0</ele>
        <time>2016-05-08T08:23:08.000Z</time>
      </trkpt>
      <trkpt lon="2.4749696254730225" lat="49.1280746459960938">
        <ele>175.0</ele>
        <time>2016-05-08T08:23:10.000Z</time>
      </trkpt>
      <trkpt lon="2.4749696254730225" lat="49.1280746459960938">
        <ele>175.0</ele>
        <time>2016-05-08T08:23:12.000Z</time>
      </trkpt>
      <trkpt lon="2.4749696254730225" lat="49.1280746459960938">
        <ele>175.0</ele>
        <time>2016-05-08T08:23:14.000Z</time>
      </trkpt>
      <trkpt lon="2.4749696254730225" lat="49.1280746459960938">
        <ele>175.0</ele>
        <time>2016-05-08T08:23:16.000Z</time>
      </trkpt>
      <trkpt lon="2.4749696254730225" lat="49.1280746459960938">
        <ele>175.0</ele>
        <time>2016-05-08T08:23:18.000Z</time>
      </trkpt>
      <trkpt lon="2.4751555919647217" lat="49.1283226013183594">
        <ele>174.0</ele>
        <time>2016-05-08T08:23:22.000Z</time>
      </trkpt>
      <trkpt lon="2.4752838611602783" lat="49.1284751892089844">
        <ele>174.0</ele>
        <time>2016-05-08T08:23:24.000Z</time>
      </trkpt>
      <trkpt lon="2.4753811359405518" lat="49.1285820007324219">
        <ele>176.0</ele>
        <time>2016-05-08T08:23:26.000Z</time>
      </trkpt>
      <trkpt lon="2.4754643440246582" lat="49.1286621093750000">
        <ele>176.0</ele>
        <time>2016-05-08T08:23:28.000Z</time>
      </trkpt>
      <trkpt lon="2.4754643440246582" lat="49.1286621093750000">
        <ele>176.0</ele>
        <time>2016-05-08T08:23:30.000Z</time>
      </trkpt>
      <trkpt lon="2.4754643440246582" lat="49.1286621093750000">
        <ele>176.0</ele>
        <time>2016-05-08T08:23:32.000Z</time>
      </trkpt>
      <trkpt lon="2.4754643440246582" lat="49.1286621093750000">
        <ele>176.0</ele>
        <time>2016-05-08T08:23:34.000Z</time>
      </trkpt>
      <trkpt lon="2.4756314754486084" lat="49.1288871765136719">
        <ele>175.0</ele>
        <time>2016-05-08T08:23:38.000Z</time>
      </trkpt>
      <trkpt lon="2.4757575988769531" lat="49.1290397644042969">
        <ele>175.0</ele>
        <time>2016-05-08T08:23:40.000Z</time>
      </trkpt>
      <trkpt lon="2.4758639335632324" lat="49.1291618347167969">
        <ele>174.0</ele>
        <time>2016-05-08T08:23:42.000Z</time>
      </trkpt>
      <trkpt lon="2.4759359359741211" lat="49.1292648315429688">
        <ele>175.0</ele>
        <time>2016-05-08T08:23:44.000Z</time>
      </trkpt>
      <trkpt lon="2.4759984016418457" lat="49.1293487548828125">
        <ele>179.0</ele>
        <time>2016-05-08T08:23:46.000Z</time>
      </trkpt>
      <trkpt lon="2.4761486053466797" lat="49.1295318603515625">
        <ele>181.0</ele>
        <time>2016-05-08T08:23:48.000Z</time>
      </trkpt>
      <trkpt lon="2.4762420654296875" lat="49.1296119689941406">
        <ele>179.0</ele>
        <time>2016-05-08T08:23:50.000Z</time>
      </trkpt>
      <trkpt lon="2.4762971401214600" lat="49.1296997070312500">
        <ele>177.0</ele>
        <time>2016-05-08T08:23:52.000Z</time>
      </trkpt>
      <trkpt lon="2.4762971401214600" lat="49.1296997070312500">
        <ele>177.0</ele>
        <time>2016-05-08T08:23:54.000Z</time>
      </trkpt>
      <trkpt lon="2.4762971401214600" lat="49.1296997070312500">
        <ele>177.0</ele>
        <time>2016-05-08T08:23:56.000Z</time>
      </trkpt>
      <trkpt lon="2.4766430854797363" lat="49.1301002502441406">
        <ele>176.0</ele>
        <time>2016-05-08T08:24:02.000Z</time>
      </trkpt>
      <trkpt lon="2.4766430854797363" lat="49.1301002502441406">
        <ele>176.0</ele>
        <time>2016-05-08T08:24:04.000Z</time>
      </trkpt>
      <trkpt lon="2.4767675399780273" lat="49.1302719116210938">
        <ele>179.0</ele>
        <time>2016-05-08T08:24:06.000Z</time>
      </trkpt>
      <trkpt lon="2.4768674373626709" lat="49.1303482055664062">
        <ele>178.0</ele>
        <time>2016-05-08T08:24:08.000Z</time>
      </trkpt>
      <trkpt lon="2.4769456386566162" lat="49.1304473876953125">
        <ele>177.0</ele>
        <time>2016-05-08T08:24:10.000Z</time>
      </trkpt>
      <trkpt lon="2.4770040512084961" lat="49.1305618286132812">
        <ele>173.0</ele>
        <time>2016-05-08T08:24:13.000Z</time>
      </trkpt>
      <trkpt lon="2.4770040512084961" lat="49.1305618286132812">
        <ele>173.0</ele>
        <time>2016-05-08T08:24:15.000Z</time>
      </trkpt>
      <trkpt lon="2.4772584438323975" lat="49.1307411193847656">
        <ele>170.0</ele>
        <time>2016-05-08T08:24:17.000Z</time>
      </trkpt>
      <trkpt lon="2.4773371219635010" lat="49.1308403015136719">
        <ele>170.0</ele>
        <time>2016-05-08T08:24:19.000Z</time>
      </trkpt>
      <trkpt lon="2.4774174690246582" lat="49.1309356689453125">
        <ele>171.0</ele>
        <time>2016-05-08T08:24:21.000Z</time>
      </trkpt>
      <trkpt lon="2.4775133132934570" lat="49.1310348510742188">
        <ele>172.0</ele>
        <time>2016-05-08T08:24:23.000Z</time>
      </trkpt>
      <trkpt lon="2.4775955677032471" lat="49.1311111450195312">
        <ele>173.0</ele>
        <time>2016-05-08T08:24:25.000Z</time>
      </trkpt>
      <trkpt lon="2.4776639938354492" lat="49.1311950683593750">
        <ele>172.0</ele>
        <time>2016-05-08T08:24:27.000Z</time>
      </trkpt>
      <trkpt lon="2.4777455329895020" lat="49.1312980651855469">
        <ele>170.0</ele>
        <time>2016-05-08T08:24:29.000Z</time>
      </trkpt>
      <trkpt lon="2.4777455329895020" lat="49.1312980651855469">
        <ele>170.0</ele>
        <time>2016-05-08T08:24:31.000Z</time>
      </trkpt>
      <trkpt lon="2.4777455329895020" lat="49.1312980651855469">
        <ele>170.0</ele>
        <time>2016-05-08T08:24:33.000Z</time>
      </trkpt>
      <trkpt lon="2.4777455329895020" lat="49.1312980651855469">
        <ele>170.0</ele>
        <time>2016-05-08T08:24:35.000Z</time>
      </trkpt>
      <trkpt lon="2.4777455329895020" lat="49.1312980651855469">
        <ele>170.0</ele>
        <time>2016-05-08T08:24:37.000Z</time>
      </trkpt>
      <trkpt lon="2.4782285690307617" lat="49.1318206787109375">
        <ele>175.0</ele>
        <time>2016-05-08T08:24:43.000Z</time>
      </trkpt>
      <trkpt lon="2.4783239364624023" lat="49.1319007873535156">
        <ele>177.0</ele>
        <time>2016-05-08T08:24:45.000Z</time>
      </trkpt>
      <trkpt lon="2.4784748554229736" lat="49.1320457458496094">
        <ele>174.0</ele>
        <time>2016-05-08T08:24:49.000Z</time>
      </trkpt>
      <trkpt lon="2.4784748554229736" lat="49.1320457458496094">
        <ele>174.0</ele>
        <time>2016-05-08T08:24:51.000Z</time>
      </trkpt>
      <trkpt lon="2.4784748554229736" lat="49.1320457458496094">
        <ele>174.0</ele>
        <time>2016-05-08T08:24:53.000Z</time>
      </trkpt>
      <trkpt lon="2.4786841869354248" lat="49.1323699951171875">
        <ele>172.0</ele>
        <time>2016-05-08T08:24:55.000Z</time>
      </trkpt>
      <trkpt lon="2.4787554740905762" lat="49.1324844360351562">
        <ele>171.0</ele>
        <time>2016-05-08T08:24:57.000Z</time>
      </trkpt>
      <trkpt lon="2.4788651466369629" lat="49.1325874328613281">
        <ele>169.0</ele>
        <time>2016-05-08T08:24:59.000Z</time>
      </trkpt>
      <trkpt lon="2.4790349006652832" lat="49.1326828002929688">
        <ele>168.0</ele>
        <time>2016-05-08T08:25:01.000Z</time>
      </trkpt>
      <trkpt lon="2.4791958332061768" lat="49.1327705383300781">
        <ele>167.0</ele>
        <time>2016-05-08T08:25:03.000Z</time>
      </trkpt>
      <trkpt lon="2.4793586730957031" lat="49.1328430175781250">
        <ele>169.0</ele>
        <time>2016-05-08T08:25:05.000Z</time>
      </trkpt>
      <trkpt lon="2.4794895648956299" lat="49.1329116821289062">
        <ele>171.0</ele>
        <time>2016-05-08T08:25:07.000Z</time>
      </trkpt>
      <trkpt lon="2.4796614646911621" lat="49.1329536437988281">
        <ele>168.0</ele>
        <time>2016-05-08T08:25:10.000Z</time>
      </trkpt>
      <trkpt lon="2.4796614646911621" lat="49.1329536437988281">
        <ele>168.0</ele>
        <time>2016-05-08T08:25:13.000Z</time>
      </trkpt>
      <trkpt lon="2.4800777435302734" lat="49.1330680847167969">
        <ele>169.0</ele>
        <time>2016-05-08T08:25:15.000Z</time>
      </trkpt>
      <trkpt lon="2.4800777435302734" lat="49.1330680847167969">
        <ele>169.0</ele>
        <time>2016-05-08T08:25:17.000Z</time>
      </trkpt>
      <trkpt lon="2.4800777435302734" lat="49.1330680847167969">
        <ele>169.0</ele>
        <time>2016-05-08T08:25:21.000Z</time>
      </trkpt>
      <trkpt lon="2.4800777435302734" lat="49.1330680847167969">
        <ele>169.0</ele>
        <time>2016-05-08T08:25:23.000Z</time>
      </trkpt>
      <trkpt lon="2.4800777435302734" lat="49.1330680847167969">
        <ele>169.0</ele>
        <time>2016-05-08T08:25:25.000Z</time>
      </trkpt>
      <trkpt lon="2.4800777435302734" lat="49.1330680847167969">
        <ele>169.0</ele>
        <time>2016-05-08T08:25:27.000Z</time>
      </trkpt>
      <trkpt lon="2.4800777435302734" lat="49.1330680847167969">
        <ele>169.0</ele>
        <time>2016-05-08T08:25:29.000Z</time>
      </trkpt>
      <trkpt lon="2.4800777435302734" lat="49.1330680847167969">
        <ele>169.0</ele>
        <time>2016-05-08T08:25:31.000Z</time>
      </trkpt>
      <trkpt lon="2.4813261032104492" lat="49.1335029602050781">
        <ele>171.0</ele>
        <time>2016-05-08T08:25:35.000Z</time>
      </trkpt>
      <trkpt lon="2.4813261032104492" lat="49.1335029602050781">
        <ele>171.0</ele>
        <time>2016-05-08T08:25:37.000Z</time>
      </trkpt>
      <trkpt lon="2.4813261032104492" lat="49.1335029602050781">
        <ele>171.0</ele>
        <time>2016-05-08T08:25:39.000Z</time>
      </trkpt>
      <trkpt lon="2.4813261032104492" lat="49.1335029602050781">
        <ele>171.0</ele>
        <time>2016-05-08T08:25:41.000Z</time>
      </trkpt>
      <trkpt lon="2.4818356037139893" lat="49.1339416503906250">
        <ele>168.0</ele>
        <time>2016-05-08T08:25:45.000Z</time>
      </trkpt>
      <trkpt lon="2.4819929599761963" lat="49.1340293884277344">
        <ele>171.0</ele>
        <time>2016-05-08T08:25:47.000Z</time>
      </trkpt>
      <trkpt lon="2.4820969104766846" lat="49.1341361999511719">
        <ele>170.0</ele>
        <time>2016-05-08T08:25:49.000Z</time>
      </trkpt>
      <trkpt lon="2.4822244644165039" lat="49.1342620849609375">
        <ele>171.0</ele>
        <time>2016-05-08T08:25:51.000Z</time>
      </trkpt>
      <trkpt lon="2.4823291301727295" lat="49.1343536376953125">
        <ele>170.0</ele>
        <time>2016-05-08T08:25:53.000Z</time>
      </trkpt>
      <trkpt lon="2.4824459552764893" lat="49.1344795227050781">
        <ele>165.0</ele>
        <time>2016-05-08T08:25:55.000Z</time>
      </trkpt>
      <trkpt lon="2.4825654029846191" lat="49.1345901489257812">
        <ele>166.0</ele>
        <time>2016-05-08T08:25:57.000Z</time>
      </trkpt>
      <trkpt lon="2.4826688766479492" lat="49.1346817016601562">
        <ele>169.0</ele>
        <time>2016-05-08T08:25:59.000Z</time>
      </trkpt>
      <trkpt lon="2.4827835559844971" lat="49.1347618103027344">
        <ele>168.0</ele>
        <time>2016-05-08T08:26:01.000Z</time>
      </trkpt>
      <trkpt lon="2.4829530715942383" lat="49.1348457336425781">
        <ele>164.0</ele>
        <time>2016-05-08T08:26:03.000Z</time>
      </trkpt>
      <trkpt lon="2.4831085205078125" lat="49.1349449157714844">
        <ele>163.0</ele>
        <time>2016-05-08T08:26:05.000Z</time>
      </trkpt>
      <trkpt lon="2.4832432270050049" lat="49.1350593566894531">
        <ele>160.0</ele>
        <time>2016-05-08T08:26:07.000Z</time>
      </trkpt>
      <trkpt lon="2.4833998680114746" lat="49.1351699829101562">
        <ele>161.0</ele>
        <time>2016-05-08T08:26:09.000Z</time>
      </trkpt>
      <trkpt lon="2.4835226535797119" lat="49.1352806091308594">
        <ele>160.0</ele>
        <time>2016-05-08T08:26:11.000Z</time>
      </trkpt>
      <trkpt lon="2.4836418628692627" lat="49.1353912353515625">
        <ele>161.0</ele>
        <time>2016-05-08T08:26:13.000Z</time>
      </trkpt>
      <trkpt lon="2.4837815761566162" lat="49.1355094909667969">
        <ele>159.0</ele>
        <time>2016-05-08T08:26:15.000Z</time>
      </trkpt>
      <trkpt lon="2.4838614463806152" lat="49.1356430053710938">
        <ele>157.0</ele>
        <time>2016-05-08T08:26:17.000Z</time>
      </trkpt>
      <trkpt lon="2.4839158058166504" lat="49.1358032226562500">
        <ele>153.0</ele>
        <time>2016-05-08T08:26:19.000Z</time>
      </trkpt>
      <trkpt lon="2.4840011596679688" lat="49.1359405517578125">
        <ele>153.0</ele>
        <time>2016-05-08T08:26:21.000Z</time>
      </trkpt>
      <trkpt lon="2.4840764999389648" lat="49.1360702514648438">
        <ele>155.0</ele>
        <time>2016-05-08T08:26:23.000Z</time>
      </trkpt>
      <trkpt lon="2.4841477870941162" lat="49.1362113952636719">
        <ele>154.0</ele>
        <time>2016-05-08T08:26:25.000Z</time>
      </trkpt>
      <trkpt lon="2.4841907024383545" lat="49.1363639831542969">
        <ele>154.0</ele>
        <time>2016-05-08T08:26:27.000Z</time>
      </trkpt>
      <trkpt lon="2.4841909408569336" lat="49.1365165710449219">
        <ele>153.0</ele>
        <time>2016-05-08T08:26:29.000Z</time>
      </trkpt>
      <trkpt lon="2.4842200279235840" lat="49.1366729736328125">
        <ele>150.0</ele>
        <time>2016-05-08T08:26:31.000Z</time>
      </trkpt>
      <trkpt lon="2.4842567443847656" lat="49.1368103027343750">
        <ele>150.0</ele>
        <time>2016-05-08T08:26:33.000Z</time>
      </trkpt>
      <trkpt lon="2.4842903614044189" lat="49.1369819641113281">
        <ele>150.0</ele>
        <time>2016-05-08T08:26:35.000Z</time>
      </trkpt>
      <trkpt lon="2.4842913150787354" lat="49.1371650695800781">
        <ele>146.0</ele>
        <time>2016-05-08T08:26:37.000Z</time>
      </trkpt>
      <trkpt lon="2.4843001365661621" lat="49.1373291015625000">
        <ele>145.0</ele>
        <time>2016-05-08T08:26:39.000Z</time>
      </trkpt>
      <trkpt lon="2.4843487739562988" lat="49.1374931335449219">
        <ele>146.0</ele>
        <time>2016-05-08T08:26:41.000Z</time>
      </trkpt>
      <trkpt lon="2.4843673706054688" lat="49.1376914978027344">
        <ele>144.0</ele>
        <time>2016-05-08T08:26:43.000Z</time>
      </trkpt>
      <trkpt lon="2.4844028949737549" lat="49.1379089355468750">
        <ele>140.0</ele>
        <time>2016-05-08T08:26:45.000Z</time>
      </trkpt>
      <trkpt lon="2.4844746589660645" lat="49.1381416320800781">
        <ele>140.0</ele>
        <time>2016-05-08T08:26:48.000Z</time>
      </trkpt>
      <trkpt lon="2.4844746589660645" lat="49.1381416320800781">
        <ele>140.0</ele>
        <time>2016-05-08T08:26:52.000Z</time>
      </trkpt>
      <trkpt lon="2.4844746589660645" lat="49.1381416320800781">
        <ele>140.0</ele>
        <time>2016-05-08T08:26:54.000Z</time>
      </trkpt>
      <trkpt lon="2.4844746589660645" lat="49.1381416320800781">
        <ele>140.0</ele>
        <time>2016-05-08T08:27:00.000Z</time>
      </trkpt>
      <trkpt lon="2.4844746589660645" lat="49.1381416320800781">
        <ele>140.0</ele>
        <time>2016-05-08T08:27:02.000Z</time>
      </trkpt>
      <trkpt lon="2.4844746589660645" lat="49.1381416320800781">
        <ele>140.0</ele>
        <time>2016-05-08T08:27:04.000Z</time>
      </trkpt>
      <trkpt lon="2.4844746589660645" lat="49.1381416320800781">
        <ele>140.0</ele>
        <time>2016-05-08T08:27:06.000Z</time>
      </trkpt>
      <trkpt lon="2.4842433929443359" lat="49.1383094787597656">
        <ele>138.0</ele>
        <time>2016-05-08T08:27:10.000Z</time>
      </trkpt>
      <trkpt lon="2.4840900897979736" lat="49.1383590698242188">
        <ele>137.0</ele>
        <time>2016-05-08T08:27:12.000Z</time>
      </trkpt>
      <trkpt lon="2.4839873313903809" lat="49.1383476257324219">
        <ele>136.0</ele>
        <time>2016-05-08T08:27:14.000Z</time>
      </trkpt>
      <trkpt lon="2.4839115142822266" lat="49.1382865905761719">
        <ele>132.0</ele>
        <time>2016-05-08T08:27:16.000Z</time>
      </trkpt>
      <trkpt lon="2.4838511943817139" lat="49.1381874084472656">
        <ele>132.0</ele>
        <time>2016-05-08T08:27:18.000Z</time>
      </trkpt>
      <trkpt lon="2.4836947917938232" lat="49.1379051208496094">
        <ele>131.0</ele>
        <time>2016-05-08T08:27:20.000Z</time>
      </trkpt>
      <trkpt lon="2.4835951328277588" lat="49.1377143859863281">
        <ele>133.0</ele>
        <time>2016-05-08T08:27:22.000Z</time>
      </trkpt>
      <trkpt lon="2.4835276603698730" lat="49.1375541687011719">
        <ele>133.0</ele>
        <time>2016-05-08T08:27:24.000Z</time>
      </trkpt>
      <trkpt lon="2.4834227561950684" lat="49.1374244689941406">
        <ele>132.0</ele>
        <time>2016-05-08T08:27:26.000Z</time>
      </trkpt>
      <trkpt lon="2.4832994937896729" lat="49.1372718811035156">
        <ele>133.0</ele>
        <time>2016-05-08T08:27:28.000Z</time>
      </trkpt>
      <trkpt lon="2.4830248355865479" lat="49.1372261047363281">
        <ele>129.0</ele>
        <time>2016-05-08T08:27:31.000Z</time>
      </trkpt>
      <trkpt lon="2.4828894138336182" lat="49.1371841430664062">
        <ele>128.0</ele>
        <time>2016-05-08T08:27:33.000Z</time>
      </trkpt>
      <trkpt lon="2.4828894138336182" lat="49.1371841430664062">
        <ele>128.0</ele>
        <time>2016-05-08T08:27:35.000Z</time>
      </trkpt>
      <trkpt lon="2.4826469421386719" lat="49.1368675231933594">
        <ele>127.0</ele>
        <time>2016-05-08T08:27:39.000Z</time>
      </trkpt>
      <trkpt lon="2.4825739860534668" lat="49.1367797851562500">
        <ele>127.0</ele>
        <time>2016-05-08T08:27:41.000Z</time>
      </trkpt>
      <trkpt lon="2.4825739860534668" lat="49.1367797851562500">
        <ele>127.0</ele>
        <time>2016-05-08T08:27:43.000Z</time>
      </trkpt>
      <trkpt lon="2.4825739860534668" lat="49.1367797851562500">
        <ele>127.0</ele>
        <time>2016-05-08T08:27:45.000Z</time>
      </trkpt>
      <trkpt lon="2.4825739860534668" lat="49.1367797851562500">
        <ele>127.0</ele>
        <time>2016-05-08T08:27:47.000Z</time>
      </trkpt>
      <trkpt lon="2.4825739860534668" lat="49.1367797851562500">
        <ele>127.0</ele>
        <time>2016-05-08T08:27:49.000Z</time>
      </trkpt>
      <trkpt lon="2.4825739860534668" lat="49.1367797851562500">
        <ele>127.0</ele>
        <time>2016-05-08T08:27:51.000Z</time>
      </trkpt>
      <trkpt lon="2.4824311733245850" lat="49.1366043090820312">
        <ele>125.0</ele>
        <time>2016-05-08T08:27:55.000Z</time>
      </trkpt>
      <trkpt lon="2.4823374748229980" lat="49.1364631652832031">
        <ele>124.0</ele>
        <time>2016-05-08T08:27:59.000Z</time>
      </trkpt>
      <trkpt lon="2.4822139739990234" lat="49.1363716125488281">
        <ele>130.0</ele>
        <time>2016-05-08T08:28:03.000Z</time>
      </trkpt>
      <trkpt lon="2.4822139739990234" lat="49.1363716125488281">
        <ele>130.0</ele>
        <time>2016-05-08T08:28:05.000Z</time>
      </trkpt>
      <trkpt lon="2.4822139739990234" lat="49.1363716125488281">
        <ele>130.0</ele>
        <time>2016-05-08T08:28:07.000Z</time>
      </trkpt>
      <trkpt lon="2.4822139739990234" lat="49.1363716125488281">
        <ele>130.0</ele>
        <time>2016-05-08T08:28:09.000Z</time>
      </trkpt>
      <trkpt lon="2.4822139739990234" lat="49.1363716125488281">
        <ele>130.0</ele>
        <time>2016-05-08T08:28:11.000Z</time>
      </trkpt>
      <trkpt lon="2.4822139739990234" lat="49.1363716125488281">
        <ele>130.0</ele>
        <time>2016-05-08T08:28:13.000Z</time>
      </trkpt>
      <trkpt lon="2.4822139739990234" lat="49.1363716125488281">
        <ele>130.0</ele>
        <time>2016-05-08T08:28:19.000Z</time>
      </trkpt>
      <trkpt lon="2.4822139739990234" lat="49.1363716125488281">
        <ele>130.0</ele>
        <time>2016-05-08T08:28:21.000Z</time>
      </trkpt>
      <trkpt lon="2.4822139739990234" lat="49.1363716125488281">
        <ele>130.0</ele>
        <time>2016-05-08T08:28:23.000Z</time>
      </trkpt>
      <trkpt lon="2.4822139739990234" lat="49.1363716125488281">
        <ele>130.0</ele>
        <time>2016-05-08T08:28:25.000Z</time>
      </trkpt>
      <trkpt lon="2.4822139739990234" lat="49.1363716125488281">
        <ele>130.0</ele>
        <time>2016-05-08T08:28:27.000Z</time>
      </trkpt>
      <trkpt lon="2.4822139739990234" lat="49.1363716125488281">
        <ele>130.0</ele>
        <time>2016-05-08T08:28:29.000Z</time>
      </trkpt>
      <trkpt lon="2.4816288948059082" lat="49.1356811523437500">
        <ele>149.0</ele>
        <time>2016-05-08T08:28:33.000Z</time>
      </trkpt>
      <trkpt lon="2.4816288948059082" lat="49.1356811523437500">
        <ele>149.0</ele>
        <time>2016-05-08T08:28:36.000Z</time>
      </trkpt>
      <trkpt lon="2.4816288948059082" lat="49.1356811523437500">
        <ele>149.0</ele>
        <time>2016-05-08T08:28:38.000Z</time>
      </trkpt>
      <trkpt lon="2.4816288948059082" lat="49.1356811523437500">
        <ele>149.0</ele>
        <time>2016-05-08T08:28:42.000Z</time>
      </trkpt>
      <trkpt lon="2.4816288948059082" lat="49.1356811523437500">
        <ele>149.0</ele>
        <time>2016-05-08T08:28:44.000Z</time>
      </trkpt>
      <trkpt lon="2.4816288948059082" lat="49.1356811523437500">
        <ele>149.0</ele>
        <time>2016-05-08T08:28:46.000Z</time>
      </trkpt>
      <trkpt lon="2.4816288948059082" lat="49.1356811523437500">
        <ele>149.0</ele>
        <time>2016-05-08T08:28:48.000Z</time>
      </trkpt>
      <trkpt lon="2.4815905094146729" lat="49.1355476379394531">
        <ele>148.0</ele>
        <time>2016-05-08T08:28:52.000Z</time>
      </trkpt>
      <trkpt lon="2.4815759658813477" lat="49.1354713439941406">
        <ele>148.0</ele>
        <time>2016-05-08T08:28:54.000Z</time>
      </trkpt>
      <trkpt lon="2.4815759658813477" lat="49.1354713439941406">
        <ele>148.0</ele>
        <time>2016-05-08T08:28:56.000Z</time>
      </trkpt>
      <trkpt lon="2.4815759658813477" lat="49.1354713439941406">
        <ele>148.0</ele>
        <time>2016-05-08T08:28:58.000Z</time>
      </trkpt>
      <trkpt lon="2.4815592765808105" lat="49.1353874206542969">
        <ele>149.0</ele>
        <time>2016-05-08T08:29:02.000Z</time>
      </trkpt>
      <trkpt lon="2.4815452098846436" lat="49.1353340148925781">
        <ele>149.0</ele>
        <time>2016-05-08T08:29:04.000Z</time>
      </trkpt>
      <trkpt lon="2.4815452098846436" lat="49.1353340148925781">
        <ele>149.0</ele>
        <time>2016-05-08T08:29:07.000Z</time>
      </trkpt>
      <trkpt lon="2.4815452098846436" lat="49.1353340148925781">
        <ele>149.0</ele>
        <time>2016-05-08T08:29:09.000Z</time>
      </trkpt>
      <trkpt lon="2.4815452098846436" lat="49.1353340148925781">
        <ele>149.0</ele>
        <time>2016-05-08T08:29:11.000Z</time>
      </trkpt>
      <trkpt lon="2.4815146923065186" lat="49.1351890563964844">
        <ele>139.0</ele>
        <time>2016-05-08T08:29:15.000Z</time>
      </trkpt>
      <trkpt lon="2.4814970493316650" lat="49.1351013183593750">
        <ele>139.0</ele>
        <time>2016-05-08T08:29:17.000Z</time>
      </trkpt>
      <trkpt lon="2.4814820289611816" lat="49.1350479125976562">
        <ele>142.0</ele>
        <time>2016-05-08T08:29:19.000Z</time>
      </trkpt>
      <trkpt lon="2.4814820289611816" lat="49.1350479125976562">
        <ele>142.0</ele>
        <time>2016-05-08T08:29:21.000Z</time>
      </trkpt>
      <trkpt lon="2.4814820289611816" lat="49.1350479125976562">
        <ele>142.0</ele>
        <time>2016-05-08T08:29:23.000Z</time>
      </trkpt>
      <trkpt lon="2.4814410209655762" lat="49.1349563598632812">
        <ele>140.0</ele>
        <time>2016-05-08T08:29:27.000Z</time>
      </trkpt>
      <trkpt lon="2.4814124107360840" lat="49.1348953247070312">
        <ele>142.0</ele>
        <time>2016-05-08T08:29:29.000Z</time>
      </trkpt>
      <trkpt lon="2.4814124107360840" lat="49.1348953247070312">
        <ele>142.0</ele>
        <time>2016-05-08T08:29:31.000Z</time>
      </trkpt>
      <trkpt lon="2.4814124107360840" lat="49.1348953247070312">
        <ele>142.0</ele>
        <time>2016-05-08T08:29:33.000Z</time>
      </trkpt>
      <trkpt lon="2.4814124107360840" lat="49.1348953247070312">
        <ele>142.0</ele>
        <time>2016-05-08T08:29:35.000Z</time>
      </trkpt>
      <trkpt lon="2.4814124107360840" lat="49.1348953247070312">
        <ele>142.0</ele>
        <time>2016-05-08T08:29:37.000Z</time>
      </trkpt>
      <trkpt lon="2.4814124107360840" lat="49.1348953247070312">
        <ele>142.0</ele>
        <time>2016-05-08T08:29:39.000Z</time>
      </trkpt>
      <trkpt lon="2.4811553955078125" lat="49.1346855163574219">
        <ele>146.0</ele>
        <time>2016-05-08T08:30:17.000Z</time>
      </trkpt>
      <trkpt lon="2.4810316562652588" lat="49.1346321105957031">
        <ele>147.0</ele>
        <time>2016-05-08T08:30:21.000Z</time>
      </trkpt>
      <trkpt lon="2.4809005260467529" lat="49.1345176696777344">
        <ele>148.0</ele>
        <time>2016-05-08T08:30:25.000Z</time>
      </trkpt>
      <trkpt lon="2.4806656837463379" lat="49.1344146728515625">
        <ele>147.0</ele>
        <time>2016-05-08T08:30:29.000Z</time>
      </trkpt>
      <trkpt lon="2.4804630279541016" lat="49.1343917846679688">
        <ele>143.0</ele>
        <time>2016-05-08T08:30:31.000Z</time>
      </trkpt>
      <trkpt lon="2.4802625179290771" lat="49.1343269348144531">
        <ele>142.0</ele>
        <time>2016-05-08T08:30:33.000Z</time>
      </trkpt>
      <trkpt lon="2.4800636768341064" lat="49.1343040466308594">
        <ele>140.0</ele>
        <time>2016-05-08T08:30:35.000Z</time>
      </trkpt>
      <trkpt lon="2.4798624515533447" lat="49.1342048645019531">
        <ele>137.0</ele>
        <time>2016-05-08T08:30:37.000Z</time>
      </trkpt>
      <trkpt lon="2.4796731472015381" lat="49.1341438293457031">
        <ele>135.0</ele>
        <time>2016-05-08T08:30:39.000Z</time>
      </trkpt>
      <trkpt lon="2.4795057773590088" lat="49.1340866088867188">
        <ele>135.0</ele>
        <time>2016-05-08T08:30:41.000Z</time>
      </trkpt>
      <trkpt lon="2.4793467521667480" lat="49.1340560913085938">
        <ele>135.0</ele>
        <time>2016-05-08T08:30:43.000Z</time>
      </trkpt>
      <trkpt lon="2.4792156219482422" lat="49.1340103149414062">
        <ele>138.0</ele>
        <time>2016-05-08T08:30:45.000Z</time>
      </trkpt>
      <trkpt lon="2.4792156219482422" lat="49.1340103149414062">
        <ele>138.0</ele>
        <time>2016-05-08T08:30:47.000Z</time>
      </trkpt>
      <trkpt lon="2.4792156219482422" lat="49.1340103149414062">
        <ele>138.0</ele>
        <time>2016-05-08T08:30:49.000Z</time>
      </trkpt>
      <trkpt lon="2.4792156219482422" lat="49.1340103149414062">
        <ele>138.0</ele>
        <time>2016-05-08T08:30:51.000Z</time>
      </trkpt>
      <trkpt lon="2.4792156219482422" lat="49.1340103149414062">
        <ele>138.0</ele>
        <time>2016-05-08T08:30:53.000Z</time>
      </trkpt>
      <trkpt lon="2.4792156219482422" lat="49.1340103149414062">
        <ele>138.0</ele>
        <time>2016-05-08T08:30:55.000Z</time>
      </trkpt>
      <trkpt lon="2.4792156219482422" lat="49.1340103149414062">
        <ele>138.0</ele>
        <time>2016-05-08T08:30:57.000Z</time>
      </trkpt>
      <trkpt lon="2.4792156219482422" lat="49.1340103149414062">
        <ele>138.0</ele>
        <time>2016-05-08T08:30:59.000Z</time>
      </trkpt>
      <trkpt lon="2.4792156219482422" lat="49.1340103149414062">
        <ele>138.0</ele>
        <time>2016-05-08T08:31:01.000Z</time>
      </trkpt>
      <trkpt lon="2.4786396026611328" lat="49.1340370178222656">
        <ele>121.0</ele>
        <time>2016-05-08T08:31:03.000Z</time>
      </trkpt>
      <trkpt lon="2.4785025119781494" lat="49.1340789794921875">
        <ele>122.0</ele>
        <time>2016-05-08T08:31:05.000Z</time>
      </trkpt>
      <trkpt lon="2.4779775142669678" lat="49.1339569091796875">
        <ele>116.0</ele>
        <time>2016-05-08T08:31:09.000Z</time>
      </trkpt>
      <trkpt lon="2.4778091907501221" lat="49.1338615417480469">
        <ele>117.0</ele>
        <time>2016-05-08T08:31:11.000Z</time>
      </trkpt>
      <trkpt lon="2.4776618480682373" lat="49.1338272094726562">
        <ele>119.0</ele>
        <time>2016-05-08T08:31:13.000Z</time>
      </trkpt>
      <trkpt lon="2.4776618480682373" lat="49.1338272094726562">
        <ele>119.0</ele>
        <time>2016-05-08T08:31:15.000Z</time>
      </trkpt>
      <trkpt lon="2.4776618480682373" lat="49.1338272094726562">
        <ele>119.0</ele>
        <time>2016-05-08T08:31:17.000Z</time>
      </trkpt>
      <trkpt lon="2.4776618480682373" lat="49.1338272094726562">
        <ele>119.0</ele>
        <time>2016-05-08T08:31:19.000Z</time>
      </trkpt>
      <trkpt lon="2.4776618480682373" lat="49.1338272094726562">
        <ele>119.0</ele>
        <time>2016-05-08T08:31:21.000Z</time>
      </trkpt>
      <trkpt lon="2.4776618480682373" lat="49.1338272094726562">
        <ele>119.0</ele>
        <time>2016-05-08T08:31:23.000Z</time>
      </trkpt>
      <trkpt lon="2.4776618480682373" lat="49.1338272094726562">
        <ele>119.0</ele>
        <time>2016-05-08T08:31:25.000Z</time>
      </trkpt>
      <trkpt lon="2.4776618480682373" lat="49.1338272094726562">
        <ele>119.0</ele>
        <time>2016-05-08T08:31:27.000Z</time>
      </trkpt>
      <trkpt lon="2.4772365093231201" lat="49.1337509155273438">
        <ele>133.0</ele>
        <time>2016-05-08T08:31:35.000Z</time>
      </trkpt>
      <trkpt lon="2.4770047664642334" lat="49.1336860656738281">
        <ele>131.0</ele>
        <time>2016-05-08T08:31:47.000Z</time>
      </trkpt>
      <trkpt lon="2.4770047664642334" lat="49.1336860656738281">
        <ele>131.0</ele>
        <time>2016-05-08T08:31:51.000Z</time>
      </trkpt>
      <trkpt lon="2.4770047664642334" lat="49.1336860656738281">
        <ele>131.0</ele>
        <time>2016-05-08T08:31:53.000Z</time>
      </trkpt>
      <trkpt lon="2.4768681526184082" lat="49.1336593627929688">
        <ele>130.0</ele>
        <time>2016-05-08T08:31:55.000Z</time>
      </trkpt>
      <trkpt lon="2.4768681526184082" lat="49.1336593627929688">
        <ele>130.0</ele>
        <time>2016-05-08T08:31:57.000Z</time>
      </trkpt>
      <trkpt lon="2.4767673015594482" lat="49.1336479187011719">
        <ele>136.0</ele>
        <time>2016-05-08T08:32:01.000Z</time>
      </trkpt>
      <trkpt lon="2.4766888618469238" lat="49.1336326599121094">
        <ele>138.0</ele>
        <time>2016-05-08T08:32:03.000Z</time>
      </trkpt>
      <trkpt lon="2.4765977859497070" lat="49.1336288452148438">
        <ele>142.0</ele>
        <time>2016-05-08T08:32:07.000Z</time>
      </trkpt>
      <trkpt lon="2.4765112400054932" lat="49.1336250305175781">
        <ele>142.0</ele>
        <time>2016-05-08T08:32:09.000Z</time>
      </trkpt>
      <trkpt lon="2.4765112400054932" lat="49.1336250305175781">
        <ele>142.0</ele>
        <time>2016-05-08T08:32:11.000Z</time>
      </trkpt>
      <trkpt lon="2.4764072895050049" lat="49.1336135864257812">
        <ele>145.0</ele>
        <time>2016-05-08T08:32:13.000Z</time>
      </trkpt>
      <trkpt lon="2.4763276576995850" lat="49.1335945129394531">
        <ele>147.0</ele>
        <time>2016-05-08T08:32:15.000Z</time>
      </trkpt>
      <trkpt lon="2.4762430191040039" lat="49.1335868835449219">
        <ele>147.0</ele>
        <time>2016-05-08T08:32:17.000Z</time>
      </trkpt>
      <trkpt lon="2.4761569499969482" lat="49.1335830688476562">
        <ele>147.0</ele>
        <time>2016-05-08T08:32:19.000Z</time>
      </trkpt>
      <trkpt lon="2.4760854244232178" lat="49.1335678100585938">
        <ele>147.0</ele>
        <time>2016-05-08T08:32:21.000Z</time>
      </trkpt>
      <trkpt lon="2.4760854244232178" lat="49.1335678100585938">
        <ele>147.0</ele>
        <time>2016-05-08T08:32:23.000Z</time>
      </trkpt>
      <trkpt lon="2.4760854244232178" lat="49.1335678100585938">
        <ele>147.0</ele>
        <time>2016-05-08T08:32:29.000Z</time>
      </trkpt>
      <trkpt lon="2.4760854244232178" lat="49.1335678100585938">
        <ele>147.0</ele>
        <time>2016-05-08T08:32:31.000Z</time>
      </trkpt>
      <trkpt lon="2.4760854244232178" lat="49.1335678100585938">
        <ele>147.0</ele>
        <time>2016-05-08T08:32:33.000Z</time>
      </trkpt>
      <trkpt lon="2.4760854244232178" lat="49.1335678100585938">
        <ele>147.0</ele>
        <time>2016-05-08T08:32:39.000Z</time>
      </trkpt>
      <trkpt lon="2.4760854244232178" lat="49.1335678100585938">
        <ele>147.0</ele>
        <time>2016-05-08T08:32:41.000Z</time>
      </trkpt>
      <trkpt lon="2.4753606319427490" lat="49.1334037780761719">
        <ele>157.0</ele>
        <time>2016-05-08T08:32:47.000Z</time>
      </trkpt>
      <trkpt lon="2.4753606319427490" lat="49.1334037780761719">
        <ele>157.0</ele>
        <time>2016-05-08T08:32:51.000Z</time>
      </trkpt>
      <trkpt lon="2.4753606319427490" lat="49.1334037780761719">
        <ele>157.0</ele>
        <time>2016-05-08T08:32:53.000Z</time>
      </trkpt>
      <trkpt lon="2.4753606319427490" lat="49.1334037780761719">
        <ele>157.0</ele>
        <time>2016-05-08T08:32:55.000Z</time>
      </trkpt>
      <trkpt lon="2.4749989509582520" lat="49.1332626342773438">
        <ele>149.0</ele>
        <time>2016-05-08T08:33:01.000Z</time>
      </trkpt>
      <trkpt lon="2.4749989509582520" lat="49.1332626342773438">
        <ele>149.0</ele>
        <time>2016-05-08T08:33:03.000Z</time>
      </trkpt>
      <trkpt lon="2.4749989509582520" lat="49.1332626342773438">
        <ele>149.0</ele>
        <time>2016-05-08T08:33:05.000Z</time>
      </trkpt>
      <trkpt lon="2.4748494625091553" lat="49.1332321166992188">
        <ele>148.0</ele>
        <time>2016-05-08T08:33:07.000Z</time>
      </trkpt>
      <trkpt lon="2.4747035503387451" lat="49.1332092285156250">
        <ele>147.0</ele>
        <time>2016-05-08T08:33:11.000Z</time>
      </trkpt>
      <trkpt lon="2.4745368957519531" lat="49.1331863403320312">
        <ele>146.0</ele>
        <time>2016-05-08T08:33:15.000Z</time>
      </trkpt>
      <trkpt lon="2.4743368625640869" lat="49.1331748962402344">
        <ele>148.0</ele>
        <time>2016-05-08T08:33:19.000Z</time>
      </trkpt>
      <trkpt lon="2.4742038249969482" lat="49.1332283020019531">
        <ele>145.0</ele>
        <time>2016-05-08T08:33:21.000Z</time>
      </trkpt>
      <trkpt lon="2.4740300178527832" lat="49.1333007812500000">
        <ele>143.0</ele>
        <time>2016-05-08T08:33:23.000Z</time>
      </trkpt>
      <trkpt lon="2.4738340377807617" lat="49.1332817077636719">
        <ele>141.0</ele>
        <time>2016-05-08T08:33:25.000Z</time>
      </trkpt>
      <trkpt lon="2.4736361503601074" lat="49.1333274841308594">
        <ele>138.0</ele>
        <time>2016-05-08T08:33:27.000Z</time>
      </trkpt>
      <trkpt lon="2.4734518527984619" lat="49.1333923339843750">
        <ele>136.0</ele>
        <time>2016-05-08T08:33:29.000Z</time>
      </trkpt>
      <trkpt lon="2.4732897281646729" lat="49.1334495544433594">
        <ele>135.0</ele>
        <time>2016-05-08T08:33:31.000Z</time>
      </trkpt>
      <trkpt lon="2.4731476306915283" lat="49.1335105895996094">
        <ele>133.0</ele>
        <time>2016-05-08T08:33:33.000Z</time>
      </trkpt>
      <trkpt lon="2.4730315208435059" lat="49.1336097717285156">
        <ele>132.0</ele>
        <time>2016-05-08T08:33:35.000Z</time>
      </trkpt>
      <trkpt lon="2.4729340076446533" lat="49.1337203979492188">
        <ele>133.0</ele>
        <time>2016-05-08T08:33:37.000Z</time>
      </trkpt>
      <trkpt lon="2.4728925228118896" lat="49.1338157653808594">
        <ele>127.0</ele>
        <time>2016-05-08T08:33:39.000Z</time>
      </trkpt>
      <trkpt lon="2.4728128910064697" lat="49.1338996887207031">
        <ele>126.0</ele>
        <time>2016-05-08T08:33:41.000Z</time>
      </trkpt>
      <trkpt lon="2.4728128910064697" lat="49.1338996887207031">
        <ele>126.0</ele>
        <time>2016-05-08T08:33:43.000Z</time>
      </trkpt>
      <trkpt lon="2.4728128910064697" lat="49.1338996887207031">
        <ele>126.0</ele>
        <time>2016-05-08T08:33:45.000Z</time>
      </trkpt>
      <trkpt lon="2.4728128910064697" lat="49.1338996887207031">
        <ele>126.0</ele>
        <time>2016-05-08T08:33:52.000Z</time>
      </trkpt>
      <trkpt lon="2.4728128910064697" lat="49.1338996887207031">
        <ele>126.0</ele>
        <time>2016-05-08T08:33:54.000Z</time>
      </trkpt>
      <trkpt lon="2.4724977016448975" lat="49.1341705322265625">
        <ele>118.0</ele>
        <time>2016-05-08T08:34:00.000Z</time>
      </trkpt>
      <trkpt lon="2.4723219871520996" lat="49.1343383789062500">
        <ele>121.0</ele>
        <time>2016-05-08T08:34:02.000Z</time>
      </trkpt>
      <trkpt lon="2.4722111225128174" lat="49.1344566345214844">
        <ele>121.0</ele>
        <time>2016-05-08T08:34:04.000Z</time>
      </trkpt>
      <trkpt lon="2.4721155166625977" lat="49.1345634460449219">
        <ele>123.0</ele>
        <time>2016-05-08T08:34:06.000Z</time>
      </trkpt>
      <trkpt lon="2.4720377922058105" lat="49.1347198486328125">
        <ele>122.0</ele>
        <time>2016-05-08T08:34:09.000Z</time>
      </trkpt>
      <trkpt lon="2.4720377922058105" lat="49.1347198486328125">
        <ele>122.0</ele>
        <time>2016-05-08T08:34:14.000Z</time>
      </trkpt>
      <trkpt lon="2.4720377922058105" lat="49.1347198486328125">
        <ele>122.0</ele>
        <time>2016-05-08T08:34:22.000Z</time>
      </trkpt>
      <trkpt lon="2.4715600013732910" lat="49.1347541809082031">
        <ele>115.0</ele>
        <time>2016-05-08T08:34:26.000Z</time>
      </trkpt>
      <trkpt lon="2.4714853763580322" lat="49.1345825195312500">
        <ele>117.0</ele>
        <time>2016-05-08T08:34:31.000Z</time>
      </trkpt>
      <trkpt lon="2.4713644981384277" lat="49.1344566345214844">
        <ele>114.0</ele>
        <time>2016-05-08T08:34:35.000Z</time>
      </trkpt>
      <trkpt lon="2.4712972640991211" lat="49.1343460083007812">
        <ele>116.0</ele>
        <time>2016-05-08T08:34:39.000Z</time>
      </trkpt>
      <trkpt lon="2.4711966514587402" lat="49.1342163085937500">
        <ele>120.0</ele>
        <time>2016-05-08T08:34:43.000Z</time>
      </trkpt>
      <trkpt lon="2.4710943698883057" lat="49.1341171264648438">
        <ele>115.0</ele>
        <time>2016-05-08T08:34:47.000Z</time>
      </trkpt>
      <trkpt lon="2.4710943698883057" lat="49.1341171264648438">
        <ele>115.0</ele>
        <time>2016-05-08T08:34:49.000Z</time>
      </trkpt>
      <trkpt lon="2.4710943698883057" lat="49.1341171264648438">
        <ele>115.0</ele>
        <time>2016-05-08T08:34:51.000Z</time>
      </trkpt>
      <trkpt lon="2.4710943698883057" lat="49.1341171264648438">
        <ele>115.0</ele>
        <time>2016-05-08T08:34:53.000Z</time>
      </trkpt>
      <trkpt lon="2.4708499908447266" lat="49.1338310241699219">
        <ele>120.0</ele>
        <time>2016-05-08T08:34:59.000Z</time>
      </trkpt>
      <trkpt lon="2.4708499908447266" lat="49.1338310241699219">
        <ele>120.0</ele>
        <time>2016-05-08T08:35:01.000Z</time>
      </trkpt>
      <trkpt lon="2.4708499908447266" lat="49.1338310241699219">
        <ele>120.0</ele>
        <time>2016-05-08T08:35:03.000Z</time>
      </trkpt>
      <trkpt lon="2.4708499908447266" lat="49.1338310241699219">
        <ele>120.0</ele>
        <time>2016-05-08T08:35:05.000Z</time>
      </trkpt>
      <trkpt lon="2.4707381725311279" lat="49.1335716247558594">
        <ele>134.0</ele>
        <time>2016-05-08T08:35:09.000Z</time>
      </trkpt>
      <trkpt lon="2.4707381725311279" lat="49.1335716247558594">
        <ele>134.0</ele>
        <time>2016-05-08T08:35:11.000Z</time>
      </trkpt>
      <trkpt lon="2.4707381725311279" lat="49.1335716247558594">
        <ele>134.0</ele>
        <time>2016-05-08T08:35:13.000Z</time>
      </trkpt>
      <trkpt lon="2.4707381725311279" lat="49.1335716247558594">
        <ele>134.0</ele>
        <time>2016-05-08T08:35:15.000Z</time>
      </trkpt>
      <trkpt lon="2.4707381725311279" lat="49.1335716247558594">
        <ele>134.0</ele>
        <time>2016-05-08T08:35:17.000Z</time>
      </trkpt>
      <trkpt lon="2.4707381725311279" lat="49.1335716247558594">
        <ele>134.0</ele>
        <time>2016-05-08T08:35:23.000Z</time>
      </trkpt>
      <trkpt lon="2.4705405235290527" lat="49.1332015991210938">
        <ele>140.0</ele>
        <time>2016-05-08T08:35:25.000Z</time>
      </trkpt>
      <trkpt lon="2.4704453945159912" lat="49.1330986022949219">
        <ele>138.0</ele>
        <time>2016-05-08T08:35:29.000Z</time>
      </trkpt>
      <trkpt lon="2.4704453945159912" lat="49.1330986022949219">
        <ele>138.0</ele>
        <time>2016-05-08T08:35:31.000Z</time>
      </trkpt>
      <trkpt lon="2.4703612327575684" lat="49.1329956054687500">
        <ele>141.0</ele>
        <time>2016-05-08T08:35:33.000Z</time>
      </trkpt>
      <trkpt lon="2.4703092575073242" lat="49.1329536437988281">
        <ele>139.0</ele>
        <time>2016-05-08T08:35:37.000Z</time>
      </trkpt>
      <trkpt lon="2.4702584743499756" lat="49.1329040527343750">
        <ele>137.0</ele>
        <time>2016-05-08T08:35:39.000Z</time>
      </trkpt>
      <trkpt lon="2.4702255725860596" lat="49.1328392028808594">
        <ele>135.0</ele>
        <time>2016-05-08T08:35:41.000Z</time>
      </trkpt>
      <trkpt lon="2.4701859951019287" lat="49.1327781677246094">
        <ele>135.0</ele>
        <time>2016-05-08T08:35:43.000Z</time>
      </trkpt>
      <trkpt lon="2.4701380729675293" lat="49.1327323913574219">
        <ele>134.0</ele>
        <time>2016-05-08T08:35:45.000Z</time>
      </trkpt>
      <trkpt lon="2.4701380729675293" lat="49.1327323913574219">
        <ele>134.0</ele>
        <time>2016-05-08T08:35:47.000Z</time>
      </trkpt>
      <trkpt lon="2.4701380729675293" lat="49.1327323913574219">
        <ele>134.0</ele>
        <time>2016-05-08T08:35:49.000Z</time>
      </trkpt>
      <trkpt lon="2.4701380729675293" lat="49.1327323913574219">
        <ele>134.0</ele>
        <time>2016-05-08T08:35:51.000Z</time>
      </trkpt>
      <trkpt lon="2.4701380729675293" lat="49.1327323913574219">
        <ele>134.0</ele>
        <time>2016-05-08T08:35:53.000Z</time>
      </trkpt>
      <trkpt lon="2.4701380729675293" lat="49.1327323913574219">
        <ele>134.0</ele>
        <time>2016-05-08T08:35:55.000Z</time>
      </trkpt>
      <trkpt lon="2.4701380729675293" lat="49.1327323913574219">
        <ele>134.0</ele>
        <time>2016-05-08T08:35:57.000Z</time>
      </trkpt>
      <trkpt lon="2.4697837829589844" lat="49.1322708129882812">
        <ele>132.0</ele>
        <time>2016-05-08T08:36:01.000Z</time>
      </trkpt>
      <trkpt lon="2.4696877002716064" lat="49.1321105957031250">
        <ele>132.0</ele>
        <time>2016-05-08T08:36:05.000Z</time>
      </trkpt>
      <trkpt lon="2.4695789813995361" lat="49.1320266723632812">
        <ele>138.0</ele>
        <time>2016-05-08T08:36:09.000Z</time>
      </trkpt>
      <trkpt lon="2.4695789813995361" lat="49.1320266723632812">
        <ele>138.0</ele>
        <time>2016-05-08T08:36:11.000Z</time>
      </trkpt>
      <trkpt lon="2.4694731235504150" lat="49.1318511962890625">
        <ele>132.0</ele>
        <time>2016-05-08T08:36:13.000Z</time>
      </trkpt>
      <trkpt lon="2.4693439006805420" lat="49.1317062377929688">
        <ele>128.0</ele>
        <time>2016-05-08T08:36:17.000Z</time>
      </trkpt>
      <trkpt lon="2.4693439006805420" lat="49.1317062377929688">
        <ele>128.0</ele>
        <time>2016-05-08T08:36:19.000Z</time>
      </trkpt>
      <trkpt lon="2.4692478179931641" lat="49.1315422058105469">
        <ele>128.0</ele>
        <time>2016-05-08T08:36:21.000Z</time>
      </trkpt>
      <trkpt lon="2.4691040515899658" lat="49.1312942504882812">
        <ele>127.0</ele>
        <time>2016-05-08T08:36:27.000Z</time>
      </trkpt>
      <trkpt lon="2.4691040515899658" lat="49.1312942504882812">
        <ele>127.0</ele>
        <time>2016-05-08T08:36:29.000Z</time>
      </trkpt>
      <trkpt lon="2.4689443111419678" lat="49.1311416625976562">
        <ele>126.0</ele>
        <time>2016-05-08T08:36:31.000Z</time>
      </trkpt>
      <trkpt lon="2.4688715934753418" lat="49.1310386657714844">
        <ele>123.0</ele>
        <time>2016-05-08T08:36:33.000Z</time>
      </trkpt>
      <trkpt lon="2.4687502384185791" lat="49.1308708190917969">
        <ele>123.0</ele>
        <time>2016-05-08T08:36:37.000Z</time>
      </trkpt>
      <trkpt lon="2.4686901569366455" lat="49.1307868957519531">
        <ele>121.0</ele>
        <time>2016-05-08T08:36:39.000Z</time>
      </trkpt>
      <trkpt lon="2.4686043262481689" lat="49.1306991577148438">
        <ele>120.0</ele>
        <time>2016-05-08T08:36:41.000Z</time>
      </trkpt>
      <trkpt lon="2.4685001373291016" lat="49.1306228637695312">
        <ele>119.0</ele>
        <time>2016-05-08T08:36:43.000Z</time>
      </trkpt>
      <trkpt lon="2.4684441089630127" lat="49.1305274963378906">
        <ele>119.0</ele>
        <time>2016-05-08T08:36:45.000Z</time>
      </trkpt>
      <trkpt lon="2.4684064388275146" lat="49.1304206848144531">
        <ele>118.0</ele>
        <time>2016-05-08T08:36:47.000Z</time>
      </trkpt>
      <trkpt lon="2.4683427810668945" lat="49.1303329467773438">
        <ele>117.0</ele>
        <time>2016-05-08T08:36:49.000Z</time>
      </trkpt>
      <trkpt lon="2.4682955741882324" lat="49.1301994323730469">
        <ele>118.0</ele>
        <time>2016-05-08T08:36:51.000Z</time>
      </trkpt>
      <trkpt lon="2.4681439399719238" lat="49.1300964355468750">
        <ele>119.0</ele>
        <time>2016-05-08T08:36:53.000Z</time>
      </trkpt>
      <trkpt lon="2.4679236412048340" lat="49.1301002502441406">
        <ele>115.0</ele>
        <time>2016-05-08T08:36:55.000Z</time>
      </trkpt>
      <trkpt lon="2.4679236412048340" lat="49.1301002502441406">
        <ele>115.0</ele>
        <time>2016-05-08T08:36:59.000Z</time>
      </trkpt>
      <trkpt lon="2.4679236412048340" lat="49.1301002502441406">
        <ele>115.0</ele>
        <time>2016-05-08T08:37:01.000Z</time>
      </trkpt>
      <trkpt lon="2.4679236412048340" lat="49.1301002502441406">
        <ele>115.0</ele>
        <time>2016-05-08T08:37:03.000Z</time>
      </trkpt>
      <trkpt lon="2.4679236412048340" lat="49.1301002502441406">
        <ele>115.0</ele>
        <time>2016-05-08T08:37:05.000Z</time>
      </trkpt>
      <trkpt lon="2.4674541950225830" lat="49.1302566528320312">
        <ele>120.0</ele>
        <time>2016-05-08T08:37:07.000Z</time>
      </trkpt>
      <trkpt lon="2.4672856330871582" lat="49.1303215026855469">
        <ele>121.0</ele>
        <time>2016-05-08T08:37:11.000Z</time>
      </trkpt>
      <trkpt lon="2.4672856330871582" lat="49.1303215026855469">
        <ele>121.0</ele>
        <time>2016-05-08T08:37:13.000Z</time>
      </trkpt>
      <trkpt lon="2.4672856330871582" lat="49.1303215026855469">
        <ele>121.0</ele>
        <time>2016-05-08T08:37:15.000Z</time>
      </trkpt>
      <trkpt lon="2.4672856330871582" lat="49.1303215026855469">
        <ele>121.0</ele>
        <time>2016-05-08T08:37:17.000Z</time>
      </trkpt>
      <trkpt lon="2.4672856330871582" lat="49.1303215026855469">
        <ele>121.0</ele>
        <time>2016-05-08T08:37:19.000Z</time>
      </trkpt>
      <trkpt lon="2.4668393135070801" lat="49.1303977966308594">
        <ele>124.0</ele>
        <time>2016-05-08T08:37:23.000Z</time>
      </trkpt>
      <trkpt lon="2.4668393135070801" lat="49.1303977966308594">
        <ele>124.0</ele>
        <time>2016-05-08T08:37:25.000Z</time>
      </trkpt>
      <trkpt lon="2.4668393135070801" lat="49.1303977966308594">
        <ele>124.0</ele>
        <time>2016-05-08T08:37:27.000Z</time>
      </trkpt>
      <trkpt lon="2.4668393135070801" lat="49.1303977966308594">
        <ele>124.0</ele>
        <time>2016-05-08T08:37:29.000Z</time>
      </trkpt>
      <trkpt lon="2.4668393135070801" lat="49.1303977966308594">
        <ele>124.0</ele>
        <time>2016-05-08T08:37:31.000Z</time>
      </trkpt>
      <trkpt lon="2.4666833877563477" lat="49.1304321289062500">
        <ele>126.0</ele>
        <time>2016-05-08T08:37:35.000Z</time>
      </trkpt>
      <trkpt lon="2.4665601253509521" lat="49.1304550170898438">
        <ele>126.0</ele>
        <time>2016-05-08T08:37:37.000Z</time>
      </trkpt>
      <trkpt lon="2.4664607048034668" lat="49.1304740905761719">
        <ele>126.0</ele>
        <time>2016-05-08T08:37:39.000Z</time>
      </trkpt>
      <trkpt lon="2.4663827419281006" lat="49.1305007934570312">
        <ele>126.0</ele>
        <time>2016-05-08T08:37:41.000Z</time>
      </trkpt>
      <trkpt lon="2.4662995338439941" lat="49.1305122375488281">
        <ele>128.0</ele>
        <time>2016-05-08T08:37:43.000Z</time>
      </trkpt>
      <trkpt lon="2.4660415649414062" lat="49.1305809020996094">
        <ele>130.0</ele>
        <time>2016-05-08T08:37:47.000Z</time>
      </trkpt>
      <trkpt lon="2.4660415649414062" lat="49.1305809020996094">
        <ele>130.0</ele>
        <time>2016-05-08T08:37:51.000Z</time>
      </trkpt>
      <trkpt lon="2.4660415649414062" lat="49.1305809020996094">
        <ele>130.0</ele>
        <time>2016-05-08T08:37:53.000Z</time>
      </trkpt>
      <trkpt lon="2.4660415649414062" lat="49.1305809020996094">
        <ele>130.0</ele>
        <time>2016-05-08T08:37:55.000Z</time>
      </trkpt>
      <trkpt lon="2.4660415649414062" lat="49.1305809020996094">
        <ele>130.0</ele>
        <time>2016-05-08T08:38:01.000Z</time>
      </trkpt>
      <trkpt lon="2.4660415649414062" lat="49.1305809020996094">
        <ele>130.0</ele>
        <time>2016-05-08T08:38:03.000Z</time>
      </trkpt>
      <trkpt lon="2.4660415649414062" lat="49.1305809020996094">
        <ele>130.0</ele>
        <time>2016-05-08T08:38:05.000Z</time>
      </trkpt>
      <trkpt lon="2.4660415649414062" lat="49.1305809020996094">
        <ele>130.0</ele>
        <time>2016-05-08T08:38:11.000Z</time>
      </trkpt>
      <trkpt lon="2.4660415649414062" lat="49.1305809020996094">
        <ele>130.0</ele>
        <time>2016-05-08T08:38:13.000Z</time>
      </trkpt>
      <trkpt lon="2.4652283191680908" lat="49.1307525634765625">
        <ele>121.0</ele>
        <time>2016-05-08T08:38:17.000Z</time>
      </trkpt>
      <trkpt lon="2.4652283191680908" lat="49.1307525634765625">
        <ele>121.0</ele>
        <time>2016-05-08T08:38:22.000Z</time>
      </trkpt>
      <trkpt lon="2.4652283191680908" lat="49.1307525634765625">
        <ele>121.0</ele>
        <time>2016-05-08T08:38:23.000Z</time>
      </trkpt>
      <trkpt lon="2.4652283191680908" lat="49.1307525634765625">
        <ele>121.0</ele>
        <time>2016-05-08T08:38:25.000Z</time>
      </trkpt>
      <trkpt lon="2.4652283191680908" lat="49.1307525634765625">
        <ele>121.0</ele>
        <time>2016-05-08T08:38:27.000Z</time>
      </trkpt>
      <trkpt lon="2.4649567604064941" lat="49.1307868957519531">
        <ele>128.0</ele>
        <time>2016-05-08T08:38:31.000Z</time>
      </trkpt>
      <trkpt lon="2.4648432731628418" lat="49.1308517456054688">
        <ele>129.0</ele>
        <time>2016-05-08T08:38:37.000Z</time>
      </trkpt>
      <trkpt lon="2.4648432731628418" lat="49.1308517456054688">
        <ele>129.0</ele>
        <time>2016-05-08T08:38:39.000Z</time>
      </trkpt>
      <trkpt lon="2.4648432731628418" lat="49.1308517456054688">
        <ele>129.0</ele>
        <time>2016-05-08T08:38:41.000Z</time>
      </trkpt>
      <trkpt lon="2.4648432731628418" lat="49.1308517456054688">
        <ele>129.0</ele>
        <time>2016-05-08T08:38:43.000Z</time>
      </trkpt>
      <trkpt lon="2.4648432731628418" lat="49.1308517456054688">
        <ele>129.0</ele>
        <time>2016-05-08T08:38:45.000Z</time>
      </trkpt>
      <trkpt lon="2.4648432731628418" lat="49.1308517456054688">
        <ele>129.0</ele>
        <time>2016-05-08T08:38:47.000Z</time>
      </trkpt>
      <trkpt lon="2.4648432731628418" lat="49.1308517456054688">
        <ele>129.0</ele>
        <time>2016-05-08T08:38:49.000Z</time>
      </trkpt>
      <trkpt lon="2.4646828174591064" lat="49.1308784484863281">
        <ele>144.0</ele>
        <time>2016-05-08T08:38:53.000Z</time>
      </trkpt>
      <trkpt lon="2.4645805358886719" lat="49.1308937072753906">
        <ele>144.0</ele>
        <time>2016-05-08T08:38:55.000Z</time>
      </trkpt>
      <trkpt lon="2.4645805358886719" lat="49.1308937072753906">
        <ele>144.0</ele>
        <time>2016-05-08T08:38:57.000Z</time>
      </trkpt>
      <trkpt lon="2.4645805358886719" lat="49.1308937072753906">
        <ele>144.0</ele>
        <time>2016-05-08T08:38:59.000Z</time>
      </trkpt>
      <trkpt lon="2.4644680023193359" lat="49.1309089660644531">
        <ele>144.0</ele>
        <time>2016-05-08T08:39:01.000Z</time>
      </trkpt>
      <trkpt lon="2.4643931388854980" lat="49.1309242248535156">
        <ele>145.0</ele>
        <time>2016-05-08T08:39:03.000Z</time>
      </trkpt>
      <trkpt lon="2.4643931388854980" lat="49.1309242248535156">
        <ele>145.0</ele>
        <time>2016-05-08T08:39:07.000Z</time>
      </trkpt>
      <trkpt lon="2.4643931388854980" lat="49.1309242248535156">
        <ele>145.0</ele>
        <time>2016-05-08T08:39:09.000Z</time>
      </trkpt>
      <trkpt lon="2.4642784595489502" lat="49.1309585571289062">
        <ele>152.0</ele>
        <time>2016-05-08T08:39:11.000Z</time>
      </trkpt>
      <trkpt lon="2.4641995429992676" lat="49.1309776306152344">
        <ele>155.0</ele>
        <time>2016-05-08T08:39:13.000Z</time>
      </trkpt>
      <trkpt lon="2.4640929698944092" lat="49.1309967041015625">
        <ele>155.0</ele>
        <time>2016-05-08T08:39:17.000Z</time>
      </trkpt>
      <trkpt lon="2.4639866352081299" lat="49.1310234069824219">
        <ele>155.0</ele>
        <time>2016-05-08T08:39:19.000Z</time>
      </trkpt>
      <trkpt lon="2.4637355804443359" lat="49.1310882568359375">
        <ele>151.0</ele>
        <time>2016-05-08T08:39:23.000Z</time>
      </trkpt>
      <trkpt lon="2.4635267257690430" lat="49.1311302185058594">
        <ele>150.0</ele>
        <time>2016-05-08T08:39:25.000Z</time>
      </trkpt>
      <trkpt lon="2.4635267257690430" lat="49.1311302185058594">
        <ele>150.0</ele>
        <time>2016-05-08T08:39:29.000Z</time>
      </trkpt>
      <trkpt lon="2.4635267257690430" lat="49.1311302185058594">
        <ele>150.0</ele>
        <time>2016-05-08T08:39:37.000Z</time>
      </trkpt>
      <trkpt lon="2.4635267257690430" lat="49.1311302185058594">
        <ele>150.0</ele>
        <time>2016-05-08T08:39:39.000Z</time>
      </trkpt>
      <trkpt lon="2.4632360935211182" lat="49.1311874389648438">
        <ele>156.0</ele>
        <time>2016-05-08T08:39:43.000Z</time>
      </trkpt>
      <trkpt lon="2.4630689620971680" lat="49.1312294006347656">
        <ele>156.0</ele>
        <time>2016-05-08T08:39:45.000Z</time>
      </trkpt>
      <trkpt lon="2.4629583358764648" lat="49.1312522888183594">
        <ele>158.0</ele>
        <time>2016-05-08T08:39:47.000Z</time>
      </trkpt>
      <trkpt lon="2.4628827571868896" lat="49.1312751770019531">
        <ele>160.0</ele>
        <time>2016-05-08T08:39:49.000Z</time>
      </trkpt>
      <trkpt lon="2.4627954959869385" lat="49.1312980651855469">
        <ele>161.0</ele>
        <time>2016-05-08T08:39:53.000Z</time>
      </trkpt>
      <trkpt lon="2.4627203941345215" lat="49.1313133239746094">
        <ele>161.0</ele>
        <time>2016-05-08T08:39:55.000Z</time>
      </trkpt>
      <trkpt lon="2.4626345634460449" lat="49.1313400268554688">
        <ele>159.0</ele>
        <time>2016-05-08T08:39:57.000Z</time>
      </trkpt>
      <trkpt lon="2.4625186920166016" lat="49.1313667297363281">
        <ele>158.0</ele>
        <time>2016-05-08T08:39:59.000Z</time>
      </trkpt>
      <trkpt lon="2.4623699188232422" lat="49.1313934326171875">
        <ele>158.0</ele>
        <time>2016-05-08T08:40:01.000Z</time>
      </trkpt>
      <trkpt lon="2.4620053768157959" lat="49.1314544677734375">
        <ele>161.0</ele>
        <time>2016-05-08T08:40:03.000Z</time>
      </trkpt>
      <trkpt lon="2.4618387222290039" lat="49.1314735412597656">
        <ele>162.0</ele>
        <time>2016-05-08T08:40:05.000Z</time>
      </trkpt>
      <trkpt lon="2.4616677761077881" lat="49.1315078735351562">
        <ele>160.0</ele>
        <time>2016-05-08T08:40:07.000Z</time>
      </trkpt>
      <trkpt lon="2.4616677761077881" lat="49.1315078735351562">
        <ele>160.0</ele>
        <time>2016-05-08T08:40:10.000Z</time>
      </trkpt>
      <trkpt lon="2.4616677761077881" lat="49.1315078735351562">
        <ele>160.0</ele>
        <time>2016-05-08T08:40:12.000Z</time>
      </trkpt>
      <trkpt lon="2.4616677761077881" lat="49.1315078735351562">
        <ele>160.0</ele>
        <time>2016-05-08T08:40:14.000Z</time>
      </trkpt>
      <trkpt lon="2.4616677761077881" lat="49.1315078735351562">
        <ele>160.0</ele>
        <time>2016-05-08T08:40:16.000Z</time>
      </trkpt>
      <trkpt lon="2.4616677761077881" lat="49.1315078735351562">
        <ele>160.0</ele>
        <time>2016-05-08T08:40:18.000Z</time>
      </trkpt>
      <trkpt lon="2.4616677761077881" lat="49.1315078735351562">
        <ele>160.0</ele>
        <time>2016-05-08T08:40:20.000Z</time>
      </trkpt>
      <trkpt lon="2.4616677761077881" lat="49.1315078735351562">
        <ele>160.0</ele>
        <time>2016-05-08T08:40:22.000Z</time>
      </trkpt>
      <trkpt lon="2.4616677761077881" lat="49.1315078735351562">
        <ele>160.0</ele>
        <time>2016-05-08T08:40:24.000Z</time>
      </trkpt>
      <trkpt lon="2.4616677761077881" lat="49.1315078735351562">
        <ele>160.0</ele>
        <time>2016-05-08T08:40:26.000Z</time>
      </trkpt>
      <trkpt lon="2.4611659049987793" lat="49.1316566467285156">
        <ele>162.0</ele>
        <time>2016-05-08T08:40:32.000Z</time>
      </trkpt>
      <trkpt lon="2.4611659049987793" lat="49.1316566467285156">
        <ele>162.0</ele>
        <time>2016-05-08T08:40:38.000Z</time>
      </trkpt>
      <trkpt lon="2.4611659049987793" lat="49.1316566467285156">
        <ele>162.0</ele>
        <time>2016-05-08T08:40:40.000Z</time>
      </trkpt>
      <trkpt lon="2.4609313011169434" lat="49.1317138671875000">
        <ele>156.0</ele>
        <time>2016-05-08T08:40:42.000Z</time>
      </trkpt>
      <trkpt lon="2.4607384204864502" lat="49.1317558288574219">
        <ele>157.0</ele>
        <time>2016-05-08T08:40:48.000Z</time>
      </trkpt>
      <trkpt lon="2.4607384204864502" lat="49.1317558288574219">
        <ele>157.0</ele>
        <time>2016-05-08T08:40:52.000Z</time>
      </trkpt>
      <trkpt lon="2.4607384204864502" lat="49.1317558288574219">
        <ele>157.0</ele>
        <time>2016-05-08T08:40:54.000Z</time>
      </trkpt>
      <trkpt lon="2.4601602554321289" lat="49.1318817138671875">
        <ele>156.0</ele>
        <time>2016-05-08T08:40:58.000Z</time>
      </trkpt>
      <trkpt lon="2.4595634937286377" lat="49.1320343017578125">
        <ele>155.0</ele>
        <time>2016-05-08T08:41:02.000Z</time>
      </trkpt>
      <trkpt lon="2.4593110084533691" lat="49.1320304870605469">
        <ele>154.0</ele>
        <time>2016-05-08T08:41:04.000Z</time>
      </trkpt>
      <trkpt lon="2.4591190814971924" lat="49.1320953369140625">
        <ele>155.0</ele>
        <time>2016-05-08T08:41:06.000Z</time>
      </trkpt>
      <trkpt lon="2.4589819908142090" lat="49.1321601867675781">
        <ele>154.0</ele>
        <time>2016-05-08T08:41:08.000Z</time>
      </trkpt>
      <trkpt lon="2.4589819908142090" lat="49.1321601867675781">
        <ele>154.0</ele>
        <time>2016-05-08T08:41:12.000Z</time>
      </trkpt>
      <trkpt lon="2.4589819908142090" lat="49.1321601867675781">
        <ele>154.0</ele>
        <time>2016-05-08T08:41:14.000Z</time>
      </trkpt>
      <trkpt lon="2.4589819908142090" lat="49.1321601867675781">
        <ele>154.0</ele>
        <time>2016-05-08T08:41:16.000Z</time>
      </trkpt>
      <trkpt lon="2.4589819908142090" lat="49.1321601867675781">
        <ele>154.0</ele>
        <time>2016-05-08T08:41:18.000Z</time>
      </trkpt>
      <trkpt lon="2.4589819908142090" lat="49.1321601867675781">
        <ele>154.0</ele>
        <time>2016-05-08T08:41:20.000Z</time>
      </trkpt>
      <trkpt lon="2.4586234092712402" lat="49.1322135925292969">
        <ele>158.0</ele>
        <time>2016-05-08T08:41:26.000Z</time>
      </trkpt>
      <trkpt lon="2.4586234092712402" lat="49.1322135925292969">
        <ele>158.0</ele>
        <time>2016-05-08T08:41:30.000Z</time>
      </trkpt>
      <trkpt lon="2.4586234092712402" lat="49.1322135925292969">
        <ele>158.0</ele>
        <time>2016-05-08T08:41:32.000Z</time>
      </trkpt>
      <trkpt lon="2.4585471153259277" lat="49.1322441101074219">
        <ele>160.0</ele>
        <time>2016-05-08T08:41:34.000Z</time>
      </trkpt>
      <trkpt lon="2.4584679603576660" lat="49.1322555541992188">
        <ele>161.0</ele>
        <time>2016-05-08T08:41:38.000Z</time>
      </trkpt>
      <trkpt lon="2.4584679603576660" lat="49.1322555541992188">
        <ele>161.0</ele>
        <time>2016-05-08T08:41:40.000Z</time>
      </trkpt>
      <trkpt lon="2.4584679603576660" lat="49.1322555541992188">
        <ele>161.0</ele>
        <time>2016-05-08T08:41:42.000Z</time>
      </trkpt>
      <trkpt lon="2.4584679603576660" lat="49.1322555541992188">
        <ele>161.0</ele>
        <time>2016-05-08T08:41:44.000Z</time>
      </trkpt>
      <trkpt lon="2.4583363533020020" lat="49.1323051452636719">
        <ele>164.0</ele>
        <time>2016-05-08T08:41:48.000Z</time>
      </trkpt>
      <trkpt lon="2.4582490921020508" lat="49.1323280334472656">
        <ele>162.0</ele>
        <time>2016-05-08T08:41:50.000Z</time>
      </trkpt>
      <trkpt lon="2.4582490921020508" lat="49.1323280334472656">
        <ele>162.0</ele>
        <time>2016-05-08T08:41:52.000Z</time>
      </trkpt>
      <trkpt lon="2.4582490921020508" lat="49.1323280334472656">
        <ele>162.0</ele>
        <time>2016-05-08T08:41:54.000Z</time>
      </trkpt>
      <trkpt lon="2.4580998420715332" lat="49.1323585510253906">
        <ele>164.0</ele>
        <time>2016-05-08T08:41:58.000Z</time>
      </trkpt>
      <trkpt lon="2.4579858779907227" lat="49.1323738098144531">
        <ele>165.0</ele>
        <time>2016-05-08T08:42:00.000Z</time>
      </trkpt>
      <trkpt lon="2.4579107761383057" lat="49.1323852539062500">
        <ele>166.0</ele>
        <time>2016-05-08T08:42:02.000Z</time>
      </trkpt>
      <trkpt lon="2.4579107761383057" lat="49.1323852539062500">
        <ele>166.0</ele>
        <time>2016-05-08T08:42:04.000Z</time>
      </trkpt>
      <trkpt lon="2.4577515125274658" lat="49.1324157714843750">
        <ele>164.0</ele>
        <time>2016-05-08T08:42:09.000Z</time>
      </trkpt>
      <trkpt lon="2.4575848579406738" lat="49.1324386596679688">
        <ele>164.0</ele>
        <time>2016-05-08T08:42:11.000Z</time>
      </trkpt>
      <trkpt lon="2.4573884010314941" lat="49.1324844360351562">
        <ele>163.0</ele>
        <time>2016-05-08T08:42:13.000Z</time>
      </trkpt>
      <trkpt lon="2.4571545124053955" lat="49.1325378417968750">
        <ele>162.0</ele>
        <time>2016-05-08T08:42:15.000Z</time>
      </trkpt>
      <trkpt lon="2.4569048881530762" lat="49.1325836181640625">
        <ele>161.0</ele>
        <time>2016-05-08T08:42:17.000Z</time>
      </trkpt>
      <trkpt lon="2.4564216136932373" lat="49.1326942443847656">
        <ele>160.0</ele>
        <time>2016-05-08T08:42:19.000Z</time>
      </trkpt>
      <trkpt lon="2.4562554359436035" lat="49.1327514648437500">
        <ele>158.0</ele>
        <time>2016-05-08T08:42:21.000Z</time>
      </trkpt>
      <trkpt lon="2.4562554359436035" lat="49.1327514648437500">
        <ele>158.0</ele>
        <time>2016-05-08T08:42:23.000Z</time>
      </trkpt>
      <trkpt lon="2.4562554359436035" lat="49.1327514648437500">
        <ele>158.0</ele>
        <time>2016-05-08T08:42:25.000Z</time>
      </trkpt>
      <trkpt lon="2.4556295871734619" lat="49.1328773498535156">
        <ele>147.0</ele>
        <time>2016-05-08T08:42:30.000Z</time>
      </trkpt>
      <trkpt lon="2.4554238319396973" lat="49.1329421997070312">
        <ele>145.0</ele>
        <time>2016-05-08T08:42:32.000Z</time>
      </trkpt>
      <trkpt lon="2.4551513195037842" lat="49.1329917907714844">
        <ele>145.0</ele>
        <time>2016-05-08T08:42:34.000Z</time>
      </trkpt>
      <trkpt lon="2.4549057483673096" lat="49.1330528259277344">
        <ele>145.0</ele>
        <time>2016-05-08T08:42:36.000Z</time>
      </trkpt>
      <trkpt lon="2.4547064304351807" lat="49.1330680847167969">
        <ele>143.0</ele>
        <time>2016-05-08T08:42:38.000Z</time>
      </trkpt>
      <trkpt lon="2.4545307159423828" lat="49.1331100463867188">
        <ele>141.0</ele>
        <time>2016-05-08T08:42:40.000Z</time>
      </trkpt>
      <trkpt lon="2.4543890953063965" lat="49.1331405639648438">
        <ele>142.0</ele>
        <time>2016-05-08T08:42:43.000Z</time>
      </trkpt>
      <trkpt lon="2.4543890953063965" lat="49.1331405639648438">
        <ele>142.0</ele>
        <time>2016-05-08T08:42:45.000Z</time>
      </trkpt>
      <trkpt lon="2.4543890953063965" lat="49.1331405639648438">
        <ele>142.0</ele>
        <time>2016-05-08T08:42:47.000Z</time>
      </trkpt>
      <trkpt lon="2.4543890953063965" lat="49.1331405639648438">
        <ele>142.0</ele>
        <time>2016-05-08T08:42:49.000Z</time>
      </trkpt>
      <trkpt lon="2.4543890953063965" lat="49.1331405639648438">
        <ele>142.0</ele>
        <time>2016-05-08T08:42:51.000Z</time>
      </trkpt>
      <trkpt lon="2.4538695812225342" lat="49.1332359313964844">
        <ele>142.0</ele>
        <time>2016-05-08T08:42:53.000Z</time>
      </trkpt>
      <trkpt lon="2.4534571170806885" lat="49.1333274841308594">
        <ele>140.0</ele>
        <time>2016-05-08T08:42:56.000Z</time>
      </trkpt>
      <trkpt lon="2.4532430171966553" lat="49.1333618164062500">
        <ele>135.0</ele>
        <time>2016-05-08T08:42:58.000Z</time>
      </trkpt>
      <trkpt lon="2.4530405998229980" lat="49.1334152221679688">
        <ele>135.0</ele>
        <time>2016-05-08T08:43:00.000Z</time>
      </trkpt>
      <trkpt lon="2.4528884887695312" lat="49.1334648132324219">
        <ele>134.0</ele>
        <time>2016-05-08T08:43:02.000Z</time>
      </trkpt>
      <trkpt lon="2.4528884887695312" lat="49.1334648132324219">
        <ele>134.0</ele>
        <time>2016-05-08T08:43:05.000Z</time>
      </trkpt>
      <trkpt lon="2.4528884887695312" lat="49.1334648132324219">
        <ele>134.0</ele>
        <time>2016-05-08T08:43:07.000Z</time>
      </trkpt>
      <trkpt lon="2.4528884887695312" lat="49.1334648132324219">
        <ele>134.0</ele>
        <time>2016-05-08T08:43:09.000Z</time>
      </trkpt>
      <trkpt lon="2.4522621631622314" lat="49.1335296630859375">
        <ele>143.0</ele>
        <time>2016-05-08T08:43:17.000Z</time>
      </trkpt>
      <trkpt lon="2.4522621631622314" lat="49.1335296630859375">
        <ele>143.0</ele>
        <time>2016-05-08T08:43:19.000Z</time>
      </trkpt>
      <trkpt lon="2.4521052837371826" lat="49.1335830688476562">
        <ele>143.0</ele>
        <time>2016-05-08T08:43:21.000Z</time>
      </trkpt>
      <trkpt lon="2.4521052837371826" lat="49.1335830688476562">
        <ele>143.0</ele>
        <time>2016-05-08T08:43:23.000Z</time>
      </trkpt>
      <trkpt lon="2.4521052837371826" lat="49.1335830688476562">
        <ele>143.0</ele>
        <time>2016-05-08T08:43:25.000Z</time>
      </trkpt>
      <trkpt lon="2.4521052837371826" lat="49.1335830688476562">
        <ele>143.0</ele>
        <time>2016-05-08T08:43:27.000Z</time>
      </trkpt>
      <trkpt lon="2.4521052837371826" lat="49.1335830688476562">
        <ele>143.0</ele>
        <time>2016-05-08T08:43:29.000Z</time>
      </trkpt>
      <trkpt lon="2.4521052837371826" lat="49.1335830688476562">
        <ele>143.0</ele>
        <time>2016-05-08T08:43:31.000Z</time>
      </trkpt>
      <trkpt lon="2.4521052837371826" lat="49.1335830688476562">
        <ele>143.0</ele>
        <time>2016-05-08T08:43:33.000Z</time>
      </trkpt>
      <trkpt lon="2.4521052837371826" lat="49.1335830688476562">
        <ele>143.0</ele>
        <time>2016-05-08T08:43:35.000Z</time>
      </trkpt>
      <trkpt lon="2.4521052837371826" lat="49.1335830688476562">
        <ele>143.0</ele>
        <time>2016-05-08T08:43:37.000Z</time>
      </trkpt>
      <trkpt lon="2.4521052837371826" lat="49.1335830688476562">
        <ele>143.0</ele>
        <time>2016-05-08T08:43:39.000Z</time>
      </trkpt>
      <trkpt lon="2.4514293670654297" lat="49.1336288452148438">
        <ele>144.0</ele>
        <time>2016-05-08T08:43:43.000Z</time>
      </trkpt>
      <trkpt lon="2.4512929916381836" lat="49.1335906982421875">
        <ele>144.0</ele>
        <time>2016-05-08T08:43:47.000Z</time>
      </trkpt>
      <trkpt lon="2.4512929916381836" lat="49.1335906982421875">
        <ele>144.0</ele>
        <time>2016-05-08T08:43:49.000Z</time>
      </trkpt>
      <trkpt lon="2.4510862827301025" lat="49.1335525512695312">
        <ele>144.0</ele>
        <time>2016-05-08T08:43:53.000Z</time>
      </trkpt>
      <trkpt lon="2.4508528709411621" lat="49.1335258483886719">
        <ele>145.0</ele>
        <time>2016-05-08T08:43:57.000Z</time>
      </trkpt>
      <trkpt lon="2.4507026672363281" lat="49.1335067749023438">
        <ele>144.0</ele>
        <time>2016-05-08T08:44:01.000Z</time>
      </trkpt>
      <trkpt lon="2.4507026672363281" lat="49.1335067749023438">
        <ele>144.0</ele>
        <time>2016-05-08T08:44:03.000Z</time>
      </trkpt>
      <trkpt lon="2.4507026672363281" lat="49.1335067749023438">
        <ele>144.0</ele>
        <time>2016-05-08T08:44:05.000Z</time>
      </trkpt>
      <trkpt lon="2.4507026672363281" lat="49.1335067749023438">
        <ele>144.0</ele>
        <time>2016-05-08T08:44:07.000Z</time>
      </trkpt>
      <trkpt lon="2.4507026672363281" lat="49.1335067749023438">
        <ele>144.0</ele>
        <time>2016-05-08T08:44:09.000Z</time>
      </trkpt>
      <trkpt lon="2.4507026672363281" lat="49.1335067749023438">
        <ele>144.0</ele>
        <time>2016-05-08T08:44:11.000Z</time>
      </trkpt>
      <trkpt lon="2.4504761695861816" lat="49.1335067749023438">
        <ele>144.0</ele>
        <time>2016-05-08T08:44:15.000Z</time>
      </trkpt>
      <trkpt lon="2.4503195285797119" lat="49.1335029602050781">
        <ele>146.0</ele>
        <time>2016-05-08T08:44:17.000Z</time>
      </trkpt>
      <trkpt lon="2.4502034187316895" lat="49.1334915161132812">
        <ele>146.0</ele>
        <time>2016-05-08T08:44:19.000Z</time>
      </trkpt>
      <trkpt lon="2.4500875473022461" lat="49.1334724426269531">
        <ele>143.0</ele>
        <time>2016-05-08T08:44:21.000Z</time>
      </trkpt>
      <trkpt lon="2.4500031471252441" lat="49.1334648132324219">
        <ele>147.0</ele>
        <time>2016-05-08T08:44:24.000Z</time>
      </trkpt>
      <trkpt lon="2.4500031471252441" lat="49.1334648132324219">
        <ele>147.0</ele>
        <time>2016-05-08T08:44:26.000Z</time>
      </trkpt>
      <trkpt lon="2.4500031471252441" lat="49.1334648132324219">
        <ele>147.0</ele>
        <time>2016-05-08T08:44:28.000Z</time>
      </trkpt>
      <trkpt lon="2.4500031471252441" lat="49.1334648132324219">
        <ele>147.0</ele>
        <time>2016-05-08T08:44:30.000Z</time>
      </trkpt>
      <trkpt lon="2.4500031471252441" lat="49.1334648132324219">
        <ele>147.0</ele>
        <time>2016-05-08T08:44:32.000Z</time>
      </trkpt>
      <trkpt lon="2.4500031471252441" lat="49.1334648132324219">
        <ele>147.0</ele>
        <time>2016-05-08T08:44:34.000Z</time>
      </trkpt>
      <trkpt lon="2.4494976997375488" lat="49.1332664489746094">
        <ele>144.0</ele>
        <time>2016-05-08T08:44:38.000Z</time>
      </trkpt>
      <trkpt lon="2.4493463039398193" lat="49.1332359313964844">
        <ele>141.0</ele>
        <time>2016-05-08T08:44:42.000Z</time>
      </trkpt>
      <trkpt lon="2.4492182731628418" lat="49.1331901550292969">
        <ele>139.0</ele>
        <time>2016-05-08T08:44:46.000Z</time>
      </trkpt>
      <trkpt lon="2.4491190910339355" lat="49.1331138610839844">
        <ele>140.0</ele>
        <time>2016-05-08T08:44:50.000Z</time>
      </trkpt>
      <trkpt lon="2.4491190910339355" lat="49.1331138610839844">
        <ele>140.0</ele>
        <time>2016-05-08T08:44:52.000Z</time>
      </trkpt>
      <trkpt lon="2.4491190910339355" lat="49.1331138610839844">
        <ele>140.0</ele>
        <time>2016-05-08T08:44:54.000Z</time>
      </trkpt>
      <trkpt lon="2.4491190910339355" lat="49.1331138610839844">
        <ele>140.0</ele>
        <time>2016-05-08T08:44:56.000Z</time>
      </trkpt>
      <trkpt lon="2.4491190910339355" lat="49.1331138610839844">
        <ele>140.0</ele>
        <time>2016-05-08T08:44:58.000Z</time>
      </trkpt>
      <trkpt lon="2.4491190910339355" lat="49.1331138610839844">
        <ele>140.0</ele>
        <time>2016-05-08T08:45:00.000Z</time>
      </trkpt>
      <trkpt lon="2.4491190910339355" lat="49.1331138610839844">
        <ele>140.0</ele>
        <time>2016-05-08T08:45:02.000Z</time>
      </trkpt>
      <trkpt lon="2.4492344856262207" lat="49.1330680847167969">
        <ele>150.0</ele>
        <time>2016-05-08T08:45:06.000Z</time>
      </trkpt>
      <trkpt lon="2.4492344856262207" lat="49.1330680847167969">
        <ele>150.0</ele>
        <time>2016-05-08T08:45:08.000Z</time>
      </trkpt>
      <trkpt lon="2.4492344856262207" lat="49.1330680847167969">
        <ele>150.0</ele>
        <time>2016-05-08T08:45:10.000Z</time>
      </trkpt>
      <trkpt lon="2.4492344856262207" lat="49.1330680847167969">
        <ele>150.0</ele>
        <time>2016-05-08T08:45:18.000Z</time>
      </trkpt>
      <trkpt lon="2.4492344856262207" lat="49.1330680847167969">
        <ele>150.0</ele>
        <time>2016-05-08T08:45:20.000Z</time>
      </trkpt>
      <trkpt lon="2.4492344856262207" lat="49.1330680847167969">
        <ele>150.0</ele>
        <time>2016-05-08T08:45:22.000Z</time>
      </trkpt>
      <trkpt lon="2.4492344856262207" lat="49.1330680847167969">
        <ele>150.0</ele>
        <time>2016-05-08T08:45:24.000Z</time>
      </trkpt>
      <trkpt lon="2.4494390487670898" lat="49.1329345703125000">
        <ele>158.0</ele>
        <time>2016-05-08T08:45:26.000Z</time>
      </trkpt>
      <trkpt lon="2.4494390487670898" lat="49.1329345703125000">
        <ele>158.0</ele>
        <time>2016-05-08T08:45:34.000Z</time>
      </trkpt>
      <trkpt lon="2.4494390487670898" lat="49.1329345703125000">
        <ele>158.0</ele>
        <time>2016-05-08T08:45:36.000Z</time>
      </trkpt>
      <trkpt lon="2.4493830204010010" lat="49.1328392028808594">
        <ele>161.0</ele>
        <time>2016-05-08T08:45:44.000Z</time>
      </trkpt>
      <trkpt lon="2.4493467807769775" lat="49.1327857971191406">
        <ele>162.0</ele>
        <time>2016-05-08T08:45:46.000Z</time>
      </trkpt>
      <trkpt lon="2.4493126869201660" lat="49.1327285766601562">
        <ele>161.0</ele>
        <time>2016-05-08T08:45:50.000Z</time>
      </trkpt>
      <trkpt lon="2.4492769241333008" lat="49.1326828002929688">
        <ele>160.0</ele>
        <time>2016-05-08T08:45:54.000Z</time>
      </trkpt>
      <trkpt lon="2.4492769241333008" lat="49.1326828002929688">
        <ele>160.0</ele>
        <time>2016-05-08T08:45:56.000Z</time>
      </trkpt>
      <trkpt lon="2.4492769241333008" lat="49.1326828002929688">
        <ele>160.0</ele>
        <time>2016-05-08T08:45:58.000Z</time>
      </trkpt>
      <trkpt lon="2.4492769241333008" lat="49.1326828002929688">
        <ele>160.0</ele>
        <time>2016-05-08T08:46:04.000Z</time>
      </trkpt>
      <trkpt lon="2.4492769241333008" lat="49.1326828002929688">
        <ele>160.0</ele>
        <time>2016-05-08T08:46:06.000Z</time>
      </trkpt>
      <trkpt lon="2.4492769241333008" lat="49.1326828002929688">
        <ele>160.0</ele>
        <time>2016-05-08T08:46:08.000Z</time>
      </trkpt>
      <trkpt lon="2.4492769241333008" lat="49.1326828002929688">
        <ele>160.0</ele>
        <time>2016-05-08T08:46:10.000Z</time>
      </trkpt>
      <trkpt lon="2.4492769241333008" lat="49.1326828002929688">
        <ele>160.0</ele>
        <time>2016-05-08T08:46:12.000Z</time>
      </trkpt>
      <trkpt lon="2.4492769241333008" lat="49.1326828002929688">
        <ele>160.0</ele>
        <time>2016-05-08T08:46:14.000Z</time>
      </trkpt>
      <trkpt lon="2.4492769241333008" lat="49.1326828002929688">
        <ele>160.0</ele>
        <time>2016-05-08T08:46:16.000Z</time>
      </trkpt>
      <trkpt lon="2.4490752220153809" lat="49.1322212219238281">
        <ele>165.0</ele>
        <time>2016-05-08T08:47:19.000Z</time>
      </trkpt>
      <trkpt lon="2.4490752220153809" lat="49.1322212219238281">
        <ele>165.0</ele>
        <time>2016-05-08T08:47:21.000Z</time>
      </trkpt>
      <trkpt lon="2.4490752220153809" lat="49.1322212219238281">
        <ele>165.0</ele>
        <time>2016-05-08T08:47:23.000Z</time>
      </trkpt>
      <trkpt lon="2.4491038322448730" lat="49.1320381164550781">
        <ele>166.0</ele>
        <time>2016-05-08T08:47:54.000Z</time>
      </trkpt>
      <trkpt lon="2.4491038322448730" lat="49.1320381164550781">
        <ele>166.0</ele>
        <time>2016-05-08T08:47:56.000Z</time>
      </trkpt>
      <trkpt lon="2.4491038322448730" lat="49.1320381164550781">
        <ele>166.0</ele>
        <time>2016-05-08T08:47:58.000Z</time>
      </trkpt>
      <trkpt lon="2.4491038322448730" lat="49.1320381164550781">
        <ele>166.0</ele>
        <time>2016-05-08T08:48:00.000Z</time>
      </trkpt>
      <trkpt lon="2.4491038322448730" lat="49.1320381164550781">
        <ele>166.0</ele>
        <time>2016-05-08T08:48:02.000Z</time>
      </trkpt>
      <trkpt lon="2.4491670131683350" lat="49.1318778991699219">
        <ele>168.0</ele>
        <time>2016-05-08T08:48:06.000Z</time>
      </trkpt>
      <trkpt lon="2.4491670131683350" lat="49.1318778991699219">
        <ele>168.0</ele>
        <time>2016-05-08T08:48:08.000Z</time>
      </trkpt>
      <trkpt lon="2.4491670131683350" lat="49.1318778991699219">
        <ele>168.0</ele>
        <time>2016-05-08T08:48:10.000Z</time>
      </trkpt>
      <trkpt lon="2.4491670131683350" lat="49.1318778991699219">
        <ele>168.0</ele>
        <time>2016-05-08T08:48:12.000Z</time>
      </trkpt>
      <trkpt lon="2.4491739273071289" lat="49.1316757202148438">
        <ele>170.0</ele>
        <time>2016-05-08T08:48:18.000Z</time>
      </trkpt>
      <trkpt lon="2.4491848945617676" lat="49.1315727233886719">
        <ele>169.0</ele>
        <time>2016-05-08T08:48:24.000Z</time>
      </trkpt>
      <trkpt lon="2.4492075443267822" lat="49.1314697265625000">
        <ele>169.0</ele>
        <time>2016-05-08T08:48:30.000Z</time>
      </trkpt>
      <trkpt lon="2.4492075443267822" lat="49.1314697265625000">
        <ele>169.0</ele>
        <time>2016-05-08T08:48:32.000Z</time>
      </trkpt>
      <trkpt lon="2.4492075443267822" lat="49.1314697265625000">
        <ele>169.0</ele>
        <time>2016-05-08T08:48:34.000Z</time>
      </trkpt>
      <trkpt lon="2.4492075443267822" lat="49.1314697265625000">
        <ele>169.0</ele>
        <time>2016-05-08T08:48:36.000Z</time>
      </trkpt>
      <trkpt lon="2.4492163658142090" lat="49.1312980651855469">
        <ele>170.0</ele>
        <time>2016-05-08T08:48:38.000Z</time>
      </trkpt>
      <trkpt lon="2.4492163658142090" lat="49.1312980651855469">
        <ele>170.0</ele>
        <time>2016-05-08T08:48:42.000Z</time>
      </trkpt>
      <trkpt lon="2.4492638111114502" lat="49.1311836242675781">
        <ele>167.0</ele>
        <time>2016-05-08T08:48:44.000Z</time>
      </trkpt>
      <trkpt lon="2.4492931365966797" lat="49.1310920715332031">
        <ele>167.0</ele>
        <time>2016-05-08T08:48:48.000Z</time>
      </trkpt>
      <trkpt lon="2.4492962360382080" lat="49.1309547424316406">
        <ele>164.0</ele>
        <time>2016-05-08T08:48:52.000Z</time>
      </trkpt>
      <trkpt lon="2.4492962360382080" lat="49.1309547424316406">
        <ele>164.0</ele>
        <time>2016-05-08T08:48:54.000Z</time>
      </trkpt>
      <trkpt lon="2.4493083953857422" lat="49.1308135986328125">
        <ele>165.0</ele>
        <time>2016-05-08T08:48:56.000Z</time>
      </trkpt>
      <trkpt lon="2.4493162631988525" lat="49.1306991577148438">
        <ele>168.0</ele>
        <time>2016-05-08T08:49:00.000Z</time>
      </trkpt>
      <trkpt lon="2.4493172168731689" lat="49.1305618286132812">
        <ele>168.0</ele>
        <time>2016-05-08T08:49:04.000Z</time>
      </trkpt>
      <trkpt lon="2.4493615627288818" lat="49.1304550170898438">
        <ele>166.0</ele>
        <time>2016-05-08T08:49:08.000Z</time>
      </trkpt>
      <trkpt lon="2.4493615627288818" lat="49.1304550170898438">
        <ele>166.0</ele>
        <time>2016-05-08T08:49:10.000Z</time>
      </trkpt>
      <trkpt lon="2.4493837356567383" lat="49.1303062438964844">
        <ele>165.0</ele>
        <time>2016-05-08T08:49:12.000Z</time>
      </trkpt>
      <trkpt lon="2.4494290351867676" lat="49.1301803588867188">
        <ele>163.0</ele>
        <time>2016-05-08T08:49:16.000Z</time>
      </trkpt>
      <trkpt lon="2.4494442939758301" lat="49.1300392150878906">
        <ele>160.0</ele>
        <time>2016-05-08T08:49:20.000Z</time>
      </trkpt>
      <trkpt lon="2.4494607448577881" lat="49.1298637390136719">
        <ele>160.0</ele>
        <time>2016-05-08T08:49:24.000Z</time>
      </trkpt>
      <trkpt lon="2.4494757652282715" lat="49.1297874450683594">
        <ele>161.0</ele>
        <time>2016-05-08T08:49:28.000Z</time>
      </trkpt>
      <trkpt lon="2.4494757652282715" lat="49.1297874450683594">
        <ele>161.0</ele>
        <time>2016-05-08T08:49:30.000Z</time>
      </trkpt>
      <trkpt lon="2.4494757652282715" lat="49.1297874450683594">
        <ele>161.0</ele>
        <time>2016-05-08T08:49:32.000Z</time>
      </trkpt>
      <trkpt lon="2.4495110511779785" lat="49.1295852661132812">
        <ele>160.0</ele>
        <time>2016-05-08T08:49:36.000Z</time>
      </trkpt>
      <trkpt lon="2.4495110511779785" lat="49.1295852661132812">
        <ele>160.0</ele>
        <time>2016-05-08T08:49:38.000Z</time>
      </trkpt>
      <trkpt lon="2.4495110511779785" lat="49.1295852661132812">
        <ele>160.0</ele>
        <time>2016-05-08T08:49:40.000Z</time>
      </trkpt>
      <trkpt lon="2.4495110511779785" lat="49.1295852661132812">
        <ele>160.0</ele>
        <time>2016-05-08T08:49:42.000Z</time>
      </trkpt>
      <trkpt lon="2.4495110511779785" lat="49.1295852661132812">
        <ele>160.0</ele>
        <time>2016-05-08T08:49:44.000Z</time>
      </trkpt>
      <trkpt lon="2.4495110511779785" lat="49.1295852661132812">
        <ele>160.0</ele>
        <time>2016-05-08T08:49:46.000Z</time>
      </trkpt>
      <trkpt lon="2.4495110511779785" lat="49.1295852661132812">
        <ele>160.0</ele>
        <time>2016-05-08T08:49:48.000Z</time>
      </trkpt>
      <trkpt lon="2.4495832920074463" lat="49.1292533874511719">
        <ele>164.0</ele>
        <time>2016-05-08T08:49:54.000Z</time>
      </trkpt>
      <trkpt lon="2.4495832920074463" lat="49.1292533874511719">
        <ele>164.0</ele>
        <time>2016-05-08T08:49:56.000Z</time>
      </trkpt>
      <trkpt lon="2.4496266841888428" lat="49.1290168762207031">
        <ele>165.0</ele>
        <time>2016-05-08T08:49:58.000Z</time>
      </trkpt>
      <trkpt lon="2.4496521949768066" lat="49.1288642883300781">
        <ele>164.0</ele>
        <time>2016-05-08T08:50:00.000Z</time>
      </trkpt>
      <trkpt lon="2.4496660232543945" lat="49.1287384033203125">
        <ele>164.0</ele>
        <time>2016-05-08T08:50:02.000Z</time>
      </trkpt>
      <trkpt lon="2.4496712684631348" lat="49.1286277770996094">
        <ele>163.0</ele>
        <time>2016-05-08T08:50:05.000Z</time>
      </trkpt>
      <trkpt lon="2.4496793746948242" lat="49.1285324096679688">
        <ele>163.0</ele>
        <time>2016-05-08T08:50:07.000Z</time>
      </trkpt>
      <trkpt lon="2.4497067928314209" lat="49.1283645629882812">
        <ele>163.0</ele>
        <time>2016-05-08T08:50:09.000Z</time>
      </trkpt>
      <trkpt lon="2.4497282505035400" lat="49.1282730102539062">
        <ele>163.0</ele>
        <time>2016-05-08T08:50:11.000Z</time>
      </trkpt>
      <trkpt lon="2.4497265815734863" lat="49.1281776428222656">
        <ele>161.0</ele>
        <time>2016-05-08T08:50:13.000Z</time>
      </trkpt>
      <trkpt lon="2.4497392177581787" lat="49.1280403137207031">
        <ele>160.0</ele>
        <time>2016-05-08T08:50:15.000Z</time>
      </trkpt>
      <trkpt lon="2.4497549533843994" lat="49.1279411315917969">
        <ele>157.0</ele>
        <time>2016-05-08T08:50:17.000Z</time>
      </trkpt>
      <trkpt lon="2.4498155117034912" lat="49.1278572082519531">
        <ele>156.0</ele>
        <time>2016-05-08T08:50:19.000Z</time>
      </trkpt>
      <trkpt lon="2.4498155117034912" lat="49.1278572082519531">
        <ele>156.0</ele>
        <time>2016-05-08T08:50:21.000Z</time>
      </trkpt>
      <trkpt lon="2.4498155117034912" lat="49.1278572082519531">
        <ele>156.0</ele>
        <time>2016-05-08T08:50:23.000Z</time>
      </trkpt>
      <trkpt lon="2.4498155117034912" lat="49.1278572082519531">
        <ele>156.0</ele>
        <time>2016-05-08T08:50:25.000Z</time>
      </trkpt>
      <trkpt lon="2.4495522975921631" lat="49.1275444030761719">
        <ele>150.0</ele>
        <time>2016-05-08T08:50:30.000Z</time>
      </trkpt>
      <trkpt lon="2.4494118690490723" lat="49.1274719238281250">
        <ele>151.0</ele>
        <time>2016-05-08T08:50:32.000Z</time>
      </trkpt>
      <trkpt lon="2.4492926597595215" lat="49.1273498535156250">
        <ele>150.0</ele>
        <time>2016-05-08T08:50:34.000Z</time>
      </trkpt>
      <trkpt lon="2.4492583274841309" lat="49.1271934509277344">
        <ele>147.0</ele>
        <time>2016-05-08T08:50:36.000Z</time>
      </trkpt>
      <trkpt lon="2.4492735862731934" lat="49.1267166137695312">
        <ele>145.0</ele>
        <time>2016-05-08T08:50:40.000Z</time>
      </trkpt>
      <trkpt lon="2.4493255615234375" lat="49.1265296936035156">
        <ele>145.0</ele>
        <time>2016-05-08T08:50:42.000Z</time>
      </trkpt>
      <trkpt lon="2.4494266510009766" lat="49.1261711120605469">
        <ele>139.0</ele>
        <time>2016-05-08T08:50:45.000Z</time>
      </trkpt>
      <trkpt lon="2.4495067596435547" lat="49.1257896423339844">
        <ele>132.0</ele>
        <time>2016-05-08T08:50:51.000Z</time>
      </trkpt>
      <trkpt lon="2.4495043754577637" lat="49.1256294250488281">
        <ele>130.0</ele>
        <time>2016-05-08T08:50:53.000Z</time>
      </trkpt>
      <trkpt lon="2.4495179653167725" lat="49.1254692077636719">
        <ele>130.0</ele>
        <time>2016-05-08T08:50:55.000Z</time>
      </trkpt>
      <trkpt lon="2.4495232105255127" lat="49.1253318786621094">
        <ele>131.0</ele>
        <time>2016-05-08T08:50:58.000Z</time>
      </trkpt>
      <trkpt lon="2.4495232105255127" lat="49.1253318786621094">
        <ele>131.0</ele>
        <time>2016-05-08T08:51:00.000Z</time>
      </trkpt>
      <trkpt lon="2.4495232105255127" lat="49.1253318786621094">
        <ele>131.0</ele>
        <time>2016-05-08T08:51:02.000Z</time>
      </trkpt>
      <trkpt lon="2.4495232105255127" lat="49.1253318786621094">
        <ele>131.0</ele>
        <time>2016-05-08T08:51:04.000Z</time>
      </trkpt>
      <trkpt lon="2.4495232105255127" lat="49.1253318786621094">
        <ele>131.0</ele>
        <time>2016-05-08T08:51:06.000Z</time>
      </trkpt>
      <trkpt lon="2.4495232105255127" lat="49.1253318786621094">
        <ele>131.0</ele>
        <time>2016-05-08T08:51:08.000Z</time>
      </trkpt>
      <trkpt lon="2.4495232105255127" lat="49.1253318786621094">
        <ele>131.0</ele>
        <time>2016-05-08T08:51:10.000Z</time>
      </trkpt>
      <trkpt lon="2.4495232105255127" lat="49.1253318786621094">
        <ele>131.0</ele>
        <time>2016-05-08T08:51:12.000Z</time>
      </trkpt>
      <trkpt lon="2.4493064880371094" lat="49.1249656677246094">
        <ele>133.0</ele>
        <time>2016-05-08T08:51:49.000Z</time>
      </trkpt>
      <trkpt lon="2.4493064880371094" lat="49.1249656677246094">
        <ele>133.0</ele>
        <time>2016-05-08T08:51:51.000Z</time>
      </trkpt>
      <trkpt lon="2.4492337703704834" lat="49.1248550415039062">
        <ele>136.0</ele>
        <time>2016-05-08T08:51:55.000Z</time>
      </trkpt>
      <trkpt lon="2.4491810798645020" lat="49.1247558593750000">
        <ele>134.0</ele>
        <time>2016-05-08T08:51:59.000Z</time>
      </trkpt>
      <trkpt lon="2.4490742683410645" lat="49.1246414184570312">
        <ele>134.0</ele>
        <time>2016-05-08T08:52:03.000Z</time>
      </trkpt>
      <trkpt lon="2.4489886760711670" lat="49.1245613098144531">
        <ele>132.0</ele>
        <time>2016-05-08T08:52:07.000Z</time>
      </trkpt>
      <trkpt lon="2.4489886760711670" lat="49.1245613098144531">
        <ele>132.0</ele>
        <time>2016-05-08T08:52:09.000Z</time>
      </trkpt>
      <trkpt lon="2.4489297866821289" lat="49.1244468688964844">
        <ele>129.0</ele>
        <time>2016-05-08T08:52:11.000Z</time>
      </trkpt>
      <trkpt lon="2.4489297866821289" lat="49.1244468688964844">
        <ele>129.0</ele>
        <time>2016-05-08T08:52:13.000Z</time>
      </trkpt>
      <trkpt lon="2.4489297866821289" lat="49.1244468688964844">
        <ele>129.0</ele>
        <time>2016-05-08T08:52:15.000Z</time>
      </trkpt>
      <trkpt lon="2.4488253593444824" lat="49.1242713928222656">
        <ele>132.0</ele>
        <time>2016-05-08T08:52:19.000Z</time>
      </trkpt>
      <trkpt lon="2.4488253593444824" lat="49.1242713928222656">
        <ele>132.0</ele>
        <time>2016-05-08T08:52:21.000Z</time>
      </trkpt>
      <trkpt lon="2.4487674236297607" lat="49.1240844726562500">
        <ele>130.0</ele>
        <time>2016-05-08T08:52:25.000Z</time>
      </trkpt>
      <trkpt lon="2.4486844539642334" lat="49.1239433288574219">
        <ele>127.0</ele>
        <time>2016-05-08T08:52:29.000Z</time>
      </trkpt>
      <trkpt lon="2.4486362934112549" lat="49.1237640380859375">
        <ele>126.0</ele>
        <time>2016-05-08T08:52:33.000Z</time>
      </trkpt>
      <trkpt lon="2.4486336708068848" lat="49.1236610412597656">
        <ele>127.0</ele>
        <time>2016-05-08T08:52:35.000Z</time>
      </trkpt>
      <trkpt lon="2.4486088752746582" lat="49.1235084533691406">
        <ele>126.0</ele>
        <time>2016-05-08T08:52:39.000Z</time>
      </trkpt>
      <trkpt lon="2.4486124515533447" lat="49.1233596801757812">
        <ele>124.0</ele>
        <time>2016-05-08T08:52:43.000Z</time>
      </trkpt>
      <trkpt lon="2.4486124515533447" lat="49.1233596801757812">
        <ele>124.0</ele>
        <time>2016-05-08T08:52:45.000Z</time>
      </trkpt>
      <trkpt lon="2.4486124515533447" lat="49.1233596801757812">
        <ele>124.0</ele>
        <time>2016-05-08T08:52:47.000Z</time>
      </trkpt>
      <trkpt lon="2.4486124515533447" lat="49.1233596801757812">
        <ele>124.0</ele>
        <time>2016-05-08T08:52:49.000Z</time>
      </trkpt>
      <trkpt lon="2.4486124515533447" lat="49.1233596801757812">
        <ele>124.0</ele>
        <time>2016-05-08T08:52:52.000Z</time>
      </trkpt>
      <trkpt lon="2.4492328166961670" lat="49.1229171752929688">
        <ele>123.0</ele>
        <time>2016-05-08T08:53:02.000Z</time>
      </trkpt>
      <trkpt lon="2.4493875503540039" lat="49.1227912902832031">
        <ele>121.0</ele>
        <time>2016-05-08T08:53:06.000Z</time>
      </trkpt>
      <trkpt lon="2.4493875503540039" lat="49.1227912902832031">
        <ele>121.0</ele>
        <time>2016-05-08T08:53:08.000Z</time>
      </trkpt>
      <trkpt lon="2.4495115280151367" lat="49.1226692199707031">
        <ele>123.0</ele>
        <time>2016-05-08T08:53:10.000Z</time>
      </trkpt>
      <trkpt lon="2.4496257305145264" lat="49.1225585937500000">
        <ele>121.0</ele>
        <time>2016-05-08T08:53:14.000Z</time>
      </trkpt>
      <trkpt lon="2.4496257305145264" lat="49.1225585937500000">
        <ele>121.0</ele>
        <time>2016-05-08T08:53:16.000Z</time>
      </trkpt>
      <trkpt lon="2.4496257305145264" lat="49.1225585937500000">
        <ele>121.0</ele>
        <time>2016-05-08T08:53:18.000Z</time>
      </trkpt>
      <trkpt lon="2.4496257305145264" lat="49.1225585937500000">
        <ele>121.0</ele>
        <time>2016-05-08T08:53:20.000Z</time>
      </trkpt>
      <trkpt lon="2.4496257305145264" lat="49.1225585937500000">
        <ele>121.0</ele>
        <time>2016-05-08T08:53:22.000Z</time>
      </trkpt>
      <trkpt lon="2.4496257305145264" lat="49.1225585937500000">
        <ele>121.0</ele>
        <time>2016-05-08T08:53:24.000Z</time>
      </trkpt>
      <trkpt lon="2.4496257305145264" lat="49.1225585937500000">
        <ele>121.0</ele>
        <time>2016-05-08T08:53:30.000Z</time>
      </trkpt>
      <trkpt lon="2.4496257305145264" lat="49.1225585937500000">
        <ele>121.0</ele>
        <time>2016-05-08T08:53:32.000Z</time>
      </trkpt>
      <trkpt lon="2.4496257305145264" lat="49.1225585937500000">
        <ele>121.0</ele>
        <time>2016-05-08T08:53:34.000Z</time>
      </trkpt>
      <trkpt lon="2.4497604370117188" lat="49.1222763061523438">
        <ele>126.0</ele>
        <time>2016-05-08T08:53:38.000Z</time>
      </trkpt>
      <trkpt lon="2.4498260021209717" lat="49.1221046447753906">
        <ele>128.0</ele>
        <time>2016-05-08T08:53:40.000Z</time>
      </trkpt>
      <trkpt lon="2.4498658180236816" lat="49.1219863891601562">
        <ele>127.0</ele>
        <time>2016-05-08T08:53:42.000Z</time>
      </trkpt>
      <trkpt lon="2.4498894214630127" lat="49.1219024658203125">
        <ele>125.0</ele>
        <time>2016-05-08T08:53:44.000Z</time>
      </trkpt>
      <trkpt lon="2.4499025344848633" lat="49.1218376159667969">
        <ele>126.0</ele>
        <time>2016-05-08T08:53:46.000Z</time>
      </trkpt>
      <trkpt lon="2.4499025344848633" lat="49.1218376159667969">
        <ele>126.0</ele>
        <time>2016-05-08T08:53:48.000Z</time>
      </trkpt>
      <trkpt lon="2.4499635696411133" lat="49.1215858459472656">
        <ele>128.0</ele>
        <time>2016-05-08T08:53:54.000Z</time>
      </trkpt>
      <trkpt lon="2.4499986171722412" lat="49.1214103698730469">
        <ele>127.0</ele>
        <time>2016-05-08T08:53:58.000Z</time>
      </trkpt>
      <trkpt lon="2.4500279426574707" lat="49.1212615966796875">
        <ele>125.0</ele>
        <time>2016-05-08T08:54:02.000Z</time>
      </trkpt>
      <trkpt lon="2.4500322341918945" lat="49.1210975646972656">
        <ele>123.0</ele>
        <time>2016-05-08T08:54:06.000Z</time>
      </trkpt>
      <trkpt lon="2.4500186443328857" lat="49.1209411621093750">
        <ele>121.0</ele>
        <time>2016-05-08T08:54:10.000Z</time>
      </trkpt>
      <trkpt lon="2.4500489234924316" lat="49.1208381652832031">
        <ele>119.0</ele>
        <time>2016-05-08T08:54:12.000Z</time>
      </trkpt>
      <trkpt lon="2.4500718116760254" lat="49.1207504272460938">
        <ele>121.0</ele>
        <time>2016-05-08T08:54:14.000Z</time>
      </trkpt>
      <trkpt lon="2.4500865936279297" lat="49.1206359863281250">
        <ele>121.0</ele>
        <time>2016-05-08T08:54:16.000Z</time>
      </trkpt>
      <trkpt lon="2.4501061439514160" lat="49.1205062866210938">
        <ele>120.0</ele>
        <time>2016-05-08T08:54:18.000Z</time>
      </trkpt>
      <trkpt lon="2.4501135349273682" lat="49.1203804016113281">
        <ele>120.0</ele>
        <time>2016-05-08T08:54:20.000Z</time>
      </trkpt>
      <trkpt lon="2.4501352310180664" lat="49.1202659606933594">
        <ele>118.0</ele>
        <time>2016-05-08T08:54:22.000Z</time>
      </trkpt>
      <trkpt lon="2.4501597881317139" lat="49.1201515197753906">
        <ele>116.0</ele>
        <time>2016-05-08T08:54:24.000Z</time>
      </trkpt>
      <trkpt lon="2.4501709938049316" lat="49.1200523376464844">
        <ele>114.0</ele>
        <time>2016-05-08T08:54:26.000Z</time>
      </trkpt>
      <trkpt lon="2.4501709938049316" lat="49.1200523376464844">
        <ele>114.0</ele>
        <time>2016-05-08T08:54:28.000Z</time>
      </trkpt>
      <trkpt lon="2.4501709938049316" lat="49.1200523376464844">
        <ele>114.0</ele>
        <time>2016-05-08T08:54:30.000Z</time>
      </trkpt>
      <trkpt lon="2.4501709938049316" lat="49.1200523376464844">
        <ele>114.0</ele>
        <time>2016-05-08T08:54:32.000Z</time>
      </trkpt>
      <trkpt lon="2.4501709938049316" lat="49.1200523376464844">
        <ele>114.0</ele>
        <time>2016-05-08T08:54:36.000Z</time>
      </trkpt>
      <trkpt lon="2.4499993324279785" lat="49.1196975708007812">
        <ele>115.0</ele>
        <time>2016-05-08T08:54:40.000Z</time>
      </trkpt>
      <trkpt lon="2.4498016834259033" lat="49.1196746826171875">
        <ele>115.0</ele>
        <time>2016-05-08T08:54:44.000Z</time>
      </trkpt>
      <trkpt lon="2.4498016834259033" lat="49.1196746826171875">
        <ele>115.0</ele>
        <time>2016-05-08T08:54:46.000Z</time>
      </trkpt>
      <trkpt lon="2.4498016834259033" lat="49.1196746826171875">
        <ele>115.0</ele>
        <time>2016-05-08T08:54:48.000Z</time>
      </trkpt>
      <trkpt lon="2.4495019912719727" lat="49.1195449829101562">
        <ele>116.0</ele>
        <time>2016-05-08T08:54:52.000Z</time>
      </trkpt>
      <trkpt lon="2.4493932723999023" lat="49.1194076538085938">
        <ele>114.0</ele>
        <time>2016-05-08T08:54:56.000Z</time>
      </trkpt>
      <trkpt lon="2.4493932723999023" lat="49.1194076538085938">
        <ele>114.0</ele>
        <time>2016-05-08T08:54:58.000Z</time>
      </trkpt>
      <trkpt lon="2.4492156505584717" lat="49.1193695068359375">
        <ele>114.0</ele>
        <time>2016-05-08T08:55:00.000Z</time>
      </trkpt>
      <trkpt lon="2.4490587711334229" lat="49.1193046569824219">
        <ele>116.0</ele>
        <time>2016-05-08T08:55:04.000Z</time>
      </trkpt>
      <trkpt lon="2.4490587711334229" lat="49.1193046569824219">
        <ele>116.0</ele>
        <time>2016-05-08T08:55:06.000Z</time>
      </trkpt>
      <trkpt lon="2.4490587711334229" lat="49.1193046569824219">
        <ele>116.0</ele>
        <time>2016-05-08T08:55:08.000Z</time>
      </trkpt>
      <trkpt lon="2.4487049579620361" lat="49.1190872192382812">
        <ele>120.0</ele>
        <time>2016-05-08T08:55:14.000Z</time>
      </trkpt>
      <trkpt lon="2.4485533237457275" lat="49.1190147399902344">
        <ele>119.0</ele>
        <time>2016-05-08T08:55:18.000Z</time>
      </trkpt>
      <trkpt lon="2.4485533237457275" lat="49.1190147399902344">
        <ele>119.0</ele>
        <time>2016-05-08T08:55:20.000Z</time>
      </trkpt>
      <trkpt lon="2.4483597278594971" lat="49.1188926696777344">
        <ele>118.0</ele>
        <time>2016-05-08T08:55:22.000Z</time>
      </trkpt>
      <trkpt lon="2.4482362270355225" lat="49.1187934875488281">
        <ele>116.0</ele>
        <time>2016-05-08T08:55:24.000Z</time>
      </trkpt>
      <trkpt lon="2.4481036663055420" lat="49.1187133789062500">
        <ele>112.0</ele>
        <time>2016-05-08T08:55:26.000Z</time>
      </trkpt>
      <trkpt lon="2.4479281902313232" lat="49.1186637878417969">
        <ele>109.0</ele>
        <time>2016-05-08T08:55:28.000Z</time>
      </trkpt>
      <trkpt lon="2.4477648735046387" lat="49.1185951232910156">
        <ele>108.0</ele>
        <time>2016-05-08T08:55:30.000Z</time>
      </trkpt>
      <trkpt lon="2.4475796222686768" lat="49.1185607910156250">
        <ele>105.0</ele>
        <time>2016-05-08T08:55:32.000Z</time>
      </trkpt>
      <trkpt lon="2.4474091529846191" lat="49.1185073852539062">
        <ele>102.0</ele>
        <time>2016-05-08T08:55:34.000Z</time>
      </trkpt>
      <trkpt lon="2.4472374916076660" lat="49.1184577941894531">
        <ele>99.0</ele>
        <time>2016-05-08T08:55:36.000Z</time>
      </trkpt>
      <trkpt lon="2.4471013545989990" lat="49.1183891296386719">
        <ele>101.0</ele>
        <time>2016-05-08T08:55:38.000Z</time>
      </trkpt>
      <trkpt lon="2.4471013545989990" lat="49.1183891296386719">
        <ele>101.0</ele>
        <time>2016-05-08T08:55:40.000Z</time>
      </trkpt>
      <trkpt lon="2.4471013545989990" lat="49.1183891296386719">
        <ele>101.0</ele>
        <time>2016-05-08T08:55:42.000Z</time>
      </trkpt>
      <trkpt lon="2.4465403556823730" lat="49.1181221008300781">
        <ele>100.0</ele>
        <time>2016-05-08T08:55:46.000Z</time>
      </trkpt>
      <trkpt lon="2.4463233947753906" lat="49.1180572509765625">
        <ele>97.0</ele>
        <time>2016-05-08T08:55:48.000Z</time>
      </trkpt>
      <trkpt lon="2.4461467266082764" lat="49.1179618835449219">
        <ele>96.0</ele>
        <time>2016-05-08T08:55:50.000Z</time>
      </trkpt>
      <trkpt lon="2.4459352493286133" lat="49.1178703308105469">
        <ele>95.0</ele>
        <time>2016-05-08T08:55:52.000Z</time>
      </trkpt>
      <trkpt lon="2.4457335472106934" lat="49.1177749633789062">
        <ele>93.0</ele>
        <time>2016-05-08T08:55:54.000Z</time>
      </trkpt>
      <trkpt lon="2.4455609321594238" lat="49.1176643371582031">
        <ele>91.0</ele>
        <time>2016-05-08T08:55:56.000Z</time>
      </trkpt>
      <trkpt lon="2.4453651905059814" lat="49.1175994873046875">
        <ele>88.0</ele>
        <time>2016-05-08T08:55:58.000Z</time>
      </trkpt>
      <trkpt lon="2.4452085494995117" lat="49.1175079345703125">
        <ele>87.0</ele>
        <time>2016-05-08T08:56:00.000Z</time>
      </trkpt>
      <trkpt lon="2.4450764656066895" lat="49.1174163818359375">
        <ele>87.0</ele>
        <time>2016-05-08T08:56:02.000Z</time>
      </trkpt>
      <trkpt lon="2.4449758529663086" lat="49.1173248291015625">
        <ele>87.0</ele>
        <time>2016-05-08T08:56:04.000Z</time>
      </trkpt>
      <trkpt lon="2.4449293613433838" lat="49.1172103881835938">
        <ele>88.0</ele>
        <time>2016-05-08T08:56:06.000Z</time>
      </trkpt>
      <trkpt lon="2.4448702335357666" lat="49.1171073913574219">
        <ele>88.0</ele>
        <time>2016-05-08T08:56:08.000Z</time>
      </trkpt>
      <trkpt lon="2.4448702335357666" lat="49.1171073913574219">
        <ele>88.0</ele>
        <time>2016-05-08T08:56:10.000Z</time>
      </trkpt>
      <trkpt lon="2.4448702335357666" lat="49.1171073913574219">
        <ele>88.0</ele>
        <time>2016-05-08T08:56:12.000Z</time>
      </trkpt>
      <trkpt lon="2.4448702335357666" lat="49.1171073913574219">
        <ele>88.0</ele>
        <time>2016-05-08T08:56:14.000Z</time>
      </trkpt>
      <trkpt lon="2.4448702335357666" lat="49.1171073913574219">
        <ele>88.0</ele>
        <time>2016-05-08T08:56:16.000Z</time>
      </trkpt>
      <trkpt lon="2.4448702335357666" lat="49.1171073913574219">
        <ele>88.0</ele>
        <time>2016-05-08T08:56:18.000Z</time>
      </trkpt>
      <trkpt lon="2.4449133872985840" lat="49.1167678833007812">
        <ele>92.0</ele>
        <time>2016-05-08T08:56:26.000Z</time>
      </trkpt>
      <trkpt lon="2.4449458122253418" lat="49.1165466308593750">
        <ele>92.0</ele>
        <time>2016-05-08T08:56:28.000Z</time>
      </trkpt>
      <trkpt lon="2.4449682235717773" lat="49.1163864135742188">
        <ele>92.0</ele>
        <time>2016-05-08T08:56:30.000Z</time>
      </trkpt>
      <trkpt lon="2.4450063705444336" lat="49.1162567138671875">
        <ele>89.0</ele>
        <time>2016-05-08T08:56:32.000Z</time>
      </trkpt>
      <trkpt lon="2.4450421333312988" lat="49.1161460876464844">
        <ele>88.0</ele>
        <time>2016-05-08T08:56:34.000Z</time>
      </trkpt>
      <trkpt lon="2.4451429843902588" lat="49.1159439086914062">
        <ele>87.0</ele>
        <time>2016-05-08T08:56:36.000Z</time>
      </trkpt>
      <trkpt lon="2.4451217651367188" lat="49.1158485412597656">
        <ele>90.0</ele>
        <time>2016-05-08T08:56:38.000Z</time>
      </trkpt>
      <trkpt lon="2.4451153278350830" lat="49.1157531738281250">
        <ele>90.0</ele>
        <time>2016-05-08T08:56:40.000Z</time>
      </trkpt>
      <trkpt lon="2.4451160430908203" lat="49.1156463623046875">
        <ele>89.0</ele>
        <time>2016-05-08T08:56:42.000Z</time>
      </trkpt>
      <trkpt lon="2.4451844692230225" lat="49.1155509948730469">
        <ele>88.0</ele>
        <time>2016-05-08T08:56:44.000Z</time>
      </trkpt>
      <trkpt lon="2.4451844692230225" lat="49.1155509948730469">
        <ele>88.0</ele>
        <time>2016-05-08T08:56:46.000Z</time>
      </trkpt>
      <trkpt lon="2.4451844692230225" lat="49.1155509948730469">
        <ele>88.0</ele>
        <time>2016-05-08T08:56:48.000Z</time>
      </trkpt>
      <trkpt lon="2.4453294277191162" lat="49.1151504516601562">
        <ele>91.0</ele>
        <time>2016-05-08T08:56:52.000Z</time>
      </trkpt>
      <trkpt lon="2.4453830718994141" lat="49.1149711608886719">
        <ele>89.0</ele>
        <time>2016-05-08T08:56:56.000Z</time>
      </trkpt>
      <trkpt lon="2.4453830718994141" lat="49.1149711608886719">
        <ele>89.0</ele>
        <time>2016-05-08T08:56:58.000Z</time>
      </trkpt>
      <trkpt lon="2.4453830718994141" lat="49.1149711608886719">
        <ele>89.0</ele>
        <time>2016-05-08T08:57:00.000Z</time>
      </trkpt>
      <trkpt lon="2.4453830718994141" lat="49.1149711608886719">
        <ele>89.0</ele>
        <time>2016-05-08T08:57:02.000Z</time>
      </trkpt>
      <trkpt lon="2.4449427127838135" lat="49.1146316528320312">
        <ele>93.0</ele>
        <time>2016-05-08T08:57:08.000Z</time>
      </trkpt>
      <trkpt lon="2.4447777271270752" lat="49.1145172119140625">
        <ele>95.0</ele>
        <time>2016-05-08T08:57:12.000Z</time>
      </trkpt>
      <trkpt lon="2.4446470737457275" lat="49.1143608093261719">
        <ele>92.0</ele>
        <time>2016-05-08T08:57:16.000Z</time>
      </trkpt>
      <trkpt lon="2.4446470737457275" lat="49.1143608093261719">
        <ele>92.0</ele>
        <time>2016-05-08T08:57:18.000Z</time>
      </trkpt>
      <trkpt lon="2.4446470737457275" lat="49.1143608093261719">
        <ele>92.0</ele>
        <time>2016-05-08T08:57:20.000Z</time>
      </trkpt>
      <trkpt lon="2.4443902969360352" lat="49.1140785217285156">
        <ele>94.0</ele>
        <time>2016-05-08T08:57:24.000Z</time>
      </trkpt>
      <trkpt lon="2.4442863464355469" lat="49.1139221191406250">
        <ele>94.0</ele>
        <time>2016-05-08T08:57:28.000Z</time>
      </trkpt>
      <trkpt lon="2.4442863464355469" lat="49.1139221191406250">
        <ele>94.0</ele>
        <time>2016-05-08T08:57:30.000Z</time>
      </trkpt>
      <trkpt lon="2.4441406726837158" lat="49.1137847900390625">
        <ele>93.0</ele>
        <time>2016-05-08T08:57:32.000Z</time>
      </trkpt>
      <trkpt lon="2.4441406726837158" lat="49.1137847900390625">
        <ele>93.0</ele>
        <time>2016-05-08T08:57:34.000Z</time>
      </trkpt>
      <trkpt lon="2.4441406726837158" lat="49.1137847900390625">
        <ele>93.0</ele>
        <time>2016-05-08T08:57:38.000Z</time>
      </trkpt>
      <trkpt lon="2.4438488483428955" lat="49.1133613586425781">
        <ele>90.0</ele>
        <time>2016-05-08T08:57:42.000Z</time>
      </trkpt>
      <trkpt lon="2.4438488483428955" lat="49.1133613586425781">
        <ele>90.0</ele>
        <time>2016-05-08T08:57:46.000Z</time>
      </trkpt>
      <trkpt lon="2.4438488483428955" lat="49.1133613586425781">
        <ele>90.0</ele>
        <time>2016-05-08T08:57:48.000Z</time>
      </trkpt>
      <trkpt lon="2.4438488483428955" lat="49.1133613586425781">
        <ele>90.0</ele>
        <time>2016-05-08T08:57:50.000Z</time>
      </trkpt>
      <trkpt lon="2.4438488483428955" lat="49.1133613586425781">
        <ele>90.0</ele>
        <time>2016-05-08T08:57:52.000Z</time>
      </trkpt>
      <trkpt lon="2.4438488483428955" lat="49.1133613586425781">
        <ele>90.0</ele>
        <time>2016-05-08T08:57:54.000Z</time>
      </trkpt>
      <trkpt lon="2.4438488483428955" lat="49.1133613586425781">
        <ele>90.0</ele>
        <time>2016-05-08T08:57:56.000Z</time>
      </trkpt>
      <trkpt lon="2.4438488483428955" lat="49.1133613586425781">
        <ele>90.0</ele>
        <time>2016-05-08T08:57:58.000Z</time>
      </trkpt>
      <trkpt lon="2.4438488483428955" lat="49.1133613586425781">
        <ele>90.0</ele>
        <time>2016-05-08T08:58:00.000Z</time>
      </trkpt>
      <trkpt lon="2.4438488483428955" lat="49.1133613586425781">
        <ele>90.0</ele>
        <time>2016-05-08T08:58:02.000Z</time>
      </trkpt>
      <trkpt lon="2.4435145854949951" lat="49.1130599975585938">
        <ele>88.0</ele>
        <time>2016-05-08T08:58:06.000Z</time>
      </trkpt>
      <trkpt lon="2.4433450698852539" lat="49.1128692626953125">
        <ele>89.0</ele>
        <time>2016-05-08T08:58:08.000Z</time>
      </trkpt>
      <trkpt lon="2.4432640075683594" lat="49.1127510070800781">
        <ele>88.0</ele>
        <time>2016-05-08T08:58:10.000Z</time>
      </trkpt>
      <trkpt lon="2.4432117938995361" lat="49.1126556396484375">
        <ele>89.0</ele>
        <time>2016-05-08T08:58:12.000Z</time>
      </trkpt>
      <trkpt lon="2.4432117938995361" lat="49.1126556396484375">
        <ele>89.0</ele>
        <time>2016-05-08T08:58:14.000Z</time>
      </trkpt>
      <trkpt lon="2.4432117938995361" lat="49.1126556396484375">
        <ele>89.0</ele>
        <time>2016-05-08T08:58:16.000Z</time>
      </trkpt>
      <trkpt lon="2.4431290626525879" lat="49.1124801635742188">
        <ele>87.0</ele>
        <time>2016-05-08T08:58:20.000Z</time>
      </trkpt>
      <trkpt lon="2.4430797100067139" lat="49.1123809814453125">
        <ele>89.0</ele>
        <time>2016-05-08T08:58:22.000Z</time>
      </trkpt>
      <trkpt lon="2.4430310726165771" lat="49.1122970581054688">
        <ele>88.0</ele>
        <time>2016-05-08T08:58:24.000Z</time>
      </trkpt>
      <trkpt lon="2.4429953098297119" lat="49.1122131347656250">
        <ele>88.0</ele>
        <time>2016-05-08T08:58:26.000Z</time>
      </trkpt>
      <trkpt lon="2.4429674148559570" lat="49.1121444702148438">
        <ele>89.0</ele>
        <time>2016-05-08T08:58:28.000Z</time>
      </trkpt>
      <trkpt lon="2.4428865909576416" lat="49.1120071411132812">
        <ele>90.0</ele>
        <time>2016-05-08T08:58:30.000Z</time>
      </trkpt>
      <trkpt lon="2.4428865909576416" lat="49.1120071411132812">
        <ele>90.0</ele>
        <time>2016-05-08T08:58:32.000Z</time>
      </trkpt>
      <trkpt lon="2.4428865909576416" lat="49.1120071411132812">
        <ele>90.0</ele>
        <time>2016-05-08T08:58:34.000Z</time>
      </trkpt>
      <trkpt lon="2.4428865909576416" lat="49.1120071411132812">
        <ele>90.0</ele>
        <time>2016-05-08T08:58:36.000Z</time>
      </trkpt>
      <trkpt lon="2.4428865909576416" lat="49.1120071411132812">
        <ele>90.0</ele>
        <time>2016-05-08T08:58:38.000Z</time>
      </trkpt>
      <trkpt lon="2.4427826404571533" lat="49.1116943359375000">
        <ele>99.0</ele>
        <time>2016-05-08T08:58:41.000Z</time>
      </trkpt>
      <trkpt lon="2.4427826404571533" lat="49.1116943359375000">
        <ele>99.0</ele>
        <time>2016-05-08T08:58:43.000Z</time>
      </trkpt>
      <trkpt lon="2.4427826404571533" lat="49.1116943359375000">
        <ele>99.0</ele>
        <time>2016-05-08T08:58:46.000Z</time>
      </trkpt>
      <trkpt lon="2.4427826404571533" lat="49.1116943359375000">
        <ele>99.0</ele>
        <time>2016-05-08T08:58:48.000Z</time>
      </trkpt>
      <trkpt lon="2.4427826404571533" lat="49.1116943359375000">
        <ele>99.0</ele>
        <time>2016-05-08T08:58:50.000Z</time>
      </trkpt>
      <trkpt lon="2.4427826404571533" lat="49.1116943359375000">
        <ele>99.0</ele>
        <time>2016-05-08T08:58:52.000Z</time>
      </trkpt>
      <trkpt lon="2.4427826404571533" lat="49.1116943359375000">
        <ele>99.0</ele>
        <time>2016-05-08T08:58:54.000Z</time>
      </trkpt>
      <trkpt lon="2.4427826404571533" lat="49.1116943359375000">
        <ele>99.0</ele>
        <time>2016-05-08T08:58:56.000Z</time>
      </trkpt>
      <trkpt lon="2.4425780773162842" lat="49.1111183166503906">
        <ele>104.0</ele>
        <time>2016-05-08T08:59:00.000Z</time>
      </trkpt>
      <trkpt lon="2.4425129890441895" lat="49.1110000610351562">
        <ele>107.0</ele>
        <time>2016-05-08T08:59:04.000Z</time>
      </trkpt>
      <trkpt lon="2.4424874782562256" lat="49.1108665466308594">
        <ele>104.0</ele>
        <time>2016-05-08T08:59:08.000Z</time>
      </trkpt>
      <trkpt lon="2.4424874782562256" lat="49.1108665466308594">
        <ele>104.0</ele>
        <time>2016-05-08T08:59:10.000Z</time>
      </trkpt>
      <trkpt lon="2.4424874782562256" lat="49.1108665466308594">
        <ele>104.0</ele>
        <time>2016-05-08T08:59:12.000Z</time>
      </trkpt>
      <trkpt lon="2.4423813819885254" lat="49.1106567382812500">
        <ele>103.0</ele>
        <time>2016-05-08T08:59:14.000Z</time>
      </trkpt>
      <trkpt lon="2.4422869682312012" lat="49.1105308532714844">
        <ele>103.0</ele>
        <time>2016-05-08T08:59:18.000Z</time>
      </trkpt>
      <trkpt lon="2.4422869682312012" lat="49.1105308532714844">
        <ele>103.0</ele>
        <time>2016-05-08T08:59:20.000Z</time>
      </trkpt>
      <trkpt lon="2.4422869682312012" lat="49.1105308532714844">
        <ele>103.0</ele>
        <time>2016-05-08T08:59:22.000Z</time>
      </trkpt>
      <trkpt lon="2.4422869682312012" lat="49.1105308532714844">
        <ele>103.0</ele>
        <time>2016-05-08T08:59:24.000Z</time>
      </trkpt>
      <trkpt lon="2.4422869682312012" lat="49.1105308532714844">
        <ele>103.0</ele>
        <time>2016-05-08T08:59:28.000Z</time>
      </trkpt>
      <trkpt lon="2.4422869682312012" lat="49.1105308532714844">
        <ele>103.0</ele>
        <time>2016-05-08T08:59:30.000Z</time>
      </trkpt>
      <trkpt lon="2.4422869682312012" lat="49.1105308532714844">
        <ele>103.0</ele>
        <time>2016-05-08T08:59:32.000Z</time>
      </trkpt>
      <trkpt lon="2.4422869682312012" lat="49.1105308532714844">
        <ele>103.0</ele>
        <time>2016-05-08T08:59:36.000Z</time>
      </trkpt>
      <trkpt lon="2.4422869682312012" lat="49.1105308532714844">
        <ele>103.0</ele>
        <time>2016-05-08T08:59:38.000Z</time>
      </trkpt>
      <trkpt lon="2.4416141510009766" lat="49.1099853515625000">
        <ele>103.0</ele>
        <time>2016-05-08T08:59:42.000Z</time>
      </trkpt>
      <trkpt lon="2.4415078163146973" lat="49.1098289489746094">
        <ele>102.0</ele>
        <time>2016-05-08T08:59:46.000Z</time>
      </trkpt>
      <trkpt lon="2.4414222240447998" lat="49.1097908020019531">
        <ele>100.0</ele>
        <time>2016-05-08T08:59:50.000Z</time>
      </trkpt>
      <trkpt lon="2.4413411617279053" lat="49.1097335815429688">
        <ele>100.0</ele>
        <time>2016-05-08T08:59:52.000Z</time>
      </trkpt>
      <trkpt lon="2.4412751197814941" lat="49.1096954345703125">
        <ele>101.0</ele>
        <time>2016-05-08T08:59:54.000Z</time>
      </trkpt>
      <trkpt lon="2.4412751197814941" lat="49.1096954345703125">
        <ele>101.0</ele>
        <time>2016-05-08T08:59:56.000Z</time>
      </trkpt>
      <trkpt lon="2.4412751197814941" lat="49.1096954345703125">
        <ele>101.0</ele>
        <time>2016-05-08T08:59:58.000Z</time>
      </trkpt>
      <trkpt lon="2.4412751197814941" lat="49.1096954345703125">
        <ele>101.0</ele>
        <time>2016-05-08T09:00:06.000Z</time>
      </trkpt>
      <trkpt lon="2.4412751197814941" lat="49.1096954345703125">
        <ele>101.0</ele>
        <time>2016-05-08T09:00:08.000Z</time>
      </trkpt>
      <trkpt lon="2.4409849643707275" lat="49.1094474792480469">
        <ele>105.0</ele>
        <time>2016-05-08T09:00:10.000Z</time>
      </trkpt>
      <trkpt lon="2.4408042430877686" lat="49.1092758178710938">
        <ele>104.0</ele>
        <time>2016-05-08T09:00:12.000Z</time>
      </trkpt>
      <trkpt lon="2.4406676292419434" lat="49.1091575622558594">
        <ele>106.0</ele>
        <time>2016-05-08T09:00:14.000Z</time>
      </trkpt>
      <trkpt lon="2.4405233860015869" lat="49.1090621948242188">
        <ele>105.0</ele>
        <time>2016-05-08T09:00:16.000Z</time>
      </trkpt>
      <trkpt lon="2.4403946399688721" lat="49.1089744567871094">
        <ele>108.0</ele>
        <time>2016-05-08T09:00:18.000Z</time>
      </trkpt>
      <trkpt lon="2.4401440620422363" lat="49.1087722778320312">
        <ele>106.0</ele>
        <time>2016-05-08T09:00:20.000Z</time>
      </trkpt>
      <trkpt lon="2.4399564266204834" lat="49.1086540222167969">
        <ele>102.0</ele>
        <time>2016-05-08T09:00:22.000Z</time>
      </trkpt>
      <trkpt lon="2.4398348331451416" lat="49.1085357666015625">
        <ele>102.0</ele>
        <time>2016-05-08T09:00:24.000Z</time>
      </trkpt>
      <trkpt lon="2.4397540092468262" lat="49.1084213256835938">
        <ele>103.0</ele>
        <time>2016-05-08T09:00:26.000Z</time>
      </trkpt>
      <trkpt lon="2.4397497177124023" lat="49.1083221435546875">
        <ele>105.0</ele>
        <time>2016-05-08T09:00:28.000Z</time>
      </trkpt>
      <trkpt lon="2.4397497177124023" lat="49.1083221435546875">
        <ele>105.0</ele>
        <time>2016-05-08T09:00:30.000Z</time>
      </trkpt>
      <trkpt lon="2.4397497177124023" lat="49.1083221435546875">
        <ele>105.0</ele>
        <time>2016-05-08T09:00:33.000Z</time>
      </trkpt>
      <trkpt lon="2.4397497177124023" lat="49.1083221435546875">
        <ele>105.0</ele>
        <time>2016-05-08T09:00:35.000Z</time>
      </trkpt>
      <trkpt lon="2.4398021697998047" lat="49.1082649230957031">
        <ele>104.0</ele>
        <time>2016-05-08T09:01:51.000Z</time>
      </trkpt>
      <trkpt lon="2.4399545192718506" lat="49.1082458496093750">
        <ele>107.0</ele>
        <time>2016-05-08T09:01:57.000Z</time>
      </trkpt>
      <trkpt lon="2.4402024745941162" lat="49.1081657409667969">
        <ele>107.0</ele>
        <time>2016-05-08T09:02:01.000Z</time>
      </trkpt>
      <trkpt lon="2.4403662681579590" lat="49.1081428527832031">
        <ele>107.0</ele>
        <time>2016-05-08T09:02:03.000Z</time>
      </trkpt>
      <trkpt lon="2.4405295848846436" lat="49.1081504821777344">
        <ele>107.0</ele>
        <time>2016-05-08T09:02:05.000Z</time>
      </trkpt>
      <trkpt lon="2.4407031536102295" lat="49.1081428527832031">
        <ele>107.0</ele>
        <time>2016-05-08T09:02:07.000Z</time>
      </trkpt>
      <trkpt lon="2.4408512115478516" lat="49.1081390380859375">
        <ele>106.0</ele>
        <time>2016-05-08T09:02:09.000Z</time>
      </trkpt>
      <trkpt lon="2.4410140514373779" lat="49.1081466674804688">
        <ele>104.0</ele>
        <time>2016-05-08T09:02:11.000Z</time>
      </trkpt>
      <trkpt lon="2.4410140514373779" lat="49.1081466674804688">
        <ele>104.0</ele>
        <time>2016-05-08T09:02:13.000Z</time>
      </trkpt>
      <trkpt lon="2.4410140514373779" lat="49.1081466674804688">
        <ele>104.0</ele>
        <time>2016-05-08T09:02:15.000Z</time>
      </trkpt>
      <trkpt lon="2.4410140514373779" lat="49.1081466674804688">
        <ele>104.0</ele>
        <time>2016-05-08T09:02:19.000Z</time>
      </trkpt>
      <trkpt lon="2.4418106079101562" lat="49.1081542968750000">
        <ele>101.0</ele>
        <time>2016-05-08T09:02:21.000Z</time>
      </trkpt>
      <trkpt lon="2.4419624805450439" lat="49.1081428527832031">
        <ele>100.0</ele>
        <time>2016-05-08T09:02:23.000Z</time>
      </trkpt>
      <trkpt lon="2.4421186447143555" lat="49.1081466674804688">
        <ele>98.0</ele>
        <time>2016-05-08T09:02:25.000Z</time>
      </trkpt>
      <trkpt lon="2.4422757625579834" lat="49.1081161499023438">
        <ele>97.0</ele>
        <time>2016-05-08T09:02:27.000Z</time>
      </trkpt>
      <trkpt lon="2.4424307346343994" lat="49.1081161499023438">
        <ele>99.0</ele>
        <time>2016-05-08T09:02:29.000Z</time>
      </trkpt>
      <trkpt lon="2.4425837993621826" lat="49.1080856323242188">
        <ele>99.0</ele>
        <time>2016-05-08T09:02:31.000Z</time>
      </trkpt>
      <trkpt lon="2.4428873062133789" lat="49.1080093383789062">
        <ele>99.0</ele>
        <time>2016-05-08T09:02:35.000Z</time>
      </trkpt>
      <trkpt lon="2.4430592060089111" lat="49.1079597473144531">
        <ele>99.0</ele>
        <time>2016-05-08T09:02:37.000Z</time>
      </trkpt>
      <trkpt lon="2.4432256221771240" lat="49.1079254150390625">
        <ele>99.0</ele>
        <time>2016-05-08T09:02:39.000Z</time>
      </trkpt>
      <trkpt lon="2.4433834552764893" lat="49.1078987121582031">
        <ele>99.0</ele>
        <time>2016-05-08T09:02:41.000Z</time>
      </trkpt>
      <trkpt lon="2.4435303211212158" lat="49.1078681945800781">
        <ele>101.0</ele>
        <time>2016-05-08T09:02:43.000Z</time>
      </trkpt>
      <trkpt lon="2.4435303211212158" lat="49.1078681945800781">
        <ele>101.0</ele>
        <time>2016-05-08T09:02:45.000Z</time>
      </trkpt>
      <trkpt lon="2.4435303211212158" lat="49.1078681945800781">
        <ele>101.0</ele>
        <time>2016-05-08T09:02:47.000Z</time>
      </trkpt>
      <trkpt lon="2.4435303211212158" lat="49.1078681945800781">
        <ele>101.0</ele>
        <time>2016-05-08T09:02:55.000Z</time>
      </trkpt>
      <trkpt lon="2.4435303211212158" lat="49.1078681945800781">
        <ele>101.0</ele>
        <time>2016-05-08T09:02:57.000Z</time>
      </trkpt>
      <trkpt lon="2.4435303211212158" lat="49.1078681945800781">
        <ele>101.0</ele>
        <time>2016-05-08T09:02:59.000Z</time>
      </trkpt>
      <trkpt lon="2.4435303211212158" lat="49.1078681945800781">
        <ele>101.0</ele>
        <time>2016-05-08T09:03:01.000Z</time>
      </trkpt>
      <trkpt lon="2.4435303211212158" lat="49.1078681945800781">
        <ele>101.0</ele>
        <time>2016-05-08T09:03:03.000Z</time>
      </trkpt>
      <trkpt lon="2.4435303211212158" lat="49.1078681945800781">
        <ele>101.0</ele>
        <time>2016-05-08T09:03:05.000Z</time>
      </trkpt>
      <trkpt lon="2.4435303211212158" lat="49.1078681945800781">
        <ele>101.0</ele>
        <time>2016-05-08T09:03:07.000Z</time>
      </trkpt>
      <trkpt lon="2.4435303211212158" lat="49.1078681945800781">
        <ele>101.0</ele>
        <time>2016-05-08T09:03:09.000Z</time>
      </trkpt>
      <trkpt lon="2.4435303211212158" lat="49.1078681945800781">
        <ele>101.0</ele>
        <time>2016-05-08T09:03:11.000Z</time>
      </trkpt>
      <trkpt lon="2.4435303211212158" lat="49.1078681945800781">
        <ele>101.0</ele>
        <time>2016-05-08T09:03:13.000Z</time>
      </trkpt>
      <trkpt lon="2.4435303211212158" lat="49.1078681945800781">
        <ele>101.0</ele>
        <time>2016-05-08T09:03:15.000Z</time>
      </trkpt>
      <trkpt lon="2.4448122978210449" lat="49.1072463989257812">
        <ele>97.0</ele>
        <time>2016-05-08T09:03:25.000Z</time>
      </trkpt>
      <trkpt lon="2.4448909759521484" lat="49.1072082519531250">
        <ele>99.0</ele>
        <time>2016-05-08T09:03:31.000Z</time>
      </trkpt>
      <trkpt lon="2.4449510574340820" lat="49.1071777343750000">
        <ele>101.0</ele>
        <time>2016-05-08T09:03:33.000Z</time>
      </trkpt>
      <trkpt lon="2.4449510574340820" lat="49.1071777343750000">
        <ele>101.0</ele>
        <time>2016-05-08T09:03:35.000Z</time>
      </trkpt>
      <trkpt lon="2.4450294971466064" lat="49.1071472167968750">
        <ele>104.0</ele>
        <time>2016-05-08T09:03:37.000Z</time>
      </trkpt>
      <trkpt lon="2.4450957775115967" lat="49.1071205139160156">
        <ele>107.0</ele>
        <time>2016-05-08T09:03:39.000Z</time>
      </trkpt>
      <trkpt lon="2.4451539516448975" lat="49.1070861816406250">
        <ele>108.0</ele>
        <time>2016-05-08T09:03:41.000Z</time>
      </trkpt>
      <trkpt lon="2.4452202320098877" lat="49.1070632934570312">
        <ele>107.0</ele>
        <time>2016-05-08T09:03:43.000Z</time>
      </trkpt>
      <trkpt lon="2.4452810287475586" lat="49.1070365905761719">
        <ele>107.0</ele>
        <time>2016-05-08T09:03:45.000Z</time>
      </trkpt>
      <trkpt lon="2.4454112052917480" lat="49.1069488525390625">
        <ele>106.0</ele>
        <time>2016-05-08T09:03:47.000Z</time>
      </trkpt>
      <trkpt lon="2.4455404281616211" lat="49.1068801879882812">
        <ele>104.0</ele>
        <time>2016-05-08T09:03:51.000Z</time>
      </trkpt>
      <trkpt lon="2.4455404281616211" lat="49.1068801879882812">
        <ele>104.0</ele>
        <time>2016-05-08T09:03:53.000Z</time>
      </trkpt>
      <trkpt lon="2.4455404281616211" lat="49.1068801879882812">
        <ele>104.0</ele>
        <time>2016-05-08T09:03:55.000Z</time>
      </trkpt>
      <trkpt lon="2.4455404281616211" lat="49.1068801879882812">
        <ele>104.0</ele>
        <time>2016-05-08T09:03:57.000Z</time>
      </trkpt>
      <trkpt lon="2.4455404281616211" lat="49.1068801879882812">
        <ele>104.0</ele>
        <time>2016-05-08T09:03:59.000Z</time>
      </trkpt>
      <trkpt lon="2.4455404281616211" lat="49.1068801879882812">
        <ele>104.0</ele>
        <time>2016-05-08T09:04:01.000Z</time>
      </trkpt>
      <trkpt lon="2.4459757804870605" lat="49.1069717407226562">
        <ele>105.0</ele>
        <time>2016-05-08T09:04:05.000Z</time>
      </trkpt>
      <trkpt lon="2.4461357593536377" lat="49.1070594787597656">
        <ele>107.0</ele>
        <time>2016-05-08T09:04:09.000Z</time>
      </trkpt>
      <trkpt lon="2.4462854862213135" lat="49.1071434020996094">
        <ele>107.0</ele>
        <time>2016-05-08T09:04:13.000Z</time>
      </trkpt>
      <trkpt lon="2.4462854862213135" lat="49.1071434020996094">
        <ele>107.0</ele>
        <time>2016-05-08T09:04:15.000Z</time>
      </trkpt>
      <trkpt lon="2.4464275836944580" lat="49.1072387695312500">
        <ele>104.0</ele>
        <time>2016-05-08T09:04:17.000Z</time>
      </trkpt>
      <trkpt lon="2.4465544223785400" lat="49.1073341369628906">
        <ele>107.0</ele>
        <time>2016-05-08T09:04:21.000Z</time>
      </trkpt>
      <trkpt lon="2.4465544223785400" lat="49.1073341369628906">
        <ele>107.0</ele>
        <time>2016-05-08T09:04:23.000Z</time>
      </trkpt>
      <trkpt lon="2.4465544223785400" lat="49.1073341369628906">
        <ele>107.0</ele>
        <time>2016-05-08T09:04:25.000Z</time>
      </trkpt>
      <trkpt lon="2.4465544223785400" lat="49.1073341369628906">
        <ele>107.0</ele>
        <time>2016-05-08T09:04:27.000Z</time>
      </trkpt>
      <trkpt lon="2.4471204280853271" lat="49.1075553894042969">
        <ele>103.0</ele>
        <time>2016-05-08T09:04:37.000Z</time>
      </trkpt>
      <trkpt lon="2.4471204280853271" lat="49.1075553894042969">
        <ele>103.0</ele>
        <time>2016-05-08T09:04:39.000Z</time>
      </trkpt>
      <trkpt lon="2.4471204280853271" lat="49.1075553894042969">
        <ele>103.0</ele>
        <time>2016-05-08T09:04:41.000Z</time>
      </trkpt>
      <trkpt lon="2.4471204280853271" lat="49.1075553894042969">
        <ele>103.0</ele>
        <time>2016-05-08T09:04:43.000Z</time>
      </trkpt>
      <trkpt lon="2.4471204280853271" lat="49.1075553894042969">
        <ele>103.0</ele>
        <time>2016-05-08T09:04:45.000Z</time>
      </trkpt>
      <trkpt lon="2.4471204280853271" lat="49.1075553894042969">
        <ele>103.0</ele>
        <time>2016-05-08T09:04:53.000Z</time>
      </trkpt>
      <trkpt lon="2.4471204280853271" lat="49.1075553894042969">
        <ele>103.0</ele>
        <time>2016-05-08T09:04:55.000Z</time>
      </trkpt>
      <trkpt lon="2.4478685855865479" lat="49.1078224182128906">
        <ele>103.0</ele>
        <time>2016-05-08T09:04:59.000Z</time>
      </trkpt>
      <trkpt lon="2.4478685855865479" lat="49.1078224182128906">
        <ele>103.0</ele>
        <time>2016-05-08T09:05:01.000Z</time>
      </trkpt>
      <trkpt lon="2.4478685855865479" lat="49.1078224182128906">
        <ele>103.0</ele>
        <time>2016-05-08T09:05:03.000Z</time>
      </trkpt>
      <trkpt lon="2.4478685855865479" lat="49.1078224182128906">
        <ele>103.0</ele>
        <time>2016-05-08T09:05:09.000Z</time>
      </trkpt>
      <trkpt lon="2.4478685855865479" lat="49.1078224182128906">
        <ele>103.0</ele>
        <time>2016-05-08T09:05:11.000Z</time>
      </trkpt>
      <trkpt lon="2.4478685855865479" lat="49.1078224182128906">
        <ele>103.0</ele>
        <time>2016-05-08T09:05:13.000Z</time>
      </trkpt>
      <trkpt lon="2.4478685855865479" lat="49.1078224182128906">
        <ele>103.0</ele>
        <time>2016-05-08T09:05:19.000Z</time>
      </trkpt>
      <trkpt lon="2.4482293128967285" lat="49.1077308654785156">
        <ele>100.0</ele>
        <time>2016-05-08T09:05:23.000Z</time>
      </trkpt>
      <trkpt lon="2.4484286308288574" lat="49.1076812744140625">
        <ele>102.0</ele>
        <time>2016-05-08T09:05:25.000Z</time>
      </trkpt>
      <trkpt lon="2.4484286308288574" lat="49.1076812744140625">
        <ele>102.0</ele>
        <time>2016-05-08T09:05:27.000Z</time>
      </trkpt>
      <trkpt lon="2.4484286308288574" lat="49.1076812744140625">
        <ele>102.0</ele>
        <time>2016-05-08T09:05:29.000Z</time>
      </trkpt>
      <trkpt lon="2.4484286308288574" lat="49.1076812744140625">
        <ele>102.0</ele>
        <time>2016-05-08T09:05:31.000Z</time>
      </trkpt>
      <trkpt lon="2.4484286308288574" lat="49.1076812744140625">
        <ele>102.0</ele>
        <time>2016-05-08T09:05:33.000Z</time>
      </trkpt>
      <trkpt lon="2.4486536979675293" lat="49.1075897216796875">
        <ele>102.0</ele>
        <time>2016-05-08T09:05:39.000Z</time>
      </trkpt>
      <trkpt lon="2.4487950801849365" lat="49.1075210571289062">
        <ele>101.0</ele>
        <time>2016-05-08T09:05:41.000Z</time>
      </trkpt>
      <trkpt lon="2.4488775730133057" lat="49.1074829101562500">
        <ele>103.0</ele>
        <time>2016-05-08T09:05:43.000Z</time>
      </trkpt>
      <trkpt lon="2.4488775730133057" lat="49.1074829101562500">
        <ele>103.0</ele>
        <time>2016-05-08T09:05:45.000Z</time>
      </trkpt>
      <trkpt lon="2.4488775730133057" lat="49.1074829101562500">
        <ele>103.0</ele>
        <time>2016-05-08T09:05:47.000Z</time>
      </trkpt>
      <trkpt lon="2.4489793777465820" lat="49.1074409484863281">
        <ele>109.0</ele>
        <time>2016-05-08T09:05:51.000Z</time>
      </trkpt>
      <trkpt lon="2.4490482807159424" lat="49.1074142456054688">
        <ele>109.0</ele>
        <time>2016-05-08T09:05:53.000Z</time>
      </trkpt>
      <trkpt lon="2.4490482807159424" lat="49.1074142456054688">
        <ele>109.0</ele>
        <time>2016-05-08T09:05:55.000Z</time>
      </trkpt>
      <trkpt lon="2.4491214752197266" lat="49.1073837280273438">
        <ele>110.0</ele>
        <time>2016-05-08T09:05:57.000Z</time>
      </trkpt>
      <trkpt lon="2.4491214752197266" lat="49.1073837280273438">
        <ele>110.0</ele>
        <time>2016-05-08T09:05:59.000Z</time>
      </trkpt>
      <trkpt lon="2.4491984844207764" lat="49.1073570251464844">
        <ele>111.0</ele>
        <time>2016-05-08T09:06:01.000Z</time>
      </trkpt>
      <trkpt lon="2.4492843151092529" lat="49.1073341369628906">
        <ele>117.0</ele>
        <time>2016-05-08T09:06:05.000Z</time>
      </trkpt>
      <trkpt lon="2.4492843151092529" lat="49.1073341369628906">
        <ele>117.0</ele>
        <time>2016-05-08T09:06:07.000Z</time>
      </trkpt>
      <trkpt lon="2.4493989944458008" lat="49.1072883605957031">
        <ele>117.0</ele>
        <time>2016-05-08T09:06:11.000Z</time>
      </trkpt>
      <trkpt lon="2.4494717121124268" lat="49.1072692871093750">
        <ele>118.0</ele>
        <time>2016-05-08T09:06:13.000Z</time>
      </trkpt>
      <trkpt lon="2.4495589733123779" lat="49.1072692871093750">
        <ele>118.0</ele>
        <time>2016-05-08T09:06:17.000Z</time>
      </trkpt>
      <trkpt lon="2.4496278762817383" lat="49.1072654724121094">
        <ele>119.0</ele>
        <time>2016-05-08T09:06:19.000Z</time>
      </trkpt>
      <trkpt lon="2.4497249126434326" lat="49.1072463989257812">
        <ele>119.0</ele>
        <time>2016-05-08T09:06:23.000Z</time>
      </trkpt>
      <trkpt lon="2.4498071670532227" lat="49.1072196960449219">
        <ele>118.0</ele>
        <time>2016-05-08T09:06:25.000Z</time>
      </trkpt>
      <trkpt lon="2.4498777389526367" lat="49.1071968078613281">
        <ele>118.0</ele>
        <time>2016-05-08T09:06:27.000Z</time>
      </trkpt>
      <trkpt lon="2.4499380588531494" lat="49.1071662902832031">
        <ele>119.0</ele>
        <time>2016-05-08T09:06:29.000Z</time>
      </trkpt>
      <trkpt lon="2.4499380588531494" lat="49.1071662902832031">
        <ele>119.0</ele>
        <time>2016-05-08T09:06:31.000Z</time>
      </trkpt>
      <trkpt lon="2.4499380588531494" lat="49.1071662902832031">
        <ele>119.0</ele>
        <time>2016-05-08T09:06:33.000Z</time>
      </trkpt>
      <trkpt lon="2.4499380588531494" lat="49.1071662902832031">
        <ele>119.0</ele>
        <time>2016-05-08T09:06:35.000Z</time>
      </trkpt>
      <trkpt lon="2.4499380588531494" lat="49.1071662902832031">
        <ele>119.0</ele>
        <time>2016-05-08T09:06:37.000Z</time>
      </trkpt>
      <trkpt lon="2.4499380588531494" lat="49.1071662902832031">
        <ele>119.0</ele>
        <time>2016-05-08T09:06:39.000Z</time>
      </trkpt>
      <trkpt lon="2.4501144886016846" lat="49.1071281433105469">
        <ele>125.0</ele>
        <time>2016-05-08T09:06:43.000Z</time>
      </trkpt>
      <trkpt lon="2.4502282142639160" lat="49.1070976257324219">
        <ele>125.0</ele>
        <time>2016-05-08T09:06:45.000Z</time>
      </trkpt>
      <trkpt lon="2.4503018856048584" lat="49.1070861816406250">
        <ele>125.0</ele>
        <time>2016-05-08T09:06:47.000Z</time>
      </trkpt>
      <trkpt lon="2.4503018856048584" lat="49.1070861816406250">
        <ele>125.0</ele>
        <time>2016-05-08T09:06:49.000Z</time>
      </trkpt>
      <trkpt lon="2.4503018856048584" lat="49.1070861816406250">
        <ele>125.0</ele>
        <time>2016-05-08T09:06:51.000Z</time>
      </trkpt>
      <trkpt lon="2.4503018856048584" lat="49.1070861816406250">
        <ele>125.0</ele>
        <time>2016-05-08T09:06:53.000Z</time>
      </trkpt>
      <trkpt lon="2.4503018856048584" lat="49.1070861816406250">
        <ele>125.0</ele>
        <time>2016-05-08T09:06:55.000Z</time>
      </trkpt>
      <trkpt lon="2.4505128860473633" lat="49.1070289611816406">
        <ele>124.0</ele>
        <time>2016-05-08T09:07:01.000Z</time>
      </trkpt>
      <trkpt lon="2.4506356716156006" lat="49.1069946289062500">
        <ele>127.0</ele>
        <time>2016-05-08T09:07:03.000Z</time>
      </trkpt>
      <trkpt lon="2.4506356716156006" lat="49.1069946289062500">
        <ele>127.0</ele>
        <time>2016-05-08T09:07:05.000Z</time>
      </trkpt>
      <trkpt lon="2.4506356716156006" lat="49.1069946289062500">
        <ele>127.0</ele>
        <time>2016-05-08T09:07:07.000Z</time>
      </trkpt>
      <trkpt lon="2.4506356716156006" lat="49.1069946289062500">
        <ele>127.0</ele>
        <time>2016-05-08T09:07:09.000Z</time>
      </trkpt>
      <trkpt lon="2.4506356716156006" lat="49.1069946289062500">
        <ele>127.0</ele>
        <time>2016-05-08T09:07:11.000Z</time>
      </trkpt>
      <trkpt lon="2.4508178234100342" lat="49.1069564819335938">
        <ele>125.0</ele>
        <time>2016-05-08T09:07:15.000Z</time>
      </trkpt>
      <trkpt lon="2.4509291648864746" lat="49.1069335937500000">
        <ele>127.0</ele>
        <time>2016-05-08T09:07:17.000Z</time>
      </trkpt>
      <trkpt lon="2.4509937763214111" lat="49.1069107055664062">
        <ele>130.0</ele>
        <time>2016-05-08T09:07:19.000Z</time>
      </trkpt>
      <trkpt lon="2.4509937763214111" lat="49.1069107055664062">
        <ele>130.0</ele>
        <time>2016-05-08T09:07:21.000Z</time>
      </trkpt>
      <trkpt lon="2.4510781764984131" lat="49.1068878173828125">
        <ele>131.0</ele>
        <time>2016-05-08T09:07:23.000Z</time>
      </trkpt>
      <trkpt lon="2.4511590003967285" lat="49.1068763732910156">
        <ele>132.0</ele>
        <time>2016-05-08T09:07:27.000Z</time>
      </trkpt>
      <trkpt lon="2.4512267112731934" lat="49.1068611145019531">
        <ele>133.0</ele>
        <time>2016-05-08T09:07:29.000Z</time>
      </trkpt>
      <trkpt lon="2.4512856006622314" lat="49.1068382263183594">
        <ele>135.0</ele>
        <time>2016-05-08T09:07:31.000Z</time>
      </trkpt>
      <trkpt lon="2.4513592720031738" lat="49.1068115234375000">
        <ele>133.0</ele>
        <time>2016-05-08T09:07:35.000Z</time>
      </trkpt>
      <trkpt lon="2.4513592720031738" lat="49.1068115234375000">
        <ele>133.0</ele>
        <time>2016-05-08T09:07:37.000Z</time>
      </trkpt>
      <trkpt lon="2.4513592720031738" lat="49.1068115234375000">
        <ele>133.0</ele>
        <time>2016-05-08T09:07:39.000Z</time>
      </trkpt>
      <trkpt lon="2.4513592720031738" lat="49.1068115234375000">
        <ele>133.0</ele>
        <time>2016-05-08T09:07:47.000Z</time>
      </trkpt>
      <trkpt lon="2.4513592720031738" lat="49.1068115234375000">
        <ele>133.0</ele>
        <time>2016-05-08T09:07:49.000Z</time>
      </trkpt>
      <trkpt lon="2.4516596794128418" lat="49.1067504882812500">
        <ele>136.0</ele>
        <time>2016-05-08T09:07:55.000Z</time>
      </trkpt>
      <trkpt lon="2.4518294334411621" lat="49.1067352294921875">
        <ele>136.0</ele>
        <time>2016-05-08T09:07:57.000Z</time>
      </trkpt>
      <trkpt lon="2.4519417285919189" lat="49.1067237854003906">
        <ele>135.0</ele>
        <time>2016-05-08T09:07:59.000Z</time>
      </trkpt>
      <trkpt lon="2.4520249366760254" lat="49.1067161560058594">
        <ele>134.0</ele>
        <time>2016-05-08T09:08:01.000Z</time>
      </trkpt>
      <trkpt lon="2.4520976543426514" lat="49.1067123413085938">
        <ele>133.0</ele>
        <time>2016-05-08T09:08:03.000Z</time>
      </trkpt>
      <trkpt lon="2.4520976543426514" lat="49.1067123413085938">
        <ele>133.0</ele>
        <time>2016-05-08T09:08:05.000Z</time>
      </trkpt>
      <trkpt lon="2.4523630142211914" lat="49.1067123413085938">
        <ele>136.0</ele>
        <time>2016-05-08T09:08:09.000Z</time>
      </trkpt>
      <trkpt lon="2.4525091648101807" lat="49.1067276000976562">
        <ele>136.0</ele>
        <time>2016-05-08T09:08:13.000Z</time>
      </trkpt>
      <trkpt lon="2.4526710510253906" lat="49.1067428588867188">
        <ele>135.0</ele>
        <time>2016-05-08T09:08:17.000Z</time>
      </trkpt>
      <trkpt lon="2.4526710510253906" lat="49.1067428588867188">
        <ele>135.0</ele>
        <time>2016-05-08T09:08:21.000Z</time>
      </trkpt>
      <trkpt lon="2.4526710510253906" lat="49.1067428588867188">
        <ele>135.0</ele>
        <time>2016-05-08T09:08:23.000Z</time>
      </trkpt>
      <trkpt lon="2.4529778957366943" lat="49.1067962646484375">
        <ele>136.0</ele>
        <time>2016-05-08T09:08:25.000Z</time>
      </trkpt>
      <trkpt lon="2.4531271457672119" lat="49.1068038940429688">
        <ele>136.0</ele>
        <time>2016-05-08T09:08:29.000Z</time>
      </trkpt>
      <trkpt lon="2.4531271457672119" lat="49.1068038940429688">
        <ele>136.0</ele>
        <time>2016-05-08T09:08:31.000Z</time>
      </trkpt>
      <trkpt lon="2.4532761573791504" lat="49.1067924499511719">
        <ele>136.0</ele>
        <time>2016-05-08T09:08:33.000Z</time>
      </trkpt>
      <trkpt lon="2.4532761573791504" lat="49.1067924499511719">
        <ele>136.0</ele>
        <time>2016-05-08T09:08:37.000Z</time>
      </trkpt>
      <trkpt lon="2.4532761573791504" lat="49.1067924499511719">
        <ele>136.0</ele>
        <time>2016-05-08T09:08:39.000Z</time>
      </trkpt>
      <trkpt lon="2.4532761573791504" lat="49.1067924499511719">
        <ele>136.0</ele>
        <time>2016-05-08T09:08:41.000Z</time>
      </trkpt>
      <trkpt lon="2.4537541866302490" lat="49.1068038940429688">
        <ele>136.0</ele>
        <time>2016-05-08T09:08:45.000Z</time>
      </trkpt>
      <trkpt lon="2.4539325237274170" lat="49.1068153381347656">
        <ele>136.0</ele>
        <time>2016-05-08T09:08:49.000Z</time>
      </trkpt>
      <trkpt lon="2.4541337490081787" lat="49.1068000793457031">
        <ele>140.0</ele>
        <time>2016-05-08T09:08:53.000Z</time>
      </trkpt>
      <trkpt lon="2.4543161392211914" lat="49.1067962646484375">
        <ele>143.0</ele>
        <time>2016-05-08T09:08:57.000Z</time>
      </trkpt>
      <trkpt lon="2.4543161392211914" lat="49.1067962646484375">
        <ele>143.0</ele>
        <time>2016-05-08T09:08:59.000Z</time>
      </trkpt>
      <trkpt lon="2.4545164108276367" lat="49.1067695617675781">
        <ele>139.0</ele>
        <time>2016-05-08T09:09:01.000Z</time>
      </trkpt>
      <trkpt lon="2.4545164108276367" lat="49.1067695617675781">
        <ele>139.0</ele>
        <time>2016-05-08T09:09:03.000Z</time>
      </trkpt>
      <trkpt lon="2.4545164108276367" lat="49.1067695617675781">
        <ele>139.0</ele>
        <time>2016-05-08T09:09:05.000Z</time>
      </trkpt>
      <trkpt lon="2.4548456668853760" lat="49.1066856384277344">
        <ele>142.0</ele>
        <time>2016-05-08T09:09:09.000Z</time>
      </trkpt>
      <trkpt lon="2.4550392627716064" lat="49.1066322326660156">
        <ele>143.0</ele>
        <time>2016-05-08T09:09:13.000Z</time>
      </trkpt>
      <trkpt lon="2.4550392627716064" lat="49.1066322326660156">
        <ele>143.0</ele>
        <time>2016-05-08T09:09:15.000Z</time>
      </trkpt>
      <trkpt lon="2.4552528858184814" lat="49.1065711975097656">
        <ele>141.0</ele>
        <time>2016-05-08T09:09:17.000Z</time>
      </trkpt>
      <trkpt lon="2.4553847312927246" lat="49.1065444946289062">
        <ele>141.0</ele>
        <time>2016-05-08T09:09:19.000Z</time>
      </trkpt>
      <trkpt lon="2.4556441307067871" lat="49.1065063476562500">
        <ele>142.0</ele>
        <time>2016-05-08T09:09:23.000Z</time>
      </trkpt>
      <trkpt lon="2.4557852745056152" lat="49.1064872741699219">
        <ele>141.0</ele>
        <time>2016-05-08T09:09:25.000Z</time>
      </trkpt>
      <trkpt lon="2.4559383392333984" lat="49.1064872741699219">
        <ele>140.0</ele>
        <time>2016-05-08T09:09:27.000Z</time>
      </trkpt>
      <trkpt lon="2.4560830593109131" lat="49.1064987182617188">
        <ele>140.0</ele>
        <time>2016-05-08T09:09:29.000Z</time>
      </trkpt>
      <trkpt lon="2.4563574790954590" lat="49.1065330505371094">
        <ele>139.0</ele>
        <time>2016-05-08T09:09:33.000Z</time>
      </trkpt>
      <trkpt lon="2.4563574790954590" lat="49.1065330505371094">
        <ele>139.0</ele>
        <time>2016-05-08T09:09:35.000Z</time>
      </trkpt>
      <trkpt lon="2.4563574790954590" lat="49.1065330505371094">
        <ele>139.0</ele>
        <time>2016-05-08T09:09:37.000Z</time>
      </trkpt>
      <trkpt lon="2.4569046497344971" lat="49.1066017150878906">
        <ele>142.0</ele>
        <time>2016-05-08T09:09:41.000Z</time>
      </trkpt>
      <trkpt lon="2.4570550918579102" lat="49.1065979003906250">
        <ele>142.0</ele>
        <time>2016-05-08T09:09:43.000Z</time>
      </trkpt>
      <trkpt lon="2.4571967124938965" lat="49.1066169738769531">
        <ele>143.0</ele>
        <time>2016-05-08T09:09:45.000Z</time>
      </trkpt>
      <trkpt lon="2.4571967124938965" lat="49.1066169738769531">
        <ele>143.0</ele>
        <time>2016-05-08T09:09:47.000Z</time>
      </trkpt>
      <trkpt lon="2.4571967124938965" lat="49.1066169738769531">
        <ele>143.0</ele>
        <time>2016-05-08T09:09:49.000Z</time>
      </trkpt>
      <trkpt lon="2.4571967124938965" lat="49.1066169738769531">
        <ele>143.0</ele>
        <time>2016-05-08T09:09:51.000Z</time>
      </trkpt>
      <trkpt lon="2.4571967124938965" lat="49.1066169738769531">
        <ele>143.0</ele>
        <time>2016-05-08T09:09:53.000Z</time>
      </trkpt>
      <trkpt lon="2.4571967124938965" lat="49.1066169738769531">
        <ele>143.0</ele>
        <time>2016-05-08T09:09:55.000Z</time>
      </trkpt>
      <trkpt lon="2.4577128887176514" lat="49.1066741943359375">
        <ele>143.0</ele>
        <time>2016-05-08T09:10:01.000Z</time>
      </trkpt>
      <trkpt lon="2.4580411911010742" lat="49.1067161560058594">
        <ele>145.0</ele>
        <time>2016-05-08T09:10:03.000Z</time>
      </trkpt>
      <trkpt lon="2.4580411911010742" lat="49.1067161560058594">
        <ele>145.0</ele>
        <time>2016-05-08T09:10:05.000Z</time>
      </trkpt>
      <trkpt lon="2.4580411911010742" lat="49.1067161560058594">
        <ele>145.0</ele>
        <time>2016-05-08T09:10:07.000Z</time>
      </trkpt>
      <trkpt lon="2.4580411911010742" lat="49.1067161560058594">
        <ele>145.0</ele>
        <time>2016-05-08T09:10:09.000Z</time>
      </trkpt>
      <trkpt lon="2.4580411911010742" lat="49.1067161560058594">
        <ele>145.0</ele>
        <time>2016-05-08T09:10:11.000Z</time>
      </trkpt>
      <trkpt lon="2.4580411911010742" lat="49.1067161560058594">
        <ele>145.0</ele>
        <time>2016-05-08T09:10:13.000Z</time>
      </trkpt>
      <trkpt lon="2.4580411911010742" lat="49.1067161560058594">
        <ele>145.0</ele>
        <time>2016-05-08T09:10:15.000Z</time>
      </trkpt>
      <trkpt lon="2.4580411911010742" lat="49.1067161560058594">
        <ele>145.0</ele>
        <time>2016-05-08T09:10:17.000Z</time>
      </trkpt>
      <trkpt lon="2.4587049484252930" lat="49.1067924499511719">
        <ele>149.0</ele>
        <time>2016-05-08T09:10:21.000Z</time>
      </trkpt>
      <trkpt lon="2.4590871334075928" lat="49.1068267822265625">
        <ele>148.0</ele>
        <time>2016-05-08T09:10:23.000Z</time>
      </trkpt>
      <trkpt lon="2.4593405723571777" lat="49.1068305969238281">
        <ele>147.0</ele>
        <time>2016-05-08T09:10:25.000Z</time>
      </trkpt>
      <trkpt lon="2.4595396518707275" lat="49.1068420410156250">
        <ele>145.0</ele>
        <time>2016-05-08T09:10:27.000Z</time>
      </trkpt>
      <trkpt lon="2.4596986770629883" lat="49.1068382263183594">
        <ele>147.0</ele>
        <time>2016-05-08T09:10:29.000Z</time>
      </trkpt>
      <trkpt lon="2.4599628448486328" lat="49.1068267822265625">
        <ele>149.0</ele>
        <time>2016-05-08T09:10:31.000Z</time>
      </trkpt>
      <trkpt lon="2.4600920677185059" lat="49.1067848205566406">
        <ele>148.0</ele>
        <time>2016-05-08T09:10:33.000Z</time>
      </trkpt>
      <trkpt lon="2.4602184295654297" lat="49.1067314147949219">
        <ele>148.0</ele>
        <time>2016-05-08T09:10:35.000Z</time>
      </trkpt>
      <trkpt lon="2.4604294300079346" lat="49.1066284179687500">
        <ele>146.0</ele>
        <time>2016-05-08T09:10:39.000Z</time>
      </trkpt>
      <trkpt lon="2.4604294300079346" lat="49.1066284179687500">
        <ele>146.0</ele>
        <time>2016-05-08T09:10:41.000Z</time>
      </trkpt>
      <trkpt lon="2.4604294300079346" lat="49.1066284179687500">
        <ele>146.0</ele>
        <time>2016-05-08T09:10:43.000Z</time>
      </trkpt>
      <trkpt lon="2.4604294300079346" lat="49.1066284179687500">
        <ele>146.0</ele>
        <time>2016-05-08T09:10:45.000Z</time>
      </trkpt>
      <trkpt lon="2.4604294300079346" lat="49.1066284179687500">
        <ele>146.0</ele>
        <time>2016-05-08T09:10:47.000Z</time>
      </trkpt>
      <trkpt lon="2.4604294300079346" lat="49.1066284179687500">
        <ele>146.0</ele>
        <time>2016-05-08T09:10:49.000Z</time>
      </trkpt>
      <trkpt lon="2.4604294300079346" lat="49.1066284179687500">
        <ele>146.0</ele>
        <time>2016-05-08T09:10:51.000Z</time>
      </trkpt>
      <trkpt lon="2.4604294300079346" lat="49.1066284179687500">
        <ele>146.0</ele>
        <time>2016-05-08T09:10:53.000Z</time>
      </trkpt>
      <trkpt lon="2.4604294300079346" lat="49.1066284179687500">
        <ele>146.0</ele>
        <time>2016-05-08T09:10:55.000Z</time>
      </trkpt>
      <trkpt lon="2.4604294300079346" lat="49.1066284179687500">
        <ele>146.0</ele>
        <time>2016-05-08T09:10:57.000Z</time>
      </trkpt>
      <trkpt lon="2.4604294300079346" lat="49.1066284179687500">
        <ele>146.0</ele>
        <time>2016-05-08T09:10:59.000Z</time>
      </trkpt>
      <trkpt lon="2.4604294300079346" lat="49.1066284179687500">
        <ele>146.0</ele>
        <time>2016-05-08T09:11:01.000Z</time>
      </trkpt>
      <trkpt lon="2.4604294300079346" lat="49.1066284179687500">
        <ele>146.0</ele>
        <time>2016-05-08T09:11:03.000Z</time>
      </trkpt>
      <trkpt lon="2.4604294300079346" lat="49.1066284179687500">
        <ele>146.0</ele>
        <time>2016-05-08T09:11:05.000Z</time>
      </trkpt>
      <trkpt lon="2.4604294300079346" lat="49.1066284179687500">
        <ele>146.0</ele>
        <time>2016-05-08T09:11:07.000Z</time>
      </trkpt>
      <trkpt lon="2.4604294300079346" lat="49.1066284179687500">
        <ele>146.0</ele>
        <time>2016-05-08T09:11:09.000Z</time>
      </trkpt>
      <trkpt lon="2.4604294300079346" lat="49.1066284179687500">
        <ele>146.0</ele>
        <time>2016-05-08T09:11:11.000Z</time>
      </trkpt>
      <trkpt lon="2.4617743492126465" lat="49.1060752868652344">
        <ele>145.0</ele>
        <time>2016-05-08T09:11:16.000Z</time>
      </trkpt>
      <trkpt lon="2.4617040157318115" lat="49.1059150695800781">
        <ele>145.0</ele>
        <time>2016-05-08T09:11:20.000Z</time>
      </trkpt>
      <trkpt lon="2.4616401195526123" lat="49.1058273315429688">
        <ele>145.0</ele>
        <time>2016-05-08T09:11:22.000Z</time>
      </trkpt>
      <trkpt lon="2.4615898132324219" lat="49.1056900024414062">
        <ele>144.0</ele>
        <time>2016-05-08T09:11:26.000Z</time>
      </trkpt>
      <trkpt lon="2.4615767002105713" lat="49.1055946350097656">
        <ele>146.0</ele>
        <time>2016-05-08T09:11:28.000Z</time>
      </trkpt>
      <trkpt lon="2.4615373611450195" lat="49.1054687500000000">
        <ele>143.0</ele>
        <time>2016-05-08T09:11:30.000Z</time>
      </trkpt>
      <trkpt lon="2.4614868164062500" lat="49.1053047180175781">
        <ele>146.0</ele>
        <time>2016-05-08T09:11:34.000Z</time>
      </trkpt>
      <trkpt lon="2.4614868164062500" lat="49.1053047180175781">
        <ele>146.0</ele>
        <time>2016-05-08T09:11:36.000Z</time>
      </trkpt>
      <trkpt lon="2.4614479541778564" lat="49.1051254272460938">
        <ele>148.0</ele>
        <time>2016-05-08T09:11:38.000Z</time>
      </trkpt>
      <trkpt lon="2.4614446163177490" lat="49.1050338745117188">
        <ele>145.0</ele>
        <time>2016-05-08T09:11:40.000Z</time>
      </trkpt>
      <trkpt lon="2.4614019393920898" lat="49.1048507690429688">
        <ele>143.0</ele>
        <time>2016-05-08T09:11:43.000Z</time>
      </trkpt>
      <trkpt lon="2.4614057540893555" lat="49.1047325134277344">
        <ele>144.0</ele>
        <time>2016-05-08T09:11:45.000Z</time>
      </trkpt>
      <trkpt lon="2.4613969326019287" lat="49.1046180725097656">
        <ele>143.0</ele>
        <time>2016-05-08T09:11:47.000Z</time>
      </trkpt>
      <trkpt lon="2.4613962173461914" lat="49.1045036315917969">
        <ele>143.0</ele>
        <time>2016-05-08T09:11:49.000Z</time>
      </trkpt>
      <trkpt lon="2.4614050388336182" lat="49.1043815612792969">
        <ele>143.0</ele>
        <time>2016-05-08T09:11:51.000Z</time>
      </trkpt>
      <trkpt lon="2.4614238739013672" lat="49.1042747497558594">
        <ele>142.0</ele>
        <time>2016-05-08T09:11:53.000Z</time>
      </trkpt>
      <trkpt lon="2.4614377021789551" lat="49.1041564941406250">
        <ele>141.0</ele>
        <time>2016-05-08T09:11:55.000Z</time>
      </trkpt>
      <trkpt lon="2.4615037441253662" lat="49.1040344238281250">
        <ele>142.0</ele>
        <time>2016-05-08T09:11:57.000Z</time>
      </trkpt>
      <trkpt lon="2.4615626335144043" lat="49.1039047241210938">
        <ele>140.0</ele>
        <time>2016-05-08T09:11:59.000Z</time>
      </trkpt>
      <trkpt lon="2.4616024494171143" lat="49.1037902832031250">
        <ele>137.0</ele>
        <time>2016-05-08T09:12:01.000Z</time>
      </trkpt>
      <trkpt lon="2.4617435932159424" lat="49.1036720275878906">
        <ele>135.0</ele>
        <time>2016-05-08T09:12:03.000Z</time>
      </trkpt>
      <trkpt lon="2.4618735313415527" lat="49.1036033630371094">
        <ele>137.0</ele>
        <time>2016-05-08T09:12:05.000Z</time>
      </trkpt>
      <trkpt lon="2.4620409011840820" lat="49.1035232543945312">
        <ele>137.0</ele>
        <time>2016-05-08T09:12:07.000Z</time>
      </trkpt>
      <trkpt lon="2.4622347354888916" lat="49.1034469604492188">
        <ele>138.0</ele>
        <time>2016-05-08T09:12:09.000Z</time>
      </trkpt>
      <trkpt lon="2.4623889923095703" lat="49.1033248901367188">
        <ele>136.0</ele>
        <time>2016-05-08T09:12:11.000Z</time>
      </trkpt>
      <trkpt lon="2.4625334739685059" lat="49.1031570434570312">
        <ele>130.0</ele>
        <time>2016-05-08T09:12:13.000Z</time>
      </trkpt>
      <trkpt lon="2.4625637531280518" lat="49.1028976440429688">
        <ele>126.0</ele>
        <time>2016-05-08T09:12:17.000Z</time>
      </trkpt>
      <trkpt lon="2.4625308513641357" lat="49.1027641296386719">
        <ele>126.0</ele>
        <time>2016-05-08T09:12:19.000Z</time>
      </trkpt>
      <trkpt lon="2.4624998569488525" lat="49.1025848388671875">
        <ele>124.0</ele>
        <time>2016-05-08T09:12:21.000Z</time>
      </trkpt>
      <trkpt lon="2.4624578952789307" lat="49.1023902893066406">
        <ele>124.0</ele>
        <time>2016-05-08T09:12:23.000Z</time>
      </trkpt>
      <trkpt lon="2.4623880386352539" lat="49.1022529602050781">
        <ele>119.0</ele>
        <time>2016-05-08T09:12:25.000Z</time>
      </trkpt>
      <trkpt lon="2.4623532295227051" lat="49.1020965576171875">
        <ele>118.0</ele>
        <time>2016-05-08T09:12:27.000Z</time>
      </trkpt>
      <trkpt lon="2.4623048305511475" lat="49.1019668579101562">
        <ele>117.0</ele>
        <time>2016-05-08T09:12:29.000Z</time>
      </trkpt>
      <trkpt lon="2.4622607231140137" lat="49.1018028259277344">
        <ele>113.0</ele>
        <time>2016-05-08T09:12:31.000Z</time>
      </trkpt>
      <trkpt lon="2.4622161388397217" lat="49.1016159057617188">
        <ele>114.0</ele>
        <time>2016-05-08T09:12:33.000Z</time>
      </trkpt>
      <trkpt lon="2.4621422290802002" lat="49.1014328002929688">
        <ele>111.0</ele>
        <time>2016-05-08T09:12:35.000Z</time>
      </trkpt>
      <trkpt lon="2.4621021747589111" lat="49.1012802124023438">
        <ele>107.0</ele>
        <time>2016-05-08T09:12:37.000Z</time>
      </trkpt>
      <trkpt lon="2.4620666503906250" lat="49.1011161804199219">
        <ele>106.0</ele>
        <time>2016-05-08T09:12:39.000Z</time>
      </trkpt>
      <trkpt lon="2.4619967937469482" lat="49.1009483337402344">
        <ele>105.0</ele>
        <time>2016-05-08T09:12:41.000Z</time>
      </trkpt>
      <trkpt lon="2.4619531631469727" lat="49.1007766723632812">
        <ele>105.0</ele>
        <time>2016-05-08T09:12:43.000Z</time>
      </trkpt>
      <trkpt lon="2.4618735313415527" lat="49.1005783081054688">
        <ele>103.0</ele>
        <time>2016-05-08T09:12:45.000Z</time>
      </trkpt>
      <trkpt lon="2.4618420600891113" lat="49.1003532409667969">
        <ele>104.0</ele>
        <time>2016-05-08T09:12:47.000Z</time>
      </trkpt>
      <trkpt lon="2.4617302417755127" lat="49.1000976562500000">
        <ele>105.0</ele>
        <time>2016-05-08T09:12:50.000Z</time>
      </trkpt>
      <trkpt lon="2.4616570472717285" lat="49.0999069213867188">
        <ele>104.0</ele>
        <time>2016-05-08T09:12:52.000Z</time>
      </trkpt>
      <trkpt lon="2.4615025520324707" lat="49.0997390747070312">
        <ele>101.0</ele>
        <time>2016-05-08T09:12:55.000Z</time>
      </trkpt>
      <trkpt lon="2.4614760875701904" lat="49.0996246337890625">
        <ele>100.0</ele>
        <time>2016-05-08T09:12:57.000Z</time>
      </trkpt>
      <trkpt lon="2.4614760875701904" lat="49.0996246337890625">
        <ele>100.0</ele>
        <time>2016-05-08T09:13:00.000Z</time>
      </trkpt>
      <trkpt lon="2.4614760875701904" lat="49.0996246337890625">
        <ele>100.0</ele>
        <time>2016-05-08T09:13:02.000Z</time>
      </trkpt>
      <trkpt lon="2.4614760875701904" lat="49.0996246337890625">
        <ele>100.0</ele>
        <time>2016-05-08T09:13:04.000Z</time>
      </trkpt>
      <trkpt lon="2.4617054462432861" lat="49.0994071960449219">
        <ele>106.0</ele>
        <time>2016-05-08T09:13:08.000Z</time>
      </trkpt>
      <trkpt lon="2.4618632793426514" lat="49.0993919372558594">
        <ele>107.0</ele>
        <time>2016-05-08T09:13:10.000Z</time>
      </trkpt>
      <trkpt lon="2.4620144367218018" lat="49.0993843078613281">
        <ele>108.0</ele>
        <time>2016-05-08T09:13:12.000Z</time>
      </trkpt>
      <trkpt lon="2.4621932506561279" lat="49.0993690490722656">
        <ele>108.0</ele>
        <time>2016-05-08T09:13:14.000Z</time>
      </trkpt>
      <trkpt lon="2.4624035358428955" lat="49.0993499755859375">
        <ele>110.0</ele>
        <time>2016-05-08T09:13:16.000Z</time>
      </trkpt>
      <trkpt lon="2.4625949859619141" lat="49.0993194580078125">
        <ele>112.0</ele>
        <time>2016-05-08T09:13:18.000Z</time>
      </trkpt>
      <trkpt lon="2.4627685546875000" lat="49.0992698669433594">
        <ele>111.0</ele>
        <time>2016-05-08T09:13:20.000Z</time>
      </trkpt>
      <trkpt lon="2.4629318714141846" lat="49.0992126464843750">
        <ele>111.0</ele>
        <time>2016-05-08T09:13:22.000Z</time>
      </trkpt>
      <trkpt lon="2.4631040096282959" lat="49.0991706848144531">
        <ele>111.0</ele>
        <time>2016-05-08T09:13:24.000Z</time>
      </trkpt>
      <trkpt lon="2.4632921218872070" lat="49.0991058349609375">
        <ele>110.0</ele>
        <time>2016-05-08T09:13:26.000Z</time>
      </trkpt>
      <trkpt lon="2.4634602069854736" lat="49.0990638732910156">
        <ele>111.0</ele>
        <time>2016-05-08T09:13:28.000Z</time>
      </trkpt>
      <trkpt lon="2.4636425971984863" lat="49.0990257263183594">
        <ele>114.0</ele>
        <time>2016-05-08T09:13:30.000Z</time>
      </trkpt>
      <trkpt lon="2.4638206958770752" lat="49.0990180969238281">
        <ele>118.0</ele>
        <time>2016-05-08T09:13:32.000Z</time>
      </trkpt>
      <trkpt lon="2.4640057086944580" lat="49.0989379882812500">
        <ele>114.0</ele>
        <time>2016-05-08T09:13:34.000Z</time>
      </trkpt>
      <trkpt lon="2.4641792774200439" lat="49.0988731384277344">
        <ele>111.0</ele>
        <time>2016-05-08T09:13:36.000Z</time>
      </trkpt>
      <trkpt lon="2.4643747806549072" lat="49.0988388061523438">
        <ele>110.0</ele>
        <time>2016-05-08T09:13:38.000Z</time>
      </trkpt>
      <trkpt lon="2.4645583629608154" lat="49.0987777709960938">
        <ele>107.0</ele>
        <time>2016-05-08T09:13:40.000Z</time>
      </trkpt>
      <trkpt lon="2.4647128582000732" lat="49.0987548828125000">
        <ele>109.0</ele>
        <time>2016-05-08T09:13:42.000Z</time>
      </trkpt>
      <trkpt lon="2.4648754596710205" lat="49.0987091064453125">
        <ele>109.0</ele>
        <time>2016-05-08T09:13:44.000Z</time>
      </trkpt>
      <trkpt lon="2.4650480747222900" lat="49.0987052917480469">
        <ele>111.0</ele>
        <time>2016-05-08T09:13:46.000Z</time>
      </trkpt>
      <trkpt lon="2.4652066230773926" lat="49.0986518859863281">
        <ele>107.0</ele>
        <time>2016-05-08T09:13:48.000Z</time>
      </trkpt>
      <trkpt lon="2.4653587341308594" lat="49.0986137390136719">
        <ele>108.0</ele>
        <time>2016-05-08T09:13:50.000Z</time>
      </trkpt>
      <trkpt lon="2.4655237197875977" lat="49.0985527038574219">
        <ele>109.0</ele>
        <time>2016-05-08T09:13:52.000Z</time>
      </trkpt>
      <trkpt lon="2.4656715393066406" lat="49.0985183715820312">
        <ele>108.0</ele>
        <time>2016-05-08T09:13:54.000Z</time>
      </trkpt>
      <trkpt lon="2.4658279418945312" lat="49.0985069274902344">
        <ele>109.0</ele>
        <time>2016-05-08T09:13:56.000Z</time>
      </trkpt>
      <trkpt lon="2.4658279418945312" lat="49.0985069274902344">
        <ele>109.0</ele>
        <time>2016-05-08T09:13:58.000Z</time>
      </trkpt>
      <trkpt lon="2.4658279418945312" lat="49.0985069274902344">
        <ele>109.0</ele>
        <time>2016-05-08T09:14:00.000Z</time>
      </trkpt>
      <trkpt lon="2.4658279418945312" lat="49.0985069274902344">
        <ele>109.0</ele>
        <time>2016-05-08T09:14:02.000Z</time>
      </trkpt>
      <trkpt lon="2.4658279418945312" lat="49.0985069274902344">
        <ele>109.0</ele>
        <time>2016-05-08T09:14:05.000Z</time>
      </trkpt>
      <trkpt lon="2.4658279418945312" lat="49.0985069274902344">
        <ele>109.0</ele>
        <time>2016-05-08T09:14:08.000Z</time>
      </trkpt>
      <trkpt lon="2.4658279418945312" lat="49.0985069274902344">
        <ele>109.0</ele>
        <time>2016-05-08T09:14:10.000Z</time>
      </trkpt>
      <trkpt lon="2.4658279418945312" lat="49.0985069274902344">
        <ele>109.0</ele>
        <time>2016-05-08T09:14:12.000Z</time>
      </trkpt>
      <trkpt lon="2.4658279418945312" lat="49.0985069274902344">
        <ele>109.0</ele>
        <time>2016-05-08T09:14:14.000Z</time>
      </trkpt>
      <trkpt lon="2.4659652709960938" lat="49.0981864929199219">
        <ele>115.0</ele>
        <time>2016-05-08T09:14:19.000Z</time>
      </trkpt>
      <trkpt lon="2.4660549163818359" lat="49.0979614257812500">
        <ele>116.0</ele>
        <time>2016-05-08T09:14:21.000Z</time>
      </trkpt>
      <trkpt lon="2.4660868644714355" lat="49.0977973937988281">
        <ele>116.0</ele>
        <time>2016-05-08T09:14:23.000Z</time>
      </trkpt>
      <trkpt lon="2.4660813808441162" lat="49.0976638793945312">
        <ele>116.0</ele>
        <time>2016-05-08T09:14:25.000Z</time>
      </trkpt>
      <trkpt lon="2.4660050868988037" lat="49.0975074768066406">
        <ele>120.0</ele>
        <time>2016-05-08T09:14:28.000Z</time>
      </trkpt>
      <trkpt lon="2.4659392833709717" lat="49.0972328186035156">
        <ele>112.0</ele>
        <time>2016-05-08T09:14:30.000Z</time>
      </trkpt>
      <trkpt lon="2.4659392833709717" lat="49.0972328186035156">
        <ele>112.0</ele>
        <time>2016-05-08T09:14:32.000Z</time>
      </trkpt>
      <trkpt lon="2.4659392833709717" lat="49.0972328186035156">
        <ele>112.0</ele>
        <time>2016-05-08T09:14:34.000Z</time>
      </trkpt>
      <trkpt lon="2.4659392833709717" lat="49.0972328186035156">
        <ele>112.0</ele>
        <time>2016-05-08T09:14:36.000Z</time>
      </trkpt>
      <trkpt lon="2.4659392833709717" lat="49.0972328186035156">
        <ele>112.0</ele>
        <time>2016-05-08T09:14:38.000Z</time>
      </trkpt>
      <trkpt lon="2.4653244018554688" lat="49.0965042114257812">
        <ele>106.0</ele>
        <time>2016-05-08T09:14:46.000Z</time>
      </trkpt>
      <trkpt lon="2.4652583599090576" lat="49.0963859558105469">
        <ele>106.0</ele>
        <time>2016-05-08T09:14:48.000Z</time>
      </trkpt>
      <trkpt lon="2.4651603698730469" lat="49.0963096618652344">
        <ele>107.0</ele>
        <time>2016-05-08T09:14:50.000Z</time>
      </trkpt>
      <trkpt lon="2.4651212692260742" lat="49.0961685180664062">
        <ele>105.0</ele>
        <time>2016-05-08T09:14:52.000Z</time>
      </trkpt>
      <trkpt lon="2.4652969837188721" lat="49.0961303710937500">
        <ele>105.0</ele>
        <time>2016-05-08T09:14:54.000Z</time>
      </trkpt>
      <trkpt lon="2.4652969837188721" lat="49.0961303710937500">
        <ele>105.0</ele>
        <time>2016-05-08T09:14:56.000Z</time>
      </trkpt>
      <trkpt lon="2.4652969837188721" lat="49.0961303710937500">
        <ele>105.0</ele>
        <time>2016-05-08T09:14:58.000Z</time>
      </trkpt>
      <trkpt lon="2.4652969837188721" lat="49.0961303710937500">
        <ele>105.0</ele>
        <time>2016-05-08T09:15:00.000Z</time>
      </trkpt>
      <trkpt lon="2.4659948348999023" lat="49.0959358215332031">
        <ele>106.0</ele>
        <time>2016-05-08T09:15:04.000Z</time>
      </trkpt>
      <trkpt lon="2.4661340713500977" lat="49.0959091186523438">
        <ele>108.0</ele>
        <time>2016-05-08T09:15:06.000Z</time>
      </trkpt>
      <trkpt lon="2.4662749767303467" lat="49.0958595275878906">
        <ele>108.0</ele>
        <time>2016-05-08T09:15:08.000Z</time>
      </trkpt>
      <trkpt lon="2.4664039611816406" lat="49.0957946777343750">
        <ele>108.0</ele>
        <time>2016-05-08T09:15:10.000Z</time>
      </trkpt>
      <trkpt lon="2.4665710926055908" lat="49.0957756042480469">
        <ele>104.0</ele>
        <time>2016-05-08T09:15:12.000Z</time>
      </trkpt>
      <trkpt lon="2.4667172431945801" lat="49.0957374572753906">
        <ele>102.0</ele>
        <time>2016-05-08T09:15:14.000Z</time>
      </trkpt>
      <trkpt lon="2.4667172431945801" lat="49.0957374572753906">
        <ele>102.0</ele>
        <time>2016-05-08T09:15:16.000Z</time>
      </trkpt>
      <trkpt lon="2.4667172431945801" lat="49.0957374572753906">
        <ele>102.0</ele>
        <time>2016-05-08T09:15:18.000Z</time>
      </trkpt>
      <trkpt lon="2.4667172431945801" lat="49.0957374572753906">
        <ele>102.0</ele>
        <time>2016-05-08T09:15:20.000Z</time>
      </trkpt>
      <trkpt lon="2.4667172431945801" lat="49.0957374572753906">
        <ele>102.0</ele>
        <time>2016-05-08T09:15:22.000Z</time>
      </trkpt>
      <trkpt lon="2.4667172431945801" lat="49.0957374572753906">
        <ele>102.0</ele>
        <time>2016-05-08T09:15:30.000Z</time>
      </trkpt>
      <trkpt lon="2.4667172431945801" lat="49.0957374572753906">
        <ele>102.0</ele>
        <time>2016-05-08T09:15:32.000Z</time>
      </trkpt>
      <trkpt lon="2.4667172431945801" lat="49.0957374572753906">
        <ele>102.0</ele>
        <time>2016-05-08T09:15:34.000Z</time>
      </trkpt>
      <trkpt lon="2.4667172431945801" lat="49.0957374572753906">
        <ele>102.0</ele>
        <time>2016-05-08T09:15:36.000Z</time>
      </trkpt>
      <trkpt lon="2.4676616191864014" lat="49.0951347351074219">
        <ele>108.0</ele>
        <time>2016-05-08T09:15:40.000Z</time>
      </trkpt>
      <trkpt lon="2.4676616191864014" lat="49.0951347351074219">
        <ele>108.0</ele>
        <time>2016-05-08T09:15:42.000Z</time>
      </trkpt>
      <trkpt lon="2.4675681591033936" lat="49.0950012207031250">
        <ele>110.0</ele>
        <time>2016-05-08T09:15:44.000Z</time>
      </trkpt>
      <trkpt lon="2.4674510955810547" lat="49.0948219299316406">
        <ele>109.0</ele>
        <time>2016-05-08T09:15:48.000Z</time>
      </trkpt>
      <trkpt lon="2.4673919677734375" lat="49.0946731567382812">
        <ele>108.0</ele>
        <time>2016-05-08T09:15:50.000Z</time>
      </trkpt>
      <trkpt lon="2.4673340320587158" lat="49.0945396423339844">
        <ele>107.0</ele>
        <time>2016-05-08T09:15:52.000Z</time>
      </trkpt>
      <trkpt lon="2.4673118591308594" lat="49.0944442749023438">
        <ele>109.0</ele>
        <time>2016-05-08T09:15:54.000Z</time>
      </trkpt>
      <trkpt lon="2.4672183990478516" lat="49.0942878723144531">
        <ele>111.0</ele>
        <time>2016-05-08T09:15:58.000Z</time>
      </trkpt>
      <trkpt lon="2.4672183990478516" lat="49.0942878723144531">
        <ele>111.0</ele>
        <time>2016-05-08T09:16:00.000Z</time>
      </trkpt>
      <trkpt lon="2.4672183990478516" lat="49.0942878723144531">
        <ele>111.0</ele>
        <time>2016-05-08T09:16:02.000Z</time>
      </trkpt>
      <trkpt lon="2.4672183990478516" lat="49.0942878723144531">
        <ele>111.0</ele>
        <time>2016-05-08T09:16:06.000Z</time>
      </trkpt>
      <trkpt lon="2.4672183990478516" lat="49.0942878723144531">
        <ele>111.0</ele>
        <time>2016-05-08T09:16:08.000Z</time>
      </trkpt>
      <trkpt lon="2.4672183990478516" lat="49.0942878723144531">
        <ele>111.0</ele>
        <time>2016-05-08T09:16:10.000Z</time>
      </trkpt>
      <trkpt lon="2.4672183990478516" lat="49.0942878723144531">
        <ele>111.0</ele>
        <time>2016-05-08T09:16:13.000Z</time>
      </trkpt>
      <trkpt lon="2.4672183990478516" lat="49.0942878723144531">
        <ele>111.0</ele>
        <time>2016-05-08T09:16:15.000Z</time>
      </trkpt>
      <trkpt lon="2.4672183990478516" lat="49.0942878723144531">
        <ele>111.0</ele>
        <time>2016-05-08T09:16:17.000Z</time>
      </trkpt>
      <trkpt lon="2.4672183990478516" lat="49.0942878723144531">
        <ele>111.0</ele>
        <time>2016-05-08T09:16:19.000Z</time>
      </trkpt>
      <trkpt lon="2.4672183990478516" lat="49.0942878723144531">
        <ele>111.0</ele>
        <time>2016-05-08T09:16:21.000Z</time>
      </trkpt>
      <trkpt lon="2.4672183990478516" lat="49.0942878723144531">
        <ele>111.0</ele>
        <time>2016-05-08T09:16:23.000Z</time>
      </trkpt>
      <trkpt lon="2.4672183990478516" lat="49.0942878723144531">
        <ele>111.0</ele>
        <time>2016-05-08T09:16:25.000Z</time>
      </trkpt>
      <trkpt lon="2.4672183990478516" lat="49.0942878723144531">
        <ele>111.0</ele>
        <time>2016-05-08T09:16:27.000Z</time>
      </trkpt>
      <trkpt lon="2.4672183990478516" lat="49.0942878723144531">
        <ele>111.0</ele>
        <time>2016-05-08T09:16:29.000Z</time>
      </trkpt>
      <trkpt lon="2.4672183990478516" lat="49.0942878723144531">
        <ele>111.0</ele>
        <time>2016-05-08T09:16:31.000Z</time>
      </trkpt>
      <trkpt lon="2.4672183990478516" lat="49.0942878723144531">
        <ele>111.0</ele>
        <time>2016-05-08T09:16:33.000Z</time>
      </trkpt>
      <trkpt lon="2.4667665958404541" lat="49.0935287475585938">
        <ele>113.0</ele>
        <time>2016-05-08T09:19:36.000Z</time>
      </trkpt>
      <trkpt lon="2.4667665958404541" lat="49.0935287475585938">
        <ele>113.0</ele>
        <time>2016-05-08T09:19:43.000Z</time>
      </trkpt>
      <trkpt lon="2.4668588638305664" lat="49.0935134887695312">
        <ele>113.0</ele>
        <time>2016-05-08T09:20:37.000Z</time>
      </trkpt>
      <trkpt lon="2.4668588638305664" lat="49.0935134887695312">
        <ele>113.0</ele>
        <time>2016-05-08T09:20:39.000Z</time>
      </trkpt>
      <trkpt lon="2.4668588638305664" lat="49.0935134887695312">
        <ele>113.0</ele>
        <time>2016-05-08T09:20:41.000Z</time>
      </trkpt>
      <trkpt lon="2.4668653011322021" lat="49.0935058593750000">
        <ele>115.0</ele>
        <time>2016-05-08T09:23:47.000Z</time>
      </trkpt>
      <trkpt lon="2.4670436382293701" lat="49.0934333801269531">
        <ele>113.0</ele>
        <time>2016-05-08T09:24:38.000Z</time>
      </trkpt>
      <trkpt lon="2.4670436382293701" lat="49.0934333801269531">
        <ele>113.0</ele>
        <time>2016-05-08T09:24:40.000Z</time>
      </trkpt>
      <trkpt lon="2.4671726226806641" lat="49.0933876037597656">
        <ele>114.0</ele>
        <time>2016-05-08T09:24:42.000Z</time>
      </trkpt>
      <trkpt lon="2.4673404693603516" lat="49.0933647155761719">
        <ele>116.0</ele>
        <time>2016-05-08T09:24:46.000Z</time>
      </trkpt>
      <trkpt lon="2.4673404693603516" lat="49.0933647155761719">
        <ele>116.0</ele>
        <time>2016-05-08T09:24:48.000Z</time>
      </trkpt>
      <trkpt lon="2.4673404693603516" lat="49.0933647155761719">
        <ele>116.0</ele>
        <time>2016-05-08T09:24:50.000Z</time>
      </trkpt>
      <trkpt lon="2.4673404693603516" lat="49.0933647155761719">
        <ele>116.0</ele>
        <time>2016-05-08T09:24:52.000Z</time>
      </trkpt>
      <trkpt lon="2.4678430557250977" lat="49.0932464599609375">
        <ele>121.0</ele>
        <time>2016-05-08T09:25:00.000Z</time>
      </trkpt>
      <trkpt lon="2.4680655002593994" lat="49.0932006835937500">
        <ele>127.0</ele>
        <time>2016-05-08T09:25:04.000Z</time>
      </trkpt>
      <trkpt lon="2.4682278633117676" lat="49.0931892395019531">
        <ele>127.0</ele>
        <time>2016-05-08T09:25:06.000Z</time>
      </trkpt>
      <trkpt lon="2.4683954715728760" lat="49.0931816101074219">
        <ele>125.0</ele>
        <time>2016-05-08T09:25:09.000Z</time>
      </trkpt>
      <trkpt lon="2.4683954715728760" lat="49.0931816101074219">
        <ele>125.0</ele>
        <time>2016-05-08T09:25:11.000Z</time>
      </trkpt>
      <trkpt lon="2.4683954715728760" lat="49.0931816101074219">
        <ele>125.0</ele>
        <time>2016-05-08T09:25:14.000Z</time>
      </trkpt>
      <trkpt lon="2.4683954715728760" lat="49.0931816101074219">
        <ele>125.0</ele>
        <time>2016-05-08T09:25:16.000Z</time>
      </trkpt>
      <trkpt lon="2.4688441753387451" lat="49.0929489135742188">
        <ele>129.0</ele>
        <time>2016-05-08T09:25:20.000Z</time>
      </trkpt>
      <trkpt lon="2.4689705371856689" lat="49.0928535461425781">
        <ele>132.0</ele>
        <time>2016-05-08T09:25:24.000Z</time>
      </trkpt>
      <trkpt lon="2.4689705371856689" lat="49.0928535461425781">
        <ele>132.0</ele>
        <time>2016-05-08T09:25:26.000Z</time>
      </trkpt>
      <trkpt lon="2.4689705371856689" lat="49.0928535461425781">
        <ele>132.0</ele>
        <time>2016-05-08T09:25:28.000Z</time>
      </trkpt>
      <trkpt lon="2.4689705371856689" lat="49.0928535461425781">
        <ele>132.0</ele>
        <time>2016-05-08T09:25:30.000Z</time>
      </trkpt>
      <trkpt lon="2.4689705371856689" lat="49.0928535461425781">
        <ele>132.0</ele>
        <time>2016-05-08T09:25:32.000Z</time>
      </trkpt>
      <trkpt lon="2.4689705371856689" lat="49.0928535461425781">
        <ele>132.0</ele>
        <time>2016-05-08T09:25:34.000Z</time>
      </trkpt>
      <trkpt lon="2.4694859981536865" lat="49.0925102233886719">
        <ele>125.0</ele>
        <time>2016-05-08T09:25:38.000Z</time>
      </trkpt>
      <trkpt lon="2.4694859981536865" lat="49.0925102233886719">
        <ele>125.0</ele>
        <time>2016-05-08T09:25:40.000Z</time>
      </trkpt>
      <trkpt lon="2.4694859981536865" lat="49.0925102233886719">
        <ele>125.0</ele>
        <time>2016-05-08T09:25:42.000Z</time>
      </trkpt>
      <trkpt lon="2.4694859981536865" lat="49.0925102233886719">
        <ele>125.0</ele>
        <time>2016-05-08T09:25:44.000Z</time>
      </trkpt>
      <trkpt lon="2.4697234630584717" lat="49.0922012329101562">
        <ele>121.0</ele>
        <time>2016-05-08T09:25:48.000Z</time>
      </trkpt>
      <trkpt lon="2.4698078632354736" lat="49.0920791625976562">
        <ele>120.0</ele>
        <time>2016-05-08T09:25:52.000Z</time>
      </trkpt>
      <trkpt lon="2.4698441028594971" lat="49.0919570922851562">
        <ele>117.0</ele>
        <time>2016-05-08T09:25:56.000Z</time>
      </trkpt>
      <trkpt lon="2.4698441028594971" lat="49.0919570922851562">
        <ele>117.0</ele>
        <time>2016-05-08T09:25:58.000Z</time>
      </trkpt>
      <trkpt lon="2.4698441028594971" lat="49.0919570922851562">
        <ele>117.0</ele>
        <time>2016-05-08T09:26:00.000Z</time>
      </trkpt>
      <trkpt lon="2.4699218273162842" lat="49.0917968750000000">
        <ele>119.0</ele>
        <time>2016-05-08T09:26:02.000Z</time>
      </trkpt>
      <trkpt lon="2.4699218273162842" lat="49.0917968750000000">
        <ele>119.0</ele>
        <time>2016-05-08T09:26:04.000Z</time>
      </trkpt>
      <trkpt lon="2.4699268341064453" lat="49.0916633605957031">
        <ele>120.0</ele>
        <time>2016-05-08T09:26:06.000Z</time>
      </trkpt>
      <trkpt lon="2.4699268341064453" lat="49.0916633605957031">
        <ele>120.0</ele>
        <time>2016-05-08T09:26:08.000Z</time>
      </trkpt>
      <trkpt lon="2.4699268341064453" lat="49.0916633605957031">
        <ele>120.0</ele>
        <time>2016-05-08T09:26:10.000Z</time>
      </trkpt>
      <trkpt lon="2.4699268341064453" lat="49.0916633605957031">
        <ele>120.0</ele>
        <time>2016-05-08T09:26:12.000Z</time>
      </trkpt>
      <trkpt lon="2.4699268341064453" lat="49.0916633605957031">
        <ele>120.0</ele>
        <time>2016-05-08T09:26:14.000Z</time>
      </trkpt>
      <trkpt lon="2.4699277877807617" lat="49.0915298461914062">
        <ele>123.0</ele>
        <time>2016-05-08T09:26:20.000Z</time>
      </trkpt>
      <trkpt lon="2.4699313640594482" lat="49.0914497375488281">
        <ele>122.0</ele>
        <time>2016-05-08T09:26:22.000Z</time>
      </trkpt>
      <trkpt lon="2.4699313640594482" lat="49.0914497375488281">
        <ele>122.0</ele>
        <time>2016-05-08T09:26:24.000Z</time>
      </trkpt>
      <trkpt lon="2.4699313640594482" lat="49.0914497375488281">
        <ele>122.0</ele>
        <time>2016-05-08T09:26:26.000Z</time>
      </trkpt>
      <trkpt lon="2.4699363708496094" lat="49.0913352966308594">
        <ele>127.0</ele>
        <time>2016-05-08T09:26:32.000Z</time>
      </trkpt>
      <trkpt lon="2.4699440002441406" lat="49.0912590026855469">
        <ele>129.0</ele>
        <time>2016-05-08T09:26:34.000Z</time>
      </trkpt>
      <trkpt lon="2.4699442386627197" lat="49.0912017822265625">
        <ele>127.0</ele>
        <time>2016-05-08T09:26:36.000Z</time>
      </trkpt>
      <trkpt lon="2.4699540138244629" lat="49.0911331176757812">
        <ele>124.0</ele>
        <time>2016-05-08T09:26:38.000Z</time>
      </trkpt>
      <trkpt lon="2.4699740409851074" lat="49.0910758972167969">
        <ele>123.0</ele>
        <time>2016-05-08T09:26:41.000Z</time>
      </trkpt>
      <trkpt lon="2.4700043201446533" lat="49.0909576416015625">
        <ele>120.0</ele>
        <time>2016-05-08T09:26:43.000Z</time>
      </trkpt>
      <trkpt lon="2.4700043201446533" lat="49.0909576416015625">
        <ele>120.0</ele>
        <time>2016-05-08T09:26:46.000Z</time>
      </trkpt>
      <trkpt lon="2.4700198173522949" lat="49.0908279418945312">
        <ele>122.0</ele>
        <time>2016-05-08T09:26:54.000Z</time>
      </trkpt>
      <trkpt lon="2.4700295925140381" lat="49.0907173156738281">
        <ele>121.0</ele>
        <time>2016-05-08T09:26:58.000Z</time>
      </trkpt>
      <trkpt lon="2.4700295925140381" lat="49.0907173156738281">
        <ele>121.0</ele>
        <time>2016-05-08T09:27:00.000Z</time>
      </trkpt>
      <trkpt lon="2.4700295925140381" lat="49.0907173156738281">
        <ele>121.0</ele>
        <time>2016-05-08T09:27:02.000Z</time>
      </trkpt>
      <trkpt lon="2.4699537754058838" lat="49.0906066894531250">
        <ele>126.0</ele>
        <time>2016-05-08T09:27:10.000Z</time>
      </trkpt>
      <trkpt lon="2.4699537754058838" lat="49.0906066894531250">
        <ele>126.0</ele>
        <time>2016-05-08T09:27:12.000Z</time>
      </trkpt>
      <trkpt lon="2.4699537754058838" lat="49.0906066894531250">
        <ele>126.0</ele>
        <time>2016-05-08T09:27:14.000Z</time>
      </trkpt>
      <trkpt lon="2.4699537754058838" lat="49.0906066894531250">
        <ele>126.0</ele>
        <time>2016-05-08T09:27:16.000Z</time>
      </trkpt>
      <trkpt lon="2.4698987007141113" lat="49.0903892517089844">
        <ele>129.0</ele>
        <time>2016-05-08T09:27:21.000Z</time>
      </trkpt>
      <trkpt lon="2.4699094295501709" lat="49.0902786254882812">
        <ele>136.0</ele>
        <time>2016-05-08T09:27:31.000Z</time>
      </trkpt>
      <trkpt lon="2.4699163436889648" lat="49.0901527404785156">
        <ele>139.0</ele>
        <time>2016-05-08T09:27:37.000Z</time>
      </trkpt>
      <trkpt lon="2.4699163436889648" lat="49.0901527404785156">
        <ele>139.0</ele>
        <time>2016-05-08T09:27:41.000Z</time>
      </trkpt>
      <trkpt lon="2.4699163436889648" lat="49.0901527404785156">
        <ele>139.0</ele>
        <time>2016-05-08T09:27:43.000Z</time>
      </trkpt>
      <trkpt lon="2.4699656963348389" lat="49.0899429321289062">
        <ele>137.0</ele>
        <time>2016-05-08T09:27:49.000Z</time>
      </trkpt>
      <trkpt lon="2.4699742794036865" lat="49.0898208618164062">
        <ele>134.0</ele>
        <time>2016-05-08T09:27:55.000Z</time>
      </trkpt>
      <trkpt lon="2.4700589179992676" lat="49.0897293090820312">
        <ele>134.0</ele>
        <time>2016-05-08T09:28:01.000Z</time>
      </trkpt>
      <trkpt lon="2.4700589179992676" lat="49.0897293090820312">
        <ele>134.0</ele>
        <time>2016-05-08T09:28:03.000Z</time>
      </trkpt>
      <trkpt lon="2.4700589179992676" lat="49.0897293090820312">
        <ele>134.0</ele>
        <time>2016-05-08T09:28:05.000Z</time>
      </trkpt>
      <trkpt lon="2.4700589179992676" lat="49.0897293090820312">
        <ele>134.0</ele>
        <time>2016-05-08T09:28:07.000Z</time>
      </trkpt>
      <trkpt lon="2.4700589179992676" lat="49.0897293090820312">
        <ele>134.0</ele>
        <time>2016-05-08T09:28:09.000Z</time>
      </trkpt>
      <trkpt lon="2.4700589179992676" lat="49.0897293090820312">
        <ele>134.0</ele>
        <time>2016-05-08T09:28:11.000Z</time>
      </trkpt>
      <trkpt lon="2.4701828956604004" lat="49.0896377563476562">
        <ele>137.0</ele>
        <time>2016-05-08T09:28:15.000Z</time>
      </trkpt>
      <trkpt lon="2.4702460765838623" lat="49.0895690917968750">
        <ele>137.0</ele>
        <time>2016-05-08T09:28:17.000Z</time>
      </trkpt>
      <trkpt lon="2.4702887535095215" lat="49.0895118713378906">
        <ele>137.0</ele>
        <time>2016-05-08T09:28:19.000Z</time>
      </trkpt>
      <trkpt lon="2.4703249931335449" lat="49.0894660949707031">
        <ele>136.0</ele>
        <time>2016-05-08T09:28:21.000Z</time>
      </trkpt>
      <trkpt lon="2.4703562259674072" lat="49.0894279479980469">
        <ele>137.0</ele>
        <time>2016-05-08T09:28:23.000Z</time>
      </trkpt>
      <trkpt lon="2.4704341888427734" lat="49.0893516540527344">
        <ele>138.0</ele>
        <time>2016-05-08T09:28:27.000Z</time>
      </trkpt>
      <trkpt lon="2.4704341888427734" lat="49.0893516540527344">
        <ele>138.0</ele>
        <time>2016-05-08T09:28:29.000Z</time>
      </trkpt>
      <trkpt lon="2.4704341888427734" lat="49.0893516540527344">
        <ele>138.0</ele>
        <time>2016-05-08T09:28:31.000Z</time>
      </trkpt>
      <trkpt lon="2.4705424308776855" lat="49.0892906188964844">
        <ele>140.0</ele>
        <time>2016-05-08T09:28:33.000Z</time>
      </trkpt>
      <trkpt lon="2.4706432819366455" lat="49.0892143249511719">
        <ele>140.0</ele>
        <time>2016-05-08T09:28:37.000Z</time>
      </trkpt>
      <trkpt lon="2.4706432819366455" lat="49.0892143249511719">
        <ele>140.0</ele>
        <time>2016-05-08T09:28:39.000Z</time>
      </trkpt>
      <trkpt lon="2.4707460403442383" lat="49.0891265869140625">
        <ele>140.0</ele>
        <time>2016-05-08T09:28:41.000Z</time>
      </trkpt>
      <trkpt lon="2.4707460403442383" lat="49.0891265869140625">
        <ele>140.0</ele>
        <time>2016-05-08T09:28:43.000Z</time>
      </trkpt>
      <trkpt lon="2.4707460403442383" lat="49.0891265869140625">
        <ele>140.0</ele>
        <time>2016-05-08T09:28:45.000Z</time>
      </trkpt>
      <trkpt lon="2.4707460403442383" lat="49.0891265869140625">
        <ele>140.0</ele>
        <time>2016-05-08T09:28:47.000Z</time>
      </trkpt>
      <trkpt lon="2.4707460403442383" lat="49.0891265869140625">
        <ele>140.0</ele>
        <time>2016-05-08T09:28:49.000Z</time>
      </trkpt>
      <trkpt lon="2.4707012176513672" lat="49.0890007019042969">
        <ele>137.0</ele>
        <time>2016-05-08T09:28:55.000Z</time>
      </trkpt>
      <trkpt lon="2.4704921245574951" lat="49.0890235900878906">
        <ele>139.0</ele>
        <time>2016-05-08T09:29:01.000Z</time>
      </trkpt>
      <trkpt lon="2.4703423976898193" lat="49.0890541076660156">
        <ele>140.0</ele>
        <time>2016-05-08T09:29:05.000Z</time>
      </trkpt>
      <trkpt lon="2.4701538085937500" lat="49.0890846252441406">
        <ele>138.0</ele>
        <time>2016-05-08T09:29:09.000Z</time>
      </trkpt>
      <trkpt lon="2.4699239730834961" lat="49.0891227722167969">
        <ele>137.0</ele>
        <time>2016-05-08T09:29:13.000Z</time>
      </trkpt>
      <trkpt lon="2.4699239730834961" lat="49.0891227722167969">
        <ele>137.0</ele>
        <time>2016-05-08T09:29:15.000Z</time>
      </trkpt>
      <trkpt lon="2.4699239730834961" lat="49.0891227722167969">
        <ele>137.0</ele>
        <time>2016-05-08T09:29:17.000Z</time>
      </trkpt>
      <trkpt lon="2.4699239730834961" lat="49.0891227722167969">
        <ele>137.0</ele>
        <time>2016-05-08T09:29:19.000Z</time>
      </trkpt>
      <trkpt lon="2.4699239730834961" lat="49.0891227722167969">
        <ele>137.0</ele>
        <time>2016-05-08T09:29:23.000Z</time>
      </trkpt>
      <trkpt lon="2.4699239730834961" lat="49.0891227722167969">
        <ele>137.0</ele>
        <time>2016-05-08T09:29:25.000Z</time>
      </trkpt>
      <trkpt lon="2.4699239730834961" lat="49.0891227722167969">
        <ele>137.0</ele>
        <time>2016-05-08T09:29:27.000Z</time>
      </trkpt>
      <trkpt lon="2.4691004753112793" lat="49.0893325805664062">
        <ele>139.0</ele>
        <time>2016-05-08T09:29:31.000Z</time>
      </trkpt>
      <trkpt lon="2.4689636230468750" lat="49.0893783569335938">
        <ele>135.0</ele>
        <time>2016-05-08T09:29:33.000Z</time>
      </trkpt>
      <trkpt lon="2.4687995910644531" lat="49.0894241333007812">
        <ele>138.0</ele>
        <time>2016-05-08T09:29:37.000Z</time>
      </trkpt>
      <trkpt lon="2.4687995910644531" lat="49.0894241333007812">
        <ele>138.0</ele>
        <time>2016-05-08T09:29:39.000Z</time>
      </trkpt>
      <trkpt lon="2.4686076641082764" lat="49.0894889831542969">
        <ele>135.0</ele>
        <time>2016-05-08T09:29:41.000Z</time>
      </trkpt>
      <trkpt lon="2.4684195518493652" lat="49.0895423889160156">
        <ele>137.0</ele>
        <time>2016-05-08T09:29:45.000Z</time>
      </trkpt>
      <trkpt lon="2.4684195518493652" lat="49.0895423889160156">
        <ele>137.0</ele>
        <time>2016-05-08T09:29:47.000Z</time>
      </trkpt>
      <trkpt lon="2.4684195518493652" lat="49.0895423889160156">
        <ele>137.0</ele>
        <time>2016-05-08T09:29:49.000Z</time>
      </trkpt>
      <trkpt lon="2.4682002067565918" lat="49.0896263122558594">
        <ele>142.0</ele>
        <time>2016-05-08T09:29:55.000Z</time>
      </trkpt>
      <trkpt lon="2.4680345058441162" lat="49.0896835327148438">
        <ele>141.0</ele>
        <time>2016-05-08T09:29:57.000Z</time>
      </trkpt>
      <trkpt lon="2.4678950309753418" lat="49.0897369384765625">
        <ele>140.0</ele>
        <time>2016-05-08T09:29:59.000Z</time>
      </trkpt>
      <trkpt lon="2.4677777290344238" lat="49.0897750854492188">
        <ele>142.0</ele>
        <time>2016-05-08T09:30:01.000Z</time>
      </trkpt>
      <trkpt lon="2.4676575660705566" lat="49.0898132324218750">
        <ele>141.0</ele>
        <time>2016-05-08T09:30:03.000Z</time>
      </trkpt>
      <trkpt lon="2.4674146175384521" lat="49.0898742675781250">
        <ele>142.0</ele>
        <time>2016-05-08T09:30:05.000Z</time>
      </trkpt>
      <trkpt lon="2.4672098159790039" lat="49.0899200439453125">
        <ele>143.0</ele>
        <time>2016-05-08T09:30:09.000Z</time>
      </trkpt>
      <trkpt lon="2.4672098159790039" lat="49.0899200439453125">
        <ele>143.0</ele>
        <time>2016-05-08T09:30:11.000Z</time>
      </trkpt>
      <trkpt lon="2.4672098159790039" lat="49.0899200439453125">
        <ele>143.0</ele>
        <time>2016-05-08T09:30:13.000Z</time>
      </trkpt>
      <trkpt lon="2.4672098159790039" lat="49.0899200439453125">
        <ele>143.0</ele>
        <time>2016-05-08T09:30:15.000Z</time>
      </trkpt>
      <trkpt lon="2.4672098159790039" lat="49.0899200439453125">
        <ele>143.0</ele>
        <time>2016-05-08T09:30:17.000Z</time>
      </trkpt>
      <trkpt lon="2.4672098159790039" lat="49.0899200439453125">
        <ele>143.0</ele>
        <time>2016-05-08T09:30:19.000Z</time>
      </trkpt>
      <trkpt lon="2.4672098159790039" lat="49.0899200439453125">
        <ele>143.0</ele>
        <time>2016-05-08T09:30:21.000Z</time>
      </trkpt>
      <trkpt lon="2.4664542675018311" lat="49.0901031494140625">
        <ele>144.0</ele>
        <time>2016-05-08T09:30:23.000Z</time>
      </trkpt>
      <trkpt lon="2.4662647247314453" lat="49.0901489257812500">
        <ele>144.0</ele>
        <time>2016-05-08T09:30:27.000Z</time>
      </trkpt>
      <trkpt lon="2.4662647247314453" lat="49.0901489257812500">
        <ele>144.0</ele>
        <time>2016-05-08T09:30:29.000Z</time>
      </trkpt>
      <trkpt lon="2.4660432338714600" lat="49.0901947021484375">
        <ele>144.0</ele>
        <time>2016-05-08T09:30:31.000Z</time>
      </trkpt>
      <trkpt lon="2.4660432338714600" lat="49.0901947021484375">
        <ele>144.0</ele>
        <time>2016-05-08T09:30:37.000Z</time>
      </trkpt>
      <trkpt lon="2.4654438495635986" lat="49.0903091430664062">
        <ele>140.0</ele>
        <time>2016-05-08T09:30:41.000Z</time>
      </trkpt>
      <trkpt lon="2.4652478694915771" lat="49.0903625488281250">
        <ele>140.0</ele>
        <time>2016-05-08T09:30:45.000Z</time>
      </trkpt>
      <trkpt lon="2.4652478694915771" lat="49.0903625488281250">
        <ele>140.0</ele>
        <time>2016-05-08T09:30:47.000Z</time>
      </trkpt>
      <trkpt lon="2.4652478694915771" lat="49.0903625488281250">
        <ele>140.0</ele>
        <time>2016-05-08T09:30:49.000Z</time>
      </trkpt>
      <trkpt lon="2.4652478694915771" lat="49.0903625488281250">
        <ele>140.0</ele>
        <time>2016-05-08T09:30:51.000Z</time>
      </trkpt>
      <trkpt lon="2.4652478694915771" lat="49.0903625488281250">
        <ele>140.0</ele>
        <time>2016-05-08T09:30:53.000Z</time>
      </trkpt>
      <trkpt lon="2.4652478694915771" lat="49.0903625488281250">
        <ele>140.0</ele>
        <time>2016-05-08T09:30:55.000Z</time>
      </trkpt>
      <trkpt lon="2.4652478694915771" lat="49.0903625488281250">
        <ele>140.0</ele>
        <time>2016-05-08T09:30:57.000Z</time>
      </trkpt>
      <trkpt lon="2.4652478694915771" lat="49.0903625488281250">
        <ele>140.0</ele>
        <time>2016-05-08T09:30:59.000Z</time>
      </trkpt>
      <trkpt lon="2.4645471572875977" lat="49.0901107788085938">
        <ele>135.0</ele>
        <time>2016-05-08T09:31:07.000Z</time>
      </trkpt>
      <trkpt lon="2.4645090103149414" lat="49.0899772644042969">
        <ele>135.0</ele>
        <time>2016-05-08T09:31:11.000Z</time>
      </trkpt>
      <trkpt lon="2.4644546508789062" lat="49.0898628234863281">
        <ele>132.0</ele>
        <time>2016-05-08T09:31:15.000Z</time>
      </trkpt>
      <trkpt lon="2.4644546508789062" lat="49.0898628234863281">
        <ele>132.0</ele>
        <time>2016-05-08T09:31:19.000Z</time>
      </trkpt>
      <trkpt lon="2.4644546508789062" lat="49.0898628234863281">
        <ele>132.0</ele>
        <time>2016-05-08T09:31:21.000Z</time>
      </trkpt>
      <trkpt lon="2.4644546508789062" lat="49.0898628234863281">
        <ele>132.0</ele>
        <time>2016-05-08T09:31:23.000Z</time>
      </trkpt>
      <trkpt lon="2.4644546508789062" lat="49.0898628234863281">
        <ele>132.0</ele>
        <time>2016-05-08T09:31:25.000Z</time>
      </trkpt>
      <trkpt lon="2.4644546508789062" lat="49.0898628234863281">
        <ele>132.0</ele>
        <time>2016-05-08T09:31:27.000Z</time>
      </trkpt>
      <trkpt lon="2.4644546508789062" lat="49.0898628234863281">
        <ele>132.0</ele>
        <time>2016-05-08T09:31:29.000Z</time>
      </trkpt>
      <trkpt lon="2.4643309116363525" lat="49.0896186828613281">
        <ele>134.0</ele>
        <time>2016-05-08T09:31:33.000Z</time>
      </trkpt>
      <trkpt lon="2.4642333984375000" lat="49.0894584655761719">
        <ele>134.0</ele>
        <time>2016-05-08T09:31:35.000Z</time>
      </trkpt>
      <trkpt lon="2.4641499519348145" lat="49.0893440246582031">
        <ele>134.0</ele>
        <time>2016-05-08T09:31:37.000Z</time>
      </trkpt>
      <trkpt lon="2.4640715122222900" lat="49.0892677307128906">
        <ele>134.0</ele>
        <time>2016-05-08T09:31:39.000Z</time>
      </trkpt>
      <trkpt lon="2.4640166759490967" lat="49.0892066955566406">
        <ele>134.0</ele>
        <time>2016-05-08T09:31:41.000Z</time>
      </trkpt>
      <trkpt lon="2.4640166759490967" lat="49.0892066955566406">
        <ele>134.0</ele>
        <time>2016-05-08T09:31:43.000Z</time>
      </trkpt>
      <trkpt lon="2.4640166759490967" lat="49.0892066955566406">
        <ele>134.0</ele>
        <time>2016-05-08T09:31:45.000Z</time>
      </trkpt>
      <trkpt lon="2.4637589454650879" lat="49.0888671875000000">
        <ele>142.0</ele>
        <time>2016-05-08T09:31:49.000Z</time>
      </trkpt>
      <trkpt lon="2.4636785984039307" lat="49.0887069702148438">
        <ele>144.0</ele>
        <time>2016-05-08T09:31:53.000Z</time>
      </trkpt>
      <trkpt lon="2.4636485576629639" lat="49.0886192321777344">
        <ele>144.0</ele>
        <time>2016-05-08T09:31:55.000Z</time>
      </trkpt>
      <trkpt lon="2.4636089801788330" lat="49.0885238647460938">
        <ele>146.0</ele>
        <time>2016-05-08T09:31:57.000Z</time>
      </trkpt>
      <trkpt lon="2.4635841846466064" lat="49.0884056091308594">
        <ele>147.0</ele>
        <time>2016-05-08T09:31:59.000Z</time>
      </trkpt>
      <trkpt lon="2.4635841846466064" lat="49.0884056091308594">
        <ele>147.0</ele>
        <time>2016-05-08T09:32:01.000Z</time>
      </trkpt>
      <trkpt lon="2.4636025428771973" lat="49.0881996154785156">
        <ele>141.0</ele>
        <time>2016-05-08T09:32:03.000Z</time>
      </trkpt>
      <trkpt lon="2.4636502265930176" lat="49.0881042480468750">
        <ele>139.0</ele>
        <time>2016-05-08T09:32:05.000Z</time>
      </trkpt>
      <trkpt lon="2.4636602401733398" lat="49.0880088806152344">
        <ele>142.0</ele>
        <time>2016-05-08T09:32:07.000Z</time>
      </trkpt>
      <trkpt lon="2.4636602401733398" lat="49.0880088806152344">
        <ele>142.0</ele>
        <time>2016-05-08T09:32:09.000Z</time>
      </trkpt>
      <trkpt lon="2.4636602401733398" lat="49.0880088806152344">
        <ele>142.0</ele>
        <time>2016-05-08T09:32:11.000Z</time>
      </trkpt>
      <trkpt lon="2.4636602401733398" lat="49.0880088806152344">
        <ele>142.0</ele>
        <time>2016-05-08T09:32:13.000Z</time>
      </trkpt>
      <trkpt lon="2.4637937545776367" lat="49.0875701904296875">
        <ele>148.0</ele>
        <time>2016-05-08T09:32:17.000Z</time>
      </trkpt>
      <trkpt lon="2.4637775421142578" lat="49.0874748229980469">
        <ele>151.0</ele>
        <time>2016-05-08T09:32:19.000Z</time>
      </trkpt>
      <trkpt lon="2.4637775421142578" lat="49.0874748229980469">
        <ele>151.0</ele>
        <time>2016-05-08T09:32:21.000Z</time>
      </trkpt>
      <trkpt lon="2.4637775421142578" lat="49.0874748229980469">
        <ele>151.0</ele>
        <time>2016-05-08T09:32:23.000Z</time>
      </trkpt>
      <trkpt lon="2.4637775421142578" lat="49.0874748229980469">
        <ele>151.0</ele>
        <time>2016-05-08T09:32:25.000Z</time>
      </trkpt>
      <trkpt lon="2.4637775421142578" lat="49.0874748229980469">
        <ele>151.0</ele>
        <time>2016-05-08T09:32:27.000Z</time>
      </trkpt>
      <trkpt lon="2.4637775421142578" lat="49.0874748229980469">
        <ele>151.0</ele>
        <time>2016-05-08T09:32:29.000Z</time>
      </trkpt>
      <trkpt lon="2.4637775421142578" lat="49.0874748229980469">
        <ele>151.0</ele>
        <time>2016-05-08T09:32:31.000Z</time>
      </trkpt>
      <trkpt lon="2.4637775421142578" lat="49.0874748229980469">
        <ele>151.0</ele>
        <time>2016-05-08T09:32:33.000Z</time>
      </trkpt>
      <trkpt lon="2.4637775421142578" lat="49.0874748229980469">
        <ele>151.0</ele>
        <time>2016-05-08T09:32:35.000Z</time>
      </trkpt>
      <trkpt lon="2.4637775421142578" lat="49.0874748229980469">
        <ele>151.0</ele>
        <time>2016-05-08T09:32:37.000Z</time>
      </trkpt>
      <trkpt lon="2.4637775421142578" lat="49.0874748229980469">
        <ele>151.0</ele>
        <time>2016-05-08T09:32:39.000Z</time>
      </trkpt>
      <trkpt lon="2.4637775421142578" lat="49.0874748229980469">
        <ele>151.0</ele>
        <time>2016-05-08T09:32:41.000Z</time>
      </trkpt>
      <trkpt lon="2.4635481834411621" lat="49.0866470336914062">
        <ele>153.0</ele>
        <time>2016-05-08T09:32:46.000Z</time>
      </trkpt>
      <trkpt lon="2.4634804725646973" lat="49.0864639282226562">
        <ele>152.0</ele>
        <time>2016-05-08T09:32:50.000Z</time>
      </trkpt>
      <trkpt lon="2.4634337425231934" lat="49.0863189697265625">
        <ele>151.0</ele>
        <time>2016-05-08T09:32:54.000Z</time>
      </trkpt>
      <trkpt lon="2.4634046554565430" lat="49.0862274169921875">
        <ele>150.0</ele>
        <time>2016-05-08T09:32:56.000Z</time>
      </trkpt>
      <trkpt lon="2.4633400440216064" lat="49.0860977172851562">
        <ele>154.0</ele>
        <time>2016-05-08T09:33:00.000Z</time>
      </trkpt>
      <trkpt lon="2.4633173942565918" lat="49.0859832763671875">
        <ele>153.0</ele>
        <time>2016-05-08T09:33:02.000Z</time>
      </trkpt>
      <trkpt lon="2.4632620811462402" lat="49.0858764648437500">
        <ele>154.0</ele>
        <time>2016-05-08T09:33:04.000Z</time>
      </trkpt>
      <trkpt lon="2.4632010459899902" lat="49.0857658386230469">
        <ele>154.0</ele>
        <time>2016-05-08T09:33:06.000Z</time>
      </trkpt>
      <trkpt lon="2.4631488323211670" lat="49.0856513977050781">
        <ele>151.0</ele>
        <time>2016-05-08T09:33:08.000Z</time>
      </trkpt>
      <trkpt lon="2.4631488323211670" lat="49.0856513977050781">
        <ele>151.0</ele>
        <time>2016-05-08T09:33:10.000Z</time>
      </trkpt>
      <trkpt lon="2.4631488323211670" lat="49.0856513977050781">
        <ele>151.0</ele>
        <time>2016-05-08T09:33:12.000Z</time>
      </trkpt>
      <trkpt lon="2.4631488323211670" lat="49.0856513977050781">
        <ele>151.0</ele>
        <time>2016-05-08T09:33:14.000Z</time>
      </trkpt>
      <trkpt lon="2.4627425670623779" lat="49.0851631164550781">
        <ele>143.0</ele>
        <time>2016-05-08T09:33:18.000Z</time>
      </trkpt>
      <trkpt lon="2.4627425670623779" lat="49.0851631164550781">
        <ele>143.0</ele>
        <time>2016-05-08T09:33:22.000Z</time>
      </trkpt>
      <trkpt lon="2.4627425670623779" lat="49.0851631164550781">
        <ele>143.0</ele>
        <time>2016-05-08T09:33:24.000Z</time>
      </trkpt>
      <trkpt lon="2.4627425670623779" lat="49.0851631164550781">
        <ele>143.0</ele>
        <time>2016-05-08T09:33:26.000Z</time>
      </trkpt>
      <trkpt lon="2.4627425670623779" lat="49.0851631164550781">
        <ele>143.0</ele>
        <time>2016-05-08T09:33:28.000Z</time>
      </trkpt>
      <trkpt lon="2.4625918865203857" lat="49.0848884582519531">
        <ele>152.0</ele>
        <time>2016-05-08T09:33:34.000Z</time>
      </trkpt>
      <trkpt lon="2.4624848365783691" lat="49.0847129821777344">
        <ele>154.0</ele>
        <time>2016-05-08T09:33:36.000Z</time>
      </trkpt>
      <trkpt lon="2.4624185562133789" lat="49.0845947265625000">
        <ele>155.0</ele>
        <time>2016-05-08T09:33:38.000Z</time>
      </trkpt>
      <trkpt lon="2.4623701572418213" lat="49.0844993591308594">
        <ele>157.0</ele>
        <time>2016-05-08T09:33:40.000Z</time>
      </trkpt>
      <trkpt lon="2.4623193740844727" lat="49.0844116210937500">
        <ele>156.0</ele>
        <time>2016-05-08T09:33:42.000Z</time>
      </trkpt>
      <trkpt lon="2.4622037410736084" lat="49.0842552185058594">
        <ele>159.0</ele>
        <time>2016-05-08T09:33:44.000Z</time>
      </trkpt>
      <trkpt lon="2.4621534347534180" lat="49.0841674804687500">
        <ele>160.0</ele>
        <time>2016-05-08T09:33:46.000Z</time>
      </trkpt>
      <trkpt lon="2.4620733261108398" lat="49.0840110778808594">
        <ele>162.0</ele>
        <time>2016-05-08T09:33:50.000Z</time>
      </trkpt>
      <trkpt lon="2.4620568752288818" lat="49.0839042663574219">
        <ele>161.0</ele>
        <time>2016-05-08T09:33:52.000Z</time>
      </trkpt>
      <trkpt lon="2.4620568752288818" lat="49.0839042663574219">
        <ele>161.0</ele>
        <time>2016-05-08T09:33:54.000Z</time>
      </trkpt>
      <trkpt lon="2.4619622230529785" lat="49.0837020874023438">
        <ele>160.0</ele>
        <time>2016-05-08T09:33:56.000Z</time>
      </trkpt>
      <trkpt lon="2.4619622230529785" lat="49.0837020874023438">
        <ele>160.0</ele>
        <time>2016-05-08T09:34:01.000Z</time>
      </trkpt>
      <trkpt lon="2.4619622230529785" lat="49.0837020874023438">
        <ele>160.0</ele>
        <time>2016-05-08T09:34:08.000Z</time>
      </trkpt>
      <trkpt lon="2.4618198871612549" lat="49.0834274291992188">
        <ele>161.0</ele>
        <time>2016-05-08T09:34:10.000Z</time>
      </trkpt>
      <trkpt lon="2.4618198871612549" lat="49.0834274291992188">
        <ele>161.0</ele>
        <time>2016-05-08T09:34:12.000Z</time>
      </trkpt>
      <trkpt lon="2.4617598056793213" lat="49.0832939147949219">
        <ele>159.0</ele>
        <time>2016-05-08T09:34:14.000Z</time>
      </trkpt>
      <trkpt lon="2.4617080688476562" lat="49.0831909179687500">
        <ele>160.0</ele>
        <time>2016-05-08T09:34:16.000Z</time>
      </trkpt>
      <trkpt lon="2.4617080688476562" lat="49.0831909179687500">
        <ele>160.0</ele>
        <time>2016-05-08T09:34:19.000Z</time>
      </trkpt>
      <trkpt lon="2.4617080688476562" lat="49.0831909179687500">
        <ele>160.0</ele>
        <time>2016-05-08T09:34:21.000Z</time>
      </trkpt>
      <trkpt lon="2.4615519046783447" lat="49.0828285217285156">
        <ele>155.0</ele>
        <time>2016-05-08T09:34:28.000Z</time>
      </trkpt>
      <trkpt lon="2.4615144729614258" lat="49.0826835632324219">
        <ele>148.0</ele>
        <time>2016-05-08T09:34:32.000Z</time>
      </trkpt>
      <trkpt lon="2.4614329338073730" lat="49.0825996398925781">
        <ele>151.0</ele>
        <time>2016-05-08T09:34:35.000Z</time>
      </trkpt>
      <trkpt lon="2.4613130092620850" lat="49.0825271606445312">
        <ele>149.0</ele>
        <time>2016-05-08T09:34:39.000Z</time>
      </trkpt>
      <trkpt lon="2.4612274169921875" lat="49.0824432373046875">
        <ele>144.0</ele>
        <time>2016-05-08T09:34:41.000Z</time>
      </trkpt>
      <trkpt lon="2.4612274169921875" lat="49.0824432373046875">
        <ele>144.0</ele>
        <time>2016-05-08T09:34:44.000Z</time>
      </trkpt>
      <trkpt lon="2.4612274169921875" lat="49.0824432373046875">
        <ele>144.0</ele>
        <time>2016-05-08T09:34:46.000Z</time>
      </trkpt>
      <trkpt lon="2.4612274169921875" lat="49.0824432373046875">
        <ele>144.0</ele>
        <time>2016-05-08T09:34:48.000Z</time>
      </trkpt>
      <trkpt lon="2.4612274169921875" lat="49.0824432373046875">
        <ele>144.0</ele>
        <time>2016-05-08T09:34:54.000Z</time>
      </trkpt>
      <trkpt lon="2.4612274169921875" lat="49.0824432373046875">
        <ele>144.0</ele>
        <time>2016-05-08T09:34:56.000Z</time>
      </trkpt>
      <trkpt lon="2.4612274169921875" lat="49.0824432373046875">
        <ele>144.0</ele>
        <time>2016-05-08T09:34:58.000Z</time>
      </trkpt>
      <trkpt lon="2.4612274169921875" lat="49.0824432373046875">
        <ele>144.0</ele>
        <time>2016-05-08T09:35:00.000Z</time>
      </trkpt>
      <trkpt lon="2.4608314037322998" lat="49.0820732116699219">
        <ele>154.0</ele>
        <time>2016-05-08T09:35:02.000Z</time>
      </trkpt>
      <trkpt lon="2.4608314037322998" lat="49.0820732116699219">
        <ele>154.0</ele>
        <time>2016-05-08T09:35:04.000Z</time>
      </trkpt>
      <trkpt lon="2.4608314037322998" lat="49.0820732116699219">
        <ele>154.0</ele>
        <time>2016-05-08T09:35:06.000Z</time>
      </trkpt>
      <trkpt lon="2.4604837894439697" lat="49.0819740295410156">
        <ele>160.0</ele>
        <time>2016-05-08T09:35:16.000Z</time>
      </trkpt>
      <trkpt lon="2.4604837894439697" lat="49.0819740295410156">
        <ele>160.0</ele>
        <time>2016-05-08T09:35:22.000Z</time>
      </trkpt>
      <trkpt lon="2.4604837894439697" lat="49.0819740295410156">
        <ele>160.0</ele>
        <time>2016-05-08T09:35:24.000Z</time>
      </trkpt>
      <trkpt lon="2.4604837894439697" lat="49.0819740295410156">
        <ele>160.0</ele>
        <time>2016-05-08T09:35:26.000Z</time>
      </trkpt>
      <trkpt lon="2.4603853225708008" lat="49.0819015502929688">
        <ele>160.0</ele>
        <time>2016-05-08T09:35:28.000Z</time>
      </trkpt>
      <trkpt lon="2.4603199958801270" lat="49.0818519592285156">
        <ele>161.0</ele>
        <time>2016-05-08T09:35:30.000Z</time>
      </trkpt>
      <trkpt lon="2.4603199958801270" lat="49.0818519592285156">
        <ele>161.0</ele>
        <time>2016-05-08T09:35:32.000Z</time>
      </trkpt>
      <trkpt lon="2.4602315425872803" lat="49.0817832946777344">
        <ele>164.0</ele>
        <time>2016-05-08T09:35:36.000Z</time>
      </trkpt>
      <trkpt lon="2.4601609706878662" lat="49.0817184448242188">
        <ele>163.0</ele>
        <time>2016-05-08T09:35:38.000Z</time>
      </trkpt>
      <trkpt lon="2.4600968360900879" lat="49.0816574096679688">
        <ele>164.0</ele>
        <time>2016-05-08T09:35:40.000Z</time>
      </trkpt>
      <trkpt lon="2.4600436687469482" lat="49.0816116333007812">
        <ele>167.0</ele>
        <time>2016-05-08T09:35:42.000Z</time>
      </trkpt>
      <trkpt lon="2.4600436687469482" lat="49.0816116333007812">
        <ele>167.0</ele>
        <time>2016-05-08T09:35:44.000Z</time>
      </trkpt>
      <trkpt lon="2.4600436687469482" lat="49.0816116333007812">
        <ele>167.0</ele>
        <time>2016-05-08T09:35:46.000Z</time>
      </trkpt>
      <trkpt lon="2.4599628448486328" lat="49.0815505981445312">
        <ele>167.0</ele>
        <time>2016-05-08T09:35:50.000Z</time>
      </trkpt>
      <trkpt lon="2.4599072933197021" lat="49.0815048217773438">
        <ele>167.0</ele>
        <time>2016-05-08T09:35:52.000Z</time>
      </trkpt>
      <trkpt lon="2.4598698616027832" lat="49.0814666748046875">
        <ele>167.0</ele>
        <time>2016-05-08T09:35:54.000Z</time>
      </trkpt>
      <trkpt lon="2.4598698616027832" lat="49.0814666748046875">
        <ele>167.0</ele>
        <time>2016-05-08T09:35:56.000Z</time>
      </trkpt>
      <trkpt lon="2.4598147869110107" lat="49.0814247131347656">
        <ele>168.0</ele>
        <time>2016-05-08T09:35:58.000Z</time>
      </trkpt>
      <trkpt lon="2.4597737789154053" lat="49.0813636779785156">
        <ele>167.0</ele>
        <time>2016-05-08T09:36:02.000Z</time>
      </trkpt>
      <trkpt lon="2.4597325325012207" lat="49.0813217163085938">
        <ele>167.0</ele>
        <time>2016-05-08T09:36:04.000Z</time>
      </trkpt>
      <trkpt lon="2.4597325325012207" lat="49.0813217163085938">
        <ele>167.0</ele>
        <time>2016-05-08T09:36:06.000Z</time>
      </trkpt>
      <trkpt lon="2.4596738815307617" lat="49.0812835693359375">
        <ele>168.0</ele>
        <time>2016-05-08T09:36:08.000Z</time>
      </trkpt>
      <trkpt lon="2.4596738815307617" lat="49.0812835693359375">
        <ele>168.0</ele>
        <time>2016-05-08T09:36:10.000Z</time>
      </trkpt>
      <trkpt lon="2.4596738815307617" lat="49.0812835693359375">
        <ele>168.0</ele>
        <time>2016-05-08T09:36:12.000Z</time>
      </trkpt>
      <trkpt lon="2.4596738815307617" lat="49.0812835693359375">
        <ele>168.0</ele>
        <time>2016-05-08T09:36:14.000Z</time>
      </trkpt>
      <trkpt lon="2.4596738815307617" lat="49.0812835693359375">
        <ele>168.0</ele>
        <time>2016-05-08T09:36:16.000Z</time>
      </trkpt>
      <trkpt lon="2.4596738815307617" lat="49.0812835693359375">
        <ele>168.0</ele>
        <time>2016-05-08T09:36:18.000Z</time>
      </trkpt>
      <trkpt lon="2.4596738815307617" lat="49.0812835693359375">
        <ele>168.0</ele>
        <time>2016-05-08T09:36:20.000Z</time>
      </trkpt>
      <trkpt lon="2.4595482349395752" lat="49.0811996459960938">
        <ele>171.0</ele>
        <time>2016-05-08T09:36:22.000Z</time>
      </trkpt>
      <trkpt lon="2.4594640731811523" lat="49.0811347961425781">
        <ele>170.0</ele>
        <time>2016-05-08T09:36:24.000Z</time>
      </trkpt>
      <trkpt lon="2.4594068527221680" lat="49.0810928344726562">
        <ele>171.0</ele>
        <time>2016-05-08T09:36:26.000Z</time>
      </trkpt>
      <trkpt lon="2.4593477249145508" lat="49.0810546875000000">
        <ele>171.0</ele>
        <time>2016-05-08T09:36:28.000Z</time>
      </trkpt>
      <trkpt lon="2.4593477249145508" lat="49.0810546875000000">
        <ele>171.0</ele>
        <time>2016-05-08T09:36:30.000Z</time>
      </trkpt>
      <trkpt lon="2.4593477249145508" lat="49.0810546875000000">
        <ele>171.0</ele>
        <time>2016-05-08T09:36:32.000Z</time>
      </trkpt>
      <trkpt lon="2.4592983722686768" lat="49.0809822082519531">
        <ele>177.0</ele>
        <time>2016-05-08T09:36:34.000Z</time>
      </trkpt>
      <trkpt lon="2.4592463970184326" lat="49.0809402465820312">
        <ele>176.0</ele>
        <time>2016-05-08T09:36:36.000Z</time>
      </trkpt>
      <trkpt lon="2.4591836929321289" lat="49.0808906555175781">
        <ele>172.0</ele>
        <time>2016-05-08T09:36:38.000Z</time>
      </trkpt>
      <trkpt lon="2.4591362476348877" lat="49.0808525085449219">
        <ele>173.0</ele>
        <time>2016-05-08T09:36:40.000Z</time>
      </trkpt>
      <trkpt lon="2.4591362476348877" lat="49.0808525085449219">
        <ele>173.0</ele>
        <time>2016-05-08T09:36:42.000Z</time>
      </trkpt>
      <trkpt lon="2.4591362476348877" lat="49.0808525085449219">
        <ele>173.0</ele>
        <time>2016-05-08T09:36:44.000Z</time>
      </trkpt>
      <trkpt lon="2.4591362476348877" lat="49.0808525085449219">
        <ele>173.0</ele>
        <time>2016-05-08T09:36:46.000Z</time>
      </trkpt>
      <trkpt lon="2.4591362476348877" lat="49.0808525085449219">
        <ele>173.0</ele>
        <time>2016-05-08T09:36:50.000Z</time>
      </trkpt>
      <trkpt lon="2.4589457511901855" lat="49.0807266235351562">
        <ele>171.0</ele>
        <time>2016-05-08T09:36:54.000Z</time>
      </trkpt>
      <trkpt lon="2.4589457511901855" lat="49.0807266235351562">
        <ele>171.0</ele>
        <time>2016-05-08T09:36:56.000Z</time>
      </trkpt>
      <trkpt lon="2.4589457511901855" lat="49.0807266235351562">
        <ele>171.0</ele>
        <time>2016-05-08T09:36:58.000Z</time>
      </trkpt>
      <trkpt lon="2.4588115215301514" lat="49.0806159973144531">
        <ele>173.0</ele>
        <time>2016-05-08T09:37:00.000Z</time>
      </trkpt>
      <trkpt lon="2.4587378501892090" lat="49.0805435180664062">
        <ele>174.0</ele>
        <time>2016-05-08T09:37:02.000Z</time>
      </trkpt>
      <trkpt lon="2.4586834907531738" lat="49.0804824829101562">
        <ele>174.0</ele>
        <time>2016-05-08T09:37:04.000Z</time>
      </trkpt>
      <trkpt lon="2.4586379528045654" lat="49.0804176330566406">
        <ele>173.0</ele>
        <time>2016-05-08T09:37:06.000Z</time>
      </trkpt>
      <trkpt lon="2.4586093425750732" lat="49.0803642272949219">
        <ele>175.0</ele>
        <time>2016-05-08T09:37:08.000Z</time>
      </trkpt>
      <trkpt lon="2.4585990905761719" lat="49.0802688598632812">
        <ele>177.0</ele>
        <time>2016-05-08T09:37:10.000Z</time>
      </trkpt>
      <trkpt lon="2.4585990905761719" lat="49.0802688598632812">
        <ele>177.0</ele>
        <time>2016-05-08T09:37:12.000Z</time>
      </trkpt>
      <trkpt lon="2.4585528373718262" lat="49.0801658630371094">
        <ele>179.0</ele>
        <time>2016-05-08T09:37:14.000Z</time>
      </trkpt>
      <trkpt lon="2.4585528373718262" lat="49.0801658630371094">
        <ele>179.0</ele>
        <time>2016-05-08T09:37:18.000Z</time>
      </trkpt>
      <trkpt lon="2.4585528373718262" lat="49.0801658630371094">
        <ele>179.0</ele>
        <time>2016-05-08T09:37:20.000Z</time>
      </trkpt>
      <trkpt lon="2.4585292339324951" lat="49.0799674987792969">
        <ele>182.0</ele>
        <time>2016-05-08T09:37:22.000Z</time>
      </trkpt>
      <trkpt lon="2.4585292339324951" lat="49.0799674987792969">
        <ele>182.0</ele>
        <time>2016-05-08T09:37:26.000Z</time>
      </trkpt>
      <trkpt lon="2.4585292339324951" lat="49.0799674987792969">
        <ele>182.0</ele>
        <time>2016-05-08T09:37:28.000Z</time>
      </trkpt>
      <trkpt lon="2.4585292339324951" lat="49.0799674987792969">
        <ele>182.0</ele>
        <time>2016-05-08T09:37:30.000Z</time>
      </trkpt>
      <trkpt lon="2.4585292339324951" lat="49.0799674987792969">
        <ele>182.0</ele>
        <time>2016-05-08T09:37:32.000Z</time>
      </trkpt>
      <trkpt lon="2.4585292339324951" lat="49.0799674987792969">
        <ele>182.0</ele>
        <time>2016-05-08T09:37:34.000Z</time>
      </trkpt>
      <trkpt lon="2.4585292339324951" lat="49.0799674987792969">
        <ele>182.0</ele>
        <time>2016-05-08T09:37:38.000Z</time>
      </trkpt>
      <trkpt lon="2.4585292339324951" lat="49.0799674987792969">
        <ele>182.0</ele>
        <time>2016-05-08T09:37:40.000Z</time>
      </trkpt>
      <trkpt lon="2.4585292339324951" lat="49.0799674987792969">
        <ele>182.0</ele>
        <time>2016-05-08T09:37:42.000Z</time>
      </trkpt>
      <trkpt lon="2.4582707881927490" lat="49.0796470642089844">
        <ele>178.0</ele>
        <time>2016-05-08T09:37:44.000Z</time>
      </trkpt>
      <trkpt lon="2.4582707881927490" lat="49.0796470642089844">
        <ele>178.0</ele>
        <time>2016-05-08T09:37:46.000Z</time>
      </trkpt>
      <trkpt lon="2.4582707881927490" lat="49.0796470642089844">
        <ele>178.0</ele>
        <time>2016-05-08T09:37:48.000Z</time>
      </trkpt>
      <trkpt lon="2.4582905769348145" lat="49.0794754028320312">
        <ele>176.0</ele>
        <time>2016-05-08T09:40:00.000Z</time>
      </trkpt>
      <trkpt lon="2.4581849575042725" lat="49.0793647766113281">
        <ele>180.0</ele>
        <time>2016-05-08T09:40:05.000Z</time>
      </trkpt>
      <trkpt lon="2.4581849575042725" lat="49.0793647766113281">
        <ele>180.0</ele>
        <time>2016-05-08T09:40:07.000Z</time>
      </trkpt>
      <trkpt lon="2.4580736160278320" lat="49.0792732238769531">
        <ele>182.0</ele>
        <time>2016-05-08T09:40:09.000Z</time>
      </trkpt>
      <trkpt lon="2.4579505920410156" lat="49.0791549682617188">
        <ele>179.0</ele>
        <time>2016-05-08T09:40:12.000Z</time>
      </trkpt>
      <trkpt lon="2.4578495025634766" lat="49.0790443420410156">
        <ele>178.0</ele>
        <time>2016-05-08T09:40:16.000Z</time>
      </trkpt>
      <trkpt lon="2.4578495025634766" lat="49.0790443420410156">
        <ele>178.0</ele>
        <time>2016-05-08T09:40:20.000Z</time>
      </trkpt>
      <trkpt lon="2.4578495025634766" lat="49.0790443420410156">
        <ele>178.0</ele>
        <time>2016-05-08T09:40:22.000Z</time>
      </trkpt>
      <trkpt lon="2.4578495025634766" lat="49.0790443420410156">
        <ele>178.0</ele>
        <time>2016-05-08T09:40:24.000Z</time>
      </trkpt>
      <trkpt lon="2.4578361511230469" lat="49.0787315368652344">
        <ele>180.0</ele>
        <time>2016-05-08T09:40:28.000Z</time>
      </trkpt>
      <trkpt lon="2.4578361511230469" lat="49.0787315368652344">
        <ele>180.0</ele>
        <time>2016-05-08T09:40:32.000Z</time>
      </trkpt>
      <trkpt lon="2.4578361511230469" lat="49.0787315368652344">
        <ele>180.0</ele>
        <time>2016-05-08T09:40:34.000Z</time>
      </trkpt>
      <trkpt lon="2.4578566551208496" lat="49.0784797668457031">
        <ele>179.0</ele>
        <time>2016-05-08T09:40:38.000Z</time>
      </trkpt>
      <trkpt lon="2.4578566551208496" lat="49.0784797668457031">
        <ele>179.0</ele>
        <time>2016-05-08T09:40:40.000Z</time>
      </trkpt>
      <trkpt lon="2.4578566551208496" lat="49.0784797668457031">
        <ele>179.0</ele>
        <time>2016-05-08T09:40:42.000Z</time>
      </trkpt>
      <trkpt lon="2.4578659534454346" lat="49.0783081054687500">
        <ele>179.0</ele>
        <time>2016-05-08T09:40:44.000Z</time>
      </trkpt>
      <trkpt lon="2.4578840732574463" lat="49.0781707763671875">
        <ele>179.0</ele>
        <time>2016-05-08T09:40:48.000Z</time>
      </trkpt>
      <trkpt lon="2.4578635692596436" lat="49.0780143737792969">
        <ele>180.0</ele>
        <time>2016-05-08T09:40:52.000Z</time>
      </trkpt>
      <trkpt lon="2.4578666687011719" lat="49.0778732299804688">
        <ele>179.0</ele>
        <time>2016-05-08T09:40:56.000Z</time>
      </trkpt>
      <trkpt lon="2.4578416347503662" lat="49.0777130126953125">
        <ele>178.0</ele>
        <time>2016-05-08T09:41:00.000Z</time>
      </trkpt>
      <trkpt lon="2.4578447341918945" lat="49.0775642395019531">
        <ele>179.0</ele>
        <time>2016-05-08T09:41:04.000Z</time>
      </trkpt>
      <trkpt lon="2.4578447341918945" lat="49.0775642395019531">
        <ele>179.0</ele>
        <time>2016-05-08T09:41:06.000Z</time>
      </trkpt>
      <trkpt lon="2.4578447341918945" lat="49.0775642395019531">
        <ele>179.0</ele>
        <time>2016-05-08T09:41:08.000Z</time>
      </trkpt>
      <trkpt lon="2.4578316211700439" lat="49.0772514343261719">
        <ele>180.0</ele>
        <time>2016-05-08T09:41:12.000Z</time>
      </trkpt>
      <trkpt lon="2.4578089714050293" lat="49.0771598815917969">
        <ele>180.0</ele>
        <time>2016-05-08T09:41:14.000Z</time>
      </trkpt>
      <trkpt lon="2.4578089714050293" lat="49.0771598815917969">
        <ele>180.0</ele>
        <time>2016-05-08T09:41:16.000Z</time>
      </trkpt>
      <trkpt lon="2.4578123092651367" lat="49.0769996643066406">
        <ele>182.0</ele>
        <time>2016-05-08T09:41:18.000Z</time>
      </trkpt>
      <trkpt lon="2.4577834606170654" lat="49.0768318176269531">
        <ele>179.0</ele>
        <time>2016-05-08T09:41:22.000Z</time>
      </trkpt>
      <trkpt lon="2.4577987194061279" lat="49.0767326354980469">
        <ele>177.0</ele>
        <time>2016-05-08T09:41:24.000Z</time>
      </trkpt>
      <trkpt lon="2.4577517509460449" lat="49.0765609741210938">
        <ele>181.0</ele>
        <time>2016-05-08T09:41:28.000Z</time>
      </trkpt>
      <trkpt lon="2.4577095508575439" lat="49.0764656066894531">
        <ele>178.0</ele>
        <time>2016-05-08T09:41:30.000Z</time>
      </trkpt>
      <trkpt lon="2.4576632976531982" lat="49.0763549804687500">
        <ele>178.0</ele>
        <time>2016-05-08T09:41:32.000Z</time>
      </trkpt>
      <trkpt lon="2.4576306343078613" lat="49.0762672424316406">
        <ele>176.0</ele>
        <time>2016-05-08T09:41:34.000Z</time>
      </trkpt>
      <trkpt lon="2.4575934410095215" lat="49.0761680603027344">
        <ele>176.0</ele>
        <time>2016-05-08T09:41:36.000Z</time>
      </trkpt>
      <trkpt lon="2.4575934410095215" lat="49.0761680603027344">
        <ele>176.0</ele>
        <time>2016-05-08T09:41:38.000Z</time>
      </trkpt>
      <trkpt lon="2.4575934410095215" lat="49.0761680603027344">
        <ele>176.0</ele>
        <time>2016-05-08T09:41:40.000Z</time>
      </trkpt>
      <trkpt lon="2.4574682712554932" lat="49.0758361816406250">
        <ele>180.0</ele>
        <time>2016-05-08T09:41:44.000Z</time>
      </trkpt>
      <trkpt lon="2.4573867321014404" lat="49.0757141113281250">
        <ele>179.0</ele>
        <time>2016-05-08T09:41:46.000Z</time>
      </trkpt>
      <trkpt lon="2.4572899341583252" lat="49.0755882263183594">
        <ele>177.0</ele>
        <time>2016-05-08T09:41:48.000Z</time>
      </trkpt>
      <trkpt lon="2.4571721553802490" lat="49.0754394531250000">
        <ele>174.0</ele>
        <time>2016-05-08T09:41:50.000Z</time>
      </trkpt>
      <trkpt lon="2.4570705890655518" lat="49.0752487182617188">
        <ele>167.0</ele>
        <time>2016-05-08T09:41:52.000Z</time>
      </trkpt>
      <trkpt lon="2.4569694995880127" lat="49.0750846862792969">
        <ele>167.0</ele>
        <time>2016-05-08T09:41:54.000Z</time>
      </trkpt>
      <trkpt lon="2.4568576812744141" lat="49.0749549865722656">
        <ele>167.0</ele>
        <time>2016-05-08T09:41:56.000Z</time>
      </trkpt>
      <trkpt lon="2.4567468166351318" lat="49.0748405456542969">
        <ele>166.0</ele>
        <time>2016-05-08T09:41:58.000Z</time>
      </trkpt>
      <trkpt lon="2.4566676616668701" lat="49.0747337341308594">
        <ele>165.0</ele>
        <time>2016-05-08T09:42:00.000Z</time>
      </trkpt>
      <trkpt lon="2.4565947055816650" lat="49.0746421813964844">
        <ele>163.0</ele>
        <time>2016-05-08T09:42:02.000Z</time>
      </trkpt>
      <trkpt lon="2.4565255641937256" lat="49.0745544433593750">
        <ele>162.0</ele>
        <time>2016-05-08T09:42:04.000Z</time>
      </trkpt>
      <trkpt lon="2.4565255641937256" lat="49.0745544433593750">
        <ele>162.0</ele>
        <time>2016-05-08T09:42:06.000Z</time>
      </trkpt>
      <trkpt lon="2.4565255641937256" lat="49.0745544433593750">
        <ele>162.0</ele>
        <time>2016-05-08T09:42:08.000Z</time>
      </trkpt>
      <trkpt lon="2.4565255641937256" lat="49.0745544433593750">
        <ele>162.0</ele>
        <time>2016-05-08T09:42:11.000Z</time>
      </trkpt>
      <trkpt lon="2.4565255641937256" lat="49.0745544433593750">
        <ele>162.0</ele>
        <time>2016-05-08T09:42:13.000Z</time>
      </trkpt>
      <trkpt lon="2.4565808773040771" lat="49.0743713378906250">
        <ele>168.0</ele>
        <time>2016-05-08T09:42:17.000Z</time>
      </trkpt>
      <trkpt lon="2.4566578865051270" lat="49.0742492675781250">
        <ele>169.0</ele>
        <time>2016-05-08T09:42:19.000Z</time>
      </trkpt>
      <trkpt lon="2.4567489624023438" lat="49.0741539001464844">
        <ele>169.0</ele>
        <time>2016-05-08T09:42:21.000Z</time>
      </trkpt>
      <trkpt lon="2.4568476676940918" lat="49.0740737915039062">
        <ele>167.0</ele>
        <time>2016-05-08T09:42:23.000Z</time>
      </trkpt>
      <trkpt lon="2.4569461345672607" lat="49.0740051269531250">
        <ele>167.0</ele>
        <time>2016-05-08T09:42:25.000Z</time>
      </trkpt>
      <trkpt lon="2.4571504592895508" lat="49.0738639831542969">
        <ele>166.0</ele>
        <time>2016-05-08T09:42:27.000Z</time>
      </trkpt>
      <trkpt lon="2.4573118686676025" lat="49.0737991333007812">
        <ele>167.0</ele>
        <time>2016-05-08T09:42:29.000Z</time>
      </trkpt>
      <trkpt lon="2.4574253559112549" lat="49.0737304687500000">
        <ele>168.0</ele>
        <time>2016-05-08T09:42:31.000Z</time>
      </trkpt>
      <trkpt lon="2.4575431346893311" lat="49.0736732482910156">
        <ele>169.0</ele>
        <time>2016-05-08T09:42:33.000Z</time>
      </trkpt>
      <trkpt lon="2.4576487541198730" lat="49.0736083984375000">
        <ele>169.0</ele>
        <time>2016-05-08T09:42:35.000Z</time>
      </trkpt>
      <trkpt lon="2.4576487541198730" lat="49.0736083984375000">
        <ele>169.0</ele>
        <time>2016-05-08T09:42:37.000Z</time>
      </trkpt>
      <trkpt lon="2.4579834938049316" lat="49.0733909606933594">
        <ele>167.0</ele>
        <time>2016-05-08T09:42:41.000Z</time>
      </trkpt>
      <trkpt lon="2.4580988883972168" lat="49.0733184814453125">
        <ele>165.0</ele>
        <time>2016-05-08T09:42:43.000Z</time>
      </trkpt>
      <trkpt lon="2.4580988883972168" lat="49.0733184814453125">
        <ele>165.0</ele>
        <time>2016-05-08T09:42:45.000Z</time>
      </trkpt>
      <trkpt lon="2.4580988883972168" lat="49.0733184814453125">
        <ele>165.0</ele>
        <time>2016-05-08T09:42:47.000Z</time>
      </trkpt>
      <trkpt lon="2.4580988883972168" lat="49.0733184814453125">
        <ele>165.0</ele>
        <time>2016-05-08T09:42:49.000Z</time>
      </trkpt>
      <trkpt lon="2.4580988883972168" lat="49.0733184814453125">
        <ele>165.0</ele>
        <time>2016-05-08T09:42:51.000Z</time>
      </trkpt>
      <trkpt lon="2.4580988883972168" lat="49.0733184814453125">
        <ele>165.0</ele>
        <time>2016-05-08T09:42:53.000Z</time>
      </trkpt>
      <trkpt lon="2.4580988883972168" lat="49.0733184814453125">
        <ele>165.0</ele>
        <time>2016-05-08T09:42:55.000Z</time>
      </trkpt>
      <trkpt lon="2.4588525295257568" lat="49.0728988647460938">
        <ele>166.0</ele>
        <time>2016-05-08T09:42:59.000Z</time>
      </trkpt>
      <trkpt lon="2.4591298103332520" lat="49.0728492736816406">
        <ele>169.0</ele>
        <time>2016-05-08T09:43:03.000Z</time>
      </trkpt>
      <trkpt lon="2.4592576026916504" lat="49.0728073120117188">
        <ele>169.0</ele>
        <time>2016-05-08T09:43:05.000Z</time>
      </trkpt>
      <trkpt lon="2.4593811035156250" lat="49.0727615356445312">
        <ele>169.0</ele>
        <time>2016-05-08T09:43:07.000Z</time>
      </trkpt>
      <trkpt lon="2.4595127105712891" lat="49.0727272033691406">
        <ele>170.0</ele>
        <time>2016-05-08T09:43:09.000Z</time>
      </trkpt>
      <trkpt lon="2.4596595764160156" lat="49.0726852416992188">
        <ele>171.0</ele>
        <time>2016-05-08T09:43:11.000Z</time>
      </trkpt>
      <trkpt lon="2.4598813056945801" lat="49.0725860595703125">
        <ele>174.0</ele>
        <time>2016-05-08T09:43:15.000Z</time>
      </trkpt>
      <trkpt lon="2.4598813056945801" lat="49.0725860595703125">
        <ele>174.0</ele>
        <time>2016-05-08T09:43:17.000Z</time>
      </trkpt>
      <trkpt lon="2.4598813056945801" lat="49.0725860595703125">
        <ele>174.0</ele>
        <time>2016-05-08T09:43:19.000Z</time>
      </trkpt>
      <trkpt lon="2.4598813056945801" lat="49.0725860595703125">
        <ele>174.0</ele>
        <time>2016-05-08T09:43:21.000Z</time>
      </trkpt>
      <trkpt lon="2.4598813056945801" lat="49.0725860595703125">
        <ele>174.0</ele>
        <time>2016-05-08T09:43:23.000Z</time>
      </trkpt>
      <trkpt lon="2.4598813056945801" lat="49.0725860595703125">
        <ele>174.0</ele>
        <time>2016-05-08T09:43:25.000Z</time>
      </trkpt>
      <trkpt lon="2.4598813056945801" lat="49.0725860595703125">
        <ele>174.0</ele>
        <time>2016-05-08T09:43:31.000Z</time>
      </trkpt>
      <trkpt lon="2.4598813056945801" lat="49.0725860595703125">
        <ele>174.0</ele>
        <time>2016-05-08T09:43:35.000Z</time>
      </trkpt>
      <trkpt lon="2.4598813056945801" lat="49.0725860595703125">
        <ele>174.0</ele>
        <time>2016-05-08T09:43:39.000Z</time>
      </trkpt>
      <trkpt lon="2.4598813056945801" lat="49.0725860595703125">
        <ele>174.0</ele>
        <time>2016-05-08T09:43:41.000Z</time>
      </trkpt>
      <trkpt lon="2.4598813056945801" lat="49.0725860595703125">
        <ele>174.0</ele>
        <time>2016-05-08T09:43:43.000Z</time>
      </trkpt>
      <trkpt lon="2.4598813056945801" lat="49.0725860595703125">
        <ele>174.0</ele>
        <time>2016-05-08T09:43:45.000Z</time>
      </trkpt>
      <trkpt lon="2.4619302749633789" lat="49.0718727111816406">
        <ele>173.0</ele>
        <time>2016-05-08T09:43:53.000Z</time>
      </trkpt>
      <trkpt lon="2.4619302749633789" lat="49.0718727111816406">
        <ele>173.0</ele>
        <time>2016-05-08T09:43:55.000Z</time>
      </trkpt>
      <trkpt lon="2.4619302749633789" lat="49.0718727111816406">
        <ele>173.0</ele>
        <time>2016-05-08T09:43:57.000Z</time>
      </trkpt>
      <trkpt lon="2.4619302749633789" lat="49.0718727111816406">
        <ele>173.0</ele>
        <time>2016-05-08T09:43:59.000Z</time>
      </trkpt>
      <trkpt lon="2.4619302749633789" lat="49.0718727111816406">
        <ele>173.0</ele>
        <time>2016-05-08T09:44:05.000Z</time>
      </trkpt>
      <trkpt lon="2.4619302749633789" lat="49.0718727111816406">
        <ele>173.0</ele>
        <time>2016-05-08T09:44:07.000Z</time>
      </trkpt>
      <trkpt lon="2.4623534679412842" lat="49.0717658996582031">
        <ele>174.0</ele>
        <time>2016-05-08T09:44:09.000Z</time>
      </trkpt>
      <trkpt lon="2.4626300334930420" lat="49.0717010498046875">
        <ele>175.0</ele>
        <time>2016-05-08T09:44:11.000Z</time>
      </trkpt>
      <trkpt lon="2.4628198146820068" lat="49.0716552734375000">
        <ele>175.0</ele>
        <time>2016-05-08T09:44:13.000Z</time>
      </trkpt>
      <trkpt lon="2.4628198146820068" lat="49.0716552734375000">
        <ele>175.0</ele>
        <time>2016-05-08T09:44:15.000Z</time>
      </trkpt>
      <trkpt lon="2.4628198146820068" lat="49.0716552734375000">
        <ele>175.0</ele>
        <time>2016-05-08T09:44:17.000Z</time>
      </trkpt>
      <trkpt lon="2.4628198146820068" lat="49.0716552734375000">
        <ele>175.0</ele>
        <time>2016-05-08T09:44:19.000Z</time>
      </trkpt>
      <trkpt lon="2.4631412029266357" lat="49.0715522766113281">
        <ele>175.0</ele>
        <time>2016-05-08T09:44:23.000Z</time>
      </trkpt>
      <trkpt lon="2.4631412029266357" lat="49.0715522766113281">
        <ele>175.0</ele>
        <time>2016-05-08T09:44:25.000Z</time>
      </trkpt>
      <trkpt lon="2.4631412029266357" lat="49.0715522766113281">
        <ele>175.0</ele>
        <time>2016-05-08T09:44:27.000Z</time>
      </trkpt>
      <trkpt lon="2.4631412029266357" lat="49.0715522766113281">
        <ele>175.0</ele>
        <time>2016-05-08T09:44:29.000Z</time>
      </trkpt>
      <trkpt lon="2.4631412029266357" lat="49.0715522766113281">
        <ele>175.0</ele>
        <time>2016-05-08T09:44:31.000Z</time>
      </trkpt>
      <trkpt lon="2.4635422229766846" lat="49.0714035034179688">
        <ele>180.0</ele>
        <time>2016-05-08T09:44:35.000Z</time>
      </trkpt>
      <trkpt lon="2.4637753963470459" lat="49.0713081359863281">
        <ele>179.0</ele>
        <time>2016-05-08T09:44:37.000Z</time>
      </trkpt>
      <trkpt lon="2.4637753963470459" lat="49.0713081359863281">
        <ele>179.0</ele>
        <time>2016-05-08T09:44:39.000Z</time>
      </trkpt>
      <trkpt lon="2.4637753963470459" lat="49.0713081359863281">
        <ele>179.0</ele>
        <time>2016-05-08T09:44:41.000Z</time>
      </trkpt>
      <trkpt lon="2.4637753963470459" lat="49.0713081359863281">
        <ele>179.0</ele>
        <time>2016-05-08T09:44:43.000Z</time>
      </trkpt>
      <trkpt lon="2.4640753269195557" lat="49.0711746215820312">
        <ele>180.0</ele>
        <time>2016-05-08T09:44:47.000Z</time>
      </trkpt>
      <trkpt lon="2.4642653465270996" lat="49.0710945129394531">
        <ele>180.0</ele>
        <time>2016-05-08T09:44:49.000Z</time>
      </trkpt>
      <trkpt lon="2.4643902778625488" lat="49.0710411071777344">
        <ele>180.0</ele>
        <time>2016-05-08T09:44:51.000Z</time>
      </trkpt>
      <trkpt lon="2.4643902778625488" lat="49.0710411071777344">
        <ele>180.0</ele>
        <time>2016-05-08T09:44:53.000Z</time>
      </trkpt>
      <trkpt lon="2.4643902778625488" lat="49.0710411071777344">
        <ele>180.0</ele>
        <time>2016-05-08T09:44:55.000Z</time>
      </trkpt>
      <trkpt lon="2.4645903110504150" lat="49.0709457397460938">
        <ele>178.0</ele>
        <time>2016-05-08T09:44:59.000Z</time>
      </trkpt>
      <trkpt lon="2.4647250175476074" lat="49.0708885192871094">
        <ele>179.0</ele>
        <time>2016-05-08T09:45:01.000Z</time>
      </trkpt>
      <trkpt lon="2.4648296833038330" lat="49.0708389282226562">
        <ele>177.0</ele>
        <time>2016-05-08T09:45:03.000Z</time>
      </trkpt>
      <trkpt lon="2.4648296833038330" lat="49.0708389282226562">
        <ele>177.0</ele>
        <time>2016-05-08T09:45:05.000Z</time>
      </trkpt>
      <trkpt lon="2.4650063514709473" lat="49.0707664489746094">
        <ele>177.0</ele>
        <time>2016-05-08T09:45:09.000Z</time>
      </trkpt>
      <trkpt lon="2.4651372432708740" lat="49.0707092285156250">
        <ele>179.0</ele>
        <time>2016-05-08T09:45:11.000Z</time>
      </trkpt>
      <trkpt lon="2.4652459621429443" lat="49.0706634521484375">
        <ele>179.0</ele>
        <time>2016-05-08T09:45:13.000Z</time>
      </trkpt>
      <trkpt lon="2.4653360843658447" lat="49.0706214904785156">
        <ele>181.0</ele>
        <time>2016-05-08T09:45:15.000Z</time>
      </trkpt>
      <trkpt lon="2.4654221534729004" lat="49.0705833435058594">
        <ele>182.0</ele>
        <time>2016-05-08T09:45:17.000Z</time>
      </trkpt>
      <trkpt lon="2.4656109809875488" lat="49.0705070495605469">
        <ele>181.0</ele>
        <time>2016-05-08T09:45:19.000Z</time>
      </trkpt>
      <trkpt lon="2.4657890796661377" lat="49.0704345703125000">
        <ele>181.0</ele>
        <time>2016-05-08T09:45:23.000Z</time>
      </trkpt>
      <trkpt lon="2.4660072326660156" lat="49.0703582763671875">
        <ele>182.0</ele>
        <time>2016-05-08T09:45:27.000Z</time>
      </trkpt>
      <trkpt lon="2.4661710262298584" lat="49.0702781677246094">
        <ele>180.0</ele>
        <time>2016-05-08T09:45:31.000Z</time>
      </trkpt>
      <trkpt lon="2.4661710262298584" lat="49.0702781677246094">
        <ele>180.0</ele>
        <time>2016-05-08T09:45:33.000Z</time>
      </trkpt>
      <trkpt lon="2.4661710262298584" lat="49.0702781677246094">
        <ele>180.0</ele>
        <time>2016-05-08T09:45:35.000Z</time>
      </trkpt>
      <trkpt lon="2.4661710262298584" lat="49.0702781677246094">
        <ele>180.0</ele>
        <time>2016-05-08T09:45:37.000Z</time>
      </trkpt>
      <trkpt lon="2.4666595458984375" lat="49.0700683593750000">
        <ele>178.0</ele>
        <time>2016-05-08T09:45:41.000Z</time>
      </trkpt>
      <trkpt lon="2.4668543338775635" lat="49.0699729919433594">
        <ele>177.0</ele>
        <time>2016-05-08T09:45:45.000Z</time>
      </trkpt>
      <trkpt lon="2.4668543338775635" lat="49.0699729919433594">
        <ele>177.0</ele>
        <time>2016-05-08T09:45:47.000Z</time>
      </trkpt>
      <trkpt lon="2.4670708179473877" lat="49.0698890686035156">
        <ele>177.0</ele>
        <time>2016-05-08T09:45:49.000Z</time>
      </trkpt>
      <trkpt lon="2.4670708179473877" lat="49.0698890686035156">
        <ele>177.0</ele>
        <time>2016-05-08T09:45:51.000Z</time>
      </trkpt>
      <trkpt lon="2.4673173427581787" lat="49.0697937011718750">
        <ele>176.0</ele>
        <time>2016-05-08T09:45:53.000Z</time>
      </trkpt>
      <trkpt lon="2.4675617218017578" lat="49.0697059631347656">
        <ele>176.0</ele>
        <time>2016-05-08T09:45:57.000Z</time>
      </trkpt>
      <trkpt lon="2.4676859378814697" lat="49.0696601867675781">
        <ele>174.0</ele>
        <time>2016-05-08T09:45:59.000Z</time>
      </trkpt>
      <trkpt lon="2.4678266048431396" lat="49.0696182250976562">
        <ele>174.0</ele>
        <time>2016-05-08T09:46:01.000Z</time>
      </trkpt>
      <trkpt lon="2.4679863452911377" lat="49.0695724487304688">
        <ele>174.0</ele>
        <time>2016-05-08T09:46:03.000Z</time>
      </trkpt>
      <trkpt lon="2.4681289196014404" lat="49.0695190429687500">
        <ele>173.0</ele>
        <time>2016-05-08T09:46:05.000Z</time>
      </trkpt>
      <trkpt lon="2.4681289196014404" lat="49.0695190429687500">
        <ele>173.0</ele>
        <time>2016-05-08T09:46:07.000Z</time>
      </trkpt>
      <trkpt lon="2.4681289196014404" lat="49.0695190429687500">
        <ele>173.0</ele>
        <time>2016-05-08T09:46:09.000Z</time>
      </trkpt>
      <trkpt lon="2.4681289196014404" lat="49.0695190429687500">
        <ele>173.0</ele>
        <time>2016-05-08T09:46:11.000Z</time>
      </trkpt>
      <trkpt lon="2.4688858985900879" lat="49.0692863464355469">
        <ele>178.0</ele>
        <time>2016-05-08T09:46:17.000Z</time>
      </trkpt>
      <trkpt lon="2.4688858985900879" lat="49.0692863464355469">
        <ele>178.0</ele>
        <time>2016-05-08T09:46:19.000Z</time>
      </trkpt>
      <trkpt lon="2.4691066741943359" lat="49.0692024230957031">
        <ele>177.0</ele>
        <time>2016-05-08T09:46:21.000Z</time>
      </trkpt>
      <trkpt lon="2.4692571163177490" lat="49.0691566467285156">
        <ele>178.0</ele>
        <time>2016-05-08T09:46:23.000Z</time>
      </trkpt>
      <trkpt lon="2.4694094657897949" lat="49.0691146850585938">
        <ele>177.0</ele>
        <time>2016-05-08T09:46:25.000Z</time>
      </trkpt>
      <trkpt lon="2.4695436954498291" lat="49.0690689086914062">
        <ele>179.0</ele>
        <time>2016-05-08T09:46:27.000Z</time>
      </trkpt>
      <trkpt lon="2.4697010517120361" lat="49.0690269470214844">
        <ele>177.0</ele>
        <time>2016-05-08T09:46:29.000Z</time>
      </trkpt>
      <trkpt lon="2.4698481559753418" lat="49.0689811706542969">
        <ele>176.0</ele>
        <time>2016-05-08T09:46:31.000Z</time>
      </trkpt>
      <trkpt lon="2.4699943065643311" lat="49.0689392089843750">
        <ele>177.0</ele>
        <time>2016-05-08T09:46:33.000Z</time>
      </trkpt>
      <trkpt lon="2.4699943065643311" lat="49.0689392089843750">
        <ele>177.0</ele>
        <time>2016-05-08T09:46:35.000Z</time>
      </trkpt>
      <trkpt lon="2.4699943065643311" lat="49.0689392089843750">
        <ele>177.0</ele>
        <time>2016-05-08T09:46:37.000Z</time>
      </trkpt>
      <trkpt lon="2.4699943065643311" lat="49.0689392089843750">
        <ele>177.0</ele>
        <time>2016-05-08T09:46:41.000Z</time>
      </trkpt>
      <trkpt lon="2.4699943065643311" lat="49.0689392089843750">
        <ele>177.0</ele>
        <time>2016-05-08T09:46:43.000Z</time>
      </trkpt>
      <trkpt lon="2.4707164764404297" lat="49.0686912536621094">
        <ele>176.0</ele>
        <time>2016-05-08T09:46:45.000Z</time>
      </trkpt>
      <trkpt lon="2.4708707332611084" lat="49.0686531066894531">
        <ele>175.0</ele>
        <time>2016-05-08T09:46:47.000Z</time>
      </trkpt>
      <trkpt lon="2.4711122512817383" lat="49.0685729980468750">
        <ele>172.0</ele>
        <time>2016-05-08T09:46:51.000Z</time>
      </trkpt>
      <trkpt lon="2.4711122512817383" lat="49.0685729980468750">
        <ele>172.0</ele>
        <time>2016-05-08T09:46:53.000Z</time>
      </trkpt>
      <trkpt lon="2.4711122512817383" lat="49.0685729980468750">
        <ele>172.0</ele>
        <time>2016-05-08T09:46:55.000Z</time>
      </trkpt>
      <trkpt lon="2.4711122512817383" lat="49.0685729980468750">
        <ele>172.0</ele>
        <time>2016-05-08T09:47:01.000Z</time>
      </trkpt>
      <trkpt lon="2.4711122512817383" lat="49.0685729980468750">
        <ele>172.0</ele>
        <time>2016-05-08T09:47:03.000Z</time>
      </trkpt>
      <trkpt lon="2.4711122512817383" lat="49.0685729980468750">
        <ele>172.0</ele>
        <time>2016-05-08T09:47:05.000Z</time>
      </trkpt>
      <trkpt lon="2.4711122512817383" lat="49.0685729980468750">
        <ele>172.0</ele>
        <time>2016-05-08T09:47:07.000Z</time>
      </trkpt>
      <trkpt lon="2.4711122512817383" lat="49.0685729980468750">
        <ele>172.0</ele>
        <time>2016-05-08T09:47:09.000Z</time>
      </trkpt>
      <trkpt lon="2.4716603755950928" lat="49.0684852600097656">
        <ele>171.0</ele>
        <time>2016-05-08T09:47:13.000Z</time>
      </trkpt>
      <trkpt lon="2.4719343185424805" lat="49.0684928894042969">
        <ele>171.0</ele>
        <time>2016-05-08T09:47:15.000Z</time>
      </trkpt>
      <trkpt lon="2.4720845222473145" lat="49.0685462951660156">
        <ele>172.0</ele>
        <time>2016-05-08T09:47:17.000Z</time>
      </trkpt>
      <trkpt lon="2.4721736907958984" lat="49.0686187744140625">
        <ele>173.0</ele>
        <time>2016-05-08T09:47:19.000Z</time>
      </trkpt>
      <trkpt lon="2.4722113609313965" lat="49.0687179565429688">
        <ele>173.0</ele>
        <time>2016-05-08T09:47:21.000Z</time>
      </trkpt>
      <trkpt lon="2.4722669124603271" lat="49.0689315795898438">
        <ele>172.0</ele>
        <time>2016-05-08T09:47:23.000Z</time>
      </trkpt>
      <trkpt lon="2.4722669124603271" lat="49.0689315795898438">
        <ele>172.0</ele>
        <time>2016-05-08T09:47:25.000Z</time>
      </trkpt>
      <trkpt lon="2.4722669124603271" lat="49.0689315795898438">
        <ele>172.0</ele>
        <time>2016-05-08T09:47:27.000Z</time>
      </trkpt>
      <trkpt lon="2.4722669124603271" lat="49.0689315795898438">
        <ele>172.0</ele>
        <time>2016-05-08T09:47:29.000Z</time>
      </trkpt>
      <trkpt lon="2.4722669124603271" lat="49.0689315795898438">
        <ele>172.0</ele>
        <time>2016-05-08T09:47:31.000Z</time>
      </trkpt>
      <trkpt lon="2.4722669124603271" lat="49.0689315795898438">
        <ele>172.0</ele>
        <time>2016-05-08T09:47:33.000Z</time>
      </trkpt>
      <trkpt lon="2.4723522663116455" lat="49.0695953369140625">
        <ele>176.0</ele>
        <time>2016-05-08T09:47:37.000Z</time>
      </trkpt>
      <trkpt lon="2.4723517894744873" lat="49.0696868896484375">
        <ele>177.0</ele>
        <time>2016-05-08T09:47:39.000Z</time>
      </trkpt>
      <trkpt lon="2.4723727703094482" lat="49.0697822570800781">
        <ele>178.0</ele>
        <time>2016-05-08T09:47:41.000Z</time>
      </trkpt>
      <trkpt lon="2.4723758697509766" lat="49.0699043273925781">
        <ele>177.0</ele>
        <time>2016-05-08T09:47:43.000Z</time>
      </trkpt>
      <trkpt lon="2.4724009037017822" lat="49.0700111389160156">
        <ele>178.0</ele>
        <time>2016-05-08T09:47:45.000Z</time>
      </trkpt>
      <trkpt lon="2.4724154472351074" lat="49.0701179504394531">
        <ele>179.0</ele>
        <time>2016-05-08T09:47:47.000Z</time>
      </trkpt>
      <trkpt lon="2.4724154472351074" lat="49.0701179504394531">
        <ele>179.0</ele>
        <time>2016-05-08T09:47:49.000Z</time>
      </trkpt>
      <trkpt lon="2.4724154472351074" lat="49.0701179504394531">
        <ele>179.0</ele>
        <time>2016-05-08T09:47:51.000Z</time>
      </trkpt>
      <trkpt lon="2.4724018573760986" lat="49.0706214904785156">
        <ele>175.0</ele>
        <time>2016-05-08T09:47:57.000Z</time>
      </trkpt>
      <trkpt lon="2.4723823070526123" lat="49.0707397460937500">
        <ele>174.0</ele>
        <time>2016-05-08T09:47:59.000Z</time>
      </trkpt>
      <trkpt lon="2.4723575115203857" lat="49.0708503723144531">
        <ele>174.0</ele>
        <time>2016-05-08T09:48:01.000Z</time>
      </trkpt>
      <trkpt lon="2.4723052978515625" lat="49.0709495544433594">
        <ele>174.0</ele>
        <time>2016-05-08T09:48:03.000Z</time>
      </trkpt>
      <trkpt lon="2.4723052978515625" lat="49.0709495544433594">
        <ele>174.0</ele>
        <time>2016-05-08T09:48:05.000Z</time>
      </trkpt>
      <trkpt lon="2.4723052978515625" lat="49.0709495544433594">
        <ele>174.0</ele>
        <time>2016-05-08T09:48:07.000Z</time>
      </trkpt>
      <trkpt lon="2.4723052978515625" lat="49.0709495544433594">
        <ele>174.0</ele>
        <time>2016-05-08T09:48:09.000Z</time>
      </trkpt>
      <trkpt lon="2.4723052978515625" lat="49.0709495544433594">
        <ele>174.0</ele>
        <time>2016-05-08T09:48:11.000Z</time>
      </trkpt>
      <trkpt lon="2.4729788303375244" lat="49.0709762573242188">
        <ele>175.0</ele>
        <time>2016-05-08T09:48:15.000Z</time>
      </trkpt>
      <trkpt lon="2.4731416702270508" lat="49.0709762573242188">
        <ele>176.0</ele>
        <time>2016-05-08T09:48:17.000Z</time>
      </trkpt>
      <trkpt lon="2.4733378887176514" lat="49.0709877014160156">
        <ele>176.0</ele>
        <time>2016-05-08T09:48:19.000Z</time>
      </trkpt>
      <trkpt lon="2.4735054969787598" lat="49.0710029602050781">
        <ele>177.0</ele>
        <time>2016-05-08T09:48:21.000Z</time>
      </trkpt>
      <trkpt lon="2.4736640453338623" lat="49.0710182189941406">
        <ele>176.0</ele>
        <time>2016-05-08T09:48:23.000Z</time>
      </trkpt>
      <trkpt lon="2.4738337993621826" lat="49.0710258483886719">
        <ele>176.0</ele>
        <time>2016-05-08T09:48:25.000Z</time>
      </trkpt>
      <trkpt lon="2.4740235805511475" lat="49.0710411071777344">
        <ele>175.0</ele>
        <time>2016-05-08T09:48:27.000Z</time>
      </trkpt>
      <trkpt lon="2.4741942882537842" lat="49.0710525512695312">
        <ele>175.0</ele>
        <time>2016-05-08T09:48:29.000Z</time>
      </trkpt>
      <trkpt lon="2.4743449687957764" lat="49.0710754394531250">
        <ele>174.0</ele>
        <time>2016-05-08T09:48:31.000Z</time>
      </trkpt>
      <trkpt lon="2.4745128154754639" lat="49.0710906982421875">
        <ele>174.0</ele>
        <time>2016-05-08T09:48:33.000Z</time>
      </trkpt>
      <trkpt lon="2.4746944904327393" lat="49.0711097717285156">
        <ele>173.0</ele>
        <time>2016-05-08T09:48:35.000Z</time>
      </trkpt>
      <trkpt lon="2.4748740196228027" lat="49.0711326599121094">
        <ele>172.0</ele>
        <time>2016-05-08T09:48:37.000Z</time>
      </trkpt>
      <trkpt lon="2.4750623703002930" lat="49.0711555480957031">
        <ele>173.0</ele>
        <time>2016-05-08T09:48:39.000Z</time>
      </trkpt>
      <trkpt lon="2.4752402305603027" lat="49.0711669921875000">
        <ele>173.0</ele>
        <time>2016-05-08T09:48:41.000Z</time>
      </trkpt>
      <trkpt lon="2.4754061698913574" lat="49.0711822509765625">
        <ele>172.0</ele>
        <time>2016-05-08T09:48:43.000Z</time>
      </trkpt>
      <trkpt lon="2.4755935668945312" lat="49.0712013244628906">
        <ele>172.0</ele>
        <time>2016-05-08T09:48:45.000Z</time>
      </trkpt>
      <trkpt lon="2.4757726192474365" lat="49.0712280273437500">
        <ele>172.0</ele>
        <time>2016-05-08T09:48:47.000Z</time>
      </trkpt>
      <trkpt lon="2.4759397506713867" lat="49.0712547302246094">
        <ele>172.0</ele>
        <time>2016-05-08T09:48:49.000Z</time>
      </trkpt>
      <trkpt lon="2.4761250019073486" lat="49.0712738037109375">
        <ele>174.0</ele>
        <time>2016-05-08T09:48:51.000Z</time>
      </trkpt>
      <trkpt lon="2.4762763977050781" lat="49.0713081359863281">
        <ele>174.0</ele>
        <time>2016-05-08T09:48:53.000Z</time>
      </trkpt>
      <trkpt lon="2.4764208793640137" lat="49.0713119506835938">
        <ele>174.0</ele>
        <time>2016-05-08T09:48:55.000Z</time>
      </trkpt>
      <trkpt lon="2.4764208793640137" lat="49.0713119506835938">
        <ele>174.0</ele>
        <time>2016-05-08T09:48:57.000Z</time>
      </trkpt>
      <trkpt lon="2.4764208793640137" lat="49.0713119506835938">
        <ele>174.0</ele>
        <time>2016-05-08T09:48:59.000Z</time>
      </trkpt>
      <trkpt lon="2.4770743846893311" lat="49.0713386535644531">
        <ele>174.0</ele>
        <time>2016-05-08T09:49:03.000Z</time>
      </trkpt>
      <trkpt lon="2.4772462844848633" lat="49.0713310241699219">
        <ele>176.0</ele>
        <time>2016-05-08T09:49:05.000Z</time>
      </trkpt>
      <trkpt lon="2.4772462844848633" lat="49.0713310241699219">
        <ele>176.0</ele>
        <time>2016-05-08T09:49:07.000Z</time>
      </trkpt>
      <trkpt lon="2.4772462844848633" lat="49.0713310241699219">
        <ele>176.0</ele>
        <time>2016-05-08T09:49:09.000Z</time>
      </trkpt>
      <trkpt lon="2.4772462844848633" lat="49.0713310241699219">
        <ele>176.0</ele>
        <time>2016-05-08T09:49:11.000Z</time>
      </trkpt>
      <trkpt lon="2.4772462844848633" lat="49.0713310241699219">
        <ele>176.0</ele>
        <time>2016-05-08T09:49:15.000Z</time>
      </trkpt>
      <trkpt lon="2.4772462844848633" lat="49.0713310241699219">
        <ele>176.0</ele>
        <time>2016-05-08T09:49:17.000Z</time>
      </trkpt>
      <trkpt lon="2.4772462844848633" lat="49.0713310241699219">
        <ele>176.0</ele>
        <time>2016-05-08T09:49:19.000Z</time>
      </trkpt>
      <trkpt lon="2.4772462844848633" lat="49.0713310241699219">
        <ele>176.0</ele>
        <time>2016-05-08T09:49:21.000Z</time>
      </trkpt>
      <trkpt lon="2.4772462844848633" lat="49.0713310241699219">
        <ele>176.0</ele>
        <time>2016-05-08T09:49:29.000Z</time>
      </trkpt>
      <trkpt lon="2.4772462844848633" lat="49.0713310241699219">
        <ele>176.0</ele>
        <time>2016-05-08T09:49:31.000Z</time>
      </trkpt>
      <trkpt lon="2.4772462844848633" lat="49.0713310241699219">
        <ele>176.0</ele>
        <time>2016-05-08T09:49:33.000Z</time>
      </trkpt>
      <trkpt lon="2.4781658649444580" lat="49.0714797973632812">
        <ele>176.0</ele>
        <time>2016-05-08T09:49:37.000Z</time>
      </trkpt>
      <trkpt lon="2.4786639213562012" lat="49.0715751647949219">
        <ele>176.0</ele>
        <time>2016-05-08T09:49:39.000Z</time>
      </trkpt>
      <trkpt lon="2.4789643287658691" lat="49.0716438293457031">
        <ele>178.0</ele>
        <time>2016-05-08T09:49:41.000Z</time>
      </trkpt>
      <trkpt lon="2.4791715145111084" lat="49.0716934204101562">
        <ele>179.0</ele>
        <time>2016-05-08T09:49:43.000Z</time>
      </trkpt>
      <trkpt lon="2.4791715145111084" lat="49.0716934204101562">
        <ele>179.0</ele>
        <time>2016-05-08T09:49:45.000Z</time>
      </trkpt>
      <trkpt lon="2.4793684482574463" lat="49.0717849731445312">
        <ele>180.0</ele>
        <time>2016-05-08T09:49:47.000Z</time>
      </trkpt>
      <trkpt lon="2.4795086383819580" lat="49.0718650817871094">
        <ele>181.0</ele>
        <time>2016-05-08T09:49:49.000Z</time>
      </trkpt>
      <trkpt lon="2.4796249866485596" lat="49.0719375610351562">
        <ele>181.0</ele>
        <time>2016-05-08T09:49:51.000Z</time>
      </trkpt>
      <trkpt lon="2.4797239303588867" lat="49.0720062255859375">
        <ele>182.0</ele>
        <time>2016-05-08T09:49:53.000Z</time>
      </trkpt>
      <trkpt lon="2.4798142910003662" lat="49.0720710754394531">
        <ele>182.0</ele>
        <time>2016-05-08T09:49:55.000Z</time>
      </trkpt>
      <trkpt lon="2.4798142910003662" lat="49.0720710754394531">
        <ele>182.0</ele>
        <time>2016-05-08T09:49:57.000Z</time>
      </trkpt>
      <trkpt lon="2.4801805019378662" lat="49.0723381042480469">
        <ele>182.0</ele>
        <time>2016-05-08T09:50:01.000Z</time>
      </trkpt>
      <trkpt lon="2.4802479743957520" lat="49.0724258422851562">
        <ele>180.0</ele>
        <time>2016-05-08T09:50:03.000Z</time>
      </trkpt>
      <trkpt lon="2.4802479743957520" lat="49.0724258422851562">
        <ele>180.0</ele>
        <time>2016-05-08T09:50:05.000Z</time>
      </trkpt>
      <trkpt lon="2.4802479743957520" lat="49.0724258422851562">
        <ele>180.0</ele>
        <time>2016-05-08T09:50:07.000Z</time>
      </trkpt>
      <trkpt lon="2.4802479743957520" lat="49.0724258422851562">
        <ele>180.0</ele>
        <time>2016-05-08T09:50:09.000Z</time>
      </trkpt>
      <trkpt lon="2.4802479743957520" lat="49.0724258422851562">
        <ele>180.0</ele>
        <time>2016-05-08T09:50:11.000Z</time>
      </trkpt>
      <trkpt lon="2.4808681011199951" lat="49.0728569030761719">
        <ele>181.0</ele>
        <time>2016-05-08T09:50:17.000Z</time>
      </trkpt>
      <trkpt lon="2.4809632301330566" lat="49.0729484558105469">
        <ele>178.0</ele>
        <time>2016-05-08T09:50:19.000Z</time>
      </trkpt>
      <trkpt lon="2.4810621738433838" lat="49.0730247497558594">
        <ele>176.0</ele>
        <time>2016-05-08T09:50:21.000Z</time>
      </trkpt>
      <trkpt lon="2.4811689853668213" lat="49.0730857849121094">
        <ele>175.0</ele>
        <time>2016-05-08T09:50:23.000Z</time>
      </trkpt>
      <trkpt lon="2.4813554286956787" lat="49.0731887817382812">
        <ele>177.0</ele>
        <time>2016-05-08T09:50:27.000Z</time>
      </trkpt>
      <trkpt lon="2.4813554286956787" lat="49.0731887817382812">
        <ele>177.0</ele>
        <time>2016-05-08T09:50:29.000Z</time>
      </trkpt>
      <trkpt lon="2.4813554286956787" lat="49.0731887817382812">
        <ele>177.0</ele>
        <time>2016-05-08T09:50:31.000Z</time>
      </trkpt>
      <trkpt lon="2.4818150997161865" lat="49.0735015869140625">
        <ele>174.0</ele>
        <time>2016-05-08T09:50:37.000Z</time>
      </trkpt>
      <trkpt lon="2.4820408821105957" lat="49.0736198425292969">
        <ele>174.0</ele>
        <time>2016-05-08T09:50:41.000Z</time>
      </trkpt>
      <trkpt lon="2.4822528362274170" lat="49.0737342834472656">
        <ele>175.0</ele>
        <time>2016-05-08T09:50:45.000Z</time>
      </trkpt>
      <trkpt lon="2.4823620319366455" lat="49.0737953186035156">
        <ele>174.0</ele>
        <time>2016-05-08T09:50:47.000Z</time>
      </trkpt>
      <trkpt lon="2.4823620319366455" lat="49.0737953186035156">
        <ele>174.0</ele>
        <time>2016-05-08T09:50:49.000Z</time>
      </trkpt>
      <trkpt lon="2.4823620319366455" lat="49.0737953186035156">
        <ele>174.0</ele>
        <time>2016-05-08T09:50:51.000Z</time>
      </trkpt>
      <trkpt lon="2.4823620319366455" lat="49.0737953186035156">
        <ele>174.0</ele>
        <time>2016-05-08T09:50:53.000Z</time>
      </trkpt>
      <trkpt lon="2.4823620319366455" lat="49.0737953186035156">
        <ele>174.0</ele>
        <time>2016-05-08T09:50:55.000Z</time>
      </trkpt>
      <trkpt lon="2.4823620319366455" lat="49.0737953186035156">
        <ele>174.0</ele>
        <time>2016-05-08T09:50:57.000Z</time>
      </trkpt>
      <trkpt lon="2.4831485748291016" lat="49.0741462707519531">
        <ele>173.0</ele>
        <time>2016-05-08T09:51:01.000Z</time>
      </trkpt>
      <trkpt lon="2.4831485748291016" lat="49.0741462707519531">
        <ele>173.0</ele>
        <time>2016-05-08T09:51:03.000Z</time>
      </trkpt>
      <trkpt lon="2.4834091663360596" lat="49.0742492675781250">
        <ele>171.0</ele>
        <time>2016-05-08T09:51:05.000Z</time>
      </trkpt>
      <trkpt lon="2.4836106300354004" lat="49.0743293762207031">
        <ele>170.0</ele>
        <time>2016-05-08T09:51:09.000Z</time>
      </trkpt>
      <trkpt lon="2.4836106300354004" lat="49.0743293762207031">
        <ele>170.0</ele>
        <time>2016-05-08T09:51:11.000Z</time>
      </trkpt>
      <trkpt lon="2.4836106300354004" lat="49.0743293762207031">
        <ele>170.0</ele>
        <time>2016-05-08T09:51:13.000Z</time>
      </trkpt>
      <trkpt lon="2.4836106300354004" lat="49.0743293762207031">
        <ele>170.0</ele>
        <time>2016-05-08T09:51:15.000Z</time>
      </trkpt>
      <trkpt lon="2.4836106300354004" lat="49.0743293762207031">
        <ele>170.0</ele>
        <time>2016-05-08T09:51:17.000Z</time>
      </trkpt>
      <trkpt lon="2.4836106300354004" lat="49.0743293762207031">
        <ele>170.0</ele>
        <time>2016-05-08T09:51:19.000Z</time>
      </trkpt>
      <trkpt lon="2.4836106300354004" lat="49.0743293762207031">
        <ele>170.0</ele>
        <time>2016-05-08T09:51:21.000Z</time>
      </trkpt>
      <trkpt lon="2.4836106300354004" lat="49.0743293762207031">
        <ele>170.0</ele>
        <time>2016-05-08T09:51:23.000Z</time>
      </trkpt>
      <trkpt lon="2.4836106300354004" lat="49.0743293762207031">
        <ele>170.0</ele>
        <time>2016-05-08T09:51:27.000Z</time>
      </trkpt>
      <trkpt lon="2.4836106300354004" lat="49.0743293762207031">
        <ele>170.0</ele>
        <time>2016-05-08T09:51:29.000Z</time>
      </trkpt>
      <trkpt lon="2.4842462539672852" lat="49.0744895935058594">
        <ele>172.0</ele>
        <time>2016-05-08T09:51:33.000Z</time>
      </trkpt>
      <trkpt lon="2.4842462539672852" lat="49.0744895935058594">
        <ele>172.0</ele>
        <time>2016-05-08T09:51:35.000Z</time>
      </trkpt>
      <trkpt lon="2.4842462539672852" lat="49.0744895935058594">
        <ele>172.0</ele>
        <time>2016-05-08T09:51:37.000Z</time>
      </trkpt>
      <trkpt lon="2.4842462539672852" lat="49.0744895935058594">
        <ele>172.0</ele>
        <time>2016-05-08T09:51:39.000Z</time>
      </trkpt>
      <trkpt lon="2.4848518371582031" lat="49.0746231079101562">
        <ele>178.0</ele>
        <time>2016-05-08T09:51:45.000Z</time>
      </trkpt>
      <trkpt lon="2.4848518371582031" lat="49.0746231079101562">
        <ele>178.0</ele>
        <time>2016-05-08T09:51:47.000Z</time>
      </trkpt>
      <trkpt lon="2.4848518371582031" lat="49.0746231079101562">
        <ele>178.0</ele>
        <time>2016-05-08T09:51:49.000Z</time>
      </trkpt>
      <trkpt lon="2.4853687286376953" lat="49.0747413635253906">
        <ele>181.0</ele>
        <time>2016-05-08T09:51:53.000Z</time>
      </trkpt>
      <trkpt lon="2.4856693744659424" lat="49.0748176574707031">
        <ele>181.0</ele>
        <time>2016-05-08T09:51:55.000Z</time>
      </trkpt>
      <trkpt lon="2.4858746528625488" lat="49.0748710632324219">
        <ele>182.0</ele>
        <time>2016-05-08T09:51:57.000Z</time>
      </trkpt>
      <trkpt lon="2.4860262870788574" lat="49.0749168395996094">
        <ele>182.0</ele>
        <time>2016-05-08T09:51:59.000Z</time>
      </trkpt>
      <trkpt lon="2.4861586093902588" lat="49.0749702453613281">
        <ele>180.0</ele>
        <time>2016-05-08T09:52:01.000Z</time>
      </trkpt>
      <trkpt lon="2.4863984584808350" lat="49.0750694274902344">
        <ele>178.0</ele>
        <time>2016-05-08T09:52:03.000Z</time>
      </trkpt>
      <trkpt lon="2.4866108894348145" lat="49.0751342773437500">
        <ele>178.0</ele>
        <time>2016-05-08T09:52:07.000Z</time>
      </trkpt>
      <trkpt lon="2.4867410659790039" lat="49.0751724243164062">
        <ele>178.0</ele>
        <time>2016-05-08T09:52:09.000Z</time>
      </trkpt>
      <trkpt lon="2.4869544506072998" lat="49.0752410888671875">
        <ele>177.0</ele>
        <time>2016-05-08T09:52:13.000Z</time>
      </trkpt>
      <trkpt lon="2.4869544506072998" lat="49.0752410888671875">
        <ele>177.0</ele>
        <time>2016-05-08T09:52:15.000Z</time>
      </trkpt>
      <trkpt lon="2.4873149394989014" lat="49.0753479003906250">
        <ele>177.0</ele>
        <time>2016-05-08T09:52:19.000Z</time>
      </trkpt>
      <trkpt lon="2.4875352382659912" lat="49.0754241943359375">
        <ele>177.0</ele>
        <time>2016-05-08T09:52:23.000Z</time>
      </trkpt>
      <trkpt lon="2.4875352382659912" lat="49.0754241943359375">
        <ele>177.0</ele>
        <time>2016-05-08T09:52:25.000Z</time>
      </trkpt>
      <trkpt lon="2.4875352382659912" lat="49.0754241943359375">
        <ele>177.0</ele>
        <time>2016-05-08T09:52:27.000Z</time>
      </trkpt>
      <trkpt lon="2.4875352382659912" lat="49.0754241943359375">
        <ele>177.0</ele>
        <time>2016-05-08T09:52:29.000Z</time>
      </trkpt>
      <trkpt lon="2.4875352382659912" lat="49.0754241943359375">
        <ele>177.0</ele>
        <time>2016-05-08T09:52:31.000Z</time>
      </trkpt>
      <trkpt lon="2.4875352382659912" lat="49.0754241943359375">
        <ele>177.0</ele>
        <time>2016-05-08T09:52:35.000Z</time>
      </trkpt>
      <trkpt lon="2.4883553981781006" lat="49.0756835937500000">
        <ele>181.0</ele>
        <time>2016-05-08T09:52:39.000Z</time>
      </trkpt>
      <trkpt lon="2.4885845184326172" lat="49.0757675170898438">
        <ele>181.0</ele>
        <time>2016-05-08T09:52:43.000Z</time>
      </trkpt>
      <trkpt lon="2.4885845184326172" lat="49.0757675170898438">
        <ele>181.0</ele>
        <time>2016-05-08T09:52:45.000Z</time>
      </trkpt>
      <trkpt lon="2.4888141155242920" lat="49.0758628845214844">
        <ele>179.0</ele>
        <time>2016-05-08T09:52:47.000Z</time>
      </trkpt>
      <trkpt lon="2.4890360832214355" lat="49.0759506225585938">
        <ele>177.0</ele>
        <time>2016-05-08T09:52:51.000Z</time>
      </trkpt>
      <trkpt lon="2.4891469478607178" lat="49.0760078430175781">
        <ele>176.0</ele>
        <time>2016-05-08T09:52:53.000Z</time>
      </trkpt>
      <trkpt lon="2.4891469478607178" lat="49.0760078430175781">
        <ele>176.0</ele>
        <time>2016-05-08T09:52:55.000Z</time>
      </trkpt>
      <trkpt lon="2.4891469478607178" lat="49.0760078430175781">
        <ele>176.0</ele>
        <time>2016-05-08T09:52:57.000Z</time>
      </trkpt>
      <trkpt lon="2.4891469478607178" lat="49.0760078430175781">
        <ele>176.0</ele>
        <time>2016-05-08T09:52:59.000Z</time>
      </trkpt>
      <trkpt lon="2.4891469478607178" lat="49.0760078430175781">
        <ele>176.0</ele>
        <time>2016-05-08T09:53:01.000Z</time>
      </trkpt>
      <trkpt lon="2.4891469478607178" lat="49.0760078430175781">
        <ele>176.0</ele>
        <time>2016-05-08T09:53:03.000Z</time>
      </trkpt>
      <trkpt lon="2.4891469478607178" lat="49.0760078430175781">
        <ele>176.0</ele>
        <time>2016-05-08T09:53:05.000Z</time>
      </trkpt>
      <trkpt lon="2.4891469478607178" lat="49.0760078430175781">
        <ele>176.0</ele>
        <time>2016-05-08T09:53:07.000Z</time>
      </trkpt>
      <trkpt lon="2.4901456832885742" lat="49.0763549804687500">
        <ele>180.0</ele>
        <time>2016-05-08T09:53:15.000Z</time>
      </trkpt>
      <trkpt lon="2.4901456832885742" lat="49.0763549804687500">
        <ele>180.0</ele>
        <time>2016-05-08T09:53:17.000Z</time>
      </trkpt>
      <trkpt lon="2.4901456832885742" lat="49.0763549804687500">
        <ele>180.0</ele>
        <time>2016-05-08T09:53:19.000Z</time>
      </trkpt>
      <trkpt lon="2.4901456832885742" lat="49.0763549804687500">
        <ele>180.0</ele>
        <time>2016-05-08T09:53:21.000Z</time>
      </trkpt>
      <trkpt lon="2.4901456832885742" lat="49.0763549804687500">
        <ele>180.0</ele>
        <time>2016-05-08T09:53:23.000Z</time>
      </trkpt>
      <trkpt lon="2.4901456832885742" lat="49.0763549804687500">
        <ele>180.0</ele>
        <time>2016-05-08T09:53:25.000Z</time>
      </trkpt>
      <trkpt lon="2.4901456832885742" lat="49.0763549804687500">
        <ele>180.0</ele>
        <time>2016-05-08T09:53:27.000Z</time>
      </trkpt>
      <trkpt lon="2.4901456832885742" lat="49.0763549804687500">
        <ele>180.0</ele>
        <time>2016-05-08T09:53:29.000Z</time>
      </trkpt>
      <trkpt lon="2.4904727935791016" lat="49.0764656066894531">
        <ele>185.0</ele>
        <time>2016-05-08T09:53:31.000Z</time>
      </trkpt>
      <trkpt lon="2.4906716346740723" lat="49.0765304565429688">
        <ele>187.0</ele>
        <time>2016-05-08T09:53:33.000Z</time>
      </trkpt>
      <trkpt lon="2.4908237457275391" lat="49.0765800476074219">
        <ele>187.0</ele>
        <time>2016-05-08T09:53:35.000Z</time>
      </trkpt>
      <trkpt lon="2.4909367561340332" lat="49.0766181945800781">
        <ele>187.0</ele>
        <time>2016-05-08T09:53:37.000Z</time>
      </trkpt>
      <trkpt lon="2.4910337924957275" lat="49.0766487121582031">
        <ele>188.0</ele>
        <time>2016-05-08T09:53:39.000Z</time>
      </trkpt>
      <trkpt lon="2.4912168979644775" lat="49.0767021179199219">
        <ele>187.0</ele>
        <time>2016-05-08T09:53:41.000Z</time>
      </trkpt>
      <trkpt lon="2.4913780689239502" lat="49.0767860412597656">
        <ele>183.0</ele>
        <time>2016-05-08T09:53:45.000Z</time>
      </trkpt>
      <trkpt lon="2.4913780689239502" lat="49.0767860412597656">
        <ele>183.0</ele>
        <time>2016-05-08T09:53:47.000Z</time>
      </trkpt>
      <trkpt lon="2.4913780689239502" lat="49.0767860412597656">
        <ele>183.0</ele>
        <time>2016-05-08T09:53:49.000Z</time>
      </trkpt>
      <trkpt lon="2.4913780689239502" lat="49.0767860412597656">
        <ele>183.0</ele>
        <time>2016-05-08T09:53:51.000Z</time>
      </trkpt>
      <trkpt lon="2.4913780689239502" lat="49.0767860412597656">
        <ele>183.0</ele>
        <time>2016-05-08T09:53:53.000Z</time>
      </trkpt>
      <trkpt lon="2.4918961524963379" lat="49.0769615173339844">
        <ele>181.0</ele>
        <time>2016-05-08T09:53:57.000Z</time>
      </trkpt>
      <trkpt lon="2.4920747280120850" lat="49.0770225524902344">
        <ele>182.0</ele>
        <time>2016-05-08T09:54:01.000Z</time>
      </trkpt>
      <trkpt lon="2.4922795295715332" lat="49.0770797729492188">
        <ele>182.0</ele>
        <time>2016-05-08T09:54:05.000Z</time>
      </trkpt>
      <trkpt lon="2.4922795295715332" lat="49.0770797729492188">
        <ele>182.0</ele>
        <time>2016-05-08T09:54:07.000Z</time>
      </trkpt>
      <trkpt lon="2.4924533367156982" lat="49.0771179199218750">
        <ele>185.0</ele>
        <time>2016-05-08T09:54:09.000Z</time>
      </trkpt>
      <trkpt lon="2.4926819801330566" lat="49.0771827697753906">
        <ele>185.0</ele>
        <time>2016-05-08T09:54:13.000Z</time>
      </trkpt>
      <trkpt lon="2.4929566383361816" lat="49.0772590637207031">
        <ele>183.0</ele>
        <time>2016-05-08T09:54:17.000Z</time>
      </trkpt>
      <trkpt lon="2.4930927753448486" lat="49.0772933959960938">
        <ele>183.0</ele>
        <time>2016-05-08T09:54:19.000Z</time>
      </trkpt>
      <trkpt lon="2.4932317733764648" lat="49.0773277282714844">
        <ele>183.0</ele>
        <time>2016-05-08T09:54:21.000Z</time>
      </trkpt>
      <trkpt lon="2.4933693408966064" lat="49.0773620605468750">
        <ele>182.0</ele>
        <time>2016-05-08T09:54:23.000Z</time>
      </trkpt>
      <trkpt lon="2.4935164451599121" lat="49.0773925781250000">
        <ele>183.0</ele>
        <time>2016-05-08T09:54:25.000Z</time>
      </trkpt>
      <trkpt lon="2.4936532974243164" lat="49.0774345397949219">
        <ele>184.0</ele>
        <time>2016-05-08T09:54:27.000Z</time>
      </trkpt>
      <trkpt lon="2.4937851428985596" lat="49.0774803161621094">
        <ele>184.0</ele>
        <time>2016-05-08T09:54:29.000Z</time>
      </trkpt>
      <trkpt lon="2.4939596652984619" lat="49.0775222778320312">
        <ele>183.0</ele>
        <time>2016-05-08T09:54:31.000Z</time>
      </trkpt>
      <trkpt lon="2.4941606521606445" lat="49.0775642395019531">
        <ele>182.0</ele>
        <time>2016-05-08T09:54:33.000Z</time>
      </trkpt>
      <trkpt lon="2.4943056106567383" lat="49.0776138305664062">
        <ele>182.0</ele>
        <time>2016-05-08T09:54:35.000Z</time>
      </trkpt>
      <trkpt lon="2.4944517612457275" lat="49.0776672363281250">
        <ele>181.0</ele>
        <time>2016-05-08T09:54:37.000Z</time>
      </trkpt>
      <trkpt lon="2.4945838451385498" lat="49.0777168273925781">
        <ele>180.0</ele>
        <time>2016-05-08T09:54:39.000Z</time>
      </trkpt>
      <trkpt lon="2.4945838451385498" lat="49.0777168273925781">
        <ele>180.0</ele>
        <time>2016-05-08T09:54:41.000Z</time>
      </trkpt>
      <trkpt lon="2.4945838451385498" lat="49.0777168273925781">
        <ele>180.0</ele>
        <time>2016-05-08T09:54:43.000Z</time>
      </trkpt>
      <trkpt lon="2.4954450130462646" lat="49.0780830383300781">
        <ele>185.0</ele>
        <time>2016-05-08T09:54:54.000Z</time>
      </trkpt>
      <trkpt lon="2.4955794811248779" lat="49.0781402587890625">
        <ele>185.0</ele>
        <time>2016-05-08T09:54:56.000Z</time>
      </trkpt>
      <trkpt lon="2.4957246780395508" lat="49.0782165527343750">
        <ele>186.0</ele>
        <time>2016-05-08T09:54:58.000Z</time>
      </trkpt>
      <trkpt lon="2.4958662986755371" lat="49.0782852172851562">
        <ele>187.0</ele>
        <time>2016-05-08T09:55:00.000Z</time>
      </trkpt>
      <trkpt lon="2.4959993362426758" lat="49.0783653259277344">
        <ele>184.0</ele>
        <time>2016-05-08T09:55:02.000Z</time>
      </trkpt>
      <trkpt lon="2.4961481094360352" lat="49.0784263610839844">
        <ele>185.0</ele>
        <time>2016-05-08T09:55:04.000Z</time>
      </trkpt>
      <trkpt lon="2.4962887763977051" lat="49.0784873962402344">
        <ele>185.0</ele>
        <time>2016-05-08T09:55:06.000Z</time>
      </trkpt>
      <trkpt lon="2.4962887763977051" lat="49.0784873962402344">
        <ele>185.0</ele>
        <time>2016-05-08T09:55:08.000Z</time>
      </trkpt>
      <trkpt lon="2.4962887763977051" lat="49.0784873962402344">
        <ele>185.0</ele>
        <time>2016-05-08T09:55:10.000Z</time>
      </trkpt>
      <trkpt lon="2.4962887763977051" lat="49.0784873962402344">
        <ele>185.0</ele>
        <time>2016-05-08T09:55:12.000Z</time>
      </trkpt>
      <trkpt lon="2.4962887763977051" lat="49.0784873962402344">
        <ele>185.0</ele>
        <time>2016-05-08T09:55:14.000Z</time>
      </trkpt>
      <trkpt lon="2.4962887763977051" lat="49.0784873962402344">
        <ele>185.0</ele>
        <time>2016-05-08T09:55:16.000Z</time>
      </trkpt>
      <trkpt lon="2.4962887763977051" lat="49.0784873962402344">
        <ele>185.0</ele>
        <time>2016-05-08T09:55:18.000Z</time>
      </trkpt>
      <trkpt lon="2.4962887763977051" lat="49.0784873962402344">
        <ele>185.0</ele>
        <time>2016-05-08T09:55:20.000Z</time>
      </trkpt>
      <trkpt lon="2.4962887763977051" lat="49.0784873962402344">
        <ele>185.0</ele>
        <time>2016-05-08T09:55:22.000Z</time>
      </trkpt>
      <trkpt lon="2.4969923496246338" lat="49.0791931152343750">
        <ele>184.0</ele>
        <time>2016-05-08T09:55:26.000Z</time>
      </trkpt>
      <trkpt lon="2.4970240592956543" lat="49.0792884826660156">
        <ele>183.0</ele>
        <time>2016-05-08T09:55:28.000Z</time>
      </trkpt>
      <trkpt lon="2.4970901012420654" lat="49.0794525146484375">
        <ele>184.0</ele>
        <time>2016-05-08T09:55:32.000Z</time>
      </trkpt>
      <trkpt lon="2.4970984458923340" lat="49.0795440673828125">
        <ele>184.0</ele>
        <time>2016-05-08T09:55:34.000Z</time>
      </trkpt>
      <trkpt lon="2.4970924854278564" lat="49.0796432495117188">
        <ele>182.0</ele>
        <time>2016-05-08T09:55:36.000Z</time>
      </trkpt>
      <trkpt lon="2.4970922470092773" lat="49.0797462463378906">
        <ele>182.0</ele>
        <time>2016-05-08T09:55:38.000Z</time>
      </trkpt>
      <trkpt lon="2.4971179962158203" lat="49.0798454284667969">
        <ele>180.0</ele>
        <time>2016-05-08T09:55:40.000Z</time>
      </trkpt>
      <trkpt lon="2.4971218109130859" lat="49.0799446105957031">
        <ele>180.0</ele>
        <time>2016-05-08T09:55:42.000Z</time>
      </trkpt>
      <trkpt lon="2.4971218109130859" lat="49.0799446105957031">
        <ele>180.0</ele>
        <time>2016-05-08T09:55:44.000Z</time>
      </trkpt>
      <trkpt lon="2.4971218109130859" lat="49.0799446105957031">
        <ele>180.0</ele>
        <time>2016-05-08T09:55:52.000Z</time>
      </trkpt>
      <trkpt lon="2.4971218109130859" lat="49.0799446105957031">
        <ele>180.0</ele>
        <time>2016-05-08T09:55:54.000Z</time>
      </trkpt>
      <trkpt lon="2.4970934391021729" lat="49.0803070068359375">
        <ele>178.0</ele>
        <time>2016-05-08T09:55:58.000Z</time>
      </trkpt>
      <trkpt lon="2.4970607757568359" lat="49.0805473327636719">
        <ele>174.0</ele>
        <time>2016-05-08T09:56:00.000Z</time>
      </trkpt>
      <trkpt lon="2.4969944953918457" lat="49.0807228088378906">
        <ele>171.0</ele>
        <time>2016-05-08T09:56:02.000Z</time>
      </trkpt>
      <trkpt lon="2.4969232082366943" lat="49.0808715820312500">
        <ele>171.0</ele>
        <time>2016-05-08T09:56:04.000Z</time>
      </trkpt>
      <trkpt lon="2.4968457221984863" lat="49.0810050964355469">
        <ele>172.0</ele>
        <time>2016-05-08T09:56:06.000Z</time>
      </trkpt>
      <trkpt lon="2.4966716766357422" lat="49.0812759399414062">
        <ele>172.0</ele>
        <time>2016-05-08T09:56:08.000Z</time>
      </trkpt>
      <trkpt lon="2.4965724945068359" lat="49.0814170837402344">
        <ele>173.0</ele>
        <time>2016-05-08T09:56:10.000Z</time>
      </trkpt>
      <trkpt lon="2.4964427947998047" lat="49.0815696716308594">
        <ele>172.0</ele>
        <time>2016-05-08T09:56:12.000Z</time>
      </trkpt>
      <trkpt lon="2.4963343143463135" lat="49.0817375183105469">
        <ele>173.0</ele>
        <time>2016-05-08T09:56:14.000Z</time>
      </trkpt>
      <trkpt lon="2.4961986541748047" lat="49.0819282531738281">
        <ele>171.0</ele>
        <time>2016-05-08T09:56:16.000Z</time>
      </trkpt>
      <trkpt lon="2.4960618019104004" lat="49.0821342468261719">
        <ele>168.0</ele>
        <time>2016-05-08T09:56:18.000Z</time>
      </trkpt>
      <trkpt lon="2.4960420131683350" lat="49.0823287963867188">
        <ele>167.0</ele>
        <time>2016-05-08T09:56:20.000Z</time>
      </trkpt>
      <trkpt lon="2.4960894584655762" lat="49.0825271606445312">
        <ele>169.0</ele>
        <time>2016-05-08T09:56:22.000Z</time>
      </trkpt>
      <trkpt lon="2.4961445331573486" lat="49.0827217102050781">
        <ele>169.0</ele>
        <time>2016-05-08T09:56:24.000Z</time>
      </trkpt>
      <trkpt lon="2.4962005615234375" lat="49.0829086303710938">
        <ele>168.0</ele>
        <time>2016-05-08T09:56:26.000Z</time>
      </trkpt>
      <trkpt lon="2.4962620735168457" lat="49.0831108093261719">
        <ele>168.0</ele>
        <time>2016-05-08T09:56:28.000Z</time>
      </trkpt>
      <trkpt lon="2.4963071346282959" lat="49.0833282470703125">
        <ele>168.0</ele>
        <time>2016-05-08T09:56:30.000Z</time>
      </trkpt>
      <trkpt lon="2.4963560104370117" lat="49.0835609436035156">
        <ele>165.0</ele>
        <time>2016-05-08T09:56:32.000Z</time>
      </trkpt>
      <trkpt lon="2.4963757991790771" lat="49.0837860107421875">
        <ele>163.0</ele>
        <time>2016-05-08T09:56:34.000Z</time>
      </trkpt>
      <trkpt lon="2.4963836669921875" lat="49.0840110778808594">
        <ele>163.0</ele>
        <time>2016-05-08T09:56:36.000Z</time>
      </trkpt>
      <trkpt lon="2.4964132308959961" lat="49.0842590332031250">
        <ele>160.0</ele>
        <time>2016-05-08T09:56:38.000Z</time>
      </trkpt>
      <trkpt lon="2.4964411258697510" lat="49.0844573974609375">
        <ele>159.0</ele>
        <time>2016-05-08T09:56:40.000Z</time>
      </trkpt>
      <trkpt lon="2.4964981079101562" lat="49.0846633911132812">
        <ele>155.0</ele>
        <time>2016-05-08T09:56:42.000Z</time>
      </trkpt>
      <trkpt lon="2.4965269565582275" lat="49.0848350524902344">
        <ele>153.0</ele>
        <time>2016-05-08T09:56:44.000Z</time>
      </trkpt>
      <trkpt lon="2.4965560436248779" lat="49.0850028991699219">
        <ele>152.0</ele>
        <time>2016-05-08T09:56:46.000Z</time>
      </trkpt>
      <trkpt lon="2.4965867996215820" lat="49.0851593017578125">
        <ele>151.0</ele>
        <time>2016-05-08T09:56:48.000Z</time>
      </trkpt>
      <trkpt lon="2.4965994358062744" lat="49.0853233337402344">
        <ele>150.0</ele>
        <time>2016-05-08T09:56:50.000Z</time>
      </trkpt>
      <trkpt lon="2.4966197013854980" lat="49.0854682922363281">
        <ele>150.0</ele>
        <time>2016-05-08T09:56:52.000Z</time>
      </trkpt>
      <trkpt lon="2.4966518878936768" lat="49.0856361389160156">
        <ele>148.0</ele>
        <time>2016-05-08T09:56:54.000Z</time>
      </trkpt>
      <trkpt lon="2.4966783523559570" lat="49.0857734680175781">
        <ele>148.0</ele>
        <time>2016-05-08T09:56:56.000Z</time>
      </trkpt>
      <trkpt lon="2.4966790676116943" lat="49.0859298706054688">
        <ele>148.0</ele>
        <time>2016-05-08T09:56:58.000Z</time>
      </trkpt>
      <trkpt lon="2.4966826438903809" lat="49.0860786437988281">
        <ele>147.0</ele>
        <time>2016-05-08T09:57:00.000Z</time>
      </trkpt>
      <trkpt lon="2.4967079162597656" lat="49.0862388610839844">
        <ele>145.0</ele>
        <time>2016-05-08T09:57:02.000Z</time>
      </trkpt>
      <trkpt lon="2.4967308044433594" lat="49.0863838195800781">
        <ele>145.0</ele>
        <time>2016-05-08T09:57:04.000Z</time>
      </trkpt>
      <trkpt lon="2.4967441558837891" lat="49.0865325927734375">
        <ele>146.0</ele>
        <time>2016-05-08T09:57:06.000Z</time>
      </trkpt>
      <trkpt lon="2.4967505931854248" lat="49.0866851806640625">
        <ele>145.0</ele>
        <time>2016-05-08T09:57:08.000Z</time>
      </trkpt>
      <trkpt lon="2.4967494010925293" lat="49.0868034362792969">
        <ele>146.0</ele>
        <time>2016-05-08T09:57:10.000Z</time>
      </trkpt>
      <trkpt lon="2.4968328475952148" lat="49.0869178771972656">
        <ele>146.0</ele>
        <time>2016-05-08T09:57:12.000Z</time>
      </trkpt>
      <trkpt lon="2.4969789981842041" lat="49.0869483947753906">
        <ele>147.0</ele>
        <time>2016-05-08T09:57:14.000Z</time>
      </trkpt>
      <trkpt lon="2.4971306324005127" lat="49.0869560241699219">
        <ele>150.0</ele>
        <time>2016-05-08T09:57:16.000Z</time>
      </trkpt>
      <trkpt lon="2.4971306324005127" lat="49.0869560241699219">
        <ele>150.0</ele>
        <time>2016-05-08T09:57:18.000Z</time>
      </trkpt>
      <trkpt lon="2.4971306324005127" lat="49.0869560241699219">
        <ele>150.0</ele>
        <time>2016-05-08T09:57:20.000Z</time>
      </trkpt>
      <trkpt lon="2.4971306324005127" lat="49.0869560241699219">
        <ele>150.0</ele>
        <time>2016-05-08T09:57:22.000Z</time>
      </trkpt>
      <trkpt lon="2.4971306324005127" lat="49.0869560241699219">
        <ele>150.0</ele>
        <time>2016-05-08T09:57:24.000Z</time>
      </trkpt>
      <trkpt lon="2.4977445602416992" lat="49.0869865417480469">
        <ele>157.0</ele>
        <time>2016-05-08T09:57:30.000Z</time>
      </trkpt>
      <trkpt lon="2.4977445602416992" lat="49.0869865417480469">
        <ele>157.0</ele>
        <time>2016-05-08T09:57:32.000Z</time>
      </trkpt>
      <trkpt lon="2.4977445602416992" lat="49.0869865417480469">
        <ele>157.0</ele>
        <time>2016-05-08T09:57:34.000Z</time>
      </trkpt>
      <trkpt lon="2.4977445602416992" lat="49.0869865417480469">
        <ele>157.0</ele>
        <time>2016-05-08T09:57:36.000Z</time>
      </trkpt>
      <trkpt lon="2.4977445602416992" lat="49.0869865417480469">
        <ele>157.0</ele>
        <time>2016-05-08T09:57:38.000Z</time>
      </trkpt>
      <trkpt lon="2.4977445602416992" lat="49.0869865417480469">
        <ele>157.0</ele>
        <time>2016-05-08T09:57:40.000Z</time>
      </trkpt>
      <trkpt lon="2.4983627796173096" lat="49.0868835449218750">
        <ele>158.0</ele>
        <time>2016-05-08T09:57:46.000Z</time>
      </trkpt>
      <trkpt lon="2.4983875751495361" lat="49.0867652893066406">
        <ele>157.0</ele>
        <time>2016-05-08T09:57:50.000Z</time>
      </trkpt>
      <trkpt lon="2.4984195232391357" lat="49.0866699218750000">
        <ele>160.0</ele>
        <time>2016-05-08T09:57:54.000Z</time>
      </trkpt>
      <trkpt lon="2.4984195232391357" lat="49.0866699218750000">
        <ele>160.0</ele>
        <time>2016-05-08T09:57:56.000Z</time>
      </trkpt>
      <trkpt lon="2.4984195232391357" lat="49.0866699218750000">
        <ele>160.0</ele>
        <time>2016-05-08T09:57:58.000Z</time>
      </trkpt>
      <trkpt lon="2.4984195232391357" lat="49.0866699218750000">
        <ele>160.0</ele>
        <time>2016-05-08T09:58:04.000Z</time>
      </trkpt>
      <trkpt lon="2.4987025260925293" lat="49.0864448547363281">
        <ele>161.0</ele>
        <time>2016-05-08T09:58:06.000Z</time>
      </trkpt>
      <trkpt lon="2.4987025260925293" lat="49.0864448547363281">
        <ele>161.0</ele>
        <time>2016-05-08T09:58:10.000Z</time>
      </trkpt>
      <trkpt lon="2.4987025260925293" lat="49.0864448547363281">
        <ele>161.0</ele>
        <time>2016-05-08T09:58:12.000Z</time>
      </trkpt>
      <trkpt lon="2.4987025260925293" lat="49.0864448547363281">
        <ele>161.0</ele>
        <time>2016-05-08T09:58:14.000Z</time>
      </trkpt>
      <trkpt lon="2.4987025260925293" lat="49.0864448547363281">
        <ele>161.0</ele>
        <time>2016-05-08T09:58:16.000Z</time>
      </trkpt>
      <trkpt lon="2.4987025260925293" lat="49.0864448547363281">
        <ele>161.0</ele>
        <time>2016-05-08T09:58:18.000Z</time>
      </trkpt>
      <trkpt lon="2.4987025260925293" lat="49.0864448547363281">
        <ele>161.0</ele>
        <time>2016-05-08T09:58:24.000Z</time>
      </trkpt>
      <trkpt lon="2.4987025260925293" lat="49.0864448547363281">
        <ele>161.0</ele>
        <time>2016-05-08T09:58:26.000Z</time>
      </trkpt>
      <trkpt lon="2.4989361763000488" lat="49.0862579345703125">
        <ele>168.0</ele>
        <time>2016-05-08T09:58:32.000Z</time>
      </trkpt>
      <trkpt lon="2.4990789890289307" lat="49.0861473083496094">
        <ele>170.0</ele>
        <time>2016-05-08T09:58:34.000Z</time>
      </trkpt>
      <trkpt lon="2.4991662502288818" lat="49.0860710144042969">
        <ele>171.0</ele>
        <time>2016-05-08T09:58:36.000Z</time>
      </trkpt>
      <trkpt lon="2.4992287158966064" lat="49.0860214233398438">
        <ele>173.0</ele>
        <time>2016-05-08T09:58:38.000Z</time>
      </trkpt>
      <trkpt lon="2.4992673397064209" lat="49.0859756469726562">
        <ele>173.0</ele>
        <time>2016-05-08T09:58:40.000Z</time>
      </trkpt>
      <trkpt lon="2.4993803501129150" lat="49.0859146118164062">
        <ele>174.0</ele>
        <time>2016-05-08T09:58:42.000Z</time>
      </trkpt>
      <trkpt lon="2.4993803501129150" lat="49.0859146118164062">
        <ele>174.0</ele>
        <time>2016-05-08T09:58:48.000Z</time>
      </trkpt>
      <trkpt lon="2.4993803501129150" lat="49.0859146118164062">
        <ele>174.0</ele>
        <time>2016-05-08T09:58:50.000Z</time>
      </trkpt>
      <trkpt lon="2.4993803501129150" lat="49.0859146118164062">
        <ele>174.0</ele>
        <time>2016-05-08T09:58:52.000Z</time>
      </trkpt>
      <trkpt lon="2.4996321201324463" lat="49.0856704711914062">
        <ele>175.0</ele>
        <time>2016-05-08T09:58:56.000Z</time>
      </trkpt>
      <trkpt lon="2.4997706413269043" lat="49.0856170654296875">
        <ele>177.0</ele>
        <time>2016-05-08T09:59:00.000Z</time>
      </trkpt>
      <trkpt lon="2.4997706413269043" lat="49.0856170654296875">
        <ele>177.0</ele>
        <time>2016-05-08T09:59:04.000Z</time>
      </trkpt>
      <trkpt lon="2.4997706413269043" lat="49.0856170654296875">
        <ele>177.0</ele>
        <time>2016-05-08T09:59:06.000Z</time>
      </trkpt>
      <trkpt lon="2.4997706413269043" lat="49.0856170654296875">
        <ele>177.0</ele>
        <time>2016-05-08T09:59:08.000Z</time>
      </trkpt>
      <trkpt lon="2.4999825954437256" lat="49.0853538513183594">
        <ele>177.0</ele>
        <time>2016-05-08T09:59:14.000Z</time>
      </trkpt>
      <trkpt lon="2.5001630783081055" lat="49.0852890014648438">
        <ele>177.0</ele>
        <time>2016-05-08T09:59:18.000Z</time>
      </trkpt>
      <trkpt lon="2.5001630783081055" lat="49.0852890014648438">
        <ele>177.0</ele>
        <time>2016-05-08T09:59:20.000Z</time>
      </trkpt>
      <trkpt lon="2.5001630783081055" lat="49.0852890014648438">
        <ele>177.0</ele>
        <time>2016-05-08T09:59:22.000Z</time>
      </trkpt>
      <trkpt lon="2.5001630783081055" lat="49.0852890014648438">
        <ele>177.0</ele>
        <time>2016-05-08T09:59:24.000Z</time>
      </trkpt>
      <trkpt lon="2.5001630783081055" lat="49.0852890014648438">
        <ele>177.0</ele>
        <time>2016-05-08T09:59:26.000Z</time>
      </trkpt>
      <trkpt lon="2.5001630783081055" lat="49.0852890014648438">
        <ele>177.0</ele>
        <time>2016-05-08T09:59:28.000Z</time>
      </trkpt>
      <trkpt lon="2.5004093647003174" lat="49.0854225158691406">
        <ele>174.0</ele>
        <time>2016-05-08T09:59:32.000Z</time>
      </trkpt>
      <trkpt lon="2.5004544258117676" lat="49.0855445861816406">
        <ele>174.0</ele>
        <time>2016-05-08T09:59:36.000Z</time>
      </trkpt>
      <trkpt lon="2.5005269050598145" lat="49.0856742858886719">
        <ele>174.0</ele>
        <time>2016-05-08T09:59:40.000Z</time>
      </trkpt>
      <trkpt lon="2.5006134510040283" lat="49.0858001708984375">
        <ele>175.0</ele>
        <time>2016-05-08T09:59:44.000Z</time>
      </trkpt>
      <trkpt lon="2.5006587505340576" lat="49.0859909057617188">
        <ele>175.0</ele>
        <time>2016-05-08T09:59:48.000Z</time>
      </trkpt>
      <trkpt lon="2.5006768703460693" lat="49.0860862731933594">
        <ele>175.0</ele>
        <time>2016-05-08T09:59:50.000Z</time>
      </trkpt>
      <trkpt lon="2.5007035732269287" lat="49.0861968994140625">
        <ele>174.0</ele>
        <time>2016-05-08T09:59:52.000Z</time>
      </trkpt>
      <trkpt lon="2.5007321834564209" lat="49.0863037109375000">
        <ele>174.0</ele>
        <time>2016-05-08T09:59:54.000Z</time>
      </trkpt>
      <trkpt lon="2.5007607936859131" lat="49.0863990783691406">
        <ele>176.0</ele>
        <time>2016-05-08T09:59:56.000Z</time>
      </trkpt>
      <trkpt lon="2.5008077621459961" lat="49.0866012573242188">
        <ele>172.0</ele>
        <time>2016-05-08T09:59:59.000Z</time>
      </trkpt>
      <trkpt lon="2.5008077621459961" lat="49.0866012573242188">
        <ele>172.0</ele>
        <time>2016-05-08T10:00:02.000Z</time>
      </trkpt>
      <trkpt lon="2.5008077621459961" lat="49.0866012573242188">
        <ele>172.0</ele>
        <time>2016-05-08T10:00:04.000Z</time>
      </trkpt>
      <trkpt lon="2.5008077621459961" lat="49.0866012573242188">
        <ele>172.0</ele>
        <time>2016-05-08T10:00:06.000Z</time>
      </trkpt>
      <trkpt lon="2.5008077621459961" lat="49.0866012573242188">
        <ele>172.0</ele>
        <time>2016-05-08T10:00:08.000Z</time>
      </trkpt>
      <trkpt lon="2.5008077621459961" lat="49.0866012573242188">
        <ele>172.0</ele>
        <time>2016-05-08T10:00:10.000Z</time>
      </trkpt>
      <trkpt lon="2.5011742115020752" lat="49.0867614746093750">
        <ele>174.0</ele>
        <time>2016-05-08T10:00:17.000Z</time>
      </trkpt>
      <trkpt lon="2.5014510154724121" lat="49.0868453979492188">
        <ele>174.0</ele>
        <time>2016-05-08T10:00:19.000Z</time>
      </trkpt>
      <trkpt lon="2.5016694068908691" lat="49.0869026184082031">
        <ele>172.0</ele>
        <time>2016-05-08T10:00:23.000Z</time>
      </trkpt>
      <trkpt lon="2.5019068717956543" lat="49.0869483947753906">
        <ele>173.0</ele>
        <time>2016-05-08T10:00:26.000Z</time>
      </trkpt>
      <trkpt lon="2.5020976066589355" lat="49.0869941711425781">
        <ele>174.0</ele>
        <time>2016-05-08T10:00:28.000Z</time>
      </trkpt>
      <trkpt lon="2.5024385452270508" lat="49.0870780944824219">
        <ele>174.0</ele>
        <time>2016-05-08T10:00:30.000Z</time>
      </trkpt>
      <trkpt lon="2.5026550292968750" lat="49.0871276855468750">
        <ele>171.0</ele>
        <time>2016-05-08T10:00:32.000Z</time>
      </trkpt>
      <trkpt lon="2.5027930736541748" lat="49.0872077941894531">
        <ele>171.0</ele>
        <time>2016-05-08T10:00:34.000Z</time>
      </trkpt>
      <trkpt lon="2.5030934810638428" lat="49.0873298645019531">
        <ele>168.0</ele>
        <time>2016-05-08T10:00:37.000Z</time>
      </trkpt>
      <trkpt lon="2.5032854080200195" lat="49.0874176025390625">
        <ele>167.0</ele>
        <time>2016-05-08T10:00:39.000Z</time>
      </trkpt>
      <trkpt lon="2.5035719871520996" lat="49.0874748229980469">
        <ele>163.0</ele>
        <time>2016-05-08T10:00:41.000Z</time>
      </trkpt>
      <trkpt lon="2.5037710666656494" lat="49.0875358581542969">
        <ele>164.0</ele>
        <time>2016-05-08T10:00:43.000Z</time>
      </trkpt>
      <trkpt lon="2.5039286613464355" lat="49.0876121520996094">
        <ele>165.0</ele>
        <time>2016-05-08T10:00:45.000Z</time>
      </trkpt>
      <trkpt lon="2.5042943954467773" lat="49.0877227783203125">
        <ele>165.0</ele>
        <time>2016-05-08T10:00:48.000Z</time>
      </trkpt>
      <trkpt lon="2.5045492649078369" lat="49.0877990722656250">
        <ele>164.0</ele>
        <time>2016-05-08T10:00:50.000Z</time>
      </trkpt>
      <trkpt lon="2.5048384666442871" lat="49.0878524780273438">
        <ele>163.0</ele>
        <time>2016-05-08T10:00:52.000Z</time>
      </trkpt>
      <trkpt lon="2.5048384666442871" lat="49.0878524780273438">
        <ele>163.0</ele>
        <time>2016-05-08T10:00:59.000Z</time>
      </trkpt>
      <trkpt lon="2.5050683021545410" lat="49.0877151489257812">
        <ele>159.0</ele>
        <time>2016-05-08T10:01:03.000Z</time>
      </trkpt>
      <trkpt lon="2.5050683021545410" lat="49.0877151489257812">
        <ele>159.0</ele>
        <time>2016-05-08T10:01:07.000Z</time>
      </trkpt>
      <trkpt lon="2.5050683021545410" lat="49.0877151489257812">
        <ele>159.0</ele>
        <time>2016-05-08T10:01:09.000Z</time>
      </trkpt>
      <trkpt lon="2.5050683021545410" lat="49.0877151489257812">
        <ele>159.0</ele>
        <time>2016-05-08T10:01:11.000Z</time>
      </trkpt>
      <trkpt lon="2.5050683021545410" lat="49.0877151489257812">
        <ele>159.0</ele>
        <time>2016-05-08T10:01:13.000Z</time>
      </trkpt>
      <trkpt lon="2.5049490928649902" lat="49.0877571105957031">
        <ele>152.0</ele>
        <time>2016-05-08T10:01:33.000Z</time>
      </trkpt>
      <trkpt lon="2.5049490928649902" lat="49.0877571105957031">
        <ele>152.0</ele>
        <time>2016-05-08T10:01:35.000Z</time>
      </trkpt>
      <trkpt lon="2.5049490928649902" lat="49.0877571105957031">
        <ele>152.0</ele>
        <time>2016-05-08T10:02:01.000Z</time>
      </trkpt>
      <trkpt lon="2.5049490928649902" lat="49.0877571105957031">
        <ele>152.0</ele>
        <time>2016-05-08T10:02:03.000Z</time>
      </trkpt>
    </trkseg>
  </trk>
</gpx>
